# Wetter Temperatur Luftdruck Luftfeuchtigkeit Sichtweite Windgeschwindigkeit Windrichtung Zeit
1 Clouds 30 1010 96 10000 2.6 133 08:23 02.10.2022
2 Clouds 26 1011 92 7895 1.9 99 03:52 02.10.2022
3 Clouds 25 1010 96 10000 1.67 76 00:51 02.10.2022
4 Clouds 25 1010 96 10000 1.67 76 00:32 02.10.2022
5 Clouds 25 1009 96 9108 1.8 75 22:53 01.10.2022
6 Clouds 26 1009 95 10000 1.39 96 20:54 01.10.2022
7 Clouds 26 1010 93 10000 1.59 142 18:53 01.10.2022
8 Clouds 26 1011 93 10000 2.24 131 17:22 01.10.2022
9 Clouds 26 1010 94 10000 2.53 124 14:43 01.10.2022
10 Clouds 26 1009 93 10000 2.44 141 13:35 01.10.2022
11 Rain 27 1008 87 10000 3.72 139 12:33 01.10.2022
12 Clouds 27 1007 81 10000 4.35 137 11:21 01.10.2022
13 Rain 28 1007 81 10000 4.35 137 10:38 01.10.2022
14 Clouds 28 1007 79 10000 4.45 131 10:20 01.10.2022
15 Clouds 29 1008 77 10000 3.74 123 08:59 01.10.2022
16 Clouds 28 1010 92 10000 3.21 93 07:30 01.10.2022
17 Rain 25 1011 91 10000 1.83 85 03:36 01.10.2022
18 Clouds 25 1009 93 10000 1.54 28 01:22 01.10.2022
19 Clouds 25 1008 92 10000 1.42 338 22:56 30.09.2022
20 Clouds 25 1008 92 10000 1.32 354 21:41 30.09.2022
21 Clouds 25 1009 92 10000 1.49 11 20:45 30.09.2022
22 Clouds 25 1009 92 10000 1.61 23 20:19 30.09.2022
23 Clouds 26 1010 91 10000 1.37 58 17:40 30.09.2022
24 Rain 26 1010 90 10000 1.59 58 16:25 30.09.2022
25 Clouds 26 1008 92 10000 1.41 88 13:40 30.09.2022
26 Clouds 26 1007 89 10000 1.83 66 11:59 30.09.2022
27 Rain 26 1007 89 10000 1.83 66 11:31 30.09.2022
28 Rain 31 1007 82 10000 2.4 38 08:37 30.09.2022
29 Clouds 30 1010 92 10000 1.69 46 06:27 30.09.2022
30 Clouds 26 1009 98 5676 2.16 68 02:42 30.09.2022
31 Clouds 25 1008 98 6416 2.37 312 23:35 29.09.2022
32 Clouds 25 1008 96 10000 2.31 309 21:29 29.09.2022
33 Clouds 25 1008 96 10000 2.31 309 20:57 29.09.2022
34 Clouds 25 1009 95 9591 2.21 336 18:45 29.09.2022
35 Clouds 26 1010 95 10000 2.53 340 17:32 29.09.2022
36 Clouds 25 1010 94 10000 2.43 350 16:28 29.09.2022
37 Clouds 25 1010 94 10000 2.43 350 15:36 29.09.2022
38 Clouds 26 1009 94 7970 2.41 2 14:31 29.09.2022
39 Clouds 28 1006 92 8433 3.46 360 10:33 29.09.2022
40 Clouds 28 1007 91 10000 3.2 356 07:22 29.09.2022
41 Clouds 24 1008 93 10000 4.67 5 02:51 29.09.2022
42 Clouds 26 1006 94 10000 4.61 359 23:56 28.09.2022
43 Clouds 26 1006 94 10000 4.61 359 23:56 28.09.2022
44 Clouds 25 1006 95 10000 3.89 347 22:44 28.09.2022
45 Clouds 25 1006 95 8696 3.47 342 21:29 28.09.2022
46 Clouds 26 1007 95 10000 3.76 344 20:24 28.09.2022
47 Clouds 25 1008 95 10000 3.42 329 18:41 28.09.2022
48 Clouds 26 1008 92 10000 3.57 351 15:32 28.09.2022
49 Clouds 26 1006 93 10000 4.93 0 13:26 28.09.2022
50 Rain 26 1004 96 5744 5.82 6 10:59 28.09.2022
51 Clouds 25 1004 93 3224 5.61 11 09:18 28.09.2022
52 Rain 27 1006 91 10000 3.11 342 07:19 28.09.2022
53 Clouds 27 1006 85 10000 1.83 297 02:36 28.09.2022
54 Clouds 27 1005 81 10000 1.03 252 01:35 28.09.2022
55 Clouds 27 1004 76 10000 1.67 331 23:20 27.09.2022
56 Clouds 28 1004 75 10000 1.9 333 21:44 27.09.2022
57 Clouds 28 1004 75 10000 1.52 346 20:38 27.09.2022
58 Clouds 28 1005 83 10000 1.8 163 19:48 27.09.2022
59 Clouds 28 1006 76 10000 1.47 77 18:40 27.09.2022
60 Clouds 28 1006 72 10000 1.85 18 17:44 27.09.2022
61 Clouds 29 1006 69 10000 1.27 352 15:40 27.09.2022
62 Clouds 30 1005 64 10000 1.51 327 14:55 27.09.2022
63 Clouds 33 1005 59 10000 0.43 176 12:50 27.09.2022
64 Clouds 33 1004 57 10000 0.67 85 11:34 27.09.2022
65 Clouds 34 1004 49 10000 3.09 48 08:50 27.09.2022
66 Clouds 33 1007 51 10000 3.2 28 06:45 27.09.2022
67 Clouds 25 1009 83 10000 2.73 319 01:57 27.09.2022
68 Clouds 25 1008 86 10000 2.58 315 01:29 27.09.2022
69 Clouds 25 1007 83 10000 2.01 324 23:26 26.09.2022
70 Clouds 25 1007 83 10000 2.01 324 22:34 26.09.2022
71 Clouds 26 1008 80 10000 1.13 272 20:46 26.09.2022
72 Clouds 26 1008 78 10000 0.97 206 19:31 26.09.2022
73 Clouds 27 1009 78 10000 1.19 201 18:32 26.09.2022
74 Clouds 28 1009 77 10000 2.1 184 16:34 26.09.2022
75 Clouds 29 1008 73 10000 2.47 151 14:28 26.09.2022
76 Clouds 33 1007 58 10000 1.39 154 11:29 26.09.2022
77 Clouds 33 1007 58 10000 1.39 154 10:38 26.09.2022
78 Clouds 33 1007 52 10000 0.63 101 10:20 26.09.2022
79 Clouds 32 1007 52 10000 0.63 101 09:54 26.09.2022
80 Clouds 32 1008 51 10000 0.96 40 09:24 26.09.2022
81 Clear 31 1009 57 10000 1.45 23 07:37 26.09.2022
82 Clouds 25 1012 81 10000 3.79 315 02:51 26.09.2022
83 Clear 24 1010 93 10000 2.55 309 23:50 25.09.2022
84 Clear 24 1010 92 10000 2.41 303 22:29 25.09.2022
85 Clear 24 1010 92 10000 2.41 303 21:35 25.09.2022
86 Clear 25 1010 91 10000 2.31 300 20:47 25.09.2022
87 Clear 25 1011 89 10000 1.79 293 19:43 25.09.2022
88 Clear 25 1011 88 10000 1.58 275 18:40 25.09.2022
89 Clear 25 1012 87 10000 1.34 259 18:20 25.09.2022
90 Clear 25 1012 86 10000 1.33 200 16:35 25.09.2022
91 Clear 26 1012 86 10000 1.33 200 15:44 25.09.2022
92 Clouds 26 1010 83 10000 2.11 168 14:22 25.09.2022
93 Clouds 28 1009 81 10000 2.31 159 12:51 25.09.2022
94 Clouds 27 1008 66 10000 2.56 134 10:29 25.09.2022
95 Clouds 25 1010 63 9717 3.34 137 08:24 25.09.2022
96 Clear 25 1012 60 10000 2.81 97 05:38 25.09.2022
97 Clouds 25 1012 90 10000 2.7 335 01:32 25.09.2022
98 Clouds 25 1010 95 10000 2.04 337 22:35 24.09.2022
99 Clear 25 1010 94 10000 1.93 4 20:54 24.09.2022
100 Clouds 27 1011 89 10000 1.92 352 19:22 24.09.2022
101 Clouds 26 1011 85 10000 1.79 36 17:19 24.09.2022
102 Clouds 26 1011 84 10000 1.58 75 16:24 24.09.2022
103 Clouds 26 1010 83 10000 1.59 116 15:19 24.09.2022
104 Clouds 28 1008 80 10000 2.69 130 13:23 24.09.2022
105 Clouds 29 1008 80 10000 2.69 130 12:41 24.09.2022
106 Clouds 29 1007 60 10000 3.3 103 10:19 24.09.2022
107 Clouds 29 1008 57 10000 3.31 86 09:23 24.09.2022
108 Clouds 28 1008 56 10000 3.76 101 08:43 24.09.2022
109 Clouds 29 1011 63 10000 4.66 52 06:26 24.09.2022
110 Clouds 27 1012 68 10000 4.91 36 04:34 24.09.2022
111 Clouds 24 1010 92 10000 2.22 342 23:48 23.09.2022
112 Clouds 25 1009 91 10000 2.56 359 22:21 23.09.2022
113 Clouds 25 1010 89 10000 2.29 356 21:25 23.09.2022
114 Clouds 25 1010 89 10000 2.29 356 20:54 23.09.2022
115 Clouds 25 1010 86 10000 0.85 342 19:44 23.09.2022
116 Clouds 25 1011 81 10000 0.31 356 17:55 23.09.2022
117 Clouds 23 1009 78 10000 2.68 153 13:41 23.09.2022
118 Clouds 33 1007 50 10000 2.46 82 10:25 23.09.2022
119 Clouds 34 1008 50 10000 2.81 58 08:45 23.09.2022
120 Clouds 27 1012 75 10000 2.88 345 03:37 23.09.2022
121 Clouds 25 1010 92 10000 2.21 346 23:30 22.09.2022
122 Clouds 25 1010 92 10000 2.13 336 22:28 22.09.2022
123 Clouds 25 1010 92 10000 2.13 336 21:39 22.09.2022
124 Clouds 25 1010 92 10000 2.42 326 20:31 22.09.2022
125 Clear 26 1010 90 10000 1.89 308 18:59 22.09.2022
126 Clouds 28 1011 90 10000 1.15 176 15:58 22.09.2022
127 Clouds 31 1007 81 7231 3.65 120 10:55 22.09.2022
128 Clouds 31 1007 76 9439 3.44 117 10:19 22.09.2022
129 Clouds 32 1008 73 8608 2.24 96 08:20 22.09.2022
130 Clouds 29 1011 86 10000 0.58 255 05:22 22.09.2022
131 Clouds 26 1010 93 10000 2.23 2 01:27 22.09.2022
132 Clouds 26 1009 91 10000 2.11 338 22:29 21.09.2022
133 Clouds 26 1009 90 10000 2.09 340 21:24 21.09.2022
134 Clouds 26 1010 90 9708 1.09 343 18:51 21.09.2022
135 Clouds 26 1010 88 10000 0.03 179 17:44 21.09.2022
136 Clouds 26 1010 89 10000 1.63 140 15:47 21.09.2022
137 Clouds 26 1008 86 10000 1.9 147 13:54 21.09.2022
138 Clouds 29 1006 79 10000 3.07 133 11:43 21.09.2022
139 Clouds 29 1006 73 10000 3.46 129 10:59 21.09.2022
140 Rain 29 1007 70 10000 3.29 136 09:40 21.09.2022
141 Clouds 24 1007 67 10000 3.17 122 08:43 21.09.2022
142 Clouds 29 1010 73 10000 1.52 0 03:56 21.09.2022
143 Clouds 27 1010 78 10000 1.66 2 02:38 21.09.2022
144 Clouds 26 1010 84 10000 1.29 18 01:56 21.09.2022
145 Clouds 26 1008 86 10000 0.99 8 00:19 21.09.2022
146 Clouds 26 1008 85 10000 0.26 69 21:52 20.09.2022
147 Clouds 27 1008 85 10000 0.58 102 20:32 20.09.2022
148 Clouds 27 1009 86 10000 0.65 125 18:41 20.09.2022
149 Clouds 27 1009 84 10000 1.96 93 15:37 20.09.2022
150 Clouds 27 1006 85 10000 3.1 64 14:18 20.09.2022
151 Clouds 30 1003 47 10000 0.21 14 11:29 20.09.2022
152 Clouds 34 1004 45 10000 0.89 84 08:36 20.09.2022
153 Clouds 34 1006 48 10000 1.07 71 07:37 20.09.2022
154 Clouds 31 1008 61 10000 0.74 332 04:35 20.09.2022
155 Clear 27 1007 88 10000 0.3 78 01:32 20.09.2022
156 Clear 27 1006 86 10000 1.21 155 22:41 19.09.2022
157 Clear 28 1006 84 10000 2.04 139 21:28 19.09.2022
158 Clear 28 1006 84 10000 2.04 139 20:40 19.09.2022
159 Clouds 29 1007 83 10000 2.56 146 18:45 19.09.2022
160 Clouds 30 1007 82 10000 2.46 157 16:48 19.09.2022
161 Clouds 31 1005 74 10000 2.83 141 13:47 19.09.2022
162 Clouds 34 1003 60 10000 1.03 92 11:57 19.09.2022
163 Clouds 35 1003 49 10000 0.86 106 09:38 19.09.2022
164 Clouds 34 1005 51 10000 0.83 117 08:20 19.09.2022
165 Clouds 28 1008 79 10000 0.2 216 03:28 19.09.2022
166 Clouds 26 1007 90 10000 1 107 23:39 18.09.2022
167 Clouds 26 1006 90 10000 1.2 98 22:32 18.09.2022
168 Clouds 27 1007 88 10000 1.61 133 20:47 18.09.2022
169 Clouds 29 1007 87 10000 1.77 135 19:33 18.09.2022
170 Clouds 29 1008 85 10000 2.52 153 17:51 18.09.2022
171 Clouds 31 1008 84 10000 2.96 158 16:46 18.09.2022
172 Clouds 31 1006 82 10000 3.25 166 14:40 18.09.2022
173 Clouds 32 1005 73 10000 2.26 146 12:58 18.09.2022
174 Clouds 33 1004 70 10000 2.87 161 11:53 18.09.2022
175 Clouds 32 1007 58 10000 0.29 281 06:57 18.09.2022
176 Clouds 25 1008 87 10000 1.26 343 01:37 18.09.2022
177 Clouds 25 1007 91 10000 1.21 356 01:18 18.09.2022
178 Clouds 25 1006 90 10000 1.04 29 22:55 17.09.2022
179 Clouds 26 1006 88 10000 0.25 167 20:50 17.09.2022
180 Clouds 27 1007 85 10000 0.92 193 19:30 17.09.2022
181 Clear 27 1008 83 10000 1.07 159 17:21 17.09.2022
182 Clouds 28 1005 81 10000 2.18 162 14:22 17.09.2022
183 Clouds 30 1004 82 10000 2.97 154 12:44 17.09.2022
184 Clouds 31 1004 76 10000 2.8 124 10:48 17.09.2022
185 Rain 30 1007 70 10000 2.98 156 06:31 17.09.2022
186 Rain 26 1007 85 10000 1.91 67 03:55 17.09.2022
187 Clouds 26 1004 94 10000 1.22 75 23:23 16.09.2022
188 Rain 26 1004 95 10000 1.59 99 21:46 16.09.2022
189 Clouds 26 1004 94 10000 1.67 97 20:41 16.09.2022
190 Clouds 26 1005 94 10000 0.55 262 18:28 16.09.2022
191 Clouds 26 1005 90 10000 0.6 148 16:21 16.09.2022
192 Clouds 26 1004 90 10000 1.07 83 14:44 16.09.2022
193 Clouds 28 1003 88 10000 0.68 105 12:35 16.09.2022
194 Clouds 30 1001 81 10000 1.64 79 09:37 16.09.2022
195 Clouds 31 1004 76 10000 1.3 4 07:22 16.09.2022
196 Rain 31 1004 76 10000 1.3 4 06:47 16.09.2022
197 Rain 30 1005 86 10000 1.66 49 05:19 16.09.2022
198 Clouds 27 1003 93 10000 1.77 104 23:50 15.09.2022
199 Clouds 28 1004 89 10000 2.44 122 21:24 15.09.2022
200 Clouds 28 1004 88 10000 2.41 128 20:28 15.09.2022
201 Clouds 28 1005 89 10000 2.6 133 18:54 15.09.2022
202 Clouds 29 1006 87 10000 2.76 141 17:34 15.09.2022
203 Clouds 29 1006 87 10000 2.76 141 17:34 15.09.2022
204 Clouds 29 1006 87 10000 2.96 147 16:57 15.09.2022
205 Clouds 30 1005 85 10000 3.13 145 14:58 15.09.2022
206 Clouds 33 1003 81 10000 3.91 145 12:49 15.09.2022
207 Clouds 34 1002 58 10000 2 131 10:34 15.09.2022
208 Clouds 34 1003 54 10000 1.69 157 08:57 15.09.2022
209 Clouds 31 1008 65 10000 0.79 229 04:46 15.09.2022
210 Clouds 28 1008 82 10000 0.14 20 02:18 15.09.2022
211 Clouds 27 1007 83 10000 1.35 132 22:26 14.09.2022
212 Clouds 28 1008 80 10000 1.85 140 20:19 14.09.2022
213 Clouds 29 1008 80 10000 1.85 140 19:32 14.09.2022
214 Clear 29 1009 80 10000 2.38 161 17:26 14.09.2022
215 Clear 31 1009 79 10000 2.18 158 15:58 14.09.2022
216 Clear 30 1008 78 10000 1.88 142 14:35 14.09.2022
217 Clouds 34 1005 62 10000 1.16 124 11:54 14.09.2022
218 Clouds 34 1005 50 10000 1.34 171 09:48 14.09.2022
219 Clouds 33 1008 53 10000 1.35 255 07:39 14.09.2022
220 Clouds 31 1009 56 10000 1.48 272 06:47 14.09.2022
221 Clouds 30 1011 68 10000 2.11 307 04:52 14.09.2022
222 Clouds 26 1010 87 10000 1.97 300 01:51 14.09.2022
223 Clouds 26 1009 91 10000 1.77 299 01:29 14.09.2022
224 Clouds 26 1009 91 10000 1.77 299 01:29 14.09.2022
225 Clouds 26 1009 91 10000 1.77 299 00:52 14.09.2022
226 Clouds 26 1009 90 10000 1.76 300 23:54 13.09.2022
227 Clouds 26 1009 90 10000 1.76 300 23:36 13.09.2022
228 Clouds 26 1009 88 10000 1.61 302 23:18 13.09.2022
229 Clouds 26 1009 87 10000 1.45 308 22:21 13.09.2022
230 Clouds 27 1009 86 10000 1.88 290 20:21 13.09.2022
231 Clouds 28 1010 82 10000 1.73 270 18:20 13.09.2022
232 Clouds 28 1009 77 10000 0.76 239 15:55 13.09.2022
233 Clouds 29 1009 74 10000 0.62 317 14:36 13.09.2022
234 Clouds 30 1007 67 10000 1.3 345 13:20 13.09.2022
235 Clouds 32 1007 51 10000 0.51 293 09:23 13.09.2022
236 Clouds 31 1011 64 10000 1.86 287 06:24 13.09.2022
237 Clouds 26 1008 95 10000 1.69 335 00:23 13.09.2022
238 Clouds 27 1008 94 10000 1.5 325 22:50 12.09.2022
239 Clouds 27 1008 94 10000 1.29 320 21:55 12.09.2022
240 Clouds 28 1009 86 10000 1.54 296 20:39 12.09.2022
241 Clouds 29 1010 84 10000 1.63 275 18:51 12.09.2022
242 Clouds 29 1010 80 10000 1.83 289 17:25 12.09.2022
243 Clouds 30 1009 83 10000 1.24 296 14:37 12.09.2022
244 Clouds 32 1007 75 10000 1.71 330 11:30 12.09.2022
245 Clouds 33 1007 80 10000 2.54 313 09:56 12.09.2022
246 Clouds 30 1011 87 10000 2.93 315 04:54 12.09.2022
247 Clouds 28 1011 91 10000 3.1 312 04:25 12.09.2022
248 Rain 26 1009 91 10000 1.34 335 23:39 11.09.2022
249 Clouds 27 1009 88 10000 0.61 159 22:28 11.09.2022
250 Clouds 27 1009 88 10000 0.9 99 20:50 11.09.2022
251 Clouds 27 1009 88 10000 1.49 120 19:57 11.09.2022
252 Rain 27 1010 88 10000 1.79 134 19:25 11.09.2022
253 Clouds 27 1010 88 10000 2.24 148 18:21 11.09.2022
254 Clouds 27 1011 88 10000 2.55 152 16:46 11.09.2022
255 Clouds 29 1009 86 10000 2.96 144 14:39 11.09.2022
256 Clouds 31 1007 82 10000 2.96 136 12:42 11.09.2022
257 Clouds 32 1007 53 10000 0.87 156 08:59 11.09.2022
258 Clouds 30 1010 59 10000 0.86 176 07:18 11.09.2022
259 Clouds 26 1010 93 10000 1.12 87 00:50 11.09.2022
260 Clouds 26 1010 93 10000 1.24 129 22:55 10.09.2022
261 Clouds 26 1010 92 10000 1.88 139 21:25 10.09.2022
262 Clouds 27 1011 89 10000 1.46 154 19:47 10.09.2022
263 Clouds 27 1012 90 10000 1.8 159 19:28 10.09.2022
264 Clouds 27 1012 90 10000 1.8 159 18:51 10.09.2022
265 Clouds 29 1012 90 10000 2.04 145 15:49 10.09.2022
266 Clouds 30 1011 89 10000 1.91 129 14:42 10.09.2022
267 Clouds 31 1009 87 10000 1.6 146 12:52 10.09.2022
268 Clouds 32 1009 82 10000 2.07 152 10:58 10.09.2022
269 Clouds 31 1009 86 10000 1.64 158 09:37 10.09.2022
270 Clouds 30 1009 89 10000 1.71 178 08:36 10.09.2022
271 Clouds 29 1011 71 10000 1.89 168 06:43 10.09.2022
272 Clouds 26 1012 93 10000 1.61 346 00:40 10.09.2022
273 Clouds 26 1012 93 10000 1.55 347 23:32 09.09.2022
274 Clouds 26 1012 92 10000 1.69 325 21:50 09.09.2022
275 Clouds 26 1012 93 10000 2.43 320 20:41 09.09.2022
276 Clouds 26 1013 93 10000 2.41 304 19:24 09.09.2022
277 Clouds 26 1013 93 10000 2.41 304 18:46 09.09.2022
278 Clouds 27 1014 93 10000 2.04 297 16:23 09.09.2022
279 Clouds 28 1012 97 10000 1.89 315 13:48 09.09.2022
280 Rain 30 1011 97 10000 2.91 291 11:58 09.09.2022
281 Clouds 30 1013 97 6394 2 277 09:22 09.09.2022
282 Clouds 28 1015 97 10000 2.78 305 04:29 09.09.2022
283 Clouds 25 1013 97 10000 2.82 322 00:46 09.09.2022
284 Clouds 25 1012 97 8784 2.13 329 21:52 08.09.2022
285 Rain 25 1013 98 9210 2.22 327 20:51 08.09.2022
286 Rain 25 1013 98 8423 1.48 343 20:31 08.09.2022
287 Rain 25 1014 98 6475 1.81 345 19:44 08.09.2022
288 Clouds 25 1015 98 5863 2.15 339 17:44 08.09.2022
289 Clouds 26 1015 98 5092 2.32 351 16:19 08.09.2022
290 Clouds 26 1014 98 5766 2.27 351 14:37 08.09.2022
291 Rain 26 1012 98 3718 2.43 4 12:51 08.09.2022
292 Rain 27 1012 98 4205 2.49 3 11:37 08.09.2022
293 Rain 27 1011 98 3647 2.44 6 10:23 08.09.2022
294 Rain 30 1013 96 7659 3.28 341 07:49 08.09.2022
295 Rain 30 1014 96 6131 2.88 348 05:51 08.09.2022
296 Rain 26 1014 97 5345 2.35 345 02:36 08.09.2022
297 Rain 26 1014 97 8322 2.64 346 02:36 08.09.2022
298 Rain 26 1013 96 6931 1.66 355 02:18 08.09.2022
299 Rain 25 1012 94 10000 2.39 336 00:22 08.09.2022
300 Rain 25 1012 95 10000 2.2 318 22:19 07.09.2022
301 Rain 25 1012 95 10000 2.2 318 21:39 07.09.2022
302 Rain 25 1012 91 10000 2.03 322 20:31 07.09.2022
303 Rain 25 1013 90 10000 1.68 304 19:26 07.09.2022
304 Clouds 26 1013 89 10000 2.24 277 17:22 07.09.2022
305 Clouds 28 1010 87 10000 1.78 306 11:32 07.09.2022
306 Clouds 35 1010 88 10000 1.8 175 10:36 07.09.2022
307 Clouds 34 1010 52 10000 2.09 54 08:33 07.09.2022
308 Clouds 33 1011 52 10000 2.51 7 06:31 07.09.2022
309 Clouds 27 1010 76 10000 1.85 337 00:49 07.09.2022
310 Clouds 27 1009 68 10000 1.52 330 21:58 06.09.2022
311 Clouds 28 1009 68 10000 1.52 330 21:36 06.09.2022
312 Clouds 28 1010 71 10000 0.85 141 19:39 06.09.2022
313 Clouds 29 1011 70 10000 1.19 164 18:40 06.09.2022
314 Clouds 30 1011 70 10000 1.59 176 17:50 06.09.2022
315 Clouds 30 1010 69 10000 1.78 165 16:47 06.09.2022
316 Clouds 29 1010 68 10000 2.15 133 16:24 06.09.2022
317 Clouds 31 1008 65 10000 2.59 95 14:27 06.09.2022
318 Clouds 33 1008 66 10000 2.97 108 13:44 06.09.2022
319 Clouds 34 1006 60 10000 2.57 91 13:18 06.09.2022
320 Clouds 36 1006 44 10000 2.25 60 10:55 06.09.2022
321 Clouds 36 1007 41 10000 2.4 25 09:22 06.09.2022
322 Clouds 35 1008 43 10000 2.59 5 07:53 06.09.2022
323 Clouds 33 1010 52 10000 3.45 332 06:19 06.09.2022
324 Clouds 25 1008 78 10000 3.13 311 00:54 06.09.2022
325 Clouds 25 1007 75 10000 2.58 315 22:49 05.09.2022
326 Clouds 26 1007 75 10000 2.51 319 21:38 05.09.2022
327 Clouds 26 1008 69 10000 2.14 305 20:18 05.09.2022
328 Clouds 27 1008 66 10000 2.12 288 18:53 05.09.2022
329 Clouds 28 1009 64 10000 1.86 302 18:24 05.09.2022
330 Clouds 28 1009 64 10000 1.86 302 17:47 05.09.2022
331 Clouds 29 1008 60 10000 1.45 345 15:53 05.09.2022
332 Clouds 30 1006 60 10000 1.49 258 14:20 05.09.2022
333 Clear 33 1005 62 10000 1.71 265 12:50 05.09.2022
334 Clouds 34 1005 48 10000 1.43 315 10:35 05.09.2022
335 Clear 34 1006 47 10000 2.01 320 08:36 05.09.2022
336 Clouds 28 1009 67 10000 3.92 319 03:47 05.09.2022
337 Clouds 26 1007 81 10000 3.08 302 23:58 04.09.2022
338 Clouds 26 1007 82 10000 3.56 301 22:28 04.09.2022
339 Clouds 26 1007 82 10000 3.56 301 21:45 04.09.2022
340 Clouds 26 1008 81 10000 3.74 305 19:44 04.09.2022
341 Clouds 26 1009 81 10000 3.91 303 18:33 04.09.2022
342 Clouds 26 1009 81 10000 4.27 302 17:26 04.09.2022
343 Clouds 26 1008 84 10000 4.61 297 15:23 04.09.2022
344 Clouds 27 1007 86 10000 4.85 295 14:22 04.09.2022
345 Clouds 27 1005 78 10000 5.06 302 12:24 04.09.2022
346 Clouds 30 1005 66 10000 4.62 316 10:57 04.09.2022
347 Clouds 30 1006 61 10000 4.68 356 09:23 04.09.2022
348 Clouds 27 1008 71 10000 3.83 355 06:24 04.09.2022
349 Rain 26 1007 87 9122 1.19 327 01:56 04.09.2022
350 Clouds 28 1006 93 9265 0.59 56 22:26 03.09.2022
351 Clouds 29 1006 92 10000 0.91 152 21:24 03.09.2022
352 Clouds 29 1006 92 10000 0.91 152 20:42 03.09.2022
353 Clouds 30 1007 88 10000 2.59 154 17:36 03.09.2022
354 Clouds 30 1007 86 10000 2.89 153 16:34 03.09.2022
355 Clouds 32 1005 84 10000 3.16 151 14:47 03.09.2022
356 Clouds 31 1004 84 10000 3.34 148 14:26 03.09.2022
357 Clouds 32 1004 84 10000 3.34 148 13:39 03.09.2022
358 Clouds 34 1002 66 10000 3.41 121 11:18 03.09.2022
359 Clouds 33 1003 55 10000 0.79 109 08:41 03.09.2022
360 Clouds 33 1005 59 10000 0.43 351 06:59 03.09.2022
361 Clouds 31 1007 71 10000 0.78 298 04:43 03.09.2022
362 Clouds 27 1006 90 10000 0.56 319 00:46 03.09.2022
363 Clouds 28 1006 87 10000 0.76 153 23:28 02.09.2022
364 Clouds 29 1006 86 10000 1.03 157 21:33 02.09.2022
365 Clouds 29 1006 85 10000 1.86 159 20:39 02.09.2022
366 Clouds 29 1007 85 10000 2.02 156 19:35 02.09.2022
367 Clouds 30 1007 84 10000 2.28 152 18:43 02.09.2022
368 Clouds 30 1008 83 10000 2.73 152 18:24 02.09.2022
369 Clouds 29 1008 81 10000 2.92 151 16:50 02.09.2022
370 Clouds 30 1008 79 10000 3.27 153 15:35 02.09.2022
371 Clouds 33 1005 71 10000 2.33 143 12:43 02.09.2022
372 Clouds 35 1005 52 10000 1.52 45 10:22 02.09.2022
373 Clouds 33 1005 52 10000 1.52 45 09:41 02.09.2022
374 Clouds 33 1007 55 10000 2.63 23 07:36 02.09.2022
375 Clouds 33 1008 57 10000 3.14 17 06:40 02.09.2022
376 Clouds 28 1010 79 10000 3.33 319 02:55 02.09.2022
377 Clouds 27 1008 92 10000 2.26 316 22:35 01.09.2022
378 Clouds 27 1008 91 10000 2.1 322 21:44 01.09.2022
379 Clouds 27 1009 90 10000 1.82 331 21:25 01.09.2022
380 Clouds 27 1008 90 10000 1.51 299 20:44 01.09.2022
381 Clouds 28 1009 90 10000 1.03 264 18:57 01.09.2022
382 Clouds 28 1010 88 10000 0.18 158 17:33 01.09.2022
383 Clouds 29 1009 87 9654 1.4 85 15:59 01.09.2022
384 Clouds 29 1008 87 10000 1.31 8 14:33 01.09.2022
385 Clouds 30 1006 83 10000 1.58 23 12:58 01.09.2022
386 Rain 31 1006 81 10000 2.03 16 11:53 01.09.2022
387 Rain 31 1006 81 10000 2.03 16 11:31 01.09.2022
388 Clouds 31 1006 69 10000 3 20 10:23 01.09.2022
389 Clouds 29 1008 70 10000 3.14 29 07:51 01.09.2022
390 Rain 29 1010 76 3907 4.49 29 06:22 01.09.2022
391 Clouds 28 1009 86 10000 3.84 16 01:32 01.09.2022
392 Clouds 28 1009 86 10000 3.84 16 01:32 01.09.2022
393 Clouds 28 1007 87 10000 1.13 42 23:29 31.08.2022
394 Clouds 28 1007 85 10000 1.13 68 21:30 31.08.2022
395 Clouds 29 1008 87 10000 1.29 147 19:50 31.08.2022
396 Clouds 29 1009 88 10000 2.6 156 18:18 31.08.2022
397 Rain 30 1008 80 10000 2.66 139 15:45 31.08.2022
398 Clouds 31 1005 75 10000 3 111 13:57 31.08.2022
399 Clouds 32 1003 66 10000 2.73 92 12:20 31.08.2022
400 Clouds 34 1004 50 10000 2.26 82 10:30 31.08.2022
401 Clouds 34 1005 48 10000 1.2 87 08:34 31.08.2022
402 Clouds 31 1008 70 10000 0.47 164 03:46 31.08.2022
403 Clouds 27 1006 89 10000 1.57 129 22:44 30.08.2022
404 Clouds 28 1006 88 10000 1.95 137 21:33 30.08.2022
405 Clouds 27 1007 88 10000 1.89 140 20:47 30.08.2022
406 Clouds 30 1008 81 10000 3.5 161 17:25 30.08.2022
407 Clouds 31 1007 77 10000 3.85 151 14:41 30.08.2022
408 Clouds 33 1005 70 10000 3.46 147 12:54 30.08.2022
409 Clouds 35 1005 50 10000 2.99 168 11:20 30.08.2022
410 Clouds 35 1005 50 10000 2.99 168 10:35 30.08.2022
411 Clouds 34 1009 53 10000 2.39 192 06:49 30.08.2022
412 Clouds 27 1010 86 10000 1.15 175 01:44 30.08.2022
413 Clouds 27 1009 92 10000 2.02 143 22:44 29.08.2022
414 Clouds 27 1009 91 10000 2.27 143 22:18 29.08.2022
415 Clouds 27 1009 90 10000 2.55 142 21:23 29.08.2022
416 Clouds 27 1009 90 10000 2.55 142 21:23 29.08.2022
417 Clouds 28 1010 90 10000 2.45 147 19:41 29.08.2022
418 Clouds 30 1010 88 10000 3.02 157 17:39 29.08.2022
419 Clouds 30 1010 87 10000 3.32 154 17:18 29.08.2022
420 Clouds 31 1010 86 10000 3.53 147 15:41 29.08.2022
421 Clouds 32 1008 78 10000 4.49 146 13:58 29.08.2022
422 Clouds 34 1006 64 10000 5.36 151 12:32 29.08.2022
423 Clouds 35 1006 56 10000 4.95 154 10:49 29.08.2022
424 Clouds 34 1007 49 10000 3.72 173 09:20 29.08.2022
425 Clouds 34 1009 54 10000 3.53 179 07:20 29.08.2022
426 Clouds 28 1010 81 10000 2.43 163 02:33 29.08.2022
427 Clear 27 1008 94 10000 2.25 128 23:36 28.08.2022
428 Clouds 27 1008 92 10000 2.31 127 21:48 28.08.2022
429 Clouds 27 1008 91 10000 2.51 137 21:27 28.08.2022
430 Clouds 28 1008 90 10000 2.99 142 20:19 28.08.2022
431 Clouds 29 1008 88 10000 3.58 151 18:22 28.08.2022
432 Clouds 29 1008 88 10000 3.58 151 17:59 28.08.2022
433 Clouds 29 1008 86 10000 3.76 147 16:44 28.08.2022
434 Clouds 30 1007 87 10000 3.59 143 15:33 28.08.2022
435 Clouds 32 1005 82 10000 4.34 140 13:32 28.08.2022
436 Clouds 34 1003 70 10000 5.31 140 11:59 28.08.2022
437 Clouds 35 1004 64 10000 4.53 154 10:20 28.08.2022
438 Clouds 35 1005 67 10000 3.2 136 08:52 28.08.2022
439 Clouds 34 1006 63 10000 2.12 155 07:53 28.08.2022
440 Clouds 33 1007 64 10000 2.2 184 07:23 28.08.2022
441 Clouds 27 1008 91 10000 1.68 136 00:37 28.08.2022
442 Clouds 26 1007 89 10000 2.11 121 23:20 27.08.2022
443 Clouds 27 1007 89 10000 2.19 125 22:27 27.08.2022
444 Clouds 27 1007 88 10000 2.2 146 20:35 27.08.2022
445 Clouds 28 1008 87 10000 2.71 140 18:57 27.08.2022
446 Clouds 29 1006 85 10000 2.82 131 16:26 27.08.2022
447 Clouds 30 1006 85 10000 2.82 131 15:31 27.08.2022
448 Clouds 31 1004 78 10000 3.8 135 13:22 27.08.2022
449 Clouds 34 1004 70 10000 4.08 143 11:59 27.08.2022
450 Clouds 32 1004 62 10000 3.42 147 10:27 27.08.2022
451 Clouds 33 1004 62 10000 3.42 147 09:31 27.08.2022
452 Rain 31 1008 65 10000 1.96 173 05:59 27.08.2022
453 Clouds 27 1008 94 10000 1.21 69 00:52 27.08.2022
454 Clouds 27 1008 94 10000 1.21 69 00:52 27.08.2022
455 Clouds 27 1007 93 10000 1.15 76 23:36 26.08.2022
456 Clouds 27 1007 94 10000 1.36 109 21:46 26.08.2022
457 Rain 28 1008 94 10000 1.78 111 19:50 26.08.2022
458 Clouds 28 1008 93 10000 2.5 128 17:53 26.08.2022
459 Clouds 29 1008 92 10000 3.09 125 15:45 26.08.2022
460 Clouds 29 1007 92 10000 3.31 127 14:59 26.08.2022
461 Clouds 30 1004 90 10000 3.43 119 12:56 26.08.2022
462 Clouds 32 1004 86 10000 3.8 122 11:43 26.08.2022
463 Clouds 32 1003 82 10000 4.07 128 11:21 26.08.2022
464 Clouds 30 1005 90 10000 3.83 154 07:56 26.08.2022
465 Rain 26 1004 94 10000 4.92 144 02:57 26.08.2022
466 Rain 24 999 95 6774 8.28 174 23:45 25.08.2022
467 Rain 25 996 97 2013 8.82 191 21:55 25.08.2022
468 Rain 25 995 97 1613 9.3 206 20:53 25.08.2022
469 Clouds 26 997 93 3066 2.87 226 19:27 25.08.2022
470 Clouds 26 998 91 4336 2.78 274 18:29 25.08.2022
471 Clouds 26 998 91 4336 2.78 274 17:31 25.08.2022
472 Rain 26 999 94 10000 2.78 256 16:27 25.08.2022
473 Rain 26 999 95 9274 3.08 243 15:28 25.08.2022
474 Rain 26 998 91 7230 3.75 207 12:56 25.08.2022
475 Clouds 29 996 81 10000 3.03 164 10:49 25.08.2022
476 Rain 28 997 75 10000 0.74 172 09:44 25.08.2022
477 Rain 29 1000 66 10000 3.27 308 06:45 25.08.2022
478 Rain 28 1001 88 10000 3.23 306 01:57 25.08.2022
479 Rain 29 1000 90 10000 2.63 302 23:28 24.08.2022
480 Rain 28 1000 90 10000 2.63 302 22:43 24.08.2022
481 Clouds 29 1000 87 10000 1.28 302 21:37 24.08.2022
482 Clouds 29 1000 87 10000 1.28 302 20:56 24.08.2022
483 Clouds 30 1002 83 10000 0.88 245 19:24 24.08.2022
484 Clouds 32 1003 78 10000 0.39 161 16:47 24.08.2022
485 Clouds 31 1003 77 10000 1.04 89 15:52 24.08.2022
486 Rain 34 1001 69 10000 0.63 143 13:46 24.08.2022
487 Clouds 35 1000 61 10000 1.21 25 11:58 24.08.2022
488 Clouds 35 1000 57 10000 1.18 20 10:34 24.08.2022
489 Clouds 34 1003 54 10000 1.48 30 08:25 24.08.2022
490 Clouds 29 1006 76 10000 0.04 244 02:57 24.08.2022
491 Clear 27 1005 90 10000 1.72 129 23:34 23.08.2022
492 Clear 27 1004 89 10000 2.07 137 22:32 23.08.2022
493 Clear 27 1004 88 10000 2.1 135 21:34 23.08.2022
494 Clear 27 1005 87 10000 2.09 145 20:30 23.08.2022
495 Clear 27 1006 85 10000 2.56 155 18:49 23.08.2022
496 Clear 28 1006 85 10000 2.6 152 17:50 23.08.2022
497 Clear 28 1006 84 10000 2.78 155 16:54 23.08.2022
498 Clear 29 1005 83 10000 3.13 147 15:39 23.08.2022
499 Clouds 30 1003 76 10000 3.03 123 13:29 23.08.2022
500 Rain 34 1002 68 10000 1.97 112 11:33 23.08.2022
501 Rain 34 1002 63 10000 1.14 114 10:48 23.08.2022
502 Rain 34 1003 59 10000 0.81 148 10:24 23.08.2022
503 Clouds 33 1003 58 10000 1.13 184 08:52 23.08.2022
504 Clouds 33 1004 63 10000 0.76 214 08:21 23.08.2022
505 Clouds 32 1004 63 10000 0.76 214 07:38 23.08.2022
506 Clouds 32 1006 67 10000 0.6 197 06:28 23.08.2022
507 Clouds 30 1007 70 10000 0.31 95 04:38 23.08.2022
508 Clouds 27 1006 92 10000 0.99 61 00:28 23.08.2022
509 Clouds 27 1006 92 10000 0.99 61 23:37 22.08.2022
510 Clouds 27 1005 92 10000 0.84 84 22:44 22.08.2022
511 Clouds 27 1005 91 10000 1.18 130 21:29 22.08.2022
512 Clouds 28 1006 92 10000 1.74 139 19:48 22.08.2022
513 Clouds 28 1006 91 10000 2.07 142 18:50 22.08.2022
514 Clouds 27 1007 89 10000 2.41 128 17:22 22.08.2022
515 Clouds 29 1006 89 10000 2.42 132 15:39 22.08.2022
516 Clouds 31 1004 85 10000 3.57 135 13:57 22.08.2022
517 Clouds 34 1002 70 10000 3.92 135 10:43 22.08.2022
518 Clouds 33 1004 61 10000 2.35 178 07:59 22.08.2022
519 Clouds 30 1006 77 10000 1.94 191 04:22 22.08.2022
520 Clouds 26 1004 96 10000 1.2 60 00:41 22.08.2022
521 Clouds 26 1004 97 10000 1.34 82 00:22 22.08.2022
522 Clouds 25 1003 98 10000 1.5 87 22:20 21.08.2022
523 Clouds 26 1004 98 10000 2 82 21:23 21.08.2022
524 Clouds 26 1004 98 10000 2 82 20:47 21.08.2022
525 Clouds 26 1005 97 10000 1.66 79 19:25 21.08.2022
526 Clouds 27 1005 96 10000 1.86 74 17:24 21.08.2022
527 Clouds 27 1004 95 10000 2.03 98 15:53 21.08.2022
528 Clouds 27 1003 94 10000 2.14 108 15:21 21.08.2022
529 Clouds 27 1003 93 7774 2.73 113 13:52 21.08.2022
530 Clouds 27 1002 91 6188 2.92 124 13:26 21.08.2022
531 Rain 29 1002 85 10000 3.27 137 11:34 21.08.2022
532 Rain 30 1001 83 10000 4.27 142 09:31 21.08.2022
533 Clouds 30 1002 83 8097 4.26 141 08:56 21.08.2022
534 Rain 30 1002 92 10000 3.51 28 08:38 21.08.2022
535 Clouds 27 1003 90 8422 2.92 33 07:26 21.08.2022
536 Rain 26 1004 83 10000 3.75 20 03:39 21.08.2022
537 Rain 26 1001 90 10000 1.61 7 23:49 20.08.2022
538 Clouds 26 1001 90 10000 1.04 111 22:24 20.08.2022
539 Clouds 26 1001 91 9413 1.56 118 21:26 20.08.2022
540 Clouds 26 1002 88 5768 1.71 10 19:58 20.08.2022
541 Rain 26 1002 88 5768 1.71 10 19:40 20.08.2022
542 Rain 26 1002 87 6599 0.91 107 18:27 20.08.2022
543 Rain 26 1002 87 6599 0.91 107 17:40 20.08.2022
544 Clouds 26 1002 90 4582 1.65 125 16:40 20.08.2022
545 Clouds 25 1001 89 9538 2.02 116 15:23 20.08.2022
546 Clouds 26 1000 87 10000 3.13 117 12:46 20.08.2022
547 Clouds 29 1000 83 10000 2.98 120 11:47 20.08.2022
548 Clouds 30 1000 69 10000 1.59 108 09:29 20.08.2022
549 Clouds 28 1001 68 10000 1.5 81 08:29 20.08.2022
550 Clouds 30 1003 75 10000 1.93 134 05:49 20.08.2022
551 Rain 25 1002 89 10000 2.13 97 00:58 20.08.2022
552 Rain 28 1002 89 10000 2.13 97 00:30 20.08.2022
553 Rain 28 1001 88 10000 1.62 94 22:50 19.08.2022
554 Clouds 28 1001 87 10000 1.52 140 21:34 19.08.2022
555 Clouds 29 1003 86 10000 1.75 134 19:41 19.08.2022
556 Clouds 31 1003 85 10000 2.94 148 16:40 19.08.2022
557 Clouds 33 1002 81 10000 3.5 130 14:37 19.08.2022
558 Clouds 35 1000 68 10000 2.68 125 12:45 19.08.2022
559 Clouds 35 999 54 10000 1.1 58 10:41 19.08.2022
560 Clouds 35 1000 51 10000 1.22 8 09:36 19.08.2022
561 Clouds 31 1004 66 10000 0.63 8 04:56 19.08.2022
562 Clouds 27 1003 91 10000 0.77 103 00:43 19.08.2022
563 Clouds 27 1003 91 10000 1.31 105 00:19 19.08.2022
564 Clouds 28 1003 90 10000 1.38 109 22:58 18.08.2022
565 Clouds 28 1003 90 10000 1.43 120 22:26 18.08.2022
566 Clouds 28 1003 90 10000 1.43 120 21:50 18.08.2022
567 Clouds 28 1003 90 10000 1.8 145 20:55 18.08.2022
568 Clouds 29 1003 85 10000 2.14 147 19:39 18.08.2022
569 Clouds 29 1004 84 10000 2.82 151 19:20 18.08.2022
570 Clouds 30 1004 81 10000 3.2 152 17:32 18.08.2022
571 Rain 30 1004 80 10000 3.59 155 15:53 18.08.2022
572 Clouds 32 1001 74 10000 3.3 140 14:21 18.08.2022
573 Clouds 32 1001 74 10000 3.3 140 13:44 18.08.2022
574 Clouds 34 1000 55 10000 0.42 175 12:28 18.08.2022
575 Clouds 35 1000 50 10000 0.39 204 11:20 18.08.2022
576 Clouds 33 1000 50 10000 0.28 243 09:43 18.08.2022
577 Clear 34 1003 55 10000 0.38 294 07:27 18.08.2022
578 Clear 33 1004 59 10000 0.5 279 06:18 18.08.2022
579 Clouds 27 1004 83 10000 0.82 91 01:44 18.08.2022
580 Clouds 27 1003 87 10000 1.52 102 22:45 17.08.2022
581 Clouds 28 1004 86 10000 2.24 140 20:21 17.08.2022
582 Clouds 28 1004 87 10000 2.1 137 19:55 17.08.2022
583 Clouds 29 1004 85 10000 2.59 139 18:32 17.08.2022
584 Clouds 29 1005 82 10000 2.88 143 16:50 17.08.2022
585 Clouds 30 1004 81 10000 2.74 149 15:45 17.08.2022
586 Clouds 29 1003 81 10000 3.29 147 14:36 17.08.2022
587 Clouds 30 1001 67 10000 2.68 148 12:22 17.08.2022
588 Clouds 33 1001 57 10000 1.33 166 10:25 17.08.2022
589 Clouds 34 1003 55 10000 1.57 114 08:26 17.08.2022
590 Clouds 33 1005 60 10000 1.58 115 05:35 17.08.2022
591 Clouds 27 1004 92 10000 1.19 101 00:49 17.08.2022
592 Clouds 28 1004 91 10000 1.79 121 22:59 16.08.2022
593 Clouds 29 1004 89 10000 1.83 137 20:59 16.08.2022
594 Clouds 29 1005 88 10000 2.28 146 19:55 16.08.2022
595 Clouds 29 1005 87 10000 2.53 160 19:22 16.08.2022
596 Clouds 30 1006 85 10000 2.78 161 17:54 16.08.2022
597 Clouds 30 1006 84 10000 3.2 158 16:46 16.08.2022
598 Clouds 32 1005 84 10000 3.3 149 15:44 16.08.2022
599 Clouds 32 1005 84 10000 3.3 149 15:44 16.08.2022
600 Clouds 32 1004 83 10000 3.34 148 14:54 16.08.2022
601 Clouds 32 1004 83 10000 3.34 148 14:36 16.08.2022
602 Clouds 35 1001 67 10000 2.78 128 11:40 16.08.2022
603 Clouds 35 1002 63 10000 2.13 115 09:58 16.08.2022
604 Rain 34 1002 60 10000 1.88 108 08:49 16.08.2022
605 Clouds 34 1003 57 10000 1.58 110 08:19 16.08.2022
606 Clouds 31 1006 66 10000 1.45 117 05:28 16.08.2022
607 Clear 27 1004 92 10000 1.1 113 23:18 15.08.2022
608 Clear 27 1004 91 10000 1.63 121 22:18 15.08.2022
609 Clear 27 1004 91 10000 1.63 121 21:41 15.08.2022
610 Clear 28 1005 90 10000 1.91 133 20:30 15.08.2022
611 Clear 28 1005 89 10000 2.22 137 18:56 15.08.2022
612 Clear 29 1006 88 10000 2.46 152 17:56 15.08.2022
613 Clear 29 1005 86 10000 2.88 150 16:23 15.08.2022
614 Clear 32 1004 86 10000 3.08 142 14:40 15.08.2022
615 Clouds 32 1002 78 10000 3.87 135 13:19 15.08.2022
616 Clouds 34 1002 68 10000 3.98 126 10:36 15.08.2022
617 Clouds 33 1002 56 10000 2.48 129 08:53 15.08.2022
618 Clouds 31 1004 59 10000 1.78 135 06:39 15.08.2022
619 Clouds 28 1006 74 10000 1.06 111 03:34 15.08.2022
620 Clouds 26 1004 95 10000 1.29 92 23:27 14.08.2022
621 Clouds 26 1004 95 10000 1.41 115 21:43 14.08.2022
622 Clouds 26 1004 94 10000 1.67 138 20:41 14.08.2022
623 Clouds 26 1005 94 10000 2.12 149 19:36 14.08.2022
624 Clouds 26 1006 93 10000 3.43 137 18:21 14.08.2022
625 Clouds 27 1006 93 10000 3.43 137 17:31 14.08.2022
626 Clouds 28 1005 89 10000 2.94 124 16:23 14.08.2022
627 Clouds 28 1004 85 10000 2.8 130 14:55 14.08.2022
628 Clouds 30 1003 83 10000 3.37 123 13:51 14.08.2022
629 Clouds 30 1003 83 10000 3.37 123 13:31 14.08.2022
630 Clouds 30 1003 83 10000 3.37 123 13:31 14.08.2022
631 Clouds 33 1002 78 10000 2.69 127 12:35 14.08.2022
632 Rain 33 1002 65 10000 1.95 148 11:22 14.08.2022
633 Clouds 33 1004 63 10000 2.05 199 08:56 14.08.2022
634 Clouds 31 1006 63 10000 1.58 212 06:40 14.08.2022
635 Clouds 29 1007 74 10000 1.44 200 04:47 14.08.2022
636 Clouds 27 1007 86 10000 1.47 93 01:36 14.08.2022
637 Clouds 26 1005 88 10000 1.63 122 22:56 13.08.2022
638 Clouds 26 1005 88 10000 2.04 127 21:59 13.08.2022
639 Clouds 27 1005 87 10000 2.11 126 20:49 13.08.2022
640 Clouds 27 1006 87 10000 2.07 130 19:47 13.08.2022
641 Clouds 28 1006 92 10000 2.22 127 18:47 13.08.2022
642 Clouds 29 1006 88 10000 3.01 126 16:23 13.08.2022
643 Clouds 29 1005 88 10000 3.02 126 14:42 13.08.2022
644 Clouds 30 1004 85 10000 3.19 130 13:48 13.08.2022
645 Clouds 30 1004 82 10000 3.56 135 13:23 13.08.2022
646 Clouds 31 1003 67 10000 2.87 141 10:44 13.08.2022
647 Clouds 31 1004 63 10000 1.52 158 09:22 13.08.2022
648 Clouds 29 1007 80 10000 1.32 28 06:26 13.08.2022
649 Clouds 25 1007 95 10000 1.21 2 00:44 13.08.2022
650 Clouds 25 1006 96 10000 1.24 1 22:37 12.08.2022
651 Clouds 25 1006 96 10000 1.18 7 21:35 12.08.2022
652 Clouds 25 1007 96 10000 0.55 339 19:46 12.08.2022
653 Clouds 25 1007 97 10000 1.31 23 19:21 12.08.2022
654 Clouds 25 1008 97 10000 0.93 3 17:58 12.08.2022
655 Clouds 25 1008 96 10000 1.21 37 16:25 12.08.2022
656 Clouds 25 1007 97 10000 0.84 67 14:50 12.08.2022
657 Rain 26 1005 97 10000 1.17 107 13:26 12.08.2022
658 Rain 26 1005 97 10000 1.67 90 11:39 12.08.2022
659 Rain 26 1005 96 10000 1.43 125 08:49 12.08.2022
660 Rain 26 1005 94 10000 3.63 179 07:45 12.08.2022
661 Rain 24 1007 94 8755 2.73 71 03:56 12.08.2022
662 Clouds 25 1006 98 5922 1.31 51 00:31 12.08.2022
663 Clouds 25 1005 97 6743 1.82 39 23:42 11.08.2022
664 Clouds 26 1005 97 6314 2.28 36 22:37 11.08.2022
665 Rain 26 1005 97 5345 2.24 41 21:47 11.08.2022
666 Clouds 26 1005 98 5216 1.98 48 21:23 11.08.2022
667 Clouds 26 1005 98 5160 1.94 65 20:30 11.08.2022
668 Clouds 26 1005 98 5456 2.45 63 19:33 11.08.2022
669 Clouds 26 1005 98 6280 2.37 63 18:41 11.08.2022
670 Clouds 26 1006 97 7739 2.09 98 16:42 11.08.2022
671 Clouds 25 1005 95 9943 2.45 109 15:37 11.08.2022
672 Rain 27 1003 91 10000 2.79 106 13:51 11.08.2022
673 Rain 29 1001 87 10000 3.47 148 11:26 11.08.2022
674 Clouds 25 1000 97 10000 3.71 138 08:34 11.08.2022
675 Rain 26 1001 98 3605 4.35 191 04:53 11.08.2022
676 Rain 25 999 94 9762 3.49 286 01:55 11.08.2022
677 Rain 25 998 97 10000 4.7 281 22:54 10.08.2022
678 Rain 25 998 97 10000 4.22 290 21:44 10.08.2022
679 Rain 26 997 98 3531 5.06 289 20:56 10.08.2022
680 Rain 26 999 97 8836 5 277 19:58 10.08.2022
681 Rain 26 1000 97 6506 5.49 278 18:45 10.08.2022
682 Rain 26 1001 97 2617 3.46 297 17:20 10.08.2022
683 Rain 26 1001 91 10000 2.82 345 13:49 10.08.2022
684 Rain 26 1000 89 10000 2.58 326 12:50 10.08.2022
685 Clouds 31 1000 83 10000 2.28 7 10:21 10.08.2022
686 Rain 32 1000 79 10000 2.84 9 08:36 10.08.2022
687 Clouds 32 1001 69 10000 3.31 340 07:21 10.08.2022
688 Rain 30 1002 74 10000 3.31 313 04:49 10.08.2022
689 Clouds 27 1001 91 10000 3.2 312 00:49 10.08.2022
690 Clouds 27 1000 89 10000 2.58 309 23:25 09.08.2022
691 Clouds 27 1000 87 10000 2.49 296 21:37 09.08.2022
692 Clouds 28 1000 86 10000 2.23 295 20:42 09.08.2022
693 Clouds 29 1001 84 10000 1.31 326 18:48 09.08.2022
694 Clouds 29 1002 84 10000 1.43 284 17:31 09.08.2022
695 Clouds 29 1002 84 10000 1.43 284 17:31 09.08.2022
696 Clouds 30 1002 83 10000 2.05 245 16:42 09.08.2022
697 Clouds 30 1002 83 10000 2.19 226 15:59 09.08.2022
698 Clouds 32 1001 79 10000 1.86 189 14:29 09.08.2022
699 Clouds 35 1001 77 10000 0.91 234 10:39 09.08.2022
700 Rain 34 1002 72 10000 0.71 204 08:51 09.08.2022
701 Rain 33 1003 68 10000 0.52 260 07:54 09.08.2022
702 Clouds 29 1005 70 10000 0.81 169 04:31 09.08.2022
703 Clouds 26 1003 93 10000 2.22 322 23:46 08.08.2022
704 Clouds 25 1003 92 10000 2.19 311 22:57 08.08.2022
705 Clouds 25 1003 92 10000 2.19 311 22:35 08.08.2022
706 Clouds 26 1004 90 10000 1.04 258 21:27 08.08.2022
707 Clouds 26 1005 89 10000 0.97 257 19:51 08.08.2022
708 Clouds 26 1005 87 10000 1.52 224 18:58 08.08.2022
709 Clouds 26 1005 88 10000 1.12 197 17:34 08.08.2022
710 Clouds 26 1005 87 10000 2.12 182 15:45 08.08.2022
711 Clouds 27 1004 86 10000 2.39 175 14:33 08.08.2022
712 Rain 27 1002 75 10000 2.12 145 12:29 08.08.2022
713 Clouds 35 1002 68 8860 2.19 55 10:19 08.08.2022
714 Clouds 32 1005 60 10000 2.32 347 06:54 08.08.2022
715 Clouds 28 1006 78 10000 3.3 320 03:31 08.08.2022
716 Clouds 24 1005 96 10000 2.19 313 22:42 07.08.2022
717 Clouds 26 1005 96 10000 1.96 326 21:40 07.08.2022
718 Clouds 26 1006 95 10000 2.52 301 20:26 07.08.2022
719 Clouds 26 1006 95 10000 2.52 301 20:26 07.08.2022
720 Clouds 27 1006 95 10000 2.52 301 19:57 07.08.2022
721 Clouds 27 1006 95 10000 2.52 301 19:39 07.08.2022
722 Clouds 27 1007 95 10000 2.28 300 18:35 07.08.2022
723 Clouds 28 1007 94 10000 1.87 325 16:54 07.08.2022
724 Clouds 28 1007 94 10000 1.87 325 16:35 07.08.2022
725 Clouds 28 1006 94 10000 1.99 324 15:23 07.08.2022
726 Clouds 29 1005 91 10000 1.91 331 13:34 07.08.2022
727 Clouds 29 1004 85 10000 2.1 346 11:58 07.08.2022
728 Rain 30 1004 82 10000 1.67 337 10:34 07.08.2022
729 Clouds 29 1005 81 10000 0.83 152 07:38 07.08.2022
730 Rain 26 1006 94 10000 1.28 40 03:20 07.08.2022
731 Clouds 26 1005 96 7532 1.52 68 00:57 07.08.2022
732 Clouds 26 1004 96 10000 0.95 98 22:25 06.08.2022
733 Clouds 26 1004 97 10000 1.68 117 20:46 06.08.2022
734 Clouds 26 1005 96 10000 1.93 116 19:41 06.08.2022
735 Clouds 26 1006 93 10000 0.98 66 18:30 06.08.2022
736 Clouds 26 1006 91 10000 0.77 30 17:32 06.08.2022
737 Clouds 28 1005 90 10000 1.11 99 14:43 06.08.2022
738 Clouds 28 1004 88 10000 1.11 132 13:44 06.08.2022
739 Rain 29 1003 86 10000 1.46 154 11:55 06.08.2022
740 Clouds 29 1003 84 10000 1.67 154 10:32 06.08.2022
741 Clouds 28 1003 86 10000 1.8 164 08:32 06.08.2022
742 Clouds 26 1005 93 10000 2.31 105 03:53 06.08.2022
743 Rain 25 1003 91 10000 2.74 127 23:50 05.08.2022
744 Clouds 27 1003 91 7128 2.79 139 22:32 05.08.2022
745 Clouds 27 1003 91 5580 2.33 103 19:46 05.08.2022
746 Clouds 27 1004 89 10000 2.04 61 18:46 05.08.2022
747 Clouds 28 1005 88 10000 1.99 83 18:22 05.08.2022
748 Clouds 28 1005 88 10000 2.19 92 16:49 05.08.2022
749 Clouds 29 1004 86 10000 2.76 116 15:22 05.08.2022
750 Clouds 30 1004 86 10000 2.76 116 14:31 05.08.2022
751 Clouds 30 1001 87 10000 2.15 110 13:24 05.08.2022
752 Clouds 31 1001 86 10000 2.29 119 12:29 05.08.2022
753 Clouds 31 1001 85 10000 3.4 121 10:51 05.08.2022
754 Clouds 32 1002 65 10000 4.08 130 08:27 05.08.2022
755 Clouds 30 1003 86 10000 5.19 130 06:41 05.08.2022
756 Clouds 25 1002 87 10000 1.07 107 00:46 05.08.2022
757 Clouds 25 1001 85 10000 1.36 127 22:31 04.08.2022
758 Clouds 26 1002 84 10000 2.21 156 21:27 04.08.2022
759 Clouds 26 1002 84 10000 2.21 156 20:43 04.08.2022
760 Clouds 25 1002 85 10000 2.45 153 19:46 04.08.2022
761 Clouds 26 1003 83 10000 2.3 151 18:37 04.08.2022
762 Clouds 26 1004 82 10000 2.51 146 18:18 04.08.2022
763 Rain 31 1002 77 10000 5.04 138 14:23 04.08.2022
764 Rain 33 1000 75 10000 5.12 132 12:57 04.08.2022
765 Rain 35 1000 59 10000 3.41 129 11:18 04.08.2022
766 Clouds 35 1002 50 10000 0.49 331 07:53 04.08.2022
767 Clouds 32 1004 58 10000 0.26 357 05:46 04.08.2022
768 Clouds 29 1005 79 10000 1.21 288 02:29 04.08.2022
769 Clouds 28 1004 83 10000 0.94 175 23:45 03.08.2022
770 Clouds 28 1004 83 10000 1.43 144 22:30 03.08.2022
771 Clouds 29 1004 80 10000 2.3 135 20:50 03.08.2022
772 Clouds 30 1005 82 10000 2.55 147 19:44 03.08.2022
773 Clouds 31 1006 81 10000 2.85 155 18:36 03.08.2022
774 Clouds 32 1005 75 10000 3.66 168 16:24 03.08.2022
775 Clouds 33 1004 73 10000 4.01 161 14:51 03.08.2022
776 Clouds 35 1002 67 10000 3.66 155 12:32 03.08.2022
777 Clouds 35 1003 50 10000 1.77 218 08:50 03.08.2022
778 Clouds 31 1007 64 10000 1.08 264 04:47 03.08.2022
779 Clouds 30 1008 71 10000 0.96 298 03:37 03.08.2022
780 Clouds 27 1007 84 10000 1.28 315 01:36 03.08.2022
781 Clouds 27 1006 87 10000 0.55 150 23:23 02.08.2022
782 Clouds 28 1006 86 10000 1.1 155 21:55 02.08.2022
783 Clouds 29 1006 86 10000 1.1 155 21:30 02.08.2022
784 Clouds 29 1008 85 10000 2.26 166 18:59 02.08.2022
785 Clouds 31 1007 79 10000 3.21 154 16:27 02.08.2022
786 Clouds 33 1004 70 10000 3.85 145 12:53 02.08.2022
787 Clouds 34 1003 57 10000 4.11 143 09:40 02.08.2022
788 Clouds 32 1005 56 10000 4.16 139 07:56 02.08.2022
789 Clouds 30 1006 55 10000 3.23 126 06:43 02.08.2022
790 Clear 31 1007 62 10000 2.55 126 04:55 02.08.2022
791 Clear 28 1005 93 10000 2.03 100 23:52 01.08.2022
792 Clear 28 1005 91 10000 2.14 102 22:36 01.08.2022
793 Clear 28 1005 87 10000 2.07 123 20:53 01.08.2022
794 Clear 29 1006 88 10000 2.13 160 19:32 01.08.2022
795 Clear 28 1006 88 10000 2.13 160 18:42 01.08.2022
796 Clear 29 1006 84 10000 2.66 157 16:54 01.08.2022
797 Clear 29 1005 81 10000 2.95 152 16:28 01.08.2022
798 Clear 29 1005 81 10000 2.95 152 15:30 01.08.2022
799 Clear 29 1004 78 10000 3.89 149 14:43 01.08.2022
800 Clouds 30 1002 73 10000 4.05 145 12:47 01.08.2022
801 Clouds 33 1002 63 10000 4.75 136 10:22 01.08.2022
802 Clouds 34 1002 56 10000 4.09 132 08:34 01.08.2022
803 Clouds 30 1005 62 10000 1.57 129 04:56 01.08.2022
804 Clouds 28 1005 67 10000 1.38 134 03:49 01.08.2022
805 Clouds 26 1004 90 10000 0.81 118 00:36 01.08.2022
806 Rain 27 1003 89 10000 1.87 137 22:40 31.07.2022
807 Clouds 27 1003 88 10000 2.25 137 21:29 31.07.2022
808 Clouds 28 1003 90 10000 2.22 119 19:53 31.07.2022
809 Clouds 29 1004 87 10000 2.69 129 17:57 31.07.2022
810 Clouds 29 1003 82 10000 3.04 131 15:45 31.07.2022
811 Clouds 30 1001 79 10000 3.85 135 13:44 31.07.2022
812 Clouds 31 1000 66 10000 4.33 138 11:59 31.07.2022
813 Clouds 34 1000 65 10000 4.71 123 09:55 31.07.2022
814 Clouds 31 1001 51 10000 1.7 148 07:59 31.07.2022
815 Clouds 28 1004 78 10000 1.86 155 02:58 31.07.2022
816 Clouds 27 1002 88 10000 2.88 109 23:40 30.07.2022
817 Clouds 27 1001 88 10000 2.94 133 22:19 30.07.2022
818 Clouds 27 1001 88 10000 2.94 133 21:49 30.07.2022
819 Clouds 27 1002 88 10000 3.05 136 20:57 30.07.2022
820 Clouds 27 1002 88 10000 3.05 136 20:57 30.07.2022
821 Clouds 27 1002 88 10000 2.87 135 19:59 30.07.2022
822 Clouds 27 1003 86 10000 3.11 143 18:53 30.07.2022
823 Clouds 27 1003 84 10000 3.03 152 17:44 30.07.2022
824 Clouds 28 1002 80 10000 3.44 143 15:50 30.07.2022
825 Clouds 28 1002 77 10000 3.55 148 15:22 30.07.2022
826 Clouds 26 1000 71 10000 2.57 129 12:59 30.07.2022
827 Clouds 33 1000 65 10000 2.68 135 12:19 30.07.2022
828 Clouds 34 1001 64 10000 1.31 142 10:31 30.07.2022
829 Clouds 34 1001 64 10000 1.31 142 10:31 30.07.2022
830 Clouds 35 1001 64 10000 0.83 106 09:54 30.07.2022
831 Clouds 33 1003 55 10000 1.59 148 07:55 30.07.2022
832 Clouds 28 1005 72 10000 1.4 136 02:57 30.07.2022
833 Clouds 28 1005 78 10000 1.31 123 02:24 30.07.2022
834 Clouds 29 1004 85 10000 1.66 98 22:41 29.07.2022
835 Clouds 29 1003 84 10000 2.3 116 21:24 29.07.2022
836 Clouds 29 1003 84 10000 2.3 116 20:35 29.07.2022
837 Clouds 31 1005 81 10000 2.98 145 17:59 29.07.2022
838 Clouds 32 1003 73 10000 3.96 157 15:26 29.07.2022
839 Clouds 34 1001 63 10000 3.13 160 13:18 29.07.2022
840 Clouds 35 1002 48 10000 3.17 165 10:42 29.07.2022
841 Clouds 33 1003 50 10000 2.64 178 08:50 29.07.2022
842 Clouds 33 1004 53 10000 2.42 185 07:54 29.07.2022
843 Clouds 27 1006 83 10000 1.51 112 01:47 29.07.2022
844 Clouds 27 1005 87 10000 2.12 122 22:49 28.07.2022
845 Clouds 28 1005 85 10000 3.08 137 21:00 28.07.2022
846 Clouds 28 1005 85 10000 3.08 137 20:30 28.07.2022
847 Clouds 27 1006 85 10000 2.69 139 19:42 28.07.2022
848 Clouds 29 1006 83 10000 3.22 148 18:48 28.07.2022
849 Clouds 30 1007 81 10000 3.48 154 17:43 28.07.2022
850 Clouds 31 1006 79 10000 3.91 159 16:42 28.07.2022
851 Clouds 32 1005 72 10000 4.48 158 15:29 28.07.2022
852 Clouds 33 1002 57 10000 4.71 142 12:58 28.07.2022
853 Clouds 34 1002 38 10000 2.63 159 10:36 28.07.2022
854 Clouds 33 1007 53 10000 1.79 187 06:25 28.07.2022
855 Clouds 31 1007 59 10000 1.85 177 05:27 28.07.2022
856 Clouds 26 1007 89 10000 1.31 113 00:45 28.07.2022
857 Clouds 27 1006 89 10000 2.18 124 22:34 27.07.2022
858 Clouds 28 1006 87 10000 2.39 147 21:27 27.07.2022
859 Clear 29 1006 86 10000 2.75 145 19:37 27.07.2022
860 Clear 30 1007 82 10000 3.28 145 17:39 27.07.2022
861 Clear 31 1006 77 10000 3.89 153 15:52 27.07.2022
862 Clear 32 1005 72 10000 4.56 150 14:55 27.07.2022
863 Clear 32 1005 72 10000 4.56 150 14:33 27.07.2022
864 Clouds 34 1003 60 10000 5.41 138 12:49 27.07.2022
865 Clouds 33 1005 47 10000 3.24 174 07:53 27.07.2022
866 Clouds 33 1005 47 10000 3.24 174 07:53 27.07.2022
867 Clear 33 1007 52 10000 2.74 177 06:19 27.07.2022
868 Clear 27 1007 86 10000 1.45 130 00:48 27.07.2022
869 Clear 27 1005 85 10000 2.39 133 22:25 26.07.2022
870 Clear 28 1005 84 10000 2.74 135 21:20 26.07.2022
871 Clear 28 1006 83 10000 2.95 141 20:25 26.07.2022
872 Clear 29 1006 82 10000 3.33 148 18:42 26.07.2022
873 Clear 29 1006 80 10000 3.85 151 17:57 26.07.2022
874 Clear 31 1006 75 10000 4.61 157 15:58 26.07.2022
875 Clear 32 1005 71 10000 4.79 154 14:57 26.07.2022
876 Clear 35 1003 60 10000 5.59 147 12:59 26.07.2022
877 Clear 35 1003 42 10000 3.73 162 10:58 26.07.2022
878 Clouds 34 1005 42 10000 3 184 08:46 26.07.2022
879 Clear 32 1007 50 10000 2.86 181 05:49 26.07.2022
880 Clouds 27 1007 86 10000 1.81 138 00:27 26.07.2022
881 Clouds 27 1007 85 10000 2 136 22:51 25.07.2022
882 Clouds 27 1007 84 10000 1.99 142 22:21 25.07.2022
883 Clouds 27 1007 84 10000 1.99 142 21:38 25.07.2022
884 Clouds 28 1007 83 10000 2.25 149 20:39 25.07.2022
885 Clear 29 1008 82 10000 2.87 157 19:26 25.07.2022
886 Clear 29 1008 80 10000 3.22 162 18:18 25.07.2022
887 Clear 30 1008 78 10000 3.67 165 17:26 25.07.2022
888 Clear 33 1005 66 10000 5.21 149 14:23 25.07.2022
889 Clear 35 1004 52 10000 5.04 147 11:39 25.07.2022
890 Clear 35 1007 46 10000 2.6 180 08:22 25.07.2022
891 Clear 27 1008 80 10000 1.96 154 01:49 25.07.2022
892 Clear 26 1007 86 10000 2.1 135 23:49 24.07.2022
893 Clear 27 1007 85 10000 2.27 135 22:51 24.07.2022
894 Clear 27 1007 85 10000 2.39 138 22:24 24.07.2022
895 Clear 27 1007 83 10000 2.65 144 21:18 24.07.2022
896 Clear 28 1007 83 10000 2.65 144 20:45 24.07.2022
897 Clear 29 1007 84 10000 2.86 152 19:38 24.07.2022
898 Clear 29 1008 82 10000 3.48 160 18:27 24.07.2022
899 Clear 31 1007 78 10000 4.34 164 15:57 24.07.2022
900 Clear 32 1007 78 10000 4.34 164 15:33 24.07.2022
901 Clear 33 1005 70 10000 5.26 154 13:51 24.07.2022
902 Clouds 34 1004 64 10000 5.5 150 12:50 24.07.2022
903 Clouds 35 1004 55 10000 4.93 150 11:35 24.07.2022
904 Clouds 35 1004 45 10000 3.15 158 10:26 24.07.2022
905 Clouds 34 1006 50 10000 2.38 162 08:29 24.07.2022
906 Clouds 34 1006 50 10000 2.38 162 07:44 24.07.2022
907 Clouds 30 1009 69 10000 1.95 185 03:35 24.07.2022
908 Clear 27 1008 90 10000 1.75 153 23:36 23.07.2022
909 Clear 28 1008 87 10000 2.49 153 20:49 23.07.2022
910 Clear 29 1008 86 10000 2.84 150 19:31 23.07.2022
911 Clear 29 1008 85 10000 2.99 155 18:49 23.07.2022
912 Clear 30 1009 83 10000 3.43 160 17:28 23.07.2022
913 Clear 30 1008 81 10000 3.64 161 16:29 23.07.2022
914 Clear 31 1008 79 10000 4.16 151 15:22 23.07.2022
915 Clear 32 1008 79 10000 4.16 151 14:55 23.07.2022
916 Clouds 32 1007 76 10000 4.13 146 14:24 23.07.2022
917 Clouds 34 1006 68 10000 4.2 148 11:56 23.07.2022
918 Clouds 34 1006 66 10000 3.67 151 10:44 23.07.2022
919 Clouds 33 1006 61 10000 3.41 156 09:53 23.07.2022
920 Clouds 32 1008 55 10000 2.64 156 08:24 23.07.2022
921 Clouds 28 1011 71 10000 0.86 161 03:38 23.07.2022
922 Clouds 26 1009 90 10000 1.13 75 00:39 23.07.2022
923 Clouds 26 1009 88 10000 1.23 132 21:38 22.07.2022
924 Clouds 26 1010 88 10000 1.57 143 20:33 22.07.2022
925 Clouds 26 1010 88 10000 2.25 171 18:56 22.07.2022
926 Clouds 26 1011 84 10000 2.04 169 17:40 22.07.2022
927 Clouds 26 1010 82 10000 2.44 150 16:26 22.07.2022
928 Clouds 26 1008 73 10000 4.7 133 13:24 22.07.2022
929 Rain 33 1008 60 10000 4.74 151 10:23 22.07.2022
930 Clouds 31 1008 59 10000 4.74 146 09:24 22.07.2022
931 Clouds 32 1009 60 10000 3.76 144 08:26 22.07.2022
932 Clouds 28 1011 79 10000 1.6 82 04:24 22.07.2022
933 Clouds 26 1009 93 10000 2.08 48 23:44 21.07.2022
934 Clouds 26 1009 91 10000 1.35 86 21:55 21.07.2022
935 Clouds 26 1010 92 10000 2.12 145 20:28 21.07.2022
936 Clear 27 1010 90 7319 2.9 136 18:43 21.07.2022
937 Clear 27 1010 87 10000 2.45 141 17:22 21.07.2022
938 Clear 27 1010 87 10000 2.45 141 16:31 21.07.2022
939 Clear 27 1009 85 10000 2.65 137 14:46 21.07.2022
940 Clouds 27 1008 83 10000 3.08 137 13:58 21.07.2022
941 Clouds 27 1007 74 10000 5.28 142 12:18 21.07.2022
942 Rain 28 1007 70 10000 6.34 142 10:21 21.07.2022
943 Clouds 27 1007 68 9510 6.42 141 08:53 21.07.2022
944 Clouds 28 1008 66 10000 5.95 137 08:18 21.07.2022
945 Clouds 28 1008 60 10000 4.14 156 06:45 21.07.2022
946 Clouds 29 1009 79 10000 3.23 90 02:59 21.07.2022
947 Clouds 28 1007 90 10000 1.78 117 22:49 20.07.2022
948 Clouds 28 1007 87 10000 1.79 125 22:19 20.07.2022
949 Clouds 27 1007 86 10000 2.22 135 20:46 20.07.2022
950 Clouds 27 1007 84 10000 2.44 143 19:47 20.07.2022
951 Clouds 27 1008 84 10000 2.47 161 18:54 20.07.2022
952 Clouds 27 1008 84 10000 2.47 161 18:31 20.07.2022
953 Clouds 28 1008 81 10000 2.72 159 17:28 20.07.2022
954 Clouds 29 1008 77 10000 3.29 144 15:33 20.07.2022
955 Clouds 28 1007 74 10000 3.87 134 14:49 20.07.2022
956 Clouds 28 1004 65 10000 4.57 134 12:54 20.07.2022
957 Rain 28 1004 57 10000 4.64 136 10:57 20.07.2022
958 Clouds 32 1005 54 10000 4.74 138 06:35 20.07.2022
959 Clouds 26 1005 82 10000 3.17 130 01:47 20.07.2022
960 Clouds 26 1004 89 10000 2.37 115 00:42 20.07.2022
961 Clouds 29 1004 88 10000 2.68 126 22:36 19.07.2022
962 Clouds 29 1003 88 10000 2.91 122 21:54 19.07.2022
963 Clouds 29 1004 90 10000 3.08 113 20:49 19.07.2022
964 Clouds 29 1004 88 10000 3.3 138 19:22 19.07.2022
965 Clouds 30 1004 88 10000 3.3 138 18:41 19.07.2022
966 Clouds 30 1005 87 10000 3.41 136 17:53 19.07.2022
967 Clouds 28 1002 81 10000 4.38 129 15:27 19.07.2022
968 Clouds 28 1001 78 10000 4.63 135 13:33 19.07.2022
969 Clouds 31 999 64 10000 5.96 126 11:32 19.07.2022
970 Clouds 34 999 56 10000 5.43 126 09:51 19.07.2022
971 Clouds 34 999 55 10000 4.67 133 08:46 19.07.2022
972 Clouds 33 1001 59 10000 3.59 136 07:19 19.07.2022
973 Clouds 32 1002 65 10000 3.24 130 06:27 19.07.2022
974 Clouds 29 1002 71 10000 2.5 135 05:18 19.07.2022
975 Clouds 26 1002 83 10000 2.48 145 02:38 19.07.2022
976 Clouds 25 1000 89 10000 3.23 156 23:54 18.07.2022
977 Clouds 26 1000 89 10000 3.35 154 23:20 18.07.2022
978 Rain 26 1000 90 10000 3.08 140 22:26 18.07.2022
979 Rain 26 1000 89 10000 3 120 21:20 18.07.2022
980 Rain 26 1000 88 10000 3.25 123 20:22 18.07.2022
981 Rain 26 1001 86 10000 4.05 124 18:29 18.07.2022
982 Clouds 32 1001 85 10000 4.07 126 16:30 18.07.2022
983 Clouds 32 1000 82 10000 4.38 141 15:26 18.07.2022
984 Clouds 34 999 77 10000 5.79 126 13:31 18.07.2022
985 Clouds 37 997 55 10000 3.78 112 11:34 18.07.2022
986 Clouds 37 998 46 10000 1.24 150 09:55 18.07.2022
987 Clouds 36 999 54 10000 1.19 192 07:54 18.07.2022
988 Clouds 31 1002 79 10000 0.45 11 03:32 18.07.2022
989 Clouds 29 1000 93 10000 1.39 101 22:56 17.07.2022
990 Clouds 29 1000 91 10000 1.71 88 22:29 17.07.2022
991 Clouds 30 1000 91 10000 1.71 88 21:35 17.07.2022
992 Clouds 30 1000 89 10000 2.65 109 20:45 17.07.2022
993 Clouds 30 1001 88 10000 2.94 116 19:49 17.07.2022
994 Clouds 31 1002 85 10000 3.37 127 19:20 17.07.2022
995 Clouds 31 1002 83 10000 4.16 132 17:42 17.07.2022
996 Clouds 31 1002 82 10000 4.55 134 17:22 17.07.2022
997 Clouds 32 1002 82 10000 4.95 136 16:28 17.07.2022
998 Clouds 33 1002 82 10000 4.95 136 15:37 17.07.2022
999 Clouds 34 1000 76 10000 5.58 140 13:51 17.07.2022
1000 Clouds 35 999 69 10000 4.88 133 12:40 17.07.2022
1001 Clouds 36 999 54 10000 2.36 157 10:19 17.07.2022
1002 Rain 34 1002 58 10000 1.81 214 06:58 17.07.2022
1003 Clouds 30 1004 80 10000 1.4 168 02:34 17.07.2022
1004 Clouds 29 1003 90 10000 2.6 140 23:23 16.07.2022
1005 Clouds 29 1003 88 10000 3.23 146 21:59 16.07.2022
1006 Clouds 30 1003 86 10000 4.2 157 20:28 16.07.2022
1007 Clouds 30 1004 86 10000 4.32 153 18:43 16.07.2022
1008 Clouds 31 1004 83 10000 4.54 151 17:25 16.07.2022
1009 Clouds 32 1004 81 10000 4.84 156 15:50 16.07.2022
1010 Clouds 35 1001 65 10000 5.39 136 11:55 16.07.2022
1011 Clouds 34 1001 54 10000 3.6 146 09:41 16.07.2022
1012 Clouds 34 1002 53 10000 2.9 166 09:22 16.07.2022
1013 Clouds 34 1002 53 10000 2.9 166 08:35 16.07.2022
1014 Clouds 33 1003 57 10000 2.75 182 06:47 16.07.2022
1015 Clouds 30 1005 69 10000 2.34 177 03:31 16.07.2022
1016 Clouds 28 1003 89 10000 2.27 151 23:52 15.07.2022
1017 Clouds 28 1003 89 10000 2.53 154 22:44 15.07.2022
1018 Clouds 28 1003 88 10000 2.79 154 21:31 15.07.2022
1019 Clouds 29 1003 88 10000 2.82 147 20:32 15.07.2022
1020 Clouds 30 1004 87 10000 3.35 155 18:46 15.07.2022
1021 Clouds 30 1005 86 10000 3.59 155 17:49 15.07.2022
1022 Clouds 30 1005 84 10000 3.86 149 15:41 15.07.2022
1023 Rain 32 1002 75 10000 4.43 144 13:22 15.07.2022
1024 Clouds 33 1001 70 10000 3.64 133 11:48 15.07.2022
1025 Clouds 33 1001 64 10000 2.7 129 10:42 15.07.2022
1026 Clouds 30 1003 56 10000 1.28 102 07:43 15.07.2022
1027 Rain 26 1005 83 10000 1.16 36 02:24 15.07.2022
1028 Clouds 25 1005 88 10000 0.92 62 00:38 15.07.2022
1029 Rain 28 1004 87 10000 0.74 66 22:54 14.07.2022
1030 Rain 28 1004 86 10000 0.72 129 21:56 14.07.2022
1031 Rain 28 1004 86 10000 0.72 129 21:30 14.07.2022
1032 Rain 28 1004 87 10000 1.35 146 20:45 14.07.2022
1033 Clouds 28 1005 89 10000 1.58 157 20:26 14.07.2022
1034 Clouds 29 1004 91 10000 1.6 157 19:45 14.07.2022
1035 Clouds 30 1004 87 7598 3.25 145 16:23 14.07.2022
1036 Clouds 29 1004 87 7598 3.25 145 15:50 14.07.2022
1037 Clouds 29 1004 85 10000 3.81 144 14:43 14.07.2022
1038 Clouds 32 1002 76 10000 3.39 145 13:21 14.07.2022
1039 Clouds 32 1001 71 10000 3.9 149 12:18 14.07.2022
1040 Clouds 32 1001 67 10000 4.15 146 11:25 14.07.2022
1041 Clouds 32 1001 67 10000 4.15 146 10:39 14.07.2022
1042 Rain 34 1003 61 10000 2.15 122 08:21 14.07.2022
1043 Clouds 29 1005 78 8397 1.58 49 03:29 14.07.2022
1044 Clouds 27 1004 94 6423 0.92 32 00:54 14.07.2022
1045 Clouds 27 1003 94 6076 0.97 37 23:35 13.07.2022
1046 Clouds 27 1003 93 10000 1.16 108 22:23 13.07.2022
1047 Clouds 27 1003 93 10000 1.54 112 21:21 13.07.2022
1048 Clouds 27 1004 92 10000 1.73 121 20:23 13.07.2022
1049 Clouds 28 1005 88 10000 2.28 139 17:54 13.07.2022
1050 Clear 29 1005 87 10000 2.36 143 16:47 13.07.2022
1051 Clear 29 1004 86 10000 2.7 143 15:43 13.07.2022
1052 Clouds 29 1002 75 10000 4.35 127 13:24 13.07.2022
1053 Clouds 32 1001 68 10000 3.9 100 10:46 13.07.2022
1054 Clouds 33 1001 65 10000 4.15 93 10:28 13.07.2022
1055 Clouds 33 1001 65 10000 4.15 93 10:28 13.07.2022
1056 Clouds 31 1002 62 10000 4.41 89 09:26 13.07.2022
1057 Clouds 31 1003 64 10000 3.99 98 07:52 13.07.2022
1058 Clouds 29 1004 75 8031 2.08 66 03:19 13.07.2022
1059 Clouds 28 1004 92 10000 1.57 49 00:18 13.07.2022
1060 Clouds 28 1003 89 10000 0.86 121 22:18 12.07.2022
1061 Clouds 28 1003 89 10000 0.86 121 21:35 12.07.2022
1062 Clouds 29 1004 89 10000 1.28 161 20:42 12.07.2022
1063 Clear 29 1004 88 10000 1.68 163 19:37 12.07.2022
1064 Clear 29 1005 85 10000 2.32 164 17:55 12.07.2022
1065 Clear 29 1005 82 10000 3.11 153 16:20 12.07.2022
1066 Clouds 30 1003 75 10000 3.26 153 14:31 12.07.2022
1067 Clouds 31 1002 72 10000 3.69 139 13:20 12.07.2022
1068 Clouds 31 1001 65 10000 4.05 138 11:37 12.07.2022
1069 Clouds 31 1002 63 10000 3.5 136 10:18 12.07.2022
1070 Clouds 31 1002 63 10000 3.5 136 10:18 12.07.2022
1071 Clouds 33 1003 59 10000 3.59 133 08:24 12.07.2022
1072 Clouds 31 1004 58 10000 3.43 105 06:59 12.07.2022
1073 Clouds 30 1005 61 10000 3.32 98 05:42 12.07.2022
1074 Clear 30 1006 81 10000 2.93 82 02:52 12.07.2022
1075 Clouds 28 1004 90 10000 1.13 95 23:42 11.07.2022
1076 Clouds 28 1004 90 10000 1.47 99 22:31 11.07.2022
1077 Clouds 28 1004 89 10000 1.27 122 20:41 11.07.2022
1078 Clouds 29 1005 89 10000 1.53 141 19:50 11.07.2022
1079 Clouds 29 1005 90 10000 1.68 158 18:32 11.07.2022
1080 Clouds 29 1005 90 10000 1.89 165 17:53 11.07.2022
1081 Clear 29 1005 88 10000 2.57 156 16:21 11.07.2022
1082 Clear 30 1004 87 10000 2.68 156 14:49 11.07.2022
1083 Clouds 31 1002 68 10000 4.79 130 11:59 11.07.2022
1084 Clouds 33 1002 65 10000 4.82 127 10:37 11.07.2022
1085 Clouds 33 1003 66 10000 4.34 124 09:49 11.07.2022
1086 Clouds 34 1003 60 10000 3.56 123 08:34 11.07.2022
1087 Clouds 33 1004 56 10000 2.29 105 06:44 11.07.2022
1088 Clouds 27 1005 83 10000 0.49 358 00:22 11.07.2022
1089 Clouds 27 1004 83 10000 0.16 87 23:28 10.07.2022
1090 Clouds 27 1004 83 10000 0.7 168 21:55 10.07.2022
1091 Clouds 27 1004 83 10000 1.28 177 20:54 10.07.2022
1092 Rain 28 1004 82 10000 1.68 166 19:50 10.07.2022
1093 Rain 28 1004 82 10000 1.68 166 19:50 10.07.2022
1094 Clouds 28 1005 83 10000 2.12 169 18:50 10.07.2022
1095 Clouds 28 1005 83 10000 2.71 168 17:40 10.07.2022
1096 Clouds 28 1005 81 10000 2.94 163 16:57 10.07.2022
1097 Clouds 29 1005 79 10000 3.24 155 16:19 10.07.2022
1098 Clouds 28 1004 76 10000 3.77 146 14:33 10.07.2022
1099 Clouds 34 1002 67 10000 3.42 143 12:30 10.07.2022
1100 Clouds 34 1002 58 10000 3.01 119 11:25 10.07.2022
1101 Clouds 32 1003 54 10000 2.75 88 08:46 10.07.2022
1102 Clouds 32 1003 53 10000 2.5 101 07:59 10.07.2022
1103 Clouds 28 1006 75 10000 1.31 66 02:50 10.07.2022
1104 Clear 26 1004 89 10000 1.08 125 22:59 09.07.2022
1105 Clear 26 1004 89 10000 1.33 146 22:25 09.07.2022
1106 Clear 26 1004 89 10000 1.55 150 21:29 09.07.2022
1107 Clouds 27 1005 88 10000 2 153 18:45 09.07.2022
1108 Clouds 27 1005 87 10000 2.35 152 17:48 09.07.2022
1109 Clouds 27 1005 86 10000 2.63 147 16:58 09.07.2022
1110 Clouds 27 1004 85 10000 2.87 141 15:42 09.07.2022
1111 Clouds 28 1004 83 10000 3.19 140 14:44 09.07.2022
1112 Clouds 28 1003 80 10000 2.91 144 13:51 09.07.2022
1113 Clouds 30 1002 74 10000 3.74 143 12:48 09.07.2022
1114 Clouds 29 1001 69 10000 4.12 146 11:32 09.07.2022
1115 Clouds 28 1002 64 10000 3.9 138 10:23 09.07.2022
1116 Clouds 27 1003 61 10000 3.07 122 07:54 09.07.2022
1117 Clouds 28 1004 61 10000 1.81 119 05:37 09.07.2022
1118 Clouds 28 1005 78 10000 1.76 69 03:29 09.07.2022
1119 Rain 27 1004 93 10000 2.14 51 23:18 08.07.2022
1120 Clouds 27 1003 92 10000 1.77 56 21:59 08.07.2022
1121 Clouds 27 1003 91 10000 1.4 75 20:55 08.07.2022
1122 Clouds 27 1004 90 10000 1.11 89 20:24 08.07.2022
1123 Clouds 28 1005 88 10000 0.88 110 18:29 08.07.2022
1124 Clouds 28 1005 88 10000 0.88 110 18:29 08.07.2022
1125 Clouds 28 1005 87 10000 1.09 119 17:21 08.07.2022
1126 Clouds 28 1004 86 10000 2.15 110 14:55 08.07.2022
1127 Clouds 29 1003 85 10000 2.04 113 13:56 08.07.2022
1128 Clouds 29 1002 80 10000 1.56 13 12:28 08.07.2022
1129 Rain 29 1002 71 10000 1.69 358 10:37 08.07.2022
1130 Clouds 28 1003 61 10000 0.72 284 08:44 08.07.2022
1131 Rain 28 1005 83 10000 1.02 304 06:50 08.07.2022
1132 Rain 27 1005 91 10000 0.91 9 01:49 08.07.2022
1133 Clouds 26 1004 95 10000 1.99 27 23:30 07.07.2022
1134 Clouds 26 1004 94 10000 1.5 42 22:38 07.07.2022
1135 Clouds 26 1004 94 6407 1.31 61 20:40 07.07.2022
1136 Clouds 25 1005 92 10000 1.79 23 18:23 07.07.2022
1137 Clouds 26 1004 92 10000 1.48 48 16:57 07.07.2022
1138 Rain 27 1003 89 10000 0.81 78 14:56 07.07.2022
1139 Rain 27 1002 84 10000 1.56 12 13:25 07.07.2022
1140 Rain 27 1001 82 10000 2.23 334 12:24 07.07.2022
1141 Rain 27 1001 82 10000 2.23 334 11:46 07.07.2022
1142 Rain 27 1001 76 4722 1.36 328 11:27 07.07.2022
1143 Rain 27 1001 76 4722 1.36 328 10:42 07.07.2022
1144 Rain 26 1002 71 7089 0.47 10 10:24 07.07.2022
1145 Clouds 31 1003 87 10000 2.25 88 06:58 07.07.2022
1146 Clouds 27 1004 86 10000 0.5 81 01:51 07.07.2022
1147 Clouds 26 1002 91 10000 1.39 100 23:36 06.07.2022
1148 Clouds 27 1002 90 10000 1.14 97 23:18 06.07.2022
1149 Clouds 27 1002 90 10000 1.14 97 22:52 06.07.2022
1150 Clouds 27 1002 90 10000 1.14 97 22:34 06.07.2022
1151 Rain 27 1002 91 10000 1.61 173 20:36 06.07.2022
1152 Clouds 28 1004 90 10000 0.37 347 19:35 06.07.2022
1153 Clouds 29 1005 91 10000 1.44 322 17:32 06.07.2022
1154 Clouds 29 1005 91 10000 1 325 15:59 06.07.2022
1155 Clouds 30 1004 92 10000 1.67 336 14:33 06.07.2022
1156 Clouds 30 1001 84 10000 1.09 189 12:31 06.07.2022
1157 Clouds 30 1001 84 10000 1.09 189 11:45 06.07.2022
1158 Clouds 31 1002 78 10000 2.21 210 10:18 06.07.2022
1159 Rain 30 1002 74 10000 1.38 210 07:44 06.07.2022
1160 Rain 30 1002 74 10000 1.38 210 07:44 06.07.2022
1161 Clouds 30 1004 76 10000 1.83 197 07:20 06.07.2022
1162 Clouds 26 1004 95 10000 2.41 80 01:42 06.07.2022
1163 Clouds 25 1003 93 10000 1.42 45 22:45 05.07.2022
1164 Rain 25 1002 94 10000 1.91 54 21:32 05.07.2022
1165 Rain 25 1002 94 10000 1.91 54 21:32 05.07.2022
1166 Rain 25 1002 96 7539 1.02 106 20:38 05.07.2022
1167 Rain 25 1001 89 10000 2.9 7 19:41 05.07.2022
1168 Rain 25 1002 86 10000 3.2 133 18:26 05.07.2022
1169 Rain 25 1002 86 10000 3.2 133 17:41 05.07.2022
1170 Rain 25 1002 90 10000 3.27 147 16:39 05.07.2022
1171 Rain 25 1000 84 10000 4.85 133 15:23 05.07.2022
1172 Rain 27 1000 80 8591 5.14 178 13:36 05.07.2022
1173 Rain 33 997 70 10000 4.99 87 12:41 05.07.2022
1174 Clouds 35 998 48 10000 1.59 19 10:46 05.07.2022
1175 Clouds 35 998 46 10000 0.85 2 09:58 05.07.2022
1176 Clouds 35 999 48 10000 0.57 292 08:24 05.07.2022
1177 Clouds 36 1000 52 10000 0.59 332 07:21 05.07.2022
1178 Rain 33 1001 64 10000 1.57 31 04:40 05.07.2022
1179 Rain 30 1000 79 10000 1.54 68 01:54 05.07.2022
1180 Rain 29 999 84 10000 1.92 66 23:40 04.07.2022
1181 Rain 29 999 83 10000 1.65 71 22:58 04.07.2022
1182 Rain 29 998 82 10000 1.93 92 22:19 04.07.2022
1183 Rain 29 998 82 10000 1.82 109 20:58 04.07.2022
1184 Rain 29 998 82 10000 1.82 109 20:37 04.07.2022
1185 Rain 30 999 81 10000 2.14 116 19:57 04.07.2022
1186 Rain 30 998 81 10000 2.32 111 19:37 04.07.2022
1187 Rain 30 999 80 10000 2.79 119 18:54 04.07.2022
1188 Rain 30 999 77 10000 3.43 134 16:58 04.07.2022
1189 Rain 32 999 76 10000 3.72 134 15:40 04.07.2022
1190 Rain 34 996 70 10000 4.48 134 14:19 04.07.2022
1191 Clouds 35 996 67 10000 4.69 126 12:56 04.07.2022
1192 Clouds 36 995 56 10000 3.39 111 11:32 04.07.2022
1193 Clouds 36 995 53 10000 2.19 78 10:32 04.07.2022
1194 Clouds 36 996 61 10000 1.32 29 09:23 04.07.2022
1195 Clouds 34 999 69 10000 1.85 356 06:28 04.07.2022
1196 Clouds 30 999 78 10000 2.18 32 02:59 04.07.2022
1197 Clouds 30 997 90 10000 2.06 21 23:52 03.07.2022
1198 Clouds 30 997 89 10000 1.94 26 22:36 03.07.2022
1199 Clouds 30 997 87 10000 1.94 86 20:46 03.07.2022
1200 Clouds 30 998 84 10000 2.53 84 19:52 03.07.2022
1201 Clouds 30 998 83 10000 2.29 101 19:24 03.07.2022
1202 Clouds 30 998 81 10000 2.43 127 18:27 03.07.2022
1203 Clouds 31 998 81 10000 2.43 127 17:38 03.07.2022
1204 Clouds 32 998 79 10000 4.52 148 15:27 03.07.2022
1205 Rain 33 998 79 10000 4.52 148 14:53 03.07.2022
1206 Clouds 35 997 73 10000 5.24 155 13:50 03.07.2022
1207 Clouds 36 995 58 10000 4.17 131 12:44 03.07.2022
1208 Clouds 36 994 44 10000 1.77 108 12:18 03.07.2022
1209 Clouds 37 994 42 10000 1.08 113 10:54 03.07.2022
1210 Clouds 36 994 42 10000 1.08 113 10:35 03.07.2022
1211 Clouds 34 996 47 10000 2.31 266 07:38 03.07.2022
1212 Clouds 33 997 51 10000 2.75 270 06:34 03.07.2022
1213 Clouds 27 997 84 10000 1.55 341 00:38 03.07.2022
1214 Clouds 26 996 84 10000 1.51 344 23:36 02.07.2022
1215 Clouds 26 996 83 10000 1.18 348 22:31 02.07.2022
1216 Clouds 26 997 83 10000 0.98 167 20:26 02.07.2022
1217 Clouds 27 997 83 10000 0.98 167 19:49 02.07.2022
1218 Rain 26 998 79 10000 3.14 161 18:20 02.07.2022
1219 Rain 26 998 79 10000 3.14 161 17:38 02.07.2022
1220 Rain 27 997 70 10000 2.99 155 15:46 02.07.2022
1221 Rain 35 994 62 10000 0.59 190 12:56 02.07.2022
1222 Rain 35 994 55 10000 1.11 302 11:48 02.07.2022
1223 Clouds 36 994 48 10000 2.72 299 10:50 02.07.2022
1224 Clouds 35 994 45 10000 3.09 305 09:49 02.07.2022
1225 Clouds 36 995 45 10000 3.7 312 08:37 02.07.2022
1226 Clouds 36 996 44 10000 4.33 321 08:19 02.07.2022
1227 Clouds 29 998 75 10000 5.11 304 02:53 02.07.2022
1228 Clouds 27 997 88 10000 3.4 306 00:27 02.07.2022
1229 Clouds 26 997 87 10000 3.11 312 22:59 01.07.2022
1230 Clouds 27 997 86 10000 2.9 308 22:29 01.07.2022
1231 Clouds 27 997 86 10000 2.9 308 21:37 01.07.2022
1232 Clouds 27 998 84 10000 2.86 304 20:58 01.07.2022
1233 Clouds 27 999 83 10000 2.35 315 20:20 01.07.2022
1234 Clouds 28 999 82 10000 2.26 329 19:34 01.07.2022
1235 Clouds 28 1000 78 10000 1.57 353 16:41 01.07.2022
1236 Rain 29 999 75 10000 1.43 50 14:29 01.07.2022
1237 Rain 29 999 82 10000 0.61 223 13:33 01.07.2022
1238 Clouds 31 998 75 10000 2.38 88 10:53 01.07.2022
1239 Clouds 27 999 66 10000 2.03 65 10:19 01.07.2022
1240 Clouds 31 1001 56 10000 3.07 353 06:31 01.07.2022
1241 Clouds 27 1002 78 10000 3.09 312 02:43 01.07.2022
1242 Clouds 27 1001 88 10000 1.16 318 23:44 30.06.2022
1243 Clouds 27 1001 88 10000 0.66 341 22:50 30.06.2022
1244 Clouds 27 1001 87 10000 0.34 322 22:31 30.06.2022
1245 Clouds 27 1001 87 10000 0.34 322 21:53 30.06.2022
1246 Clouds 28 1001 86 10000 0.12 95 20:49 30.06.2022
1247 Clouds 28 1001 87 10000 0.74 163 20:20 30.06.2022
1248 Clouds 28 1001 86 10000 1.35 123 19:47 30.06.2022
1249 Clouds 28 1002 85 10000 1.83 127 18:52 30.06.2022
1250 Clouds 28 1002 85 10000 1.92 133 17:53 30.06.2022
1251 Clouds 28 1002 84 10000 2.23 146 17:18 30.06.2022
1252 Clouds 29 1002 82 10000 2.27 156 15:56 30.06.2022
1253 Clouds 31 1000 77 10000 1.25 149 13:58 30.06.2022
1254 Clouds 31 999 74 10000 2.36 122 13:19 30.06.2022
1255 Clouds 31 998 66 10000 2.59 138 12:33 30.06.2022
1256 Clouds 32 999 59 10000 2.07 118 10:21 30.06.2022
1257 Clouds 32 999 59 10000 2.07 118 09:41 30.06.2022
1258 Rain 31 1000 58 10000 1.49 347 08:26 30.06.2022
1259 Rain 30 1000 56 10000 2.59 320 07:41 30.06.2022
1260 Rain 27 1003 80 10000 2.06 322 03:53 30.06.2022
1261 Clouds 24 1001 84 10000 1.27 16 23:39 29.06.2022
1262 Clouds 24 1000 83 10000 0.69 78 22:41 29.06.2022
1263 Clouds 24 1000 82 10000 1.21 136 22:19 29.06.2022
1264 Clouds 29 1000 83 6326 1.09 147 20:35 29.06.2022
1265 Clouds 29 1000 84 4903 0.85 130 19:56 29.06.2022
1266 Rain 30 1001 72 10000 1.59 64 17:55 29.06.2022
1267 Rain 30 1001 72 10000 1.59 64 17:32 29.06.2022
1268 Rain 30 1000 68 10000 1.74 42 16:24 29.06.2022
1269 Clouds 31 998 65 10000 1.82 38 13:45 29.06.2022
1270 Rain 32 998 64 10000 1.96 11 12:38 29.06.2022
1271 Clouds 32 998 64 10000 1.96 11 12:38 29.06.2022
1272 Rain 33 998 54 10000 3.7 327 10:18 29.06.2022
1273 Rain 33 998 51 10000 3.43 323 09:27 29.06.2022
1274 Clouds 32 1001 56 10000 3.2 322 06:32 29.06.2022
1275 Clouds 30 1001 61 10000 3.18 324 04:44 29.06.2022
1276 Clouds 29 1000 83 10000 2.38 334 00:53 29.06.2022
1277 Clouds 29 1000 83 10000 2.38 334 00:34 29.06.2022
1278 Clouds 29 999 80 10000 1.42 335 22:52 28.06.2022
1279 Clouds 29 998 78 10000 0.64 125 21:59 28.06.2022
1280 Clouds 29 998 78 10000 0.64 125 21:40 28.06.2022
1281 Clouds 29 999 76 10000 2.21 140 21:22 28.06.2022
1282 Clouds 30 999 75 10000 3.52 143 19:54 28.06.2022
1283 Rain 30 999 75 10000 3.52 143 19:30 28.06.2022
1284 Clouds 30 1000 73 10000 3.89 147 18:40 28.06.2022
1285 Clouds 32 1001 66 10000 4.9 140 16:58 28.06.2022
1286 Clouds 33 1000 63 10000 4.55 122 15:55 28.06.2022
1287 Clouds 34 999 59 10000 4.15 109 14:50 28.06.2022
1288 Clouds 34 998 54 10000 2.29 76 14:18 28.06.2022
1289 Clouds 35 998 54 10000 2.29 76 13:45 28.06.2022
1290 Clouds 36 997 46 10000 1.78 8 12:28 28.06.2022
1291 Clouds 36 998 37 10000 1.99 295 10:23 28.06.2022
1292 Clouds 35 999 38 10000 1.92 264 08:55 28.06.2022
1293 Clouds 36 999 38 10000 1.92 264 08:33 28.06.2022
1294 Clouds 35 1001 42 10000 3.3 276 07:20 28.06.2022
1295 Clouds 31 1003 62 10000 1.33 347 03:39 28.06.2022
1296 Clouds 28 1001 85 10000 1.41 153 23:51 27.06.2022
1297 Clouds 28 1001 86 10000 2.43 150 23:25 27.06.2022
1298 Clouds 29 1001 86 10000 3.25 144 21:53 27.06.2022
1299 Clouds 29 1001 85 10000 3.1 147 21:22 27.06.2022
1300 Clouds 29 1001 83 10000 4.16 145 20:21 27.06.2022
1301 Clouds 30 1002 80 10000 4.56 149 18:50 27.06.2022
1302 Clouds 31 1003 77 10000 5.05 152 17:33 27.06.2022
1303 Clouds 32 1002 70 10000 6.02 150 15:44 27.06.2022
1304 Clouds 32 1000 56 10000 6.35 147 14:18 27.06.2022
1305 Clouds 36 999 51 10000 5.67 146 12:58 27.06.2022
1306 Clouds 37 998 38 10000 4.21 160 11:30 27.06.2022
1307 Clouds 36 1000 36 10000 3.18 201 09:45 27.06.2022
1308 Clouds 36 1001 38 10000 3.3 205 08:43 27.06.2022
1309 Clouds 34 1002 42 10000 3.17 234 07:39 27.06.2022
1310 Clouds 33 1005 56 10000 2.74 206 05:22 27.06.2022
1311 Clouds 29 1005 87 10000 2.25 189 01:22 27.06.2022
1312 Clouds 28 1005 86 10000 3.28 160 22:58 26.06.2022
1313 Clouds 28 1004 85 10000 3.49 156 21:38 26.06.2022
1314 Clouds 29 1004 80 10000 4.69 168 20:28 26.06.2022
1315 Clouds 29 1005 78 10000 5 163 18:33 26.06.2022
1316 Clouds 29 1006 78 10000 5.33 164 17:40 26.06.2022
1317 Clouds 29 1005 73 10000 5.55 151 15:36 26.06.2022
1318 Clouds 32 1003 63 10000 6.38 141 14:22 26.06.2022
1319 Clouds 32 1002 56 10000 6.72 148 13:23 26.06.2022
1320 Clouds 34 1002 47 10000 5.24 155 11:39 26.06.2022
1321 Clouds 34 1002 41 10000 3.7 180 10:42 26.06.2022
1322 Clouds 33 1002 40 10000 3.6 205 09:58 26.06.2022
1323 Clouds 33 1004 42 10000 3.57 204 07:47 26.06.2022
1324 Clouds 33 1004 42 10000 3.57 204 07:47 26.06.2022
1325 Clouds 31 1006 57 10000 2.76 178 05:26 26.06.2022
1326 Clear 27 1006 87 10000 1.55 123 00:36 26.06.2022
1327 Clear 27 1005 88 10000 1.85 123 00:18 26.06.2022
1328 Clear 28 1005 88 10000 2.23 140 23:29 25.06.2022
1329 Clear 28 1005 88 10000 2.23 140 22:42 25.06.2022
1330 Clear 28 1005 87 10000 2.51 139 22:24 25.06.2022
1331 Clear 28 1005 86 10000 2.78 148 21:21 25.06.2022
1332 Clear 29 1005 86 10000 2.78 148 20:32 25.06.2022
1333 Clear 29 1005 84 10000 3.15 148 19:56 25.06.2022
1334 Clear 29 1006 81 10000 4.29 156 18:22 25.06.2022
1335 Clear 30 1006 78 10000 4.42 152 17:26 25.06.2022
1336 Clear 30 1005 75 10000 4.76 151 16:25 25.06.2022
1337 Clouds 32 1003 63 10000 6.12 143 14:28 25.06.2022
1338 Clouds 34 1001 59 10000 5.81 141 12:43 25.06.2022
1339 Clouds 35 1001 54 10000 5.18 151 11:39 25.06.2022
1340 Clouds 34 1002 47 10000 4.56 173 09:24 25.06.2022
1341 Clouds 34 1002 47 10000 4.56 173 08:48 25.06.2022
1342 Clouds 33 1003 49 10000 4.11 168 08:20 25.06.2022
1343 Clouds 33 1005 55 10000 3.95 178 06:26 25.06.2022
1344 Clouds 27 1005 89 10000 2.14 152 00:44 25.06.2022
1345 Clouds 28 1005 91 10000 2.49 150 23:32 24.06.2022
1346 Clouds 28 1004 89 10000 3 153 21:59 24.06.2022
1347 Clouds 28 1005 87 10000 3.29 154 21:21 24.06.2022
1348 Clouds 28 1006 85 10000 3.77 155 20:22 24.06.2022
1349 Clouds 28 1006 82 10000 4.41 155 19:23 24.06.2022
1350 Clouds 29 1006 82 10000 4.41 155 18:50 24.06.2022
1351 Clouds 29 1006 82 10000 4.41 155 18:30 24.06.2022
1352 Clouds 29 1006 79 10000 4.59 154 17:46 24.06.2022
1353 Clouds 30 1006 73 10000 4.87 153 15:56 24.06.2022
1354 Clouds 31 1004 62 10000 5.08 154 14:29 24.06.2022
1355 Clouds 32 1003 63 10000 5.35 154 13:55 24.06.2022
1356 Clouds 34 1002 51 10000 5.03 151 11:54 24.06.2022
1357 Clouds 33 1002 51 10000 5.03 151 11:34 24.06.2022
1358 Clouds 34 1003 50 10000 4.43 154 10:22 24.06.2022
1359 Clouds 34 1003 50 10000 4.43 154 09:40 24.06.2022
1360 Clouds 34 1004 45 10000 3.6 168 08:52 24.06.2022
1361 Clouds 33 1006 47 10000 3.22 189 06:58 24.06.2022
1362 Clouds 32 1006 47 10000 3.22 189 06:40 24.06.2022
1363 Clouds 32 1007 51 10000 3.19 179 05:57 24.06.2022
1364 Clouds 28 1008 69 10000 3.63 155 02:31 24.06.2022
1365 Clouds 27 1006 86 10000 3.01 151 22:55 23.06.2022
1366 Clouds 28 1006 86 10000 3.01 151 22:33 23.06.2022
1367 Clouds 27 1007 85 10000 3.77 149 20:56 23.06.2022
1368 Clouds 27 1007 85 10000 3.77 149 20:32 23.06.2022
1369 Clouds 27 1007 81 10000 3.92 151 18:59 23.06.2022
1370 Clouds 27 1007 78 10000 4.23 150 17:50 23.06.2022
1371 Clouds 28 1008 80 10000 3.9 152 16:50 23.06.2022
1372 Clouds 28 1007 78 10000 4.75 152 15:43 23.06.2022
1373 Clouds 28 1006 72 10000 4.67 136 15:23 23.06.2022
1374 Clouds 30 1003 62 10000 4.56 133 13:21 23.06.2022
1375 Clouds 32 1003 53 10000 1.51 170 11:23 23.06.2022
1376 Clouds 32 1003 50 10000 2.06 246 09:46 23.06.2022
1377 Rain 31 1004 44 10000 2.77 194 08:18 23.06.2022
1378 Rain 25 1007 77 10000 4.67 153 02:19 23.06.2022
1379 Rain 25 1006 86 10000 4.28 146 00:25 23.06.2022
1380 Rain 26 1005 86 10000 3.97 145 23:27 22.06.2022
1381 Rain 25 1005 82 10000 4.3 149 22:24 22.06.2022
1382 Clouds 24 1005 79 10000 4.29 144 20:57 22.06.2022
1383 Clouds 27 1006 79 10000 4.17 148 20:21 22.06.2022
1384 Clouds 29 1005 80 10000 4.39 149 19:44 22.06.2022
1385 Clouds 29 1006 77 10000 4.37 144 17:50 22.06.2022
1386 Clouds 29 1006 76 10000 4.52 146 17:20 22.06.2022
1387 Clouds 31 1005 75 10000 4.65 147 15:46 22.06.2022
1388 Clouds 31 1004 71 10000 5.01 142 15:22 22.06.2022
1389 Clouds 33 1003 66 10000 4.37 133 13:50 22.06.2022
1390 Clouds 33 1002 60 10000 6.47 130 13:25 22.06.2022
1391 Clouds 32 1002 60 10000 6.47 130 12:37 22.06.2022
1392 Clouds 34 1001 54 10000 7.01 133 11:46 22.06.2022
1393 Rain 35 1001 44 10000 6.14 131 10:53 22.06.2022
1394 Rain 36 1001 41 10000 3.68 135 09:44 22.06.2022
1395 Rain 35 1002 38 10000 2.46 183 07:51 22.06.2022
1396 Clouds 29 1003 60 10000 2.59 176 02:56 22.06.2022
1397 Clouds 27 1002 79 10000 2.7 141 01:19 22.06.2022
1398 Clouds 27 1001 75 10000 4 152 23:19 21.06.2022
1399 Clouds 30 1000 69 10000 5.02 156 21:25 21.06.2022
1400 Clouds 30 1000 71 10000 5.48 156 19:43 21.06.2022
1401 Clouds 30 1001 66 10000 5.56 151 17:56 21.06.2022
1402 Clouds 31 1001 66 10000 5.78 142 16:49 21.06.2022
1403 Clouds 38 995 40 10000 6.77 157 12:23 21.06.2022
1404 Clouds 38 995 33 10000 5.58 170 10:55 21.06.2022
1405 Clouds 38 995 32 10000 4.39 193 09:39 21.06.2022
1406 Clouds 37 997 35 10000 4.37 213 07:56 21.06.2022
1407 Clouds 35 999 42 10000 2.85 245 04:59 21.06.2022
1408 Clouds 28 998 70 10000 1.54 172 00:35 21.06.2022
1409 Clouds 29 997 67 10000 2.69 148 22:22 20.06.2022
1410 Clouds 29 997 67 10000 2.69 148 21:41 20.06.2022
1411 Clouds 29 997 67 10000 2.64 154 20:30 20.06.2022
1412 Clouds 30 997 70 10000 3.55 144 19:37 20.06.2022
1413 Clouds 31 998 67 10000 5.31 148 18:34 20.06.2022
1414 Clouds 31 998 67 10000 5.31 148 17:50 20.06.2022
1415 Clouds 32 998 67 10000 5.17 145 16:53 20.06.2022
1416 Clouds 33 998 65 10000 5.45 141 15:52 20.06.2022
1417 Clouds 36 995 51 10000 5.97 150 12:37 20.06.2022
1418 Clouds 38 995 37 10000 4.4 183 10:22 20.06.2022
1419 Clouds 38 996 37 10000 4.7 207 08:56 20.06.2022
1420 Clouds 36 997 38 10000 3.3 225 07:53 20.06.2022
1421 Clouds 35 999 45 10000 3.41 259 05:26 20.06.2022
1422 Clouds 30 999 60 10000 1.05 231 01:33 20.06.2022
1423 Clouds 29 999 66 10000 1.31 195 00:19 20.06.2022
1424 Clouds 31 998 66 10000 1.3 193 22:43 19.06.2022
1425 Clouds 32 998 64 10000 1.59 190 21:48 19.06.2022
1426 Clouds 32 998 64 10000 1.59 190 21:48 19.06.2022
1427 Clouds 32 998 63 10000 2.04 191 21:29 19.06.2022
1428 Clouds 32 998 64 10000 1.84 190 20:30 19.06.2022
1429 Clouds 32 998 64 10000 1.84 190 19:47 19.06.2022
1430 Clouds 32 999 65 10000 2.29 190 18:43 19.06.2022
1431 Clouds 33 999 65 10000 2.67 173 17:48 19.06.2022
1432 Clouds 33 999 64 10000 2.4 159 17:22 19.06.2022
1433 Clouds 34 999 64 10000 2.4 159 16:34 19.06.2022
1434 Clouds 35 998 62 10000 2.34 164 15:41 19.06.2022
1435 Clouds 35 997 64 10000 3.57 157 14:56 19.06.2022
1436 Clouds 36 997 57 10000 3.66 165 13:58 19.06.2022
1437 Clouds 37 996 50 10000 1.96 189 12:56 19.06.2022
1438 Clouds 38 996 45 10000 1.73 213 10:54 19.06.2022
1439 Clouds 38 996 39 10000 2.12 210 09:40 19.06.2022
1440 Clouds 38 997 38 10000 3.05 219 08:47 19.06.2022
1441 Clouds 38 997 38 10000 3.05 219 08:47 19.06.2022
1442 Clouds 38 998 39 10000 4.45 245 07:51 19.06.2022
1443 Clouds 34 1001 46 10000 3.86 249 04:45 19.06.2022
1444 Clouds 28 1000 71 10000 1.21 225 01:29 19.06.2022
1445 Clouds 28 1000 69 10000 1.73 196 00:24 19.06.2022
1446 Clouds 30 1000 69 10000 1.73 196 23:35 18.06.2022
1447 Clouds 30 999 68 10000 2.46 194 22:36 18.06.2022
1448 Clouds 30 999 64 10000 2.71 184 20:56 18.06.2022
1449 Clouds 30 1000 63 10000 2.63 182 20:28 18.06.2022
1450 Clouds 31 1000 67 10000 2.01 166 19:37 18.06.2022
1451 Clouds 31 1000 65 10000 2.08 157 18:45 18.06.2022
1452 Clouds 32 1000 63 10000 1.95 172 17:31 18.06.2022
1453 Clouds 33 1000 64 10000 2.36 174 16:37 18.06.2022
1454 Clouds 33 999 63 10000 2 158 15:22 18.06.2022
1455 Clouds 34 999 63 10000 2 158 14:42 18.06.2022
1456 Clouds 35 997 54 10000 3.18 133 13:21 18.06.2022
1457 Clouds 36 997 47 10000 2.7 153 11:34 18.06.2022
1458 Clouds 36 998 40 10000 4.43 220 10:26 18.06.2022
1459 Clouds 36 999 41 10000 4.94 238 09:20 18.06.2022
1460 Clouds 36 999 42 10000 5.39 238 08:19 18.06.2022
1461 Clouds 34 1001 54 10000 3.14 204 06:43 18.06.2022
1462 Clouds 31 1001 61 10000 2.41 204 03:24 18.06.2022
1463 Clouds 27 1000 69 10000 2.62 186 01:24 18.06.2022
1464 Clouds 28 1000 69 10000 2.62 186 00:42 18.06.2022
1465 Clouds 29 1000 68 10000 2.61 195 23:52 17.06.2022
1466 Clouds 28 1000 68 10000 2.57 197 22:56 17.06.2022
1467 Clouds 30 1000 70 10000 2.86 190 20:42 17.06.2022
1468 Clouds 30 1001 69 10000 2.89 174 19:29 17.06.2022
1469 Clouds 31 1001 68 10000 3.05 166 18:25 17.06.2022
1470 Clouds 32 1001 68 10000 3.05 166 17:34 17.06.2022
1471 Clouds 32 1002 66 10000 2.8 162 16:38 17.06.2022
1472 Clouds 33 1001 65 10000 2.76 175 15:42 17.06.2022
1473 Clouds 33 1001 63 10000 2.95 174 14:46 17.06.2022
1474 Clouds 34 1000 61 10000 3.36 161 14:19 17.06.2022
1475 Clouds 35 1000 61 10000 3.36 161 13:42 17.06.2022
1476 Clouds 35 999 55 10000 4.65 165 12:42 17.06.2022
1477 Clouds 35 999 50 10000 6.1 172 11:56 17.06.2022
1478 Clouds 34 999 50 10000 6.1 172 11:35 17.06.2022
1479 Clouds 34 999 40 10000 3.81 202 09:49 17.06.2022
1480 Clouds 34 1001 44 10000 4.79 202 08:27 17.06.2022
1481 Clouds 34 1003 54 10000 2.69 203 06:51 17.06.2022
1482 Clouds 32 1004 61 10000 1.65 235 04:49 17.06.2022
1483 Clouds 27 1003 81 10000 0.71 273 01:57 17.06.2022
1484 Clouds 26 1003 86 10000 0.48 235 00:26 17.06.2022
1485 Clouds 27 1002 85 10000 0.85 197 22:43 16.06.2022
1486 Clouds 28 1003 85 10000 1.76 160 21:23 16.06.2022
1487 Clouds 29 1003 85 10000 1.76 160 20:56 16.06.2022
1488 Clouds 29 1003 85 10000 1.76 160 20:36 16.06.2022
1489 Clouds 29 1003 85 10000 1.76 160 20:36 16.06.2022
1490 Clouds 30 1003 88 10000 2.76 172 19:45 16.06.2022
1491 Clouds 30 1005 86 10000 3.55 153 18:26 16.06.2022
1492 Clouds 31 1005 86 10000 3.55 153 17:43 16.06.2022
1493 Clouds 31 1005 81 10000 4.06 148 16:39 16.06.2022
1494 Clouds 32 1004 75 10000 3.68 149 15:22 16.06.2022
1495 Clouds 32 1004 75 10000 3.68 149 14:37 16.06.2022
1496 Clouds 33 1002 74 10000 2.28 128 13:22 16.06.2022
1497 Clouds 34 1002 74 10000 2.28 128 12:36 16.06.2022
1498 Clouds 34 1002 71 10000 1.16 141 11:51 16.06.2022
1499 Clouds 34 1002 61 10000 3.53 175 10:56 16.06.2022
1500 Clouds 35 1002 54 10000 2.87 143 10:20 16.06.2022
1501 Clouds 33 1003 52 10000 2.47 171 09:21 16.06.2022
1502 Clouds 33 1003 52 10000 2.47 171 08:30 16.06.2022
1503 Clouds 32 1005 60 10000 1.88 212 07:26 16.06.2022
1504 Clouds 29 1007 76 10000 1.37 203 04:50 16.06.2022
1505 Clouds 26 1007 87 10000 2.35 161 02:20 16.06.2022
1506 Clouds 25 1007 87 10000 2.35 161 01:35 16.06.2022
1507 Clouds 25 1007 87 10000 2.35 161 01:35 16.06.2022
1508 Rain 26 1006 94 10000 1.67 132 00:56 16.06.2022
1509 Rain 26 1006 95 10000 1.8 126 23:43 15.06.2022
1510 Rain 26 1006 95 10000 2.38 139 22:35 15.06.2022
1511 Rain 26 1006 93 10000 2.69 145 21:22 15.06.2022
1512 Clouds 27 1006 93 10000 2.69 145 20:42 15.06.2022
1513 Rain 27 1007 93 10000 2.56 143 20:23 15.06.2022
1514 Clouds 27 1008 88 10000 2 181 19:20 15.06.2022
1515 Clouds 27 1008 88 10000 2.03 177 17:56 15.06.2022
1516 Clouds 29 1008 88 10000 1.92 157 16:55 15.06.2022
1517 Clouds 30 1008 88 10000 1.4 151 15:36 15.06.2022
1518 Clouds 30 1006 87 10000 1.2 195 13:44 15.06.2022
1519 Clouds 30 1005 87 10000 1.48 203 12:54 15.06.2022
1520 Clouds 31 1005 87 10000 1.43 215 11:53 15.06.2022
1521 Clouds 30 1005 86 10000 1.94 217 10:24 15.06.2022
1522 Clouds 27 1005 86 10000 1.94 217 09:42 15.06.2022
1523 Clouds 30 1006 82 10000 1.59 236 08:37 15.06.2022
1524 Clouds 29 1008 79 10000 2.02 202 06:34 15.06.2022
1525 Clouds 27 1009 83 10000 1.24 256 03:59 15.06.2022
1526 Clouds 26 1008 88 10000 1.2 281 01:54 15.06.2022
1527 Clouds 26 1007 91 10000 1.12 269 00:50 15.06.2022
1528 Clouds 26 1007 91 10000 1.32 294 23:39 14.06.2022
1529 Clouds 26 1007 91 10000 1.79 286 23:19 14.06.2022
1530 Clouds 26 1007 91 10000 2.3 278 22:18 14.06.2022
1531 Clouds 27 1007 91 10000 2.3 278 21:33 14.06.2022
1532 Clouds 27 1007 89 10000 2.69 296 20:54 14.06.2022
1533 Clouds 27 1007 89 10000 2.98 303 20:28 14.06.2022
1534 Clouds 27 1008 91 10000 2.83 298 18:56 14.06.2022
1535 Clouds 27 1009 91 10000 3.04 303 17:40 14.06.2022
1536 Clouds 28 1009 92 10000 3.03 302 16:43 14.06.2022
1537 Clouds 28 1009 93 10000 2.93 294 15:50 14.06.2022
1538 Clouds 29 1008 93 10000 3.61 302 15:22 14.06.2022
1539 Clouds 29 1008 93 10000 3.61 302 14:32 14.06.2022
1540 Clouds 29 1008 92 10000 3.83 303 13:41 14.06.2022
1541 Clouds 30 1007 91 10000 3.67 303 12:42 14.06.2022
1542 Clouds 30 1006 89 10000 3.55 310 11:31 14.06.2022
1543 Clouds 30 1006 88 10000 3.73 318 10:47 14.06.2022
1544 Clouds 30 1006 88 10000 3.88 319 09:48 14.06.2022
1545 Clouds 29 1006 87 10000 3.76 322 08:46 14.06.2022
1546 Clouds 29 1007 91 10000 3.6 340 07:31 14.06.2022
1547 Clouds 27 1008 92 10000 2.26 28 05:19 14.06.2022
1548 Rain 26 1008 95 10000 2.83 50 02:49 14.06.2022
1549 Clouds 25 1005 96 10000 2.82 16 00:28 14.06.2022
1550 Rain 25 1005 95 10000 2.43 14 23:22 13.06.2022
1551 Rain 25 1004 95 7937 2.35 23 22:25 13.06.2022
1552 Rain 25 1004 95 7937 2.35 23 21:48 13.06.2022
1553 Rain 26 1005 90 9836 1.74 1 20:23 13.06.2022
1554 Rain 26 1005 90 9836 1.74 1 19:34 13.06.2022
1555 Rain 26 1006 89 10000 3.56 0 17:57 13.06.2022
1556 Rain 26 1006 89 10000 3.56 0 17:36 13.06.2022
1557 Rain 27 1006 92 4830 3.55 341 16:39 13.06.2022
1558 Rain 29 1003 81 8501 3.07 90 15:20 13.06.2022
1559 Clouds 32 1003 84 7780 0.91 193 14:41 13.06.2022
1560 Clouds 32 1001 72 10000 5.27 97 13:46 13.06.2022
1561 Clouds 34 1000 67 10000 5.64 92 12:31 13.06.2022
1562 Clouds 34 999 50 10000 1.86 65 11:25 13.06.2022
1563 Clouds 34 999 46 10000 0.31 159 10:26 13.06.2022
1564 Clouds 35 1000 45 10000 1.33 243 09:23 13.06.2022
1565 Clouds 35 1001 46 10000 2.14 253 07:34 13.06.2022
1566 Clouds 33 1003 55 10000 1.72 278 05:39 13.06.2022
1567 Clouds 29 1005 74 10000 2.04 318 02:47 13.06.2022
1568 Clouds 27 1004 81 10000 1.87 304 01:37 13.06.2022
1569 Clouds 28 1003 86 10000 1.12 301 23:52 12.06.2022
1570 Clouds 28 1002 86 10000 0.56 284 22:50 12.06.2022
1571 Clouds 28 1002 85 10000 0.53 198 22:22 12.06.2022
1572 Clouds 29 1002 84 10000 1.35 159 21:20 12.06.2022
1573 Clouds 31 1002 84 10000 2.75 146 20:27 12.06.2022
1574 Clouds 31 1002 84 10000 2.75 146 19:30 12.06.2022
1575 Clouds 32 1003 80 10000 3.38 129 17:47 12.06.2022
1576 Clouds 32 1003 77 10000 4.37 152 16:24 12.06.2022
1577 Clouds 33 1003 75 10000 3.63 143 14:57 12.06.2022
1578 Clouds 32 1002 69 10000 2.98 124 14:21 12.06.2022
1579 Clouds 33 1002 88 10000 7.63 177 13:51 12.06.2022
1580 Clouds 34 1000 66 10000 5.19 143 12:37 12.06.2022
1581 Clouds 34 999 51 10000 2.01 115 11:37 12.06.2022
1582 Clouds 33 1000 49 10000 1.21 196 10:22 12.06.2022
1583 Clouds 33 1001 51 10000 1.59 245 08:54 12.06.2022
1584 Clouds 34 1001 51 10000 1.59 245 08:35 12.06.2022
1585 Clouds 33 1002 55 10000 1.68 288 07:32 12.06.2022
1586 Clouds 29 1005 68 10000 0.78 326 04:35 12.06.2022
1587 Clouds 28 1005 82 10000 0.36 43 02:38 12.06.2022
1588 Clouds 28 1004 85 10000 0.9 59 01:36 12.06.2022
1589 Clouds 28 1004 90 10000 0.95 59 00:58 12.06.2022
1590 Clouds 28 1003 92 10000 1.13 109 00:20 12.06.2022
1591 Clouds 28 1003 91 10000 1.65 109 23:29 11.06.2022
1592 Clouds 28 1003 91 10000 1.65 109 22:38 11.06.2022
1593 Clouds 28 1003 91 10000 2.02 107 21:37 11.06.2022
1594 Clouds 28 1003 91 10000 2.44 105 20:33 11.06.2022
1595 Clouds 28 1004 93 10000 1.7 109 19:39 11.06.2022
1596 Clouds 28 1004 93 10000 1.41 129 18:50 11.06.2022
1597 Clouds 28 1004 93 10000 1.41 129 18:32 11.06.2022
1598 Clouds 28 1005 92 10000 1.8 122 17:49 11.06.2022
1599 Clouds 28 1005 91 10000 1.5 113 17:26 11.06.2022
1600 Clouds 28 1005 91 10000 1.5 113 16:44 11.06.2022
1601 Rain 28 1004 89 10000 0.95 95 16:25 11.06.2022
1602 Clouds 28 1004 89 10000 1.22 58 15:18 11.06.2022
1603 Clouds 29 1002 89 10000 1.33 73 13:52 11.06.2022
1604 Clouds 29 1001 87 10000 1.88 79 12:25 11.06.2022
1605 Clouds 29 1001 86 10000 1.67 71 10:40 11.06.2022
1606 Clouds 29 1002 87 10000 1.95 81 09:42 11.06.2022
1607 Clouds 29 1002 88 10000 2.11 72 08:45 11.06.2022
1608 Clouds 28 1003 81 10000 1.52 17 06:34 11.06.2022
1609 Clouds 28 1004 78 10000 1.24 13 05:53 11.06.2022
1610 Clouds 27 1004 80 10000 1.98 348 03:45 11.06.2022
1611 Clouds 26 1003 90 10000 1.4 18 01:51 11.06.2022
1612 Rain 26 1003 92 10000 1.57 27 01:26 11.06.2022
1613 Clouds 27 1002 92 10000 1.73 354 23:28 10.06.2022
1614 Clouds 26 1002 91 10000 1.97 338 22:27 10.06.2022
1615 Clouds 27 1002 91 10000 1.97 338 21:46 10.06.2022
1616 Rain 26 1002 90 10000 1.79 337 20:39 10.06.2022
1617 Rain 26 1002 91 10000 1.99 38 20:20 10.06.2022
1618 Rain 27 1002 90 10000 3.2 27 19:19 10.06.2022
1619 Rain 27 1002 90 10000 3.2 27 18:44 10.06.2022
1620 Rain 27 1002 85 10000 3.08 355 17:54 10.06.2022
1621 Rain 27 1002 81 10000 0.97 342 17:22 10.06.2022
1622 Rain 28 1002 78 10000 1.14 80 16:26 10.06.2022
1623 Rain 28 1002 78 10000 1.14 80 15:39 10.06.2022
1624 Rain 30 1001 77 10000 2.49 50 14:24 10.06.2022
1625 Rain 32 999 75 10000 2.43 61 12:58 10.06.2022
1626 Clouds 32 999 70 10000 2.59 47 11:59 10.06.2022
1627 Clouds 33 999 68 10000 1.79 32 10:46 10.06.2022
1628 Clouds 33 999 64 10000 0.99 30 09:56 10.06.2022
1629 Clouds 33 999 57 10000 0.51 258 08:48 10.06.2022
1630 Clouds 32 1000 51 10000 2.25 283 07:31 10.06.2022
1631 Clouds 32 1001 54 10000 2.37 280 06:45 10.06.2022
1632 Clouds 32 1002 58 10000 2.22 300 06:26 10.06.2022
1633 Clouds 30 1002 64 10000 2.39 320 04:37 10.06.2022
1634 Clouds 27 1002 84 10000 1.39 348 01:42 10.06.2022
1635 Clouds 27 1002 86 10000 1.3 357 00:40 10.06.2022
1636 Clouds 27 1001 85 10000 0.65 29 23:57 09.06.2022
1637 Clouds 28 1000 84 10000 1.88 79 22:22 09.06.2022
1638 Clouds 28 1000 84 10000 1.88 79 21:37 09.06.2022
1639 Clouds 28 1001 83 10000 1.86 91 20:58 09.06.2022
1640 Clouds 28 1001 82 10000 1.85 127 20:26 09.06.2022
1641 Clouds 29 1001 85 10000 1.79 108 19:31 09.06.2022
1642 Clouds 29 1002 85 10000 2.08 110 18:34 09.06.2022
1643 Clouds 29 1003 83 10000 3.02 125 17:18 09.06.2022
1644 Clouds 30 1002 82 10000 3.24 126 15:54 09.06.2022
1645 Clouds 30 1002 78 10000 3.02 124 14:38 09.06.2022
1646 Clouds 31 1000 71 10000 4.13 137 13:55 09.06.2022
1647 Clouds 31 999 65 10000 3.52 148 13:29 09.06.2022
1648 Clouds 33 998 58 10000 2.58 163 12:21 09.06.2022
1649 Rain 32 998 54 10000 2.65 185 11:19 09.06.2022
1650 Rain 31 999 51 10000 2.36 205 09:50 09.06.2022
1651 Rain 31 999 51 10000 2.36 205 09:31 09.06.2022
1652 Clouds 30 1001 52 10000 1.62 219 07:56 09.06.2022
1653 Clouds 31 1002 56 10000 1.51 221 06:55 09.06.2022
1654 Clouds 28 1004 78 10000 1.03 26 03:22 09.06.2022
1655 Clouds 26 1002 89 10000 1.21 93 23:49 08.06.2022
1656 Clouds 26 1002 89 10000 1.09 83 22:58 08.06.2022
1657 Clouds 26 1001 89 10000 0.95 65 22:27 08.06.2022
1658 Clouds 26 1001 89 10000 0.95 65 21:56 08.06.2022
1659 Clouds 26 1001 89 10000 0.83 87 21:23 08.06.2022
1660 Clouds 26 1002 89 10000 0.78 131 20:22 08.06.2022
1661 Clouds 26 1001 88 10000 1.31 87 19:39 08.06.2022
1662 Clouds 26 1002 87 10000 1.23 106 18:47 08.06.2022
1663 Clouds 26 1003 86 10000 2.27 131 17:25 08.06.2022
1664 Clouds 26 1002 87 10000 2.96 147 15:48 08.06.2022
1665 Rain 25 1001 75 10000 3.26 162 13:52 08.06.2022
1666 Rain 26 999 57 10000 3.26 198 12:22 08.06.2022
1667 Rain 26 999 57 10000 3.26 198 11:33 08.06.2022
1668 Rain 28 1000 54 10000 3.53 210 10:20 08.06.2022
1669 Rain 30 1001 54 10000 2.62 221 09:22 08.06.2022
1670 Rain 28 1001 54 10000 2.62 221 08:40 08.06.2022
1671 Clouds 32 1004 67 10000 1.99 299 05:55 08.06.2022
1672 Clouds 30 1005 78 10000 2.43 339 03:55 08.06.2022
1673 Clouds 27 1004 94 10000 2.01 12 00:38 08.06.2022
1674 Clouds 27 1003 93 10000 1.28 31 23:28 07.06.2022
1675 Clouds 27 1003 93 10000 1.28 31 22:45 07.06.2022
1676 Clouds 27 1003 91 10000 0.74 80 22:26 07.06.2022
1677 Clouds 27 1003 91 10000 0.74 80 21:34 07.06.2022
1678 Clouds 28 1003 91 10000 1.51 128 20:58 07.06.2022
1679 Clouds 28 1003 91 10000 2.08 134 20:32 07.06.2022
1680 Clouds 28 1003 91 8612 2.08 120 19:38 07.06.2022
1681 Clouds 29 1004 88 10000 1.89 140 18:23 07.06.2022
1682 Clouds 29 1004 88 10000 2.34 133 17:26 07.06.2022
1683 Clouds 29 1004 88 10000 2.34 133 16:43 07.06.2022
1684 Clouds 29 1004 87 10000 2.77 142 15:47 07.06.2022
1685 Clouds 29 1003 83 10000 3.09 142 15:26 07.06.2022
1686 Clouds 29 1003 83 10000 3.09 142 15:26 07.06.2022
1687 Clouds 30 1003 83 10000 3.09 142 14:50 07.06.2022
1688 Clouds 30 1002 82 10000 3.41 131 14:32 07.06.2022
1689 Clouds 31 1002 88 10000 3.55 135 13:31 07.06.2022
1690 Clouds 31 1001 85 10000 3.46 133 12:49 07.06.2022
1691 Clouds 31 1001 77 10000 3.59 127 11:47 07.06.2022
1692 Clouds 31 1001 62 10000 1.68 114 10:26 07.06.2022
1693 Clouds 30 1001 59 10000 1.23 156 08:49 07.06.2022
1694 Clouds 30 1003 73 10000 2.48 167 07:33 07.06.2022
1695 Clouds 29 1004 84 10000 1.93 187 05:58 07.06.2022
1696 Clouds 26 1005 90 10000 1.98 188 03:31 07.06.2022
1697 Rain 25 1003 90 10000 1.42 259 00:45 07.06.2022
1698 Rain 25 1003 89 10000 1.65 263 23:40 06.06.2022
1699 Rain 25 1003 89 10000 1.68 279 22:47 06.06.2022
1700 Rain 26 1002 89 10000 1.78 298 21:56 06.06.2022
1701 Clouds 27 1002 89 10000 1.95 310 20:35 06.06.2022
1702 Clouds 27 1004 90 10000 2.51 302 19:24 06.06.2022
1703 Clouds 27 1004 90 10000 2.51 302 18:47 06.06.2022
1704 Clouds 28 1004 89 10000 2.47 308 17:55 06.06.2022
1705 Clouds 28 1004 88 10000 2.39 306 16:51 06.06.2022
1706 Clouds 28 1003 89 10000 2.98 311 15:44 06.06.2022
1707 Clouds 28 1002 90 10000 2.88 304 14:57 06.06.2022
1708 Clouds 29 1002 88 10000 3.21 306 13:40 06.06.2022
1709 Clouds 30 1001 84 10000 3.21 311 12:59 06.06.2022
1710 Clouds 30 1001 78 10000 3.71 332 12:27 06.06.2022
1711 Rain 30 1001 78 10000 3.71 332 11:45 06.06.2022
1712 Rain 30 1002 75 10000 4.14 338 09:46 06.06.2022
1713 Rain 28 1001 63 10000 4.91 326 08:36 06.06.2022
1714 Rain 28 1002 61 10000 4.63 331 07:43 06.06.2022
1715 Rain 27 1002 62 10000 4.29 339 06:43 06.06.2022
1716 Rain 25 1003 67 10000 3.01 22 04:28 06.06.2022
1717 Rain 27 1002 82 10000 2.71 354 01:30 06.06.2022
1718 Rain 27 1002 89 10000 2.22 351 00:47 06.06.2022
1719 Rain 28 1001 86 10000 2.29 4 00:28 06.06.2022
1720 Clouds 29 1001 85 10000 2.4 31 22:58 05.06.2022
1721 Clouds 29 1001 86 10000 2.45 32 21:59 05.06.2022
1722 Clouds 29 1001 87 10000 2.65 68 20:23 05.06.2022
1723 Rain 29 1001 87 10000 2.15 73 18:51 05.06.2022
1724 Clouds 30 1001 85 10000 2.41 83 17:59 05.06.2022
1725 Clouds 30 1001 85 10000 2.41 83 17:38 05.06.2022
1726 Clouds 30 1001 81 10000 2.42 99 17:19 05.06.2022
1727 Clouds 30 1001 81 10000 2.42 99 16:47 05.06.2022
1728 Clouds 31 1000 71 10000 2.13 88 14:59 05.06.2022
1729 Clouds 31 998 68 10000 1.75 69 13:55 05.06.2022
1730 Rain 32 997 66 10000 1.67 61 11:58 05.06.2022
1731 Rain 33 998 60 10000 1.37 20 10:45 05.06.2022
1732 Rain 33 998 60 10000 1.32 354 10:24 05.06.2022
1733 Clouds 33 999 57 10000 1.5 306 09:21 05.06.2022
1734 Clouds 34 1000 57 10000 2.48 266 08:22 05.06.2022
1735 Clouds 32 1002 70 10000 1.53 336 05:24 05.06.2022
1736 Clouds 31 1002 70 10000 1.53 336 04:36 05.06.2022
1737 Clouds 28 1001 76 10000 0.45 50 02:19 05.06.2022
1738 Clouds 27 1000 81 10000 0.71 69 01:23 05.06.2022
1739 Clouds 27 999 80 10000 1.72 90 22:48 04.06.2022
1740 Clouds 28 999 78 10000 1.61 112 21:24 04.06.2022
1741 Clouds 29 1000 79 10000 2.63 134 18:58 04.06.2022
1742 Clouds 32 1000 77 10000 3.45 128 16:48 04.06.2022
1743 Clouds 32 1000 74 10000 3.18 129 16:20 04.06.2022
1744 Clouds 33 1000 74 10000 3.18 129 15:35 04.06.2022
1745 Clouds 36 999 68 10000 3.29 145 13:57 04.06.2022
1746 Clouds 38 997 48 10000 4.98 167 11:28 04.06.2022
1747 Rain 37 997 48 10000 4.98 167 10:52 04.06.2022
1748 Clouds 37 997 45 10000 3.77 158 09:46 04.06.2022
1749 Clouds 37 999 46 10000 2.9 173 08:50 04.06.2022
1750 Clouds 37 999 46 10000 2.9 173 08:31 04.06.2022
1751 Clouds 34 1001 51 10000 2.87 251 06:20 04.06.2022
1752 Clouds 30 1002 58 10000 2.08 263 03:37 04.06.2022
1753 Clouds 27 1000 81 10000 0.52 193 00:21 04.06.2022
1754 Clouds 27 1000 80 10000 1.11 173 22:54 03.06.2022
1755 Clouds 28 999 79 10000 1.86 174 21:46 03.06.2022
1756 Clouds 30 999 78 10000 2.59 170 20:40 03.06.2022
1757 Clouds 30 1000 83 10000 2.42 139 19:19 03.06.2022
1758 Clouds 31 1001 84 10000 2.03 117 16:54 03.06.2022
1759 Clouds 32 1001 85 10000 2.33 102 15:51 03.06.2022
1760 Clouds 34 999 80 10000 2.52 114 13:51 03.06.2022
1761 Clouds 37 997 65 10000 2.94 123 11:51 03.06.2022
1762 Clouds 36 998 65 10000 1.32 128 09:54 03.06.2022
1763 Rain 35 999 74 10000 0.89 139 09:29 03.06.2022
1764 Rain 35 999 74 10000 0.89 139 09:29 03.06.2022
1765 Clouds 35 1000 78 10000 0.64 292 07:42 03.06.2022
1766 Clouds 33 1001 79 10000 1.03 336 06:46 03.06.2022
1767 Clouds 33 1001 82 10000 0.94 314 06:27 03.06.2022
1768 Clouds 27 1001 85 10000 0.83 30 02:50 03.06.2022
1769 Clouds 26 1000 87 10000 0.85 311 23:36 02.06.2022
1770 Rain 26 999 85 10000 0.74 263 21:58 02.06.2022
1771 Rain 27 999 85 10000 1.48 195 20:34 02.06.2022
1772 Rain 27 1000 86 10000 2.42 165 19:54 02.06.2022
1773 Rain 28 1000 84 10000 2.1 192 19:36 02.06.2022
1774 Rain 29 1000 84 10000 2.86 177 18:34 02.06.2022
1775 Clouds 30 1001 77 10000 4.02 167 16:28 02.06.2022
1776 Clouds 30 1001 77 10000 4.02 167 16:28 02.06.2022
1777 Clouds 30 1001 77 10000 4.02 167 15:46 02.06.2022
1778 Clouds 33 999 71 10000 5.05 156 13:30 02.06.2022
1779 Clouds 33 999 71 10000 5.05 156 13:30 02.06.2022
1780 Clouds 33 998 66 10000 4.75 167 12:46 02.06.2022
1781 Clouds 33 997 46 10000 3.2 187 10:34 02.06.2022
1782 Clouds 32 999 47 10000 3.98 194 09:29 02.06.2022
1783 Clouds 32 999 47 10000 3.98 194 08:39 02.06.2022
1784 Clouds 32 1000 50 10000 3.31 199 08:19 02.06.2022
1785 Clouds 32 1002 69 10000 1.06 255 06:20 02.06.2022
1786 Clouds 30 1003 81 10000 0.7 330 03:49 02.06.2022
1787 Clouds 27 1002 94 10000 0.45 32 00:39 02.06.2022
1788 Clouds 26 1001 94 10000 1.4 112 22:57 01.06.2022
1789 Clouds 26 1001 94 10000 1.94 127 21:52 01.06.2022
1790 Clouds 26 1001 93 10000 2.37 129 21:22 01.06.2022
1791 Rain 26 1001 93 10000 2.37 129 20:38 01.06.2022
1792 Rain 26 1002 90 10000 3.09 142 19:50 01.06.2022
1793 Rain 26 1003 87 10000 4.01 147 18:24 01.06.2022
1794 Rain 26 1003 86 10000 4.49 145 16:48 01.06.2022
1795 Rain 25 1003 84 10000 4.58 140 15:42 01.06.2022
1796 Rain 26 1002 82 10000 4.25 137 14:35 01.06.2022
1797 Clouds 33 1000 75 10000 5.04 143 12:46 01.06.2022
1798 Clouds 34 999 60 10000 3.22 140 10:42 01.06.2022
1799 Clouds 33 1000 53 10000 2.18 203 09:27 01.06.2022
1800 Clouds 33 1002 58 10000 2.76 188 07:57 01.06.2022
1801 Clouds 32 1003 62 10000 2.77 184 06:49 01.06.2022
1802 Clouds 26 1005 89 10000 0.34 293 01:44 01.06.2022
1803 Clouds 26 1004 96 10000 0.88 138 23:47 31.05.2022
1804 Clouds 26 1004 95 10000 1.51 118 22:38 31.05.2022
1805 Clouds 26 1004 94 10000 1.65 120 22:18 31.05.2022
1806 Clouds 26 1004 94 10000 1.83 132 21:22 31.05.2022
1807 Clouds 26 1004 94 10000 1.83 132 20:41 31.05.2022
1808 Clouds 27 1005 90 10000 1.34 113 18:57 31.05.2022
1809 Clouds 27 1005 88 10000 1.59 95 18:19 31.05.2022
1810 Clouds 27 1005 88 10000 1.59 95 17:35 31.05.2022
1811 Clouds 28 1005 84 10000 1.2 69 15:42 31.05.2022
1812 Clouds 28 1004 82 10000 0.55 40 14:36 31.05.2022
1813 Clouds 31 1002 78 10000 0.74 299 12:39 31.05.2022
1814 Clouds 32 1002 72 10000 0.77 323 12:18 31.05.2022
1815 Clouds 29 1002 73 10000 1.83 345 09:50 31.05.2022
1816 Clouds 29 1004 77 10000 2.47 356 07:41 31.05.2022
1817 Clouds 29 1004 77 10000 2.47 356 07:41 31.05.2022
1818 Clouds 28 1006 91 10000 3 345 05:24 31.05.2022
1819 Rain 25 1005 92 10000 1.96 3 02:33 31.05.2022
1820 Rain 24 1003 91 10000 1.48 49 23:29 30.05.2022
1821 Rain 24 1003 91 10000 1.48 49 22:59 30.05.2022
1822 Rain 24 1003 92 10000 0.12 8 22:24 30.05.2022
1823 Rain 24 1003 92 10000 0.12 8 21:35 30.05.2022
1824 Rain 25 1003 91 10000 1.06 157 20:31 30.05.2022
1825 Rain 25 1004 93 9502 2.15 129 19:26 30.05.2022
1826 Clouds 28 1005 92 10000 2.22 133 17:43 30.05.2022
1827 Clouds 27 1005 91 10000 2.5 137 16:54 30.05.2022
1828 Clouds 28 1004 89 10000 3.17 131 15:43 30.05.2022
1829 Rain 30 1001 81 10000 3.13 118 12:44 30.05.2022
1830 Rain 29 1000 69 10000 2.72 123 10:57 30.05.2022
1831 Rain 29 1000 65 10000 2.5 116 09:39 30.05.2022
1832 Rain 31 1003 66 10000 2.33 114 07:24 30.05.2022
1833 Clouds 31 1003 70 10000 1.82 94 05:50 30.05.2022
1834 Clouds 27 1004 85 10000 2.52 69 02:33 30.05.2022
1835 Clouds 27 1001 94 10000 1.68 79 23:24 29.05.2022
1836 Clouds 27 1001 94 10000 1.68 79 22:39 29.05.2022
1837 Clouds 27 1001 94 10000 1.94 99 21:31 29.05.2022
1838 Clouds 27 1002 94 10000 2.4 104 19:48 29.05.2022
1839 Clouds 27 1002 93 10000 2.69 108 19:27 29.05.2022
1840 Clouds 27 1003 92 10000 3.01 121 17:41 29.05.2022
1841 Clouds 27 1003 90 10000 3 137 15:49 29.05.2022
1842 Clouds 26 1001 89 10000 3.47 139 15:28 29.05.2022
1843 Clouds 26 1000 83 10000 4.04 138 14:23 29.05.2022
1844 Rain 26 998 64 10000 4.18 130 11:55 29.05.2022
1845 Rain 27 998 60 10000 3.91 129 10:42 29.05.2022
1846 Clouds 32 998 59 10000 3.13 144 09:51 29.05.2022
1847 Clouds 33 1001 62 10000 0.89 137 06:56 29.05.2022
1848 Clouds 30 1003 70 10000 1.13 97 04:49 29.05.2022
1849 Clouds 30 1003 76 10000 1.12 63 04:24 29.05.2022
1850 Clouds 27 1001 95 10000 1.59 67 23:59 28.05.2022
1851 Clouds 27 1001 95 10000 1.59 67 23:39 28.05.2022
1852 Clouds 27 1001 95 10000 2.03 63 22:40 28.05.2022
1853 Clouds 27 1001 95 10000 2 72 21:40 28.05.2022
1854 Clouds 27 1001 94 10000 2.42 89 19:52 28.05.2022
1855 Clouds 27 1002 94 10000 2.52 99 19:18 28.05.2022
1856 Clouds 27 1002 93 10000 2.72 106 17:44 28.05.2022
1857 Rain 27 1002 91 10000 2.66 114 16:50 28.05.2022
1858 Rain 26 1001 90 10000 3.04 134 15:44 28.05.2022
1859 Rain 26 1001 87 10000 3.5 137 14:35 28.05.2022
1860 Rain 30 998 77 10000 4.51 124 13:21 28.05.2022
1861 Clouds 31 998 77 10000 4.51 124 12:39 28.05.2022
1862 Clouds 32 997 68 10000 4.58 121 11:23 28.05.2022
1863 Clouds 33 997 66 10000 4.36 115 10:21 28.05.2022
1864 Clouds 33 998 64 10000 3.32 116 09:22 28.05.2022
1865 Clouds 32 1000 70 10000 1.81 134 07:23 28.05.2022
1866 Clouds 31 1001 75 10000 1.27 116 06:26 28.05.2022
1867 Clouds 28 1002 86 10000 1.16 65 03:48 28.05.2022
1868 Clouds 27 1000 96 10000 1.86 25 00:33 28.05.2022
1869 Clouds 27 999 96 10000 2.03 30 23:32 27.05.2022
1870 Clouds 27 999 94 10000 1.18 69 21:50 27.05.2022
1871 Clouds 27 999 94 10000 1.18 69 21:50 27.05.2022
1872 Clouds 26 999 94 10000 1.51 109 20:56 27.05.2022
1873 Clouds 26 1000 94 10000 2.15 120 20:25 27.05.2022
1874 Clouds 26 1000 94 10000 2.15 120 19:48 27.05.2022
1875 Clouds 26 1000 93 10000 2.51 118 19:29 27.05.2022
1876 Clouds 26 1000 92 10000 3.04 123 18:24 27.05.2022
1877 Rain 24 1000 92 10000 3.39 123 16:40 27.05.2022
1878 Rain 26 999 91 10000 3.25 127 15:33 27.05.2022
1879 Rain 29 999 87 10000 3.37 112 14:26 27.05.2022
1880 Rain 30 997 81 10000 3.99 120 13:18 27.05.2022
1881 Clouds 30 996 75 10000 4.61 100 11:34 27.05.2022
1882 Rain 30 996 67 10000 3.21 102 10:56 27.05.2022
1883 Rain 31 996 67 10000 3.21 102 10:31 27.05.2022
1884 Clouds 32 997 60 10000 2.34 146 09:35 27.05.2022
1885 Clouds 31 999 62 10000 2.36 166 07:52 27.05.2022
1886 Clouds 28 1001 68 10000 2.22 125 05:44 27.05.2022
1887 Clouds 27 1001 88 10000 1.93 79 02:26 27.05.2022
1888 Clouds 26 999 96 10000 1.94 89 00:29 27.05.2022
1889 Clouds 25 999 95 10000 2.32 100 22:39 26.05.2022
1890 Clouds 25 999 93 10000 2.59 119 21:39 26.05.2022
1891 Clouds 26 999 92 10000 3.26 130 20:30 26.05.2022
1892 Clouds 26 1000 93 10000 3.91 129 19:19 26.05.2022
1893 Clouds 26 1001 93 10000 3.6 132 17:51 26.05.2022
1894 Clouds 28 1001 91 10000 3.55 132 16:36 26.05.2022
1895 Clouds 29 1001 88 10000 3.9 135 15:45 26.05.2022
1896 Clouds 31 999 81 10000 3.56 132 14:28 26.05.2022
1897 Clouds 33 998 81 10000 3.75 133 12:37 26.05.2022
1898 Clouds 33 998 63 10000 2.12 147 11:23 26.05.2022
1899 Clouds 32 998 62 10000 1.71 165 09:41 26.05.2022
1900 Clouds 32 999 63 10000 1.44 193 09:23 26.05.2022
1901 Clouds 29 1000 67 10000 1.67 231 07:57 26.05.2022
1902 Clouds 27 1004 82 10000 1.55 142 03:53 26.05.2022
1903 Clouds 26 1002 97 10000 1.41 86 00:33 26.05.2022
1904 Clouds 26 1002 97 10000 1.41 86 23:39 25.05.2022
1905 Clouds 26 1002 97 10000 2.11 109 21:47 25.05.2022
1906 Clouds 26 1003 97 10000 2.62 121 21:28 25.05.2022
1907 Clouds 26 1003 97 10000 2.62 121 20:34 25.05.2022
1908 Clouds 27 1004 95 10000 2.65 139 19:21 25.05.2022
1909 Clouds 28 1005 94 10000 3.61 136 17:33 25.05.2022
1910 Clouds 28 1005 94 10000 3.6 136 16:36 25.05.2022
1911 Clouds 28 1004 92 10000 3.47 127 15:53 25.05.2022
1912 Clouds 29 1004 90 10000 3.52 129 14:51 25.05.2022
1913 Clouds 29 1004 90 10000 3.52 129 14:32 25.05.2022
1914 Clouds 29 1002 89 10000 4.04 125 13:35 25.05.2022
1915 Clouds 30 1002 82 10000 3.85 127 12:36 25.05.2022
1916 Clouds 29 1001 66 10000 2.21 148 10:43 25.05.2022
1917 Clouds 30 1002 67 10000 2.44 169 09:53 25.05.2022
1918 Clouds 30 1004 70 10000 2.58 191 08:22 25.05.2022
1919 Clouds 30 1006 71 10000 1.56 265 06:53 25.05.2022
1920 Clouds 26 1008 93 10000 2.06 312 03:20 25.05.2022
1921 Clouds 24 1007 95 10000 1.64 320 23:53 24.05.2022
1922 Clouds 24 1007 95 10000 1.71 321 23:23 24.05.2022
1923 Clouds 23 1007 95 10000 2.05 324 22:19 24.05.2022
1924 Clouds 24 1007 95 10000 2.05 324 21:38 24.05.2022
1925 Clouds 24 1007 95 10000 2.36 318 21:19 24.05.2022
1926 Clouds 24 1008 95 10000 2.12 315 19:37 24.05.2022
1927 Clouds 24 1008 95 10000 2.1 312 18:49 24.05.2022
1928 Clouds 25 1009 94 10000 1.83 327 16:40 24.05.2022
1929 Clouds 25 1008 94 10000 2.03 332 16:18 24.05.2022
1930 Clouds 25 1008 95 10000 2.19 328 14:50 24.05.2022
1931 Clouds 24 1007 95 10000 2.17 324 13:48 24.05.2022
1932 Rain 25 1006 97 10000 2.4 329 12:46 24.05.2022
1933 Rain 25 1005 97 10000 2.23 343 10:29 24.05.2022
1934 Rain 25 1005 97 10000 2.23 343 09:42 24.05.2022
1935 Rain 25 1006 97 10000 2.13 346 08:49 24.05.2022
1936 Rain 24 1008 95 10000 2.49 330 06:56 24.05.2022
1937 Rain 23 1008 98 5234 2.66 323 03:48 24.05.2022
1938 Rain 23 1006 99 1499 2.45 325 01:49 24.05.2022
1939 Rain 23 1006 98 8571 2.42 319 01:18 24.05.2022
1940 Rain 23 1005 99 679 2.44 293 22:50 23.05.2022
1941 Rain 23 1004 99 516 1.98 274 21:54 23.05.2022
1942 Rain 23 1003 99 531 1.79 282 21:26 23.05.2022
1943 Rain 23 1004 99 1100 2.22 333 20:26 23.05.2022
1944 Rain 24 1005 98 3061 2.86 321 19:31 23.05.2022
1945 Rain 24 1005 98 4125 3.34 322 18:54 23.05.2022
1946 Rain 24 1006 97 7184 3.17 315 18:27 23.05.2022
1947 Rain 23 1006 98 5600 3.09 311 17:18 23.05.2022
1948 Clouds 24 1004 96 7520 1.52 308 14:52 23.05.2022
1949 Clouds 24 1002 92 7867 2.1 57 12:50 23.05.2022
1950 Rain 24 1000 85 6734 3.15 118 11:26 23.05.2022
1951 Rain 24 1001 78 6457 3.68 118 09:50 23.05.2022
1952 Clouds 24 1001 74 5956 4.22 117 09:23 23.05.2022
1953 Rain 24 1001 78 5230 2.24 97 07:48 23.05.2022
1954 Clouds 27 1002 77 9140 2.98 108 06:45 23.05.2022
1955 Clouds 26 1002 77 10000 4.17 102 05:21 23.05.2022
1956 Rain 25 1002 92 10000 2.99 75 02:23 23.05.2022
1957 Rain 25 1002 95 10000 2.48 79 01:37 23.05.2022
1958 Rain 24 1001 96 10000 2.3 63 23:51 22.05.2022
1959 Rain 24 1001 96 10000 1.99 74 22:35 22.05.2022
1960 Rain 25 1001 96 10000 1.62 75 21:55 22.05.2022
1961 Rain 25 1001 96 10000 1.19 75 20:53 22.05.2022
1962 Clouds 25 1002 97 7581 0.56 148 20:27 22.05.2022
1963 Clouds 25 1002 97 10000 1.68 315 19:56 22.05.2022
1964 Clouds 25 1003 97 10000 1.73 310 18:55 22.05.2022
1965 Clouds 25 1003 96 10000 1.92 297 18:24 22.05.2022
1966 Clouds 25 1003 96 10000 1.92 297 17:33 22.05.2022
1967 Rain 25 1003 96 10000 2.15 307 16:31 22.05.2022
1968 Clouds 24 1003 96 10000 2.08 296 14:48 22.05.2022
1969 Clouds 24 1001 95 10000 1.34 295 13:45 22.05.2022
1970 Clouds 24 1000 92 9227 0.38 238 12:50 22.05.2022
1971 Clouds 24 1000 88 10000 1.46 117 11:42 22.05.2022
1972 Clouds 25 1000 86 9128 2.8 132 09:43 22.05.2022
1973 Clouds 25 1000 84 10000 3.48 124 08:35 22.05.2022
1974 Clouds 25 1002 91 10000 2.98 78 07:21 22.05.2022
1975 Rain 25 1002 91 10000 2.98 78 07:21 22.05.2022
1976 Clouds 24 1002 93 10000 3.19 71 05:44 22.05.2022
1977 Clouds 23 1003 92 10000 2.48 54 01:43 22.05.2022
1978 Clouds 23 1003 92 10000 2.17 51 00:43 22.05.2022
1979 Clouds 24 1003 92 10000 1.71 44 23:54 21.05.2022
1980 Clouds 24 1003 92 10000 1.85 41 22:57 21.05.2022
1981 Clouds 25 1003 91 10000 2.19 27 21:42 21.05.2022
1982 Clouds 25 1003 92 10000 2.04 45 20:59 21.05.2022
1983 Clouds 25 1004 92 10000 2.16 43 20:22 21.05.2022
1984 Clouds 25 1005 92 10000 1.53 40 19:27 21.05.2022
1985 Clouds 25 1006 92 10000 1.43 36 17:51 21.05.2022
1986 Clouds 25 1006 92 10000 1.75 51 16:43 21.05.2022
1987 Clouds 26 1005 92 10000 1.96 56 14:37 21.05.2022
1988 Clouds 26 1004 90 10000 1.81 94 13:42 21.05.2022
1989 Clouds 26 1003 89 10000 1.67 74 12:50 21.05.2022
1990 Clouds 26 1003 82 10000 1.73 69 12:25 21.05.2022
1991 Clouds 27 1004 83 10000 1.82 98 10:24 21.05.2022
1992 Clouds 27 1004 83 10000 1.82 98 09:41 21.05.2022
1993 Clouds 26 1005 81 10000 2.12 117 08:52 21.05.2022
1994 Clouds 27 1006 87 10000 2.8 122 07:53 21.05.2022
1995 Clouds 25 1008 94 10000 2.05 98 03:58 21.05.2022
1996 Clouds 24 1007 95 10000 2.18 58 23:53 20.05.2022
1997 Clouds 24 1007 95 10000 1.74 58 22:56 20.05.2022
1998 Clouds 24 1007 94 10000 1.5 78 22:23 20.05.2022
1999 Clouds 24 1007 94 10000 1.5 78 21:40 20.05.2022
2000 Clouds 25 1007 92 10000 1.6 106 20:54 20.05.2022
2001 Clouds 26 1007 95 10000 1.82 114 19:57 20.05.2022
2002 Clouds 26 1008 93 10000 2.2 130 19:24 20.05.2022
2003 Clouds 27 1008 91 10000 2.42 146 18:28 20.05.2022
2004 Clouds 27 1008 90 10000 3.2 155 16:51 20.05.2022
2005 Clouds 27 1008 89 10000 3.13 152 15:57 20.05.2022
2006 Clouds 27 1008 89 10000 3.13 152 15:39 20.05.2022
2007 Clouds 27 1006 87 10000 3.26 144 14:29 20.05.2022
2008 Clouds 27 1006 86 10000 3.17 146 13:44 20.05.2022
2009 Clouds 29 1005 72 10000 3.84 143 10:56 20.05.2022
2010 Clouds 29 1005 65 10000 3.86 141 09:51 20.05.2022
2011 Clouds 29 1006 62 10000 2.84 144 08:41 20.05.2022
2012 Clouds 28 1008 67 10000 2.21 150 06:46 20.05.2022
2013 Clouds 28 1009 70 10000 2.15 156 06:21 20.05.2022
2014 Clouds 26 1011 74 10000 1.91 145 03:53 20.05.2022
2015 Clouds 24 1009 92 10000 1.94 128 23:54 19.05.2022
2016 Clouds 24 1008 92 10000 2.15 122 22:44 19.05.2022
2017 Clouds 24 1008 93 10000 2.16 127 21:53 19.05.2022
2018 Clouds 25 1009 93 10000 2.42 125 21:24 19.05.2022
2019 Clouds 25 1009 93 10000 2.42 125 20:54 19.05.2022
2020 Clouds 25 1009 92 10000 2.65 132 20:20 19.05.2022
2021 Clouds 25 1010 92 10000 2.83 137 19:34 19.05.2022
2022 Clouds 26 1010 91 10000 2.87 139 17:52 19.05.2022
2023 Clouds 26 1010 87 10000 3.72 137 16:22 19.05.2022
2024 Clouds 27 1009 85 10000 4.23 135 14:50 19.05.2022
2025 Clouds 27 1008 82 10000 3.82 133 14:21 19.05.2022
2026 Clouds 28 1007 73 10000 3.76 138 12:20 19.05.2022
2027 Clouds 29 1007 69 10000 3.73 132 10:35 19.05.2022
2028 Clouds 29 1007 59 10000 2.18 146 08:51 19.05.2022
2029 Clouds 28 1009 61 10000 1.44 135 07:33 19.05.2022
2030 Clouds 26 1012 71 10000 0.91 110 04:38 19.05.2022
2031 Clouds 23 1012 86 10000 1.72 98 01:38 19.05.2022
2032 Clouds 23 1011 90 10000 1.97 108 23:49 18.05.2022
2033 Clouds 23 1011 90 10000 1.88 114 22:45 18.05.2022
2034 Clouds 23 1011 89 10000 2 122 21:45 18.05.2022
2035 Clouds 23 1011 89 10000 2.02 129 21:24 18.05.2022
2036 Clouds 24 1012 88 10000 2.13 139 20:22 18.05.2022
2037 Clouds 24 1012 89 10000 2.05 130 19:18 18.05.2022
2038 Clouds 25 1013 88 10000 2.23 139 18:18 18.05.2022
2039 Clouds 25 1013 88 10000 2.23 139 17:40 18.05.2022
2040 Clouds 25 1013 86 10000 2.82 145 17:22 18.05.2022
2041 Clouds 26 1012 83 10000 3.81 140 15:58 18.05.2022
2042 Clouds 26 1012 83 10000 3.81 140 15:37 18.05.2022
2043 Clouds 26 1010 78 10000 5.09 137 14:25 18.05.2022
2044 Clouds 27 1009 77 10000 5.58 135 12:58 18.05.2022
2045 Clouds 28 1008 72 10000 5.37 137 12:25 18.05.2022
2046 Clouds 29 1008 72 10000 5.36 137 11:33 18.05.2022
2047 Clouds 29 1008 67 10000 4.88 132 10:48 18.05.2022
2048 Clouds 29 1010 51 10000 2.51 144 08:25 18.05.2022
2049 Clouds 28 1011 51 10000 2.36 137 07:27 18.05.2022
2050 Clouds 25 1013 65 10000 2.36 130 03:59 18.05.2022
2051 Clouds 22 1013 83 10000 1.7 135 00:51 18.05.2022
2052 Clouds 22 1012 83 10000 1.81 143 23:41 17.05.2022
2053 Clouds 23 1012 80 10000 2.31 142 21:22 17.05.2022
2054 Clouds 23 1012 80 10000 2.31 142 20:44 17.05.2022
2055 Clouds 23 1013 82 10000 2.16 155 19:41 17.05.2022
2056 Clouds 23 1013 80 10000 2.19 163 19:20 17.05.2022
2057 Clouds 24 1014 78 10000 2.65 166 17:34 17.05.2022
2058 Clouds 24 1014 75 10000 3.39 158 16:57 17.05.2022
2059 Clouds 25 1013 73 10000 3.78 155 15:58 17.05.2022
2060 Clouds 26 1012 72 10000 3.84 151 14:55 17.05.2022
2061 Clouds 26 1011 68 10000 3.56 142 14:28 17.05.2022
2062 Clouds 28 1010 69 10000 4.07 142 12:39 17.05.2022
2063 Clouds 28 1009 48 10000 2.25 114 10:39 17.05.2022
2064 Clouds 28 1011 46 10000 2.34 78 08:51 17.05.2022
2065 Clouds 28 1012 47 10000 2.83 74 07:55 17.05.2022
2066 Clouds 26 1013 50 10000 2.97 62 06:23 17.05.2022
2067 Clouds 22 1013 83 10000 1.73 336 01:23 17.05.2022
2068 Clouds 21 1013 81 10000 1.79 328 23:44 16.05.2022
2069 Clouds 21 1012 79 10000 1.88 330 22:33 16.05.2022
2070 Clouds 22 1013 73 10000 1.83 347 21:18 16.05.2022
2071 Clouds 23 1013 73 10000 1.83 347 20:37 16.05.2022
2072 Clouds 23 1015 70 10000 1.75 6 18:46 16.05.2022
2073 Clouds 23 1016 69 10000 1.51 32 17:18 16.05.2022
2074 Clouds 23 1016 69 10000 1.51 32 17:18 16.05.2022
2075 Clouds 24 1014 71 10000 2.37 44 15:29 16.05.2022
2076 Clouds 25 1013 73 10000 2.55 41 13:45 16.05.2022
2077 Clouds 25 1013 73 10000 3.12 39 12:37 16.05.2022
2078 Clouds 26 1012 65 10000 4.56 28 10:36 16.05.2022
2079 Clouds 25 1014 76 10000 2.97 350 07:59 16.05.2022
2080 Clouds 24 1015 79 10000 2.56 354 05:46 16.05.2022
2081 Clouds 22 1014 85 10000 5.51 22 00:49 16.05.2022
2082 Clouds 23 1012 72 10000 4.93 16 22:44 15.05.2022
2083 Clouds 23 1012 74 10000 4.02 19 21:59 15.05.2022
2084 Clouds 23 1012 74 10000 4.02 19 21:36 15.05.2022
2085 Clouds 23 1013 88 10000 4.1 9 20:43 15.05.2022
2086 Clouds 24 1014 83 10000 3.48 17 18:39 15.05.2022
2087 Clouds 24 1014 76 10000 4.23 6 16:54 15.05.2022
2088 Clouds 25 1011 74 10000 4.76 21 14:29 15.05.2022
2089 Clouds 25 1011 74 10000 4.76 21 13:45 15.05.2022
2090 Clouds 25 1009 77 10000 5.76 27 11:55 15.05.2022
2091 Clouds 26 1009 77 10000 5.79 27 10:47 15.05.2022
2092 Clouds 25 1009 78 10000 6.01 29 09:46 15.05.2022
2093 Clouds 26 1010 80 10000 6.41 24 07:22 15.05.2022
2094 Clouds 25 1010 80 10000 6.41 24 06:42 15.05.2022
2095 Clouds 25 1010 94 10000 2.35 14 02:43 15.05.2022
2096 Clouds 24 1007 95 10000 1.6 32 00:22 15.05.2022
2097 Clouds 24 1007 95 10000 1.6 32 23:36 14.05.2022
2098 Clouds 25 1006 95 10000 1.25 48 21:45 14.05.2022
2099 Clouds 25 1007 94 10000 1.06 59 21:25 14.05.2022
2100 Clouds 25 1007 94 10000 1.04 83 20:25 14.05.2022
2101 Clouds 25 1008 93 10000 1.39 67 19:20 14.05.2022
2102 Rain 25 1008 93 10000 1.39 67 18:57 14.05.2022
2103 Clouds 25 1009 92 10000 1.38 63 17:44 14.05.2022
2104 Clouds 25 1008 92 10000 1.22 36 15:58 14.05.2022
2105 Clouds 25 1007 93 10000 1.44 20 14:38 14.05.2022
2106 Clouds 25 1005 85 10000 1.4 5 13:24 14.05.2022
2107 Clouds 25 1004 81 10000 1.29 52 11:45 14.05.2022
2108 Clouds 25 1004 81 10000 1.23 55 10:43 14.05.2022
2109 Clouds 25 1005 83 10000 1.08 60 10:18 14.05.2022
2110 Clouds 26 1005 83 10000 0.95 73 09:23 14.05.2022
2111 Clouds 25 1007 81 10000 0.15 188 07:26 14.05.2022
2112 Clouds 24 1008 81 10000 0.71 95 04:32 14.05.2022
2113 Clouds 23 1006 92 10000 1.25 2 00:25 14.05.2022
2114 Clouds 23 1005 92 10000 1.57 4 23:24 13.05.2022
2115 Clouds 23 1005 92 10000 1.57 4 22:54 13.05.2022
2116 Clouds 23 1005 92 10000 1.73 4 22:20 13.05.2022
2117 Clouds 23 1005 92 10000 2.04 359 20:57 13.05.2022
2118 Clouds 23 1005 92 10000 2.04 359 20:30 13.05.2022
2119 Clouds 23 1006 93 10000 3.14 350 19:51 13.05.2022
2120 Clouds 24 1006 93 10000 3.27 345 18:47 13.05.2022
2121 Clouds 25 1007 89 10000 2.7 23 17:29 13.05.2022
2122 Clouds 26 1006 86 10000 3.17 28 16:29 13.05.2022
2123 Clouds 26 1006 86 10000 3.17 28 15:45 13.05.2022
2124 Clouds 27 1004 83 10000 5.37 33 14:24 13.05.2022
2125 Clouds 28 1003 85 7734 5.47 27 12:46 13.05.2022
2126 Clouds 29 1002 81 6862 5.94 32 11:36 13.05.2022
2127 Clouds 30 1001 74 10000 5.62 35 09:43 13.05.2022
2128 Clouds 29 1001 64 10000 3.76 23 08:51 13.05.2022
2129 Clouds 29 1003 75 10000 3.08 13 07:49 13.05.2022
2130 Clouds 28 1004 81 10000 2.89 2 06:44 13.05.2022
2131 Clouds 27 1005 87 10000 1.3 18 04:48 13.05.2022
2132 Clouds 25 1003 96 10000 1.39 77 00:42 13.05.2022
2133 Clouds 25 1003 96 10000 1.24 79 22:47 12.05.2022
2134 Clouds 25 1003 96 10000 1.19 85 21:59 12.05.2022
2135 Clouds 25 1003 97 10000 1.24 106 20:38 12.05.2022
2136 Clouds 26 1004 97 10000 1.71 66 19:23 12.05.2022
2137 Clouds 26 1004 97 10000 1.85 55 17:59 12.05.2022
2138 Clouds 26 1004 94 8738 2.42 38 16:27 12.05.2022
2139 Clouds 26 1003 90 10000 2.4 48 14:51 12.05.2022
2140 Rain 26 1002 84 10000 2.46 33 13:47 12.05.2022
2141 Rain 25 1000 70 10000 3.05 43 11:25 12.05.2022
2142 Rain 24 1001 71 10000 2.95 35 09:37 12.05.2022
2143 Rain 27 1002 66 10000 3.4 29 08:51 12.05.2022
2144 Clouds 29 1003 68 10000 4.42 33 07:57 12.05.2022
2145 Clouds 31 1003 63 10000 2.27 27 06:39 12.05.2022
2146 Clouds 27 1004 91 10000 2.02 54 02:59 12.05.2022
2147 Clouds 27 1003 96 10000 1.76 59 00:41 12.05.2022
2148 Clouds 26 1002 96 10000 1.83 69 22:41 11.05.2022
2149 Clouds 26 1002 96 10000 1.81 76 21:56 11.05.2022
2150 Clouds 26 1002 95 10000 1.99 95 21:24 11.05.2022
2151 Clouds 27 1003 92 10000 2.08 94 19:36 11.05.2022
2152 Clouds 29 1004 92 10000 3.08 110 16:59 11.05.2022
2153 Clouds 29 1004 90 10000 3.22 119 15:50 11.05.2022
2154 Clouds 30 1003 89 10000 3.84 135 14:39 11.05.2022
2155 Clouds 30 1003 88 10000 4.7 140 14:19 11.05.2022
2156 Clouds 32 1001 74 10000 4.01 95 11:54 11.05.2022
2157 Clouds 32 1001 68 10000 2.39 83 11:23 11.05.2022
2158 Rain 32 1002 77 10000 2.26 41 08:46 11.05.2022
2159 Clouds 30 1005 81 10000 1.11 80 05:45 11.05.2022
2160 Clouds 26 1004 93 10000 1.86 89 01:23 11.05.2022
2161 Rain 26 1003 94 10000 2.8 89 22:32 10.05.2022
2162 Clouds 26 1003 94 10000 2.55 88 21:58 10.05.2022
2163 Clouds 26 1003 94 10000 2.28 98 20:58 10.05.2022
2164 Clouds 26 1004 93 10000 2.65 103 20:18 10.05.2022
2165 Clouds 27 1006 93 10000 3.71 107 18:27 10.05.2022
2166 Clouds 27 1006 93 10000 3.71 107 17:34 10.05.2022
2167 Clouds 28 1005 89 10000 3.97 123 15:41 10.05.2022
2168 Clouds 31 1002 78 10000 4.81 123 12:47 10.05.2022
2169 Clouds 31 1001 66 10000 4.24 123 11:51 10.05.2022
2170 Clouds 32 1001 55 10000 2.75 128 11:21 10.05.2022
2171 Clouds 32 1001 55 10000 2.75 128 10:54 10.05.2022
2172 Clouds 33 1002 52 10000 1.17 205 09:26 10.05.2022
2173 Clouds 32 1006 60 10000 2 216 07:26 10.05.2022
2174 Clouds 28 1008 73 10000 2.04 191 04:32 10.05.2022
2175 Clouds 26 1007 96 10000 2.22 152 01:18 10.05.2022
2176 Clouds 26 1007 97 10000 2.57 123 22:57 09.05.2022
2177 Clouds 26 1007 96 10000 2.52 129 21:51 09.05.2022
2178 Clouds 26 1007 95 10000 2.92 144 20:54 09.05.2022
2179 Clouds 26 1007 93 10000 4.1 148 19:29 09.05.2022
2180 Clouds 27 1008 91 10000 4.79 151 17:52 09.05.2022
2181 Clouds 27 1008 90 10000 5.05 153 16:38 09.05.2022
2182 Rain 27 1008 89 10000 5.34 149 15:52 09.05.2022
2183 Clouds 28 1008 86 10000 5.14 150 15:24 09.05.2022
2184 Clouds 28 1006 81 10000 6.23 153 14:29 09.05.2022
2185 Clouds 29 1006 81 10000 6.23 153 13:49 09.05.2022
2186 Clouds 30 1005 71 10000 6.86 155 12:21 09.05.2022
2187 Clouds 31 1005 66 10000 7.12 159 11:18 09.05.2022
2188 Clouds 31 1005 66 10000 7.12 159 10:42 09.05.2022
2189 Clouds 30 1006 65 10000 5.71 161 08:36 09.05.2022
2190 Clouds 29 1006 56 10000 5.7 169 07:53 09.05.2022
2191 Clouds 26 1011 87 10000 4.13 141 03:21 09.05.2022
2192 Clouds 24 1009 96 10000 3.32 126 23:34 08.05.2022
2193 Clouds 24 1009 95 10000 3.29 125 22:55 08.05.2022
2194 Clouds 24 1009 95 10000 3.64 126 21:55 08.05.2022
2195 Clouds 24 1009 95 10000 3.64 126 21:55 08.05.2022
2196 Clouds 25 1009 95 10000 3.66 126 20:35 08.05.2022
2197 Clouds 25 1010 95 10000 3.03 131 19:44 08.05.2022
2198 Clouds 25 1010 94 10000 3.42 135 18:54 08.05.2022
2199 Clouds 25 1011 94 10000 4.18 134 17:57 08.05.2022
2200 Rain 26 1010 93 10000 4.64 138 16:42 08.05.2022
2201 Rain 26 1011 91 10000 4.35 140 15:31 08.05.2022
2202 Clouds 26 1010 90 10000 4.81 139 14:44 08.05.2022
2203 Rain 28 1007 80 10000 6.11 137 12:25 08.05.2022
2204 Clouds 29 1007 76 10000 5.95 142 10:31 08.05.2022
2205 Clouds 29 1007 71 10000 6.12 140 09:56 08.05.2022
2206 Clouds 28 1007 66 10000 5.01 135 08:55 08.05.2022
2207 Clouds 28 1009 68 10000 4.09 142 06:57 08.05.2022
2208 Clouds 26 1012 83 10000 2.27 139 03:26 08.05.2022
2209 Clouds 24 1011 90 10000 2.29 110 02:23 08.05.2022
2210 Clouds 24 1010 96 10000 2.68 99 00:21 08.05.2022
2211 Clouds 24 1010 96 10000 2.68 99 23:46 07.05.2022
2212 Clouds 25 1010 96 10000 2.71 100 22:46 07.05.2022
2213 Clouds 25 1010 96 10000 2.66 95 21:57 07.05.2022
2214 Clouds 25 1010 96 10000 2.35 103 21:33 07.05.2022
2215 Clouds 25 1010 96 10000 1.78 119 20:27 07.05.2022
2216 Clouds 26 1011 93 10000 2.15 136 18:59 07.05.2022
2217 Clouds 26 1012 92 10000 2.36 141 17:31 07.05.2022
2218 Clouds 27 1011 88 10000 3.76 138 15:34 07.05.2022
2219 Clouds 30 1008 75 10000 5.51 133 12:34 07.05.2022
2220 Clouds 30 1007 67 10000 4.6 130 10:23 07.05.2022
2221 Clouds 29 1008 59 10000 4.22 144 08:37 07.05.2022
2222 Clouds 29 1009 58 10000 2.67 157 07:37 07.05.2022
2223 Clouds 27 1010 59 10000 2.39 168 06:42 07.05.2022
2224 Clouds 25 1012 73 10000 2.13 155 04:21 07.05.2022
2225 Clouds 25 1011 93 10000 1.83 149 00:49 07.05.2022
2226 Clouds 25 1010 92 10000 1.7 133 22:55 06.05.2022
2227 Clouds 25 1010 91 10000 1.96 143 22:21 06.05.2022
2228 Clouds 24 1010 91 10000 1.96 143 21:32 06.05.2022
2229 Rain 24 1011 85 10000 2.18 137 20:18 06.05.2022
2230 Clouds 24 1011 87 10000 2.37 140 19:27 06.05.2022
2231 Clouds 25 1011 87 10000 2.37 140 18:43 06.05.2022
2232 Clouds 26 1012 85 10000 2.87 151 17:37 06.05.2022
2233 Clouds 26 1011 80 10000 4.29 156 15:54 06.05.2022
2234 Clouds 26 1011 80 10000 4.29 156 15:32 06.05.2022
2235 Clouds 26 1009 74 10000 5.38 156 14:22 06.05.2022
2236 Clouds 28 1008 67 10000 5.95 146 12:52 06.05.2022
2237 Clouds 29 1007 60 10000 5.39 141 11:58 06.05.2022
2238 Clouds 29 1007 50 10000 3.98 143 11:27 06.05.2022
2239 Clouds 29 1007 43 10000 2.28 164 09:48 06.05.2022
2240 Clouds 28 1007 42 10000 1.69 167 09:18 06.05.2022
2241 Clouds 28 1009 44 10000 1.71 154 07:54 06.05.2022
2242 Clouds 27 1011 49 10000 1.37 141 06:26 06.05.2022
2243 Clouds 25 1012 61 10000 1.44 109 03:42 06.05.2022
2244 Clouds 24 1012 70 10000 1.57 106 02:38 06.05.2022
2245 Clouds 23 1010 87 10000 1.63 111 22:58 05.05.2022
2246 Clouds 23 1010 86 10000 1.88 131 21:49 05.05.2022
2247 Clear 23 1010 85 10000 2.09 137 20:36 05.05.2022
2248 Clear 24 1012 85 10000 2.65 157 18:54 05.05.2022
2249 Clear 25 1012 79 10000 3.22 159 16:40 05.05.2022
2250 Clear 26 1010 68 10000 4.47 146 14:59 05.05.2022
2251 Clear 28 1008 57 10000 5.44 134 13:29 05.05.2022
2252 Clear 29 1008 57 10000 5.44 134 12:55 05.05.2022
2253 Clear 30 1007 38 10000 3.69 129 10:59 05.05.2022
2254 Clear 30 1008 36 10000 2.65 119 09:40 05.05.2022
2255 Clear 29 1009 35 10000 2.24 113 08:30 05.05.2022
2256 Clouds 27 1013 40 10000 1.28 110 05:44 05.05.2022
2257 Clouds 23 1013 67 10000 0.56 48 02:20 05.05.2022
2258 Clouds 21 1013 67 10000 0.56 48 01:35 05.05.2022
2259 Clouds 21 1012 74 10000 1.22 77 23:55 04.05.2022
2260 Clouds 22 1011 73 10000 1.3 106 22:50 04.05.2022
2261 Clouds 23 1011 72 10000 1.65 131 21:59 04.05.2022
2262 Clouds 22 1012 72 10000 1.84 135 21:29 04.05.2022
2263 Clouds 23 1012 72 10000 1.84 135 20:30 04.05.2022
2264 Clouds 23 1013 71 10000 2.03 138 19:55 04.05.2022
2265 Clouds 23 1014 69 10000 2.25 152 19:31 04.05.2022
2266 Clouds 24 1014 68 10000 2.57 153 18:22 04.05.2022
2267 Clouds 24 1014 68 10000 2.57 153 17:58 04.05.2022
2268 Clear 25 1014 63 10000 3.79 150 15:42 04.05.2022
2269 Clear 25 1013 60 10000 4.74 151 15:24 04.05.2022
2270 Clear 28 1012 50 10000 4.36 144 14:21 04.05.2022
2271 Clear 28 1011 52 10000 4.51 144 13:49 04.05.2022
2272 Clear 29 1010 43 10000 2.29 144 12:33 04.05.2022
2273 Clear 30 1010 30 10000 1.84 90 10:43 04.05.2022
2274 Clear 30 1010 30 10000 2.13 71 09:44 04.05.2022
2275 Clear 30 1011 30 10000 2.39 43 08:48 04.05.2022
2276 Clear 28 1014 34 10000 2.35 23 06:49 04.05.2022
2277 Clouds 22 1016 54 10000 0.82 341 02:59 04.05.2022
2278 Clouds 19 1015 70 10000 1.36 21 01:24 04.05.2022
2279 Clouds 20 1014 68 10000 1.32 62 22:50 03.05.2022
2280 Clouds 21 1014 66 10000 1.11 72 21:46 03.05.2022
2281 Clouds 21 1014 66 10000 0.97 134 20:56 03.05.2022
2282 Clouds 21 1015 65 10000 1.57 153 20:30 03.05.2022
2283 Clouds 22 1016 65 10000 1.81 174 18:54 03.05.2022
2284 Clouds 23 1017 63 10000 2.46 173 18:21 03.05.2022
2285 Clouds 23 1017 61 10000 3.09 170 17:19 03.05.2022
2286 Clouds 25 1016 59 10000 3.79 161 15:43 03.05.2022
2287 Clear 28 1013 46 10000 3.59 108 13:28 03.05.2022
2288 Clear 29 1012 36 10000 2.98 75 12:27 03.05.2022
2289 Clear 30 1012 30 10000 3.2 55 10:57 03.05.2022
2290 Clear 30 1013 29 10000 3.28 44 09:46 03.05.2022
2291 Clouds 29 1015 30 10000 3.68 24 07:58 03.05.2022
2292 Clouds 28 1016 32 10000 3.79 21 06:45 03.05.2022
2293 Clouds 21 1018 64 10000 2.27 334 01:52 03.05.2022
2294 Clouds 21 1016 68 10000 2.72 314 22:44 02.05.2022
2295 Clouds 21 1016 66 10000 2.81 319 21:55 02.05.2022
2296 Clouds 21 1016 65 10000 2.76 317 21:23 02.05.2022
2297 Clouds 22 1017 60 10000 1.97 24 18:46 02.05.2022
2298 Clouds 23 1018 58 10000 1.95 34 18:25 02.05.2022
2299 Clouds 23 1018 56 10000 1.91 39 17:37 02.05.2022
2300 Clouds 23 1017 60 10000 1.85 108 16:23 02.05.2022
2301 Clouds 25 1016 56 10000 2.6 83 15:31 02.05.2022
2302 Clouds 25 1014 54 10000 2.84 77 13:58 02.05.2022
2303 Clouds 27 1012 46 10000 3.88 60 12:27 02.05.2022
2304 Clouds 27 1012 40 10000 3.83 34 10:51 02.05.2022
2305 Clouds 27 1013 39 10000 3.87 12 09:30 02.05.2022
2306 Clouds 26 1014 39 10000 4.66 8 07:52 02.05.2022
2307 Clouds 23 1018 46 10000 4.98 3 04:36 02.05.2022
2308 Clouds 21 1016 62 10000 4.96 12 00:25 02.05.2022
2309 Clouds 20 1016 62 10000 4.96 12 23:52 01.05.2022
2310 Clouds 21 1015 63 10000 4.82 12 22:33 01.05.2022
2311 Clouds 21 1015 62 10000 4.83 13 21:26 01.05.2022
2312 Clouds 22 1016 62 10000 4.52 16 20:19 01.05.2022
2313 Clouds 23 1016 59 10000 4.84 21 18:59 01.05.2022
2314 Clouds 23 1016 59 10000 4.84 21 18:39 01.05.2022
2315 Clouds 22 1017 60 10000 4.33 26 17:38 01.05.2022
2316 Clouds 22 1016 58 10000 4.31 42 16:23 01.05.2022
2317 Clouds 22 1016 58 10000 4.31 42 15:36 01.05.2022
2318 Clouds 23 1014 58 10000 4.85 55 13:47 01.05.2022
2319 Clouds 26 1012 52 10000 6.56 40 11:23 01.05.2022
2320 Clouds 26 1012 59 10000 5.19 28 08:53 01.05.2022
2321 Clouds 26 1012 59 10000 5.19 28 08:34 01.05.2022
2322 Clouds 20 1014 71 10000 7.25 30 03:35 01.05.2022
2323 Clouds 20 1011 83 10000 7.43 32 00:29 01.05.2022
2324 Rain 23 1010 86 10000 6.34 32 21:49 30.04.2022
2325 Clouds 26 1010 90 10000 5.66 34 21:18 30.04.2022
2326 Clouds 27 1010 89 10000 2.45 140 19:42 30.04.2022
2327 Clouds 27 1011 87 10000 3.1 151 18:21 30.04.2022
2328 Clouds 28 1011 84 10000 3.95 151 16:50 30.04.2022
2329 Clouds 28 1010 81 10000 4.37 152 15:47 30.04.2022
2330 Clouds 29 1009 78 10000 4.59 154 14:48 30.04.2022
2331 Clouds 31 1006 70 10000 6.99 153 12:55 30.04.2022
2332 Clouds 32 1005 61 10000 6.83 151 11:34 30.04.2022
2333 Clouds 32 1006 58 10000 6.36 159 10:45 30.04.2022
2334 Rain 32 1006 63 10000 5.9 153 09:41 30.04.2022
2335 Clouds 31 1009 52 10000 4.23 165 06:43 30.04.2022
2336 Clouds 26 1010 90 10000 2.79 125 02:36 30.04.2022
2337 Clouds 26 1009 98 10000 2.51 116 23:37 29.04.2022
2338 Clouds 26 1008 97 10000 2.52 118 22:31 29.04.2022
2339 Clouds 26 1008 97 10000 2.96 129 21:39 29.04.2022
2340 Clouds 26 1009 96 10000 3.31 136 20:49 29.04.2022
2341 Clouds 27 1009 92 10000 3.54 136 19:45 29.04.2022
2342 Clouds 27 1009 88 10000 3.75 139 17:55 29.04.2022
2343 Clouds 27 1009 85 10000 4.41 138 17:21 29.04.2022
2344 Rain 27 1009 80 10000 5.19 157 15:23 29.04.2022
2345 Rain 27 1008 75 10000 5.01 155 14:22 29.04.2022
2346 Clouds 27 1007 72 10000 5.19 161 12:52 29.04.2022
2347 Clouds 27 1006 66 10000 5.15 156 11:40 29.04.2022
2348 Clouds 27 1007 67 10000 4.09 177 08:46 29.04.2022
2349 Clouds 28 1009 66 10000 2.49 158 07:27 29.04.2022
2350 Clouds 27 1009 66 10000 2.49 158 06:39 29.04.2022
2351 Clouds 27 1011 78 10000 1.85 136 04:52 29.04.2022
2352 Clouds 26 1010 96 10000 1.79 101 00:39 29.04.2022
2353 Clouds 26 1008 97 10000 2.2 104 23:27 28.04.2022
2354 Clouds 26 1008 97 10000 2.2 104 22:41 28.04.2022
2355 Clouds 26 1008 98 10000 2.37 108 21:47 28.04.2022
2356 Clouds 26 1008 97 10000 2.53 112 20:57 28.04.2022
2357 Clouds 26 1009 97 10000 2.75 119 20:24 28.04.2022
2358 Clouds 26 1009 96 10000 2.74 117 19:41 28.04.2022
2359 Clouds 26 1009 95 10000 2.81 124 19:21 28.04.2022
2360 Clouds 26 1009 95 10000 2.81 124 18:35 28.04.2022
2361 Clouds 27 1010 91 10000 3.53 143 16:59 28.04.2022
2362 Clear 27 1009 89 10000 3.51 134 16:22 28.04.2022
2363 Clear 27 1009 89 10000 3.51 134 15:57 28.04.2022
2364 Clear 27 1009 85 10000 3.95 141 15:27 28.04.2022
2365 Clouds 27 1007 81 10000 4.18 133 13:44 28.04.2022
2366 Clouds 27 1006 76 10000 4.71 137 12:42 28.04.2022
2367 Clouds 28 1005 72 10000 5.06 137 11:53 28.04.2022
2368 Clouds 28 1004 67 10000 5.45 137 10:44 28.04.2022
2369 Clouds 27 1005 67 10000 5.23 140 09:52 28.04.2022
2370 Clouds 27 1006 75 10000 4.68 144 08:30 28.04.2022
2371 Clouds 28 1008 83 10000 3.46 149 06:58 28.04.2022
2372 Clouds 28 1009 85 10000 3.67 142 05:55 28.04.2022
2373 Clouds 28 1009 86 10000 3.69 141 04:50 28.04.2022
2374 Clouds 27 1009 86 10000 3.69 141 04:31 28.04.2022
2375 Clouds 27 1006 92 10000 2.89 134 23:59 27.04.2022
2376 Clouds 27 1006 92 10000 2.84 127 22:38 27.04.2022
2377 Clouds 27 1005 90 10000 3.11 131 21:51 27.04.2022
2378 Clouds 27 1006 90 10000 3.4 133 20:56 27.04.2022
2379 Clouds 27 1006 90 10000 3.4 133 20:35 27.04.2022
2380 Clouds 27 1006 92 10000 3.69 137 19:37 27.04.2022
2381 Clouds 27 1006 96 10000 3.33 127 18:52 27.04.2022
2382 Clouds 27 1007 94 10000 2.47 128 18:22 27.04.2022
2383 Clouds 28 1006 90 10000 4.42 117 16:27 27.04.2022
2384 Clouds 28 1005 87 10000 4.76 120 14:26 27.04.2022
2385 Clouds 31 1003 72 10000 4.89 122 11:45 27.04.2022
2386 Clouds 30 1002 67 10000 5.34 118 11:20 27.04.2022
2387 Clouds 31 1004 67 10000 4.99 125 08:58 27.04.2022
2388 Clouds 30 1006 72 10000 2.48 123 07:18 27.04.2022
2389 Clouds 27 1007 86 10000 2.6 135 03:41 27.04.2022
2390 Clouds 26 1006 91 10000 2.32 115 01:30 27.04.2022
2391 Clouds 26 1006 92 10000 2.16 112 00:36 27.04.2022
2392 Clouds 26 1004 90 10000 2.86 120 23:25 26.04.2022
2393 Clouds 26 1004 90 10000 2.86 120 22:52 26.04.2022
2394 Clouds 26 1004 90 10000 2.86 120 22:34 26.04.2022
2395 Clouds 26 1004 93 10000 2.85 121 21:26 26.04.2022
2396 Clouds 27 1004 93 10000 2.85 121 20:40 26.04.2022
2397 Clouds 27 1004 96 10000 2.81 125 19:48 26.04.2022
2398 Clear 27 1004 95 10000 3.07 127 19:26 26.04.2022
2399 Clear 27 1004 95 10000 3.07 127 18:42 26.04.2022
2400 Clear 27 1005 93 10000 3.42 134 17:50 26.04.2022
2401 Clear 27 1005 89 10000 3.34 138 16:19 26.04.2022
2402 Clear 29 1003 78 10000 4.47 130 13:58 26.04.2022
2403 Clear 30 1002 71 10000 4.57 119 13:29 26.04.2022
2404 Clear 31 1000 62 10000 4.98 105 11:32 26.04.2022
2405 Clear 31 1000 55 10000 4.77 89 10:31 26.04.2022
2406 Clear 31 1002 51 10000 3.55 63 08:47 26.04.2022
2407 Clouds 29 1005 73 10000 1.57 127 05:46 26.04.2022
2408 Clouds 28 1006 80 10000 1.85 137 04:23 26.04.2022
2409 Clouds 26 1004 90 10000 2.88 118 00:52 26.04.2022
2410 Clouds 26 1003 90 10000 3.11 122 23:52 25.04.2022
2411 Clouds 26 1002 92 10000 2.91 127 22:18 25.04.2022
2412 Clouds 26 1002 92 10000 2.91 127 21:33 25.04.2022
2413 Clouds 26 1003 92 10000 3.48 131 20:26 25.04.2022
2414 Clear 26 1004 91 10000 3.54 131 18:52 25.04.2022
2415 Clear 26 1004 89 10000 3.95 131 17:40 25.04.2022
2416 Clear 26 1004 89 10000 3.95 131 17:40 25.04.2022
2417 Clear 27 1004 87 10000 4.43 125 16:44 25.04.2022
2418 Clear 28 1003 83 10000 4.76 122 15:23 25.04.2022
2419 Clear 28 1003 83 10000 4.76 122 14:34 25.04.2022
2420 Clear 30 1001 70 10000 5.59 129 12:49 25.04.2022
2421 Clear 31 999 49 10000 3.93 117 10:44 25.04.2022
2422 Clear 31 1000 45 10000 1.73 63 09:42 25.04.2022
2423 Clouds 30 1002 50 10000 0.82 207 07:49 25.04.2022
2424 Clouds 29 1005 63 10000 1.53 208 05:54 25.04.2022
2425 Clouds 25 1004 94 10000 1.99 106 01:28 25.04.2022
2426 Clouds 25 1003 95 10000 2.13 105 23:54 24.04.2022
2427 Clouds 25 1002 95 10000 2.17 103 23:24 24.04.2022
2428 Clouds 25 1002 95 10000 2.17 103 22:39 24.04.2022
2429 Clouds 25 1002 95 10000 2.21 114 21:55 24.04.2022
2430 Clouds 25 1002 94 10000 2.71 134 21:21 24.04.2022
2431 Clouds 26 1002 94 10000 2.71 134 20:44 24.04.2022
2432 Clear 26 1003 92 10000 3.84 138 19:57 24.04.2022
2433 Clear 26 1003 91 10000 4.48 138 18:37 24.04.2022
2434 Clear 26 1004 89 10000 4.72 132 17:42 24.04.2022
2435 Clear 26 1004 87 10000 4.32 127 17:20 24.04.2022
2436 Clear 27 1004 87 10000 4.32 127 16:51 24.04.2022
2437 Clear 27 1004 85 10000 4.67 129 16:23 24.04.2022
2438 Clear 27 1004 85 10000 4.67 129 15:39 24.04.2022
2439 Clear 28 1003 82 10000 5.26 124 14:31 24.04.2022
2440 Clouds 28 1001 76 10000 5.66 129 13:26 24.04.2022
2441 Clouds 28 1001 76 10000 5.66 129 12:44 24.04.2022
2442 Clouds 29 1000 68 10000 6.57 138 11:46 24.04.2022
2443 Clouds 29 1000 58 10000 6.45 136 10:33 24.04.2022
2444 Clouds 29 1000 50 10000 4.97 141 09:41 24.04.2022
2445 Clouds 28 1003 56 10000 2.93 169 07:41 24.04.2022
2446 Clouds 26 1006 69 10000 3.43 165 05:32 24.04.2022
2447 Clouds 26 1007 91 10000 3.16 137 01:51 24.04.2022
2448 Clouds 25 1006 97 10000 2.38 119 00:38 24.04.2022
2449 Clouds 25 1005 98 10000 2.29 116 23:45 23.04.2022
2450 Clouds 25 1005 98 10000 2.52 118 23:22 23.04.2022
2451 Clouds 25 1005 97 10000 2.89 117 21:55 23.04.2022
2452 Clouds 25 1005 97 10000 2.89 117 21:35 23.04.2022
2453 Clouds 26 1005 97 10000 3.09 117 20:57 23.04.2022
2454 Clouds 26 1006 97 10000 3.45 121 19:49 23.04.2022
2455 Clouds 26 1006 97 10000 3.24 127 19:19 23.04.2022
2456 Clouds 26 1006 97 10000 3.24 127 18:53 23.04.2022
2457 Clouds 26 1007 96 10000 3.42 129 18:24 23.04.2022
2458 Clouds 26 1007 96 10000 3.42 129 17:43 23.04.2022
2459 Clear 26 1007 95 10000 3.73 128 16:43 23.04.2022
2460 Clear 27 1007 92 10000 4.02 131 15:32 23.04.2022
2461 Clouds 30 1004 75 10000 4.88 125 12:49 23.04.2022
2462 Clouds 31 1003 56 10000 3.16 129 10:49 23.04.2022
2463 Clouds 31 1004 57 10000 2.96 111 09:38 23.04.2022
2464 Clouds 29 1008 68 10000 1.69 149 06:41 23.04.2022
2465 Clouds 26 1010 84 10000 1.57 147 03:54 23.04.2022
2466 Clouds 24 1008 95 10000 1.34 126 01:20 23.04.2022
2467 Clouds 24 1008 96 10000 1.31 115 23:30 22.04.2022
2468 Clouds 24 1007 96 10000 1.59 104 22:20 22.04.2022
2469 Clouds 24 1007 96 10000 1.59 104 22:20 22.04.2022
2470 Clouds 24 1007 96 10000 1.59 104 21:43 22.04.2022
2471 Clouds 25 1008 97 10000 1.96 112 20:47 22.04.2022
2472 Clouds 25 1008 97 10000 2.3 118 20:27 22.04.2022
2473 Clouds 25 1008 96 10000 3.15 125 19:20 22.04.2022
2474 Clouds 25 1008 96 10000 3.15 125 18:41 22.04.2022
2475 Clouds 25 1009 95 10000 3.35 124 17:40 22.04.2022
2476 Clear 25 1009 93 10000 3.5 132 16:46 22.04.2022
2477 Clear 25 1008 90 10000 4.22 139 15:42 22.04.2022
2478 Clear 25 1007 87 10000 5.08 144 14:46 22.04.2022
2479 Clouds 27 1006 78 10000 6.11 151 13:49 22.04.2022
2480 Clouds 28 1005 72 10000 6.17 149 12:57 22.04.2022
2481 Clouds 29 1004 64 10000 6.54 146 11:48 22.04.2022
2482 Clouds 29 1004 56 10000 5.73 145 11:21 22.04.2022
2483 Clouds 29 1004 56 10000 5.73 145 10:48 22.04.2022
2484 Clouds 29 1004 48 10000 5.18 154 10:29 22.04.2022
2485 Clouds 29 1004 48 10000 5.18 154 09:50 22.04.2022
2486 Clouds 29 1005 50 10000 5.06 165 08:50 22.04.2022
2487 Clouds 28 1008 55 10000 3.35 182 06:56 22.04.2022
2488 Clouds 22 1010 89 10000 2.4 183 01:53 22.04.2022
2489 Clouds 22 1009 97 10000 1.93 160 23:53 21.04.2022
2490 Clouds 22 1009 97 10000 2.6 147 22:59 21.04.2022
2491 Clouds 22 1009 97 10000 2.93 149 21:59 21.04.2022
2492 Clouds 22 1009 96 10000 3.21 151 20:34 21.04.2022
2493 Clouds 22 1009 96 10000 4.24 143 19:53 21.04.2022
2494 Clouds 22 1010 96 10000 3.56 149 18:35 21.04.2022
2495 Clouds 22 1011 95 10000 3.47 153 17:49 21.04.2022
2496 Clouds 22 1011 91 10000 3.32 148 16:28 21.04.2022
2497 Clouds 22 1009 87 10000 4.29 147 15:20 21.04.2022
2498 Clouds 22 1009 90 10000 4.11 157 14:38 21.04.2022
2499 Clouds 22 1008 79 10000 4.6 145 13:23 21.04.2022
2500 Clouds 23 1008 79 10000 4.6 145 12:36 21.04.2022
2501 Clouds 23 1008 66 10000 3.88 150 10:20 21.04.2022
2502 Clouds 23 1009 64 10000 3.63 148 08:53 21.04.2022
2503 Clouds 23 1011 60 10000 3.01 164 06:55 21.04.2022
2504 Clouds 23 1011 60 10000 3.01 164 06:55 21.04.2022
2505 Clouds 22 1013 63 10000 2.89 159 04:36 21.04.2022
2506 Clouds 21 1013 74 10000 2.02 135 03:24 21.04.2022
2507 Clouds 21 1013 74 10000 2.02 135 02:46 21.04.2022
2508 Clear 20 1012 85 10000 1.59 117 00:43 21.04.2022
2509 Clear 20 1012 86 10000 1.27 119 23:48 20.04.2022
2510 Clear 20 1012 85 10000 1.88 137 23:21 20.04.2022
2511 Clear 20 1012 85 10000 1.88 137 22:45 20.04.2022
2512 Clear 20 1012 84 10000 1.8 140 22:18 20.04.2022
2513 Clear 20 1012 83 10000 2.06 145 21:23 20.04.2022
2514 Clear 20 1013 85 10000 2.43 140 20:22 20.04.2022
2515 Clear 20 1013 85 10000 2.43 140 19:51 20.04.2022
2516 Clear 21 1014 83 10000 2.63 148 18:52 20.04.2022
2517 Clear 21 1014 81 10000 3.02 148 17:53 20.04.2022
2518 Clear 22 1014 78 10000 2.91 149 16:40 20.04.2022
2519 Clear 22 1014 74 10000 3.12 155 15:39 20.04.2022
2520 Clouds 24 1012 71 10000 2.9 168 13:41 20.04.2022
2521 Clouds 25 1011 62 10000 1.77 144 11:43 20.04.2022
2522 Clouds 25 1011 55 10000 0.91 112 10:53 20.04.2022
2523 Clouds 25 1012 53 10000 0.92 92 09:45 20.04.2022
2524 Clouds 25 1013 54 10000 1.12 89 08:54 20.04.2022
2525 Clouds 24 1014 55 10000 0.63 83 08:20 20.04.2022
2526 Clouds 22 1016 57 10000 1.41 131 06:49 20.04.2022
2527 Clouds 21 1017 76 10000 1.03 112 03:33 20.04.2022
2528 Clouds 20 1015 88 10000 1.43 122 00:22 20.04.2022
2529 Clouds 20 1015 88 10000 1.43 122 23:31 19.04.2022
2530 Clouds 20 1015 87 10000 1.42 115 22:24 19.04.2022
2531 Clouds 20 1015 87 10000 1.42 115 21:55 19.04.2022
2532 Clouds 20 1015 85 10000 1.63 135 21:18 19.04.2022
2533 Clouds 20 1015 85 10000 1.63 135 20:37 19.04.2022
2534 Clouds 20 1015 85 10000 1.63 135 20:37 19.04.2022
2535 Clouds 21 1016 82 10000 1.79 141 19:43 19.04.2022
2536 Clouds 21 1017 80 10000 1.31 138 18:46 19.04.2022
2537 Clouds 21 1017 80 10000 1.31 138 18:46 19.04.2022
2538 Clouds 21 1018 77 10000 0.92 141 17:27 19.04.2022
2539 Clouds 22 1018 77 10000 0.92 141 16:43 19.04.2022
2540 Clouds 22 1017 76 10000 0.67 139 16:21 19.04.2022
2541 Clouds 23 1016 76 10000 0.36 144 14:47 19.04.2022
2542 Clouds 24 1015 69 10000 0.86 36 13:22 19.04.2022
2543 Clouds 24 1015 69 10000 0.86 36 12:49 19.04.2022
2544 Clouds 25 1015 62 10000 1.78 43 11:38 19.04.2022
2545 Clouds 26 1016 60 10000 3.24 36 09:52 19.04.2022
2546 Clouds 25 1017 64 10000 2.77 19 08:23 19.04.2022
2547 Clouds 23 1020 75 10000 2.51 327 04:26 19.04.2022
2548 Clouds 19 1019 79 10000 2.23 325 02:41 19.04.2022
2549 Clouds 19 1017 85 10000 2.21 331 00:23 19.04.2022
2550 Clouds 18 1017 86 10000 2.5 324 22:58 18.04.2022
2551 Clouds 19 1017 85 10000 2.55 317 21:29 18.04.2022
2552 Clouds 19 1017 85 10000 2.55 317 20:46 18.04.2022
2553 Clouds 19 1018 84 10000 2.88 306 20:25 18.04.2022
2554 Clouds 19 1018 82 10000 3 313 19:41 18.04.2022
2555 Clouds 19 1019 82 10000 3.61 306 18:52 18.04.2022
2556 Clouds 20 1020 81 10000 3.45 312 17:49 18.04.2022
2557 Clouds 20 1020 81 10000 3.45 312 17:49 18.04.2022
2558 Clouds 20 1020 81 10000 3.47 313 17:20 18.04.2022
2559 Clouds 20 1020 81 10000 3.47 313 16:40 18.04.2022
2560 Clouds 20 1020 80 10000 3.69 317 15:43 18.04.2022
2561 Clouds 20 1018 81 10000 3.61 321 14:28 18.04.2022
2562 Clouds 21 1016 78 10000 3.18 333 13:25 18.04.2022
2563 Clouds 22 1016 77 10000 3.2 340 12:27 18.04.2022
2564 Clouds 22 1016 78 10000 3.23 345 10:59 18.04.2022
2565 Clouds 23 1017 77 10000 3.56 347 10:18 18.04.2022
2566 Clouds 22 1017 77 10000 3.56 347 09:30 18.04.2022
2567 Clouds 20 1018 73 10000 5.3 15 07:29 18.04.2022
2568 Clouds 17 1019 82 10000 4.13 10 03:57 18.04.2022
2569 Clouds 17 1016 92 10000 3.12 5 23:41 17.04.2022
2570 Clouds 17 1015 93 10000 2.75 1 22:39 17.04.2022
2571 Clouds 17 1015 93 10000 2.44 0 21:39 17.04.2022
2572 Clouds 17 1016 93 10000 2.67 351 21:19 17.04.2022
2573 Clouds 17 1016 93 10000 2.67 351 20:32 17.04.2022
2574 Clouds 17 1015 87 10000 1.68 358 19:21 17.04.2022
2575 Clouds 18 1016 87 10000 2.01 2 17:38 17.04.2022
2576 Clouds 18 1015 86 10000 2.14 357 15:38 17.04.2022
2577 Clouds 18 1015 86 10000 2.17 2 14:53 17.04.2022
2578 Clouds 18 1014 85 10000 2.05 358 13:44 17.04.2022
2579 Clouds 18 1013 85 10000 2.26 16 12:56 17.04.2022
2580 Clouds 19 1012 83 10000 2.42 31 11:22 17.04.2022
2581 Clouds 18 1012 83 10000 2.42 31 10:38 17.04.2022
2582 Clouds 18 1013 83 10000 2.42 25 10:19 17.04.2022
2583 Clouds 18 1013 83 10000 2.46 24 09:23 17.04.2022
2584 Clouds 18 1013 83 10000 2.46 24 08:41 17.04.2022
2585 Clouds 18 1015 83 10000 2.22 26 06:52 17.04.2022
2586 Clouds 17 1015 88 10000 2.55 11 02:56 17.04.2022
2587 Clouds 18 1013 90 10000 2.73 19 00:43 17.04.2022
2588 Clouds 18 1012 90 10000 2.93 28 23:41 16.04.2022
2589 Clouds 19 1012 90 10000 3.72 20 21:54 16.04.2022
2590 Clouds 19 1012 89 10000 3.78 21 21:23 16.04.2022
2591 Clouds 19 1012 84 10000 3.05 22 19:33 16.04.2022
2592 Clouds 19 1012 84 10000 3.05 22 18:45 16.04.2022
2593 Clouds 21 1013 84 10000 3.8 19 17:21 16.04.2022
2594 Clouds 21 1013 84 10000 3.8 19 16:30 16.04.2022
2595 Clouds 21 1011 86 10000 5.42 39 15:23 16.04.2022
2596 Clouds 21 1011 86 10000 5.42 39 14:43 16.04.2022
2597 Clouds 23 1010 87 10000 5.63 43 13:50 16.04.2022
2598 Clouds 23 1009 91 10000 6.76 41 13:24 16.04.2022
2599 Clouds 25 1008 88 10000 6.71 40 11:58 16.04.2022
2600 Clouds 26 1007 81 7412 3.9 92 10:35 16.04.2022
2601 Rain 25 1007 74 10000 5.35 125 09:38 16.04.2022
2602 Clouds 25 1007 70 5826 5.86 140 08:52 16.04.2022
2603 Clouds 24 1009 69 10000 6.51 159 07:23 16.04.2022
2604 Clouds 23 1009 73 10000 5.89 155 05:45 16.04.2022
2605 Clouds 24 1009 92 10000 4.23 135 01:49 16.04.2022
2606 Clouds 26 1007 94 10000 4.15 145 23:52 15.04.2022
2607 Clouds 25 1007 93 10000 4.31 145 22:51 15.04.2022
2608 Clouds 25 1007 94 10000 4.42 143 22:29 15.04.2022
2609 Clouds 26 1007 94 10000 4.42 143 21:34 15.04.2022
2610 Clouds 26 1007 93 10000 4.35 144 20:38 15.04.2022
2611 Clouds 26 1008 94 10000 4.14 122 19:46 15.04.2022
2612 Clouds 26 1008 94 10000 4.18 126 19:23 15.04.2022
2613 Clouds 26 1008 94 10000 4.18 126 18:42 15.04.2022
2614 Clouds 26 1009 95 10000 4.46 131 18:22 15.04.2022
2615 Clouds 26 1009 95 10000 4.35 132 17:27 15.04.2022
2616 Clouds 26 1008 93 10000 4.95 137 16:25 15.04.2022
2617 Clouds 27 1008 93 10000 4.94 137 15:46 15.04.2022
2618 Clouds 27 1007 85 10000 4.45 129 14:18 15.04.2022
2619 Clouds 27 1006 79 10000 5.67 136 12:52 15.04.2022
2620 Clouds 27 1004 74 10000 5.64 132 12:26 15.04.2022
2621 Clouds 27 1004 74 10000 5.64 132 11:51 15.04.2022
2622 Clouds 28 1005 69 10000 5.81 133 10:46 15.04.2022
2623 Clouds 27 1005 71 10000 5.35 134 10:20 15.04.2022
2624 Clouds 27 1006 70 10000 4.25 140 09:22 15.04.2022
2625 Clouds 27 1006 70 10000 4.25 140 08:40 15.04.2022
2626 Clouds 26 1009 80 10000 4.05 134 06:51 15.04.2022
2627 Clouds 24 1010 82 10000 4.14 123 04:49 15.04.2022
2628 Clouds 25 1008 89 10000 3.17 121 00:47 15.04.2022
2629 Clouds 25 1007 88 10000 3.36 127 23:26 14.04.2022
2630 Clouds 25 1007 88 10000 3.36 127 22:46 14.04.2022
2631 Clouds 25 1006 87 10000 3.3 129 22:27 14.04.2022
2632 Clouds 25 1006 87 10000 3.3 129 21:50 14.04.2022
2633 Clear 26 1007 90 10000 2.85 133 19:41 14.04.2022
2634 Clear 26 1007 87 10000 4.36 137 19:20 14.04.2022
2635 Clear 26 1008 85 10000 4.45 139 17:45 14.04.2022
2636 Clear 26 1008 83 10000 3.93 143 16:51 14.04.2022
2637 Clear 27 1007 79 10000 4.02 143 15:52 14.04.2022
2638 Clouds 29 1005 67 10000 5.92 142 13:54 14.04.2022
2639 Clouds 29 1004 62 10000 5.63 135 13:21 14.04.2022
2640 Clouds 30 1004 62 10000 5.63 135 12:32 14.04.2022
2641 Clouds 30 1003 54 10000 5.54 133 11:43 14.04.2022
2642 Clouds 30 1003 48 10000 5.65 143 11:18 14.04.2022
2643 Clouds 31 1003 47 10000 5.64 148 10:31 14.04.2022
2644 Clouds 31 1003 47 10000 5.64 148 09:30 14.04.2022
2645 Clouds 31 1006 47 10000 4.6 175 08:24 14.04.2022
2646 Clouds 29 1008 49 10000 3.9 152 05:57 14.04.2022
2647 Clear 23 1008 95 10000 2.3 119 00:59 14.04.2022
2648 Clear 24 1006 95 10000 2.69 116 22:38 13.04.2022
2649 Clear 24 1006 93 10000 2.88 120 21:43 13.04.2022
2650 Clear 24 1006 90 10000 3.26 121 20:41 13.04.2022
2651 Clear 25 1006 87 10000 3.33 123 19:49 13.04.2022
2652 Clear 26 1007 81 10000 3.91 140 18:37 13.04.2022
2653 Clear 27 1007 79 10000 4.17 155 17:25 13.04.2022
2654 Clear 27 1007 79 10000 4.17 155 16:53 13.04.2022
2655 Clear 28 1006 77 10000 4.74 165 15:47 13.04.2022
2656 Clear 29 1005 74 10000 4.86 163 15:27 13.04.2022
2657 Clear 29 1005 74 10000 4.86 163 14:40 13.04.2022
2658 Clear 29 1004 64 10000 3.87 138 13:38 13.04.2022
2659 Clear 31 1003 56 10000 2.15 103 12:51 13.04.2022
2660 Clear 32 1003 46 10000 1.41 76 11:32 13.04.2022
2661 Clear 31 1004 45 10000 0.58 79 10:27 13.04.2022
2662 Clouds 30 1005 46 10000 0.16 319 08:45 13.04.2022
2663 Clouds 29 1006 49 10000 0.46 360 07:44 13.04.2022
2664 Clouds 29 1007 52 10000 1.16 8 06:47 13.04.2022
2665 Clouds 27 1009 59 10000 1.04 359 06:23 13.04.2022
2666 Clouds 23 1007 95 10000 1.21 101 00:52 13.04.2022
2667 Clouds 23 1006 96 10000 1.43 97 00:19 13.04.2022
2668 Clouds 23 1006 96 10000 1.41 94 22:33 12.04.2022
2669 Clouds 23 1006 96 10000 1.92 106 21:51 12.04.2022
2670 Clouds 24 1006 96 10000 2.31 80 20:48 12.04.2022
2671 Clouds 24 1006 96 10000 2.5 80 20:19 12.04.2022
2672 Clear 24 1006 95 10000 2.5 81 19:40 12.04.2022
2673 Clear 24 1007 93 10000 2.02 81 18:53 12.04.2022
2674 Clear 24 1007 91 10000 2.68 122 17:38 12.04.2022
2675 Clear 25 1006 90 10000 3.87 121 16:38 12.04.2022
2676 Clouds 25 1006 87 10000 3.2 111 15:34 12.04.2022
2677 Clear 25 1005 84 10000 4.31 131 14:41 12.04.2022
2678 Clouds 26 1004 76 10000 4.56 148 13:45 12.04.2022
2679 Clouds 26 1003 70 10000 5.03 141 13:23 12.04.2022
2680 Clouds 28 1003 60 10000 6.47 146 11:49 12.04.2022
2681 Clouds 28 1002 50 10000 5.24 148 11:28 12.04.2022
2682 Clouds 28 1003 48 10000 3.31 153 09:32 12.04.2022
2683 Rain 28 1003 49 10000 3.81 145 08:32 12.04.2022
2684 Clouds 26 1006 58 10000 2.81 167 06:33 12.04.2022
2685 Clouds 25 1008 62 10000 3.01 177 05:38 12.04.2022
2686 Clouds 23 1009 91 10000 2.93 138 01:48 12.04.2022
2687 Clouds 23 1007 94 10000 2.43 129 23:20 11.04.2022
2688 Clouds 23 1007 93 10000 2.56 134 21:51 11.04.2022
2689 Clouds 23 1007 90 10000 3.04 138 21:18 11.04.2022
2690 Clouds 23 1008 88 10000 3.12 146 20:30 11.04.2022
2691 Clouds 23 1008 88 10000 3.12 146 19:58 11.04.2022
2692 Clouds 23 1008 86 10000 3.41 153 19:25 11.04.2022
2693 Clouds 23 1008 86 10000 3.41 153 18:52 11.04.2022
2694 Clouds 23 1008 84 10000 3.71 153 17:57 11.04.2022
2695 Clouds 23 1008 82 10000 3.7 150 16:57 11.04.2022
2696 Clouds 23 1008 80 10000 4.39 156 16:25 11.04.2022
2697 Clouds 23 1008 77 10000 4.76 151 14:36 11.04.2022
2698 Clouds 22 1006 66 10000 4.04 139 12:54 11.04.2022
2699 Clouds 23 1006 66 10000 4.04 139 12:35 11.04.2022
2700 Clouds 24 1005 57 10000 4.01 142 11:42 11.04.2022
2701 Clouds 24 1005 54 10000 4.57 148 10:34 11.04.2022
2702 Clouds 24 1006 54 10000 3.59 144 09:30 11.04.2022
2703 Clouds 25 1009 55 10000 2.73 163 07:19 11.04.2022
2704 Clouds 22 1013 78 10000 2.21 135 02:32 11.04.2022
2705 Clouds 21 1010 94 10000 2.25 128 22:54 10.04.2022
2706 Clear 22 1010 92 10000 2.48 132 22:26 10.04.2022
2707 Clouds 22 1010 90 10000 2.94 139 21:33 10.04.2022
2708 Clouds 23 1010 90 10000 2.94 139 20:33 10.04.2022
2709 Clouds 22 1010 83 10000 3.2 150 19:45 10.04.2022
2710 Clouds 23 1011 83 10000 3.28 153 19:23 10.04.2022
2711 Clouds 23 1011 83 10000 3.28 153 18:45 10.04.2022
2712 Clouds 24 1011 80 10000 3.81 151 17:55 10.04.2022
2713 Clouds 24 1011 80 10000 3.81 151 17:35 10.04.2022
2714 Clouds 25 1011 75 10000 4.07 155 16:25 10.04.2022
2715 Clear 25 1010 70 10000 4.49 154 15:20 10.04.2022
2716 Clear 26 1009 64 10000 4.88 145 14:25 10.04.2022
2717 Clear 27 1008 58 10000 5.73 140 12:35 10.04.2022
2718 Clear 27 1007 50 10000 6.03 141 11:49 10.04.2022
2719 Clear 28 1006 41 10000 5.83 139 11:29 10.04.2022
2720 Clear 29 1006 41 10000 5.83 139 10:54 10.04.2022
2721 Clear 29 1006 41 10000 5.83 139 10:54 10.04.2022
2722 Clear 28 1007 38 10000 4.44 150 09:56 10.04.2022
2723 Clear 29 1008 37 10000 3.56 160 09:28 10.04.2022
2724 Clear 28 1009 37 10000 3.25 161 08:22 10.04.2022
2725 Clear 27 1010 39 10000 2.48 165 07:21 10.04.2022
2726 Clear 26 1012 43 10000 2.22 162 05:46 10.04.2022
2727 Clear 21 1013 81 10000 1.61 115 02:21 10.04.2022
2728 Clear 21 1011 92 10000 2.05 99 00:25 10.04.2022
2729 Clear 21 1011 92 10000 2.05 99 23:43 09.04.2022
2730 Clear 21 1011 92 10000 2.05 99 22:45 09.04.2022
2731 Clear 21 1011 92 10000 2.41 103 21:34 09.04.2022
2732 Clear 21 1011 90 10000 2.69 117 20:48 09.04.2022
2733 Clear 21 1011 87 10000 2.67 124 20:23 09.04.2022
2734 Clear 21 1012 89 10000 2.61 121 19:41 09.04.2022
2735 Clear 21 1012 86 10000 2.5 133 18:54 09.04.2022
2736 Clear 21 1012 83 10000 2.83 144 18:18 09.04.2022
2737 Clear 22 1012 83 10000 2.83 144 17:32 09.04.2022
2738 Clear 23 1012 79 10000 3.22 147 16:43 09.04.2022
2739 Clear 24 1012 74 10000 3.74 146 15:53 09.04.2022
2740 Clear 24 1011 67 10000 4.28 141 15:27 09.04.2022
2741 Clear 25 1010 58 10000 4.87 134 14:26 09.04.2022
2742 Clear 26 1010 58 10000 4.87 134 13:47 09.04.2022
2743 Clear 28 1009 48 10000 6.04 128 12:59 09.04.2022
2744 Clear 28 1009 48 10000 6.04 128 12:59 09.04.2022
2745 Clear 29 1008 39 10000 6.83 129 11:56 09.04.2022
2746 Clear 29 1008 33 10000 6.33 133 10:55 09.04.2022
2747 Clear 30 1008 30 10000 5.14 137 10:19 09.04.2022
2748 Clear 30 1008 30 10000 5.14 137 09:36 09.04.2022
2749 Clear 30 1009 29 10000 4.21 141 08:45 09.04.2022
2750 Clear 26 1013 35 10000 3.36 144 05:35 09.04.2022
2751 Clear 20 1014 82 10000 2.77 130 00:36 09.04.2022
2752 Clear 20 1014 82 10000 2.77 130 00:36 09.04.2022
2753 Clear 20 1013 78 10000 2.92 135 23:24 08.04.2022
2754 Clear 20 1012 76 10000 3.15 133 21:54 08.04.2022
2755 Clear 21 1013 74 10000 2.92 139 20:45 08.04.2022
2756 Clear 21 1013 73 10000 3.04 149 19:57 08.04.2022
2757 Clear 23 1014 73 10000 3.1 157 18:59 08.04.2022
2758 Clear 23 1014 71 10000 3.32 161 18:25 08.04.2022
2759 Clear 24 1014 71 10000 3.32 161 17:38 08.04.2022
2760 Clear 24 1014 70 10000 3.55 159 17:19 08.04.2022
2761 Clear 25 1014 70 10000 3.55 159 16:32 08.04.2022
2762 Clear 27 1014 67 10000 4.03 150 15:38 08.04.2022
2763 Clear 27 1013 61 10000 4.7 143 14:52 08.04.2022
2764 Clear 27 1012 52 10000 4.91 140 14:21 08.04.2022
2765 Clear 28 1012 56 10000 5.24 141 13:36 08.04.2022
2766 Clear 28 1011 48 10000 5.14 137 13:18 08.04.2022
2767 Clear 31 1011 36 10000 3.81 126 11:41 08.04.2022
2768 Clear 30 1011 29 10000 2.42 108 10:20 08.04.2022
2769 Clear 30 1012 29 10000 2.19 110 09:20 08.04.2022
2770 Clear 29 1014 30 10000 1.93 128 07:58 08.04.2022
2771 Clear 28 1015 33 10000 1.82 148 06:46 08.04.2022
2772 Clear 22 1018 48 10000 0.32 189 03:35 08.04.2022
2773 Clouds 20 1016 67 10000 0.4 31 00:31 08.04.2022
2774 Clouds 20 1015 65 10000 0.81 35 23:52 07.04.2022
2775 Clouds 20 1015 64 10000 1.11 43 22:55 07.04.2022
2776 Clouds 21 1015 64 10000 1.11 43 22:36 07.04.2022
2777 Clear 21 1015 63 10000 1.29 82 22:18 07.04.2022
2778 Clear 22 1015 63 10000 1.29 82 21:30 07.04.2022
2779 Clear 21 1015 61 10000 1.51 121 20:55 07.04.2022
2780 Clear 23 1015 59 10000 1.64 175 20:21 07.04.2022
2781 Clear 25 1017 62 10000 2.5 162 17:43 07.04.2022
2782 Clear 25 1017 61 10000 2.77 165 17:23 07.04.2022
2783 Clear 26 1017 61 10000 2.77 165 16:35 07.04.2022
2784 Clear 25 1016 60 10000 3.06 160 15:56 07.04.2022
2785 Clear 28 1015 51 10000 3.41 131 13:59 07.04.2022
2786 Clouds 29 1013 43 10000 3.76 106 13:26 07.04.2022
2787 Clouds 30 1013 32 10000 3.07 61 11:54 07.04.2022
2788 Clear 31 1013 27 10000 3.27 40 10:55 07.04.2022
2789 Clear 30 1014 27 10000 3.8 14 09:28 07.04.2022
2790 Clouds 30 1015 27 10000 4.14 17 07:38 07.04.2022
2791 Clouds 26 1018 32 10000 4.69 13 05:32 07.04.2022
2792 Clouds 23 1019 50 10000 2.83 348 02:37 07.04.2022
2793 Clouds 22 1018 58 10000 1.5 309 00:44 07.04.2022
2794 Clouds 22 1017 57 10000 0.16 207 23:36 06.04.2022
2795 Clouds 23 1017 58 10000 1.26 134 22:45 06.04.2022
2796 Clouds 23 1017 59 10000 1.49 136 22:20 06.04.2022
2797 Clouds 23 1017 59 10000 2.14 152 20:50 06.04.2022
2798 Clouds 23 1017 59 10000 2.38 149 20:26 06.04.2022
2799 Clouds 23 1018 59 10000 2.1 168 19:44 06.04.2022
2800 Clouds 24 1018 58 10000 2.23 161 18:48 06.04.2022
2801 Clouds 25 1019 59 10000 2.35 145 17:36 06.04.2022
2802 Clouds 26 1019 58 10000 2.67 128 16:58 06.04.2022
2803 Clouds 26 1019 58 10000 2.67 128 16:34 06.04.2022
2804 Clouds 26 1018 55 10000 2.94 108 15:44 06.04.2022
2805 Clear 27 1016 48 10000 0.27 242 13:53 06.04.2022
2806 Clear 28 1014 47 10000 0.34 178 12:37 06.04.2022
2807 Clear 28 1014 39 10000 0.7 64 11:44 06.04.2022
2808 Clear 29 1014 37 10000 1.29 52 10:37 06.04.2022
2809 Clear 29 1014 36 10000 1.54 37 10:18 06.04.2022
2810 Clear 29 1015 35 10000 1.82 24 09:25 06.04.2022
2811 Clouds 28 1016 36 10000 2.27 10 08:18 06.04.2022
2812 Clouds 26 1018 36 10000 1.95 344 06:40 06.04.2022
2813 Clouds 18 1019 64 10000 0.69 140 01:26 06.04.2022
2814 Clouds 19 1018 62 10000 1.17 149 23:50 05.04.2022
2815 Clouds 20 1018 62 10000 0.7 152 21:59 05.04.2022
2816 Clouds 20 1018 62 10000 1.3 176 21:18 05.04.2022
2817 Clouds 20 1018 62 10000 2.12 167 20:24 05.04.2022
2818 Clear 21 1019 64 10000 2.55 163 18:45 05.04.2022
2819 Clear 22 1020 63 10000 2.75 148 17:22 05.04.2022
2820 Clear 23 1020 63 10000 2.75 148 16:44 05.04.2022
2821 Clear 24 1019 62 10000 3.05 155 15:52 05.04.2022
2822 Clear 23 1019 62 10000 3.05 155 15:31 05.04.2022
2823 Clear 25 1017 57 10000 3.91 144 13:55 05.04.2022
2824 Clear 26 1016 48 10000 2.23 125 12:39 05.04.2022
2825 Clear 27 1016 39 10000 1.72 98 11:43 05.04.2022
2826 Clear 27 1016 36 10000 1.87 86 11:25 05.04.2022
2827 Clear 26 1016 36 10000 1.92 76 09:41 05.04.2022
2828 Clear 26 1017 36 10000 1.93 68 08:51 05.04.2022
2829 Clouds 22 1023 56 10000 1.23 4 04:25 05.04.2022
2830 Clear 17 1020 77 10000 1.04 127 23:48 04.04.2022
2831 Clear 17 1020 76 10000 1.2 124 22:41 04.04.2022
2832 Clear 17 1020 75 10000 1.22 119 21:51 04.04.2022
2833 Clear 18 1020 74 10000 1.28 143 21:20 04.04.2022
2834 Clear 18 1020 74 10000 1.28 143 20:48 04.04.2022
2835 Clear 20 1021 74 10000 1.95 166 19:38 04.04.2022
2836 Clear 20 1022 72 10000 2.41 167 18:46 04.04.2022
2837 Clear 21 1022 70 10000 2.71 161 17:33 04.04.2022
2838 Clear 21 1022 67 10000 3.19 153 16:36 04.04.2022
2839 Clear 22 1021 64 10000 3.88 144 15:34 04.04.2022
2840 Clear 23 1020 60 10000 4.48 140 14:49 04.04.2022
2841 Clear 23 1020 60 10000 4.48 140 14:31 04.04.2022
2842 Clear 24 1018 52 10000 5.19 139 13:18 04.04.2022
2843 Clear 26 1017 38 10000 5.21 143 11:29 04.04.2022
2844 Clear 26 1017 36 10000 3.93 143 10:29 04.04.2022
2845 Clear 25 1019 37 10000 2.45 127 07:36 04.04.2022
2846 Clear 20 1023 59 10000 0.78 110 03:18 04.04.2022
2847 Clear 17 1021 71 10000 1.01 49 23:48 03.04.2022
2848 Clear 18 1020 70 10000 0.99 71 22:31 03.04.2022
2849 Clear 18 1020 70 10000 0.86 87 21:32 03.04.2022
2850 Clear 17 1021 69 10000 0.88 129 20:36 03.04.2022
2851 Clear 17 1021 68 10000 1.11 169 19:45 03.04.2022
2852 Clear 18 1022 68 10000 2.4 182 18:29 03.04.2022
2853 Clear 19 1022 68 10000 2.4 182 17:44 03.04.2022
2854 Clear 19 1022 66 10000 3.01 170 16:50 03.04.2022
2855 Clear 19 1022 64 10000 3.6 160 16:21 03.04.2022
2856 Clear 23 1020 58 10000 4.99 138 14:28 03.04.2022
2857 Clear 23 1020 58 10000 5.09 138 13:44 03.04.2022
2858 Clear 25 1018 37 10000 3.76 83 12:19 03.04.2022
2859 Clear 25 1018 29 10000 3.76 47 10:32 03.04.2022
2860 Clear 25 1019 29 10000 3.7 34 09:23 03.04.2022
2861 Clear 24 1022 33 10000 3.89 20 07:24 03.04.2022
2862 Clear 18 1025 52 10000 3.72 337 03:37 03.04.2022
2863 Clear 16 1023 79 10000 2.79 325 00:36 03.04.2022
2864 Clear 17 1022 76 10000 2.57 322 22:54 02.04.2022
2865 Clear 18 1023 75 10000 2.55 325 21:57 02.04.2022
2866 Clear 18 1023 74 10000 2.67 325 21:28 02.04.2022
2867 Clear 18 1023 74 10000 2.67 325 20:41 02.04.2022
2868 Clouds 18 1025 69 10000 2.32 313 18:57 02.04.2022
2869 Clouds 18 1025 64 10000 2.17 328 18:20 02.04.2022
2870 Clouds 19 1025 64 10000 2.17 328 17:46 02.04.2022
2871 Clouds 19 1026 58 10000 2 18 15:59 02.04.2022
2872 Clouds 19 1025 57 10000 2.52 35 15:21 02.04.2022
2873 Clouds 20 1025 57 10000 2.52 35 14:42 02.04.2022
2874 Clouds 20 1025 59 10000 3 26 13:34 02.04.2022
2875 Clouds 21 1024 61 10000 3.29 17 12:34 02.04.2022
2876 Clouds 22 1023 57 10000 4.56 15 10:50 02.04.2022
2877 Clouds 21 1024 52 10000 6.12 14 08:44 02.04.2022
2878 Clouds 21 1026 49 10000 5.8 21 06:43 02.04.2022
2879 Clouds 19 1027 68 10000 3.53 357 03:31 02.04.2022
2880 Clouds 17 1024 71 10000 4.38 15 23:55 01.04.2022
2881 Clouds 18 1024 72 10000 4.46 14 22:55 01.04.2022
2882 Clouds 18 1024 73 10000 4.68 16 21:31 01.04.2022
2883 Clouds 18 1024 72 10000 5.08 12 20:50 01.04.2022
2884 Clouds 18 1024 70 10000 5.45 11 19:51 01.04.2022
2885 Clouds 18 1025 69 10000 5.87 10 19:27 01.04.2022
2886 Clouds 18 1025 69 10000 5.87 10 18:42 01.04.2022
2887 Clouds 18 1025 68 10000 6.04 11 17:45 01.04.2022
2888 Clouds 18 1026 67 10000 6.07 13 16:34 01.04.2022
2889 Clouds 18 1024 68 10000 6.1 15 15:19 01.04.2022
2890 Clouds 17 1023 68 10000 5.81 17 14:18 01.04.2022
2891 Clouds 17 1023 71 10000 6.83 21 13:32 01.04.2022
2892 Clouds 17 1022 72 10000 6.75 29 12:30 01.04.2022
2893 Clouds 17 1021 71 10000 6.26 28 10:54 01.04.2022
2894 Clouds 17 1020 70 10000 6.08 23 09:49 01.04.2022
2895 Clouds 18 1021 66 10000 5.88 24 07:50 01.04.2022
2896 Clouds 19 1022 66 10000 6.19 29 05:45 01.04.2022
2897 Clouds 19 1022 71 10000 5.76 21 04:43 01.04.2022
2898 Clouds 18 1022 75 10000 3.72 25 03:21 01.04.2022
2899 Clouds 19 1020 80 10000 4.79 26 01:52 01.04.2022
2900 Clouds 21 1017 71 10000 6.05 17 22:37 31.03.2022
2901 Clouds 20 1017 70 10000 6.52 16 21:44 31.03.2022
2902 Clouds 20 1017 69 10000 6.4 22 20:51 31.03.2022
2903 Clouds 20 1017 71 10000 6.78 25 20:28 31.03.2022
2904 Clouds 20 1018 68 10000 7.05 22 19:44 31.03.2022
2905 Clouds 20 1018 68 10000 7.71 26 18:35 31.03.2022
2906 Clouds 21 1018 70 10000 7.57 34 17:25 31.03.2022
2907 Clouds 23 1017 72 10000 7.17 37 15:58 31.03.2022
2908 Clouds 23 1016 76 10000 6.14 42 15:29 31.03.2022
2909 Clouds 26 1016 76 10000 6.14 42 14:49 31.03.2022
2910 Clouds 27 1013 82 9632 4.47 139 13:53 31.03.2022
2911 Clouds 29 1011 60 10000 4 126 11:31 31.03.2022
2912 Clouds 28 1011 53 10000 1.7 114 10:26 31.03.2022
2913 Clouds 27 1011 53 10000 1.7 114 09:40 31.03.2022
2914 Clouds 27 1013 59 10000 2.95 124 07:49 31.03.2022
2915 Clouds 24 1016 78 10000 1.69 105 03:30 31.03.2022
2916 Clouds 22 1013 96 10000 1.78 114 23:25 30.03.2022
2917 Clouds 22 1013 96 10000 1.76 122 21:57 30.03.2022
2918 Clouds 22 1013 96 10000 1.76 122 21:31 30.03.2022
2919 Clouds 23 1014 96 10000 1.53 127 20:44 30.03.2022
2920 Clouds 23 1014 96 10000 1.87 147 19:47 30.03.2022
2921 Clouds 23 1014 95 10000 2.08 138 18:41 30.03.2022
2922 Clouds 23 1015 95 10000 2.29 132 17:51 30.03.2022
2923 Clouds 23 1015 94 10000 2.39 127 17:20 30.03.2022
2924 Clouds 23 1015 94 10000 2.39 127 16:40 30.03.2022
2925 Clouds 23 1015 94 10000 2.38 122 15:55 30.03.2022
2926 Clouds 23 1014 93 10000 2.23 117 14:35 30.03.2022
2927 Clouds 24 1012 88 10000 1.79 87 13:21 30.03.2022
2928 Clouds 24 1011 84 10000 2.1 85 12:19 30.03.2022
2929 Clouds 25 1011 85 10000 2.15 78 10:48 30.03.2022
2930 Clouds 25 1011 87 10000 2.04 70 09:43 30.03.2022
2931 Clouds 25 1013 87 10000 1.59 62 08:20 30.03.2022
2932 Clouds 22 1015 91 10000 1.34 37 06:32 30.03.2022
2933 Clouds 21 1015 91 10000 1.34 37 05:38 30.03.2022
2934 Clouds 19 1014 96 10000 0.78 67 01:45 30.03.2022
2935 Clouds 19 1012 96 10000 1.15 133 22:38 29.03.2022
2936 Clouds 19 1012 96 10000 1.33 154 21:47 29.03.2022
2937 Clouds 19 1013 95 10000 1.36 164 20:55 29.03.2022
2938 Clouds 19 1014 92 10000 0.94 117 20:25 29.03.2022
2939 Clouds 19 1014 91 10000 0.97 117 19:20 29.03.2022
2940 Clouds 19 1014 91 10000 0.97 117 18:48 29.03.2022
2941 Clouds 20 1015 89 10000 0.97 131 17:39 29.03.2022
2942 Clouds 21 1015 85 10000 1.26 142 16:59 29.03.2022
2943 Clouds 21 1014 83 10000 1.24 135 16:20 29.03.2022
2944 Clouds 21 1014 81 10000 1.5 130 14:53 29.03.2022
2945 Clouds 21 1013 81 10000 2.19 120 14:24 29.03.2022
2946 Clouds 22 1012 79 10000 2.47 108 12:57 29.03.2022
2947 Clouds 22 1011 74 10000 2.99 111 11:45 29.03.2022
2948 Clouds 22 1011 72 10000 3.01 102 10:58 29.03.2022
2949 Clouds 22 1011 72 10000 3.06 98 09:49 29.03.2022
2950 Clouds 21 1013 71 10000 2.54 79 08:20 29.03.2022
2951 Clouds 20 1016 71 10000 1.84 83 05:35 29.03.2022
2952 Clouds 19 1015 81 10000 1.37 111 00:50 29.03.2022
2953 Clouds 18 1015 82 10000 1.64 146 23:24 28.03.2022
2954 Clouds 18 1015 82 10000 1.64 146 22:54 28.03.2022
2955 Clouds 18 1015 82 10000 1.72 152 22:26 28.03.2022
2956 Clouds 18 1015 82 10000 2.94 150 20:58 28.03.2022
2957 Clouds 19 1016 83 10000 2.99 170 20:23 28.03.2022
2958 Clouds 19 1016 83 10000 2.99 170 19:45 28.03.2022
2959 Clouds 19 1016 82 10000 3.64 164 19:27 28.03.2022
2960 Clouds 20 1016 82 10000 3.64 164 18:40 28.03.2022
2961 Clouds 20 1017 82 10000 3.8 161 17:39 28.03.2022
2962 Clouds 21 1017 79 10000 3.86 154 16:33 28.03.2022
2963 Clouds 21 1016 74 10000 3.01 153 14:48 28.03.2022
2964 Clouds 21 1015 73 10000 3.41 144 14:21 28.03.2022
2965 Clouds 22 1013 67 10000 4.93 143 12:24 28.03.2022
2966 Clouds 22 1012 56 10000 4.46 135 11:31 28.03.2022
2967 Clouds 22 1012 48 10000 2.61 111 09:43 28.03.2022
2968 Clouds 22 1013 47 10000 2.73 92 09:19 28.03.2022
2969 Clouds 22 1014 48 10000 2.88 81 08:22 28.03.2022
2970 Clouds 20 1015 50 10000 2.96 84 07:28 28.03.2022
2971 Clouds 19 1018 65 10000 2.17 31 03:44 28.03.2022
2972 Clouds 19 1017 75 10000 3.57 29 23:29 27.03.2022
2973 Clouds 18 1017 74 10000 4.33 27 22:24 27.03.2022
2974 Clouds 18 1017 74 10000 4.33 27 21:41 27.03.2022
2975 Clouds 18 1018 67 10000 5.28 22 20:54 27.03.2022
2976 Clouds 18 1018 67 10000 5.28 22 20:54 27.03.2022
2977 Clouds 18 1018 67 10000 5.28 22 20:54 27.03.2022
2978 Clouds 18 1018 62 10000 5.66 24 19:47 27.03.2022
2979 Clouds 18 1018 58 10000 5.05 31 18:55 27.03.2022
2980 Clouds 18 1018 55 10000 5.36 30 18:27 27.03.2022
2981 Clouds 18 1018 55 10000 5.36 30 18:27 27.03.2022
2982 Clouds 18 1018 55 10000 5.36 30 18:27 27.03.2022
2983 Clouds 19 1018 55 10000 5.36 30 17:38 27.03.2022
2984 Clouds 21 1017 52 10000 5.85 35 16:21 27.03.2022
2985 Clouds 21 1015 52 10000 5.9 37 14:55 27.03.2022
2986 Clouds 22 1014 52 10000 5.52 37 13:55 27.03.2022
2987 Clouds 22 1011 51 10000 5.27 49 12:20 27.03.2022
2988 Clouds 22 1011 50 10000 5.04 50 10:47 27.03.2022
2989 Clouds 24 1013 54 10000 5.79 42 08:37 27.03.2022
2990 Clouds 23 1016 64 10000 6.06 28 05:45 27.03.2022
2991 Clouds 24 1012 77 10000 4.64 28 00:47 27.03.2022
2992 Clouds 25 1011 79 10000 4.19 30 23:34 26.03.2022
2993 Clouds 25 1010 81 10000 4.09 32 22:35 26.03.2022
2994 Clouds 25 1009 81 10000 4.4 38 21:33 26.03.2022
2995 Clouds 24 1008 85 10000 4.79 77 20:20 26.03.2022
2996 Clear 24 1008 80 10000 4.21 91 18:59 26.03.2022
2997 Clear 25 1009 77 10000 5.15 97 17:47 26.03.2022
2998 Clear 25 1009 73 10000 3.89 117 17:28 26.03.2022
2999 Clear 26 1008 71 10000 3.39 131 16:24 26.03.2022
3000 Clear 28 1008 69 10000 3.66 129 14:50 26.03.2022
3001 Clear 28 1007 66 10000 4.2 132 13:52 26.03.2022
3002 Clouds 30 1006 61 10000 4.76 132 12:41 26.03.2022
3003 Clear 31 1004 33 10000 1.99 349 11:28 26.03.2022
3004 Clear 31 1004 25 10000 2.85 285 09:23 26.03.2022
3005 Clear 31 1005 29 10000 1.44 241 08:27 26.03.2022
3006 Clouds 27 1008 52 10000 1.78 246 05:53 26.03.2022
3007 Clouds 24 1009 69 10000 1.03 196 03:58 26.03.2022
3008 Clouds 23 1006 95 10000 1.79 62 23:21 25.03.2022
3009 Clouds 23 1006 96 10000 1.9 46 20:59 25.03.2022
3010 Clouds 23 1006 96 10000 1.9 46 20:38 25.03.2022
3011 Clear 24 1006 94 10000 2.01 99 19:27 25.03.2022
3012 Clear 24 1006 94 10000 2.01 99 18:37 25.03.2022
3013 Clear 24 1007 92 10000 2.51 110 17:34 25.03.2022
3014 Clear 24 1007 89 10000 2.91 115 16:41 25.03.2022
3015 Clear 24 1007 86 10000 3.05 119 15:50 25.03.2022
3016 Clear 24 1006 80 10000 3.65 125 13:40 25.03.2022
3017 Clouds 24 1004 68 10000 3.44 114 11:49 25.03.2022
3018 Clouds 25 1003 49 10000 1.82 124 09:46 25.03.2022
3019 Clouds 25 1003 51 10000 1.94 126 08:59 25.03.2022
3020 Clouds 25 1005 53 10000 1.25 138 07:48 25.03.2022
3021 Clouds 24 1006 58 10000 1.09 178 07:21 25.03.2022
3022 Clouds 20 1008 75 10000 1.12 173 03:58 25.03.2022
3023 Clouds 20 1007 95 10000 0.08 171 23:54 24.03.2022
3024 Clouds 20 1006 96 10000 1.06 147 22:24 24.03.2022
3025 Clouds 19 1006 96 10000 1.36 136 21:29 24.03.2022
3026 Clouds 20 1007 96 10000 1.88 136 19:50 24.03.2022
3027 Clouds 20 1007 95 10000 1.87 139 18:45 24.03.2022
3028 Clouds 20 1008 94 10000 2.32 145 17:38 24.03.2022
3029 Clouds 20 1009 93 10000 2.56 144 16:39 24.03.2022
3030 Clouds 20 1009 91 10000 2.88 140 14:53 24.03.2022
3031 Clouds 20 1009 91 10000 2.88 140 14:32 24.03.2022
3032 Clouds 20 1008 90 10000 3.66 123 13:36 24.03.2022
3033 Clouds 20 1007 83 10000 3.75 124 12:29 24.03.2022
3034 Clouds 20 1006 79 10000 4.1 135 11:27 24.03.2022
3035 Clouds 20 1007 75 10000 4.52 147 09:28 24.03.2022
3036 Clouds 20 1007 75 10000 4.52 147 08:38 24.03.2022
3037 Clouds 20 1011 74 10000 3.63 158 05:36 24.03.2022
3038 Clouds 16 1012 90 10000 1.68 121 00:38 24.03.2022
3039 Clouds 16 1011 89 10000 0.91 81 22:21 23.03.2022
3040 Rain 17 1011 88 10000 0.64 101 21:24 23.03.2022
3041 Clouds 17 1011 88 10000 0.64 101 20:36 23.03.2022
3042 Clouds 16 1013 87 10000 1.9 35 19:28 23.03.2022
3043 Clouds 17 1014 86 10000 1.27 45 17:52 23.03.2022
3044 Clouds 17 1015 85 10000 1.33 43 17:24 23.03.2022
3045 Clouds 17 1015 85 10000 1.06 17 15:43 23.03.2022
3046 Clouds 17 1015 85 10000 1.62 15 14:47 23.03.2022
3047 Rain 17 1014 86 10000 2.43 21 13:31 23.03.2022
3048 Clouds 19 1012 83 10000 3.58 29 11:24 23.03.2022
3049 Clouds 19 1013 79 10000 4.23 21 08:29 23.03.2022
3050 Clouds 19 1014 82 10000 4.99 22 05:50 23.03.2022
3051 Clouds 19 1014 86 10000 5.59 36 02:28 23.03.2022
3052 Clouds 19 1011 89 10000 6.24 40 00:26 23.03.2022
3053 Clouds 19 1011 89 10000 6.24 40 00:26 23.03.2022
3054 Rain 24 1010 92 8005 4.85 58 21:40 22.03.2022
3055 Rain 24 1010 92 8336 3.51 83 20:59 22.03.2022
3056 Rain 24 1010 91 10000 3.23 104 20:23 22.03.2022
3057 Rain 24 1010 93 10000 2.18 88 19:27 22.03.2022
3058 Rain 25 1010 93 10000 2.18 88 18:48 22.03.2022
3059 Rain 25 1010 92 7534 1.87 132 17:43 22.03.2022
3060 Rain 25 1011 91 10000 3.59 112 16:39 22.03.2022
3061 Rain 26 1011 90 9622 2.94 88 15:41 22.03.2022
3062 Clouds 26 1011 87 5853 2.63 93 15:19 22.03.2022
3063 Clouds 26 1011 87 5853 2.63 93 14:42 22.03.2022
3064 Clouds 27 1008 77 10000 4.62 125 13:42 22.03.2022
3065 Clouds 29 1005 67 10000 5.17 125 11:53 22.03.2022
3066 Clouds 30 1004 59 10000 6.8 131 10:54 22.03.2022
3067 Clouds 30 1005 47 10000 3.87 145 09:21 22.03.2022
3068 Clouds 30 1006 49 10000 2.74 161 07:30 22.03.2022
3069 Clouds 26 1010 68 10000 1.19 157 03:57 22.03.2022
3070 Clouds 24 1009 91 10000 2.56 118 00:50 22.03.2022
3071 Clouds 24 1007 93 10000 2.64 111 22:48 21.03.2022
3072 Clouds 24 1007 92 10000 2.91 114 21:30 21.03.2022
3073 Clouds 24 1007 89 10000 3.13 118 20:43 21.03.2022
3074 Clouds 24 1008 88 10000 3.44 132 20:23 21.03.2022
3075 Clouds 24 1008 88 10000 3.44 132 19:45 21.03.2022
3076 Clouds 24 1008 88 10000 4.03 138 18:47 21.03.2022
3077 Clouds 24 1008 86 10000 4.12 141 17:35 21.03.2022
3078 Clouds 24 1008 86 10000 4.28 139 16:59 21.03.2022
3079 Clouds 25 1008 85 10000 4.55 136 16:26 21.03.2022
3080 Clouds 25 1008 85 10000 4.55 136 15:37 21.03.2022
3081 Clouds 26 1007 82 10000 4.62 129 14:29 21.03.2022
3082 Clouds 26 1006 79 10000 4.94 141 12:58 21.03.2022
3083 Clouds 27 1005 76 10000 5.63 150 11:57 21.03.2022
3084 Clouds 27 1004 69 10000 6.79 151 11:20 21.03.2022
3085 Clouds 28 1003 54 10000 6.96 148 09:42 21.03.2022
3086 Clouds 27 1006 54 10000 4.02 166 07:22 21.03.2022
3087 Clouds 25 1008 63 10000 4.36 156 05:42 21.03.2022
3088 Clouds 24 1008 88 10000 3.42 147 00:46 21.03.2022
3089 Clouds 25 1007 88 10000 3.83 147 22:56 20.03.2022
3090 Clouds 25 1007 88 10000 3.74 149 22:22 20.03.2022
3091 Clouds 25 1007 88 10000 3.74 149 21:31 20.03.2022
3092 Clouds 25 1007 88 10000 3.74 149 21:31 20.03.2022
3093 Clouds 25 1007 88 10000 3.99 143 20:48 20.03.2022
3094 Clouds 24 1007 88 10000 3.87 144 20:25 20.03.2022
3095 Clouds 25 1007 88 10000 3.87 144 19:43 20.03.2022
3096 Clouds 25 1007 86 10000 4.05 144 18:48 20.03.2022
3097 Clouds 25 1008 84 10000 4.53 150 17:38 20.03.2022
3098 Clouds 25 1008 86 10000 4.54 145 16:59 20.03.2022
3099 Clouds 25 1008 88 10000 4.62 138 15:56 20.03.2022
3100 Clouds 25 1008 87 10000 4.86 135 14:36 20.03.2022
3101 Clouds 25 1005 78 10000 5.06 130 13:31 20.03.2022
3102 Clear 26 1003 72 10000 5.98 129 11:51 20.03.2022
3103 Clear 26 1002 55 10000 7.54 130 09:58 20.03.2022
3104 Clear 27 1003 48 10000 5.08 151 07:51 20.03.2022
3105 Clouds 26 1006 58 10000 2.96 177 05:49 20.03.2022
3106 Clouds 25 1009 78 10000 2.73 155 03:18 20.03.2022
3107 Clouds 24 1007 93 10000 2.84 121 00:51 20.03.2022
3108 Clouds 24 1006 96 10000 2.86 121 23:35 19.03.2022
3109 Clouds 24 1005 93 10000 2.63 133 21:54 19.03.2022
3110 Clouds 24 1005 92 10000 3.09 139 21:20 19.03.2022
3111 Clouds 24 1006 93 10000 4.17 138 19:21 19.03.2022
3112 Clouds 24 1006 92 10000 4.71 144 18:25 19.03.2022
3113 Clouds 24 1006 92 10000 4.71 144 17:45 19.03.2022
3114 Clouds 24 1007 94 10000 4.45 137 16:40 19.03.2022
3115 Clouds 25 1007 90 10000 4.56 139 15:21 19.03.2022
3116 Clouds 25 1005 81 10000 4.65 129 13:39 19.03.2022
3117 Clouds 25 1004 81 10000 5.15 129 12:42 19.03.2022
3118 Clouds 25 1004 76 10000 5.13 133 12:19 19.03.2022
3119 Clouds 26 1004 76 10000 5.13 133 11:42 19.03.2022
3120 Clouds 25 1003 66 10000 4.8 142 08:34 19.03.2022
3121 Clouds 24 1009 75 10000 2.33 122 04:24 19.03.2022
3122 Clouds 23 1009 79 10000 2.09 99 02:31 19.03.2022
3123 Clear 23 1007 96 10000 1.98 83 23:46 18.03.2022
3124 Clear 23 1006 95 10000 1.93 101 22:36 18.03.2022
3125 Clear 23 1005 95 10000 1.79 103 21:56 18.03.2022
3126 Clear 23 1006 93 10000 1.74 107 19:57 18.03.2022
3127 Clear 24 1007 92 10000 2.59 140 19:22 18.03.2022
3128 Clear 24 1007 91 10000 3.75 148 18:27 18.03.2022
3129 Clear 25 1008 90 10000 3.79 149 16:52 18.03.2022
3130 Clear 25 1008 88 10000 3.7 151 15:52 18.03.2022
3131 Clear 26 1007 84 10000 3.43 152 14:25 18.03.2022
3132 Clouds 27 1006 82 10000 3.47 158 12:39 18.03.2022
3133 Clouds 27 1005 69 10000 3.17 155 11:21 18.03.2022
3134 Clouds 27 1006 65 10000 2.85 160 09:34 18.03.2022
3135 Clouds 28 1006 63 10000 3.01 170 08:45 18.03.2022
3136 Clouds 27 1008 66 10000 2.34 165 06:42 18.03.2022
3137 Rain 24 1011 75 10000 1.93 94 04:38 18.03.2022
3138 Clouds 23 1009 90 10000 1.48 141 00:54 18.03.2022
3139 Clouds 22 1008 92 10000 1.17 116 23:52 17.03.2022
3140 Clouds 23 1008 92 10000 1.19 110 22:26 17.03.2022
3141 Clouds 23 1008 92 10000 1.19 110 21:51 17.03.2022
3142 Clouds 23 1008 92 10000 1.41 123 21:27 17.03.2022
3143 Clouds 23 1008 92 10000 1.41 123 20:52 17.03.2022
3144 Clouds 23 1008 91 10000 1.74 131 19:55 17.03.2022
3145 Clouds 23 1008 91 10000 1.74 131 19:33 17.03.2022
3146 Clouds 23 1008 92 10000 2.08 129 18:51 17.03.2022
3147 Clouds 23 1009 89 10000 2.9 139 17:26 17.03.2022
3148 Clouds 23 1008 87 10000 3.47 145 15:52 17.03.2022
3149 Clouds 23 1008 87 10000 3.47 145 15:33 17.03.2022
3150 Clouds 23 1008 85 10000 3.62 139 14:48 17.03.2022
3151 Clouds 24 1006 82 10000 3.11 112 12:59 17.03.2022
3152 Clouds 24 1006 82 10000 3.11 112 12:37 17.03.2022
3153 Clouds 24 1005 77 10000 3.43 108 11:30 17.03.2022
3154 Clouds 24 1005 65 10000 2.71 94 10:32 17.03.2022
3155 Clouds 25 1006 65 10000 1.91 103 08:40 17.03.2022
3156 Clouds 24 1007 66 10000 1.47 97 07:36 17.03.2022
3157 Clouds 25 1008 65 10000 0.48 152 05:47 17.03.2022
3158 Clouds 23 1010 82 10000 1.56 117 01:37 17.03.2022
3159 Clouds 23 1008 95 10000 1.73 111 23:56 16.03.2022
3160 Clouds 23 1007 94 10000 1.87 106 22:50 16.03.2022
3161 Clouds 23 1007 94 10000 1.87 106 22:32 16.03.2022
3162 Clouds 23 1007 93 10000 2.14 108 21:42 16.03.2022
3163 Clouds 23 1007 90 10000 2.82 111 19:47 16.03.2022
3164 Clouds 22 1007 88 10000 3.51 129 19:21 16.03.2022
3165 Clouds 23 1007 87 10000 3.2 135 18:37 16.03.2022
3166 Clouds 23 1007 88 10000 4.05 139 17:43 16.03.2022
3167 Clouds 23 1007 88 10000 4.05 139 17:43 16.03.2022
3168 Clouds 23 1008 87 10000 4.53 147 17:19 16.03.2022
3169 Clouds 23 1009 86 10000 4.72 145 15:55 16.03.2022
3170 Clouds 23 1008 81 10000 5.59 137 14:27 16.03.2022
3171 Clouds 24 1008 81 10000 5.59 137 13:31 16.03.2022
3172 Clouds 24 1006 80 10000 4.02 137 11:56 16.03.2022
3173 Clouds 25 1005 76 10000 4.73 149 11:21 16.03.2022
3174 Clouds 25 1005 73 10000 5.22 160 10:23 16.03.2022
3175 Clouds 26 1005 71 10000 4.7 154 08:52 16.03.2022
3176 Clouds 25 1008 86 10000 4.84 160 05:58 16.03.2022
3177 Rain 22 1010 96 10000 3.09 137 01:35 16.03.2022
3178 Rain 22 1007 89 10000 2.94 136 22:38 15.03.2022
3179 Rain 22 1007 89 10000 2.07 154 21:55 15.03.2022
3180 Rain 23 1008 88 10000 2.59 161 20:28 15.03.2022
3181 Clouds 24 1009 89 10000 3.15 138 18:57 15.03.2022
3182 Rain 24 1010 84 9513 1.68 128 16:57 15.03.2022
3183 Clouds 25 1011 79 10000 3.2 140 16:28 15.03.2022
3184 Rain 25 1010 77 10000 3.45 142 14:58 15.03.2022
3185 Rain 26 1010 77 10000 3.45 142 14:39 15.03.2022
3186 Rain 25 1008 69 10000 4.65 155 13:28 15.03.2022
3187 Rain 26 1006 66 10000 4.54 138 12:24 15.03.2022
3188 Clouds 27 1006 66 10000 4.54 138 11:31 15.03.2022
3189 Clouds 27 1005 59 10000 4.26 145 09:40 15.03.2022
3190 Clouds 27 1006 56 10000 3.72 151 08:42 15.03.2022
3191 Clouds 27 1007 55 10000 2.84 150 07:50 15.03.2022
3192 Clouds 27 1007 55 10000 2.84 150 07:50 15.03.2022
3193 Clouds 28 1008 57 10000 2.33 149 06:54 15.03.2022
3194 Clouds 23 1012 78 10000 1.3 266 02:59 15.03.2022
3195 Clouds 22 1011 88 10000 1.71 287 23:39 14.03.2022
3196 Clouds 22 1010 87 10000 1.44 298 23:21 14.03.2022
3197 Clouds 22 1010 87 10000 0.98 323 22:19 14.03.2022
3198 Clouds 22 1010 86 10000 1.14 13 21:22 14.03.2022
3199 Clouds 23 1010 86 10000 1.14 13 20:35 14.03.2022
3200 Clouds 23 1011 86 10000 1.55 37 19:59 14.03.2022
3201 Clouds 23 1011 83 10000 1.24 22 18:31 14.03.2022
3202 Clouds 24 1012 82 10000 1.75 25 17:44 14.03.2022
3203 Clouds 24 1012 82 10000 1.17 34 16:57 14.03.2022
3204 Clouds 24 1012 81 10000 1.39 6 15:29 14.03.2022
3205 Rain 24 1011 81 10000 1.41 36 14:24 14.03.2022
3206 Clouds 25 1010 79 10000 1.46 19 11:36 14.03.2022
3207 Clouds 25 1009 75 10000 2.26 25 10:35 14.03.2022
3208 Clouds 25 1008 71 10000 2.05 60 09:38 14.03.2022
3209 Clouds 25 1009 71 10000 1.44 109 09:19 14.03.2022
3210 Clouds 25 1009 71 10000 1.44 109 08:46 14.03.2022
3211 Clouds 25 1011 75 10000 2.48 138 07:21 14.03.2022
3212 Clouds 23 1013 83 10000 2.91 122 04:22 14.03.2022
3213 Clouds 21 1012 86 10000 3.28 132 01:51 14.03.2022
3214 Clouds 21 1012 90 10000 3.03 136 00:38 14.03.2022
3215 Clouds 21 1010 89 10000 2.55 142 21:56 13.03.2022
3216 Clouds 22 1009 89 10000 2.97 134 21:27 13.03.2022
3217 Clouds 22 1009 89 10000 2.97 134 20:49 13.03.2022
3218 Clouds 22 1010 88 10000 2.26 136 20:26 13.03.2022
3219 Clouds 22 1010 88 10000 2.26 136 19:42 13.03.2022
3220 Clouds 22 1010 87 10000 2.8 144 19:23 13.03.2022
3221 Clouds 22 1010 87 10000 2.8 144 19:23 13.03.2022
3222 Clouds 22 1010 87 10000 2.8 144 18:49 13.03.2022
3223 Clouds 22 1011 85 10000 2.93 152 18:26 13.03.2022
3224 Clouds 23 1011 85 10000 2.93 152 17:39 13.03.2022
3225 Clouds 23 1011 84 10000 3.5 150 16:48 13.03.2022
3226 Clouds 23 1012 82 10000 3.14 155 16:27 13.03.2022
3227 Clouds 23 1012 82 10000 3.14 155 15:43 13.03.2022
3228 Clouds 23 1012 80 10000 3.21 151 14:49 13.03.2022
3229 Clouds 23 1011 75 10000 2.41 144 13:29 13.03.2022
3230 Clouds 23 1010 72 10000 2.01 146 12:25 13.03.2022
3231 Clouds 23 1010 72 10000 2.01 146 11:45 13.03.2022
3232 Clouds 23 1009 67 10000 2.4 147 10:50 13.03.2022
3233 Clouds 24 1009 67 10000 2.79 153 10:30 13.03.2022
3234 Clouds 24 1009 67 10000 2.79 153 09:42 13.03.2022
3235 Clouds 24 1009 68 10000 3.4 158 08:50 13.03.2022
3236 Clouds 24 1009 68 10000 3.4 158 08:30 13.03.2022
3237 Clouds 25 1010 69 10000 3.86 158 07:34 13.03.2022
3238 Clouds 24 1013 71 10000 3.13 160 04:59 13.03.2022
3239 Clouds 22 1013 88 10000 3.46 138 01:48 13.03.2022
3240 Clouds 21 1010 92 10000 3.05 131 23:28 12.03.2022
3241 Clouds 21 1010 93 10000 3.08 131 21:39 12.03.2022
3242 Clouds 21 1010 92 10000 3.35 132 20:19 12.03.2022
3243 Clouds 21 1010 92 10000 3.35 132 19:46 12.03.2022
3244 Clouds 22 1011 87 10000 3.27 139 18:40 12.03.2022
3245 Clouds 21 1011 85 10000 3.62 148 17:49 12.03.2022
3246 Clouds 22 1012 81 10000 4.44 154 16:28 12.03.2022
3247 Clouds 22 1012 81 10000 4.44 154 15:48 12.03.2022
3248 Clouds 23 1011 79 10000 4.62 149 15:19 12.03.2022
3249 Clouds 23 1011 75 10000 4.59 149 13:53 12.03.2022
3250 Clouds 24 1009 74 10000 3.49 155 12:27 12.03.2022
3251 Clouds 24 1009 74 10000 3.49 155 11:52 12.03.2022
3252 Clouds 24 1008 71 10000 3.94 166 11:21 12.03.2022
3253 Clouds 25 1008 68 10000 4.5 167 10:18 12.03.2022
3254 Clouds 25 1008 68 10000 4.5 167 09:41 12.03.2022
3255 Clouds 25 1009 65 10000 5.01 167 07:52 12.03.2022
3256 Clouds 24 1012 68 10000 3.72 155 05:46 12.03.2022
3257 Clouds 21 1011 88 10000 2.6 123 00:27 12.03.2022
3258 Clouds 21 1011 88 10000 2.6 123 23:38 11.03.2022
3259 Clouds 21 1010 87 10000 2.94 132 21:55 11.03.2022
3260 Clouds 21 1010 86 10000 3.11 138 20:59 11.03.2022
3261 Clouds 21 1010 86 10000 3.11 138 20:40 11.03.2022
3262 Clouds 21 1011 85 10000 3.11 145 20:19 11.03.2022
3263 Clouds 21 1011 85 10000 3.3 151 19:28 11.03.2022
3264 Clouds 22 1012 85 10000 3.51 151 17:38 11.03.2022
3265 Clouds 22 1012 85 10000 3.37 149 17:19 11.03.2022
3266 Clouds 22 1012 84 10000 3.33 144 15:57 11.03.2022
3267 Clouds 23 1012 81 10000 3.61 127 14:22 11.03.2022
3268 Clouds 23 1011 78 10000 3.26 118 13:21 11.03.2022
3269 Clouds 24 1010 76 10000 2.98 112 12:23 11.03.2022
3270 Clouds 24 1010 76 10000 2.98 112 11:56 11.03.2022
3271 Clouds 24 1009 73 10000 3.96 118 10:24 11.03.2022
3272 Clouds 24 1010 68 10000 3.87 131 09:27 11.03.2022
3273 Clouds 24 1011 64 10000 3.4 146 08:24 11.03.2022
3274 Clouds 23 1011 64 10000 3.4 146 07:46 11.03.2022
3275 Clouds 22 1013 64 10000 2.74 141 05:49 11.03.2022
3276 Clouds 22 1015 76 10000 2.6 142 04:24 11.03.2022
3277 Clouds 20 1013 88 10000 2.07 131 23:49 10.03.2022
3278 Clouds 20 1013 88 10000 1.91 132 22:31 10.03.2022
3279 Clouds 20 1012 88 10000 2.03 126 21:48 10.03.2022
3280 Clouds 20 1012 87 10000 2.17 126 21:20 10.03.2022
3281 Clouds 20 1013 87 10000 2.25 121 19:51 10.03.2022
3282 Clouds 21 1013 87 10000 2.31 120 18:56 10.03.2022
3283 Clouds 21 1014 84 10000 2.02 136 17:36 10.03.2022
3284 Clouds 21 1014 83 10000 2.08 131 16:31 10.03.2022
3285 Clouds 21 1014 82 10000 2.59 120 15:20 10.03.2022
3286 Clouds 22 1013 77 10000 2.65 105 13:24 10.03.2022
3287 Clouds 22 1012 76 10000 2.2 87 11:58 10.03.2022
3288 Clouds 22 1012 73 10000 2.02 93 10:54 10.03.2022
3289 Clouds 24 1012 66 10000 1.76 156 09:22 10.03.2022
3290 Clouds 22 1012 66 10000 1.88 162 07:41 10.03.2022
3291 Clouds 20 1016 71 10000 2.95 138 04:44 10.03.2022
3292 Clouds 19 1016 79 10000 3.14 126 01:49 10.03.2022
3293 Clouds 18 1013 87 10000 3.47 126 23:26 09.03.2022
3294 Clouds 18 1013 86 10000 3.24 132 21:51 09.03.2022
3295 Clouds 19 1013 86 10000 3.24 132 21:31 09.03.2022
3296 Clouds 19 1014 85 10000 2.92 137 19:50 09.03.2022
3297 Clouds 19 1014 84 10000 2.8 133 18:34 09.03.2022
3298 Clouds 20 1015 83 10000 3.34 134 17:27 09.03.2022
3299 Clouds 20 1015 83 10000 3.34 134 16:31 09.03.2022
3300 Clouds 20 1015 81 10000 4.02 133 15:19 09.03.2022
3301 Clouds 21 1014 80 10000 4.68 127 13:53 09.03.2022
3302 Clouds 21 1013 77 10000 4.64 123 12:47 09.03.2022
3303 Clouds 21 1012 76 10000 4.73 117 11:53 09.03.2022
3304 Clouds 22 1012 76 10000 4.73 117 11:35 09.03.2022
3305 Clouds 22 1011 70 10000 5.17 121 09:54 09.03.2022
3306 Clouds 22 1012 71 10000 4.88 120 08:51 09.03.2022
3307 Clouds 23 1013 75 10000 4.87 107 07:27 09.03.2022
3308 Clear 18 1017 64 10000 3.58 126 02:42 09.03.2022
3309 Clear 16 1014 78 10000 2.26 111 00:28 09.03.2022
3310 Clear 17 1014 77 10000 2.48 115 22:47 08.03.2022
3311 Clear 16 1013 77 10000 2.55 121 21:55 08.03.2022
3312 Clear 16 1013 76 10000 2.73 125 21:22 08.03.2022
3313 Clear 16 1013 75 10000 2.71 129 20:24 08.03.2022
3314 Clear 16 1013 75 10000 2.71 129 19:30 08.03.2022
3315 Clear 17 1014 74 10000 2.85 135 18:41 08.03.2022
3316 Clear 19 1015 72 10000 3.24 142 16:59 08.03.2022
3317 Clear 20 1015 67 10000 4.32 140 14:58 08.03.2022
3318 Clear 21 1015 64 10000 4.93 134 14:18 08.03.2022
3319 Clear 23 1013 61 10000 5.84 129 12:41 08.03.2022
3320 Clear 24 1012 54 10000 6.28 129 11:44 08.03.2022
3321 Clear 25 1012 47 10000 6.23 134 10:37 08.03.2022
3322 Clear 26 1012 40 10000 5.52 145 08:58 08.03.2022
3323 Clouds 25 1014 42 10000 4.81 148 06:31 08.03.2022
3324 Clouds 21 1017 52 10000 4.53 154 03:48 08.03.2022
3325 Clouds 17 1016 68 10000 1.68 116 22:53 07.03.2022
3326 Clouds 17 1016 66 10000 1.25 109 21:45 07.03.2022
3327 Clouds 16 1016 65 10000 0.96 102 21:27 07.03.2022
3328 Clouds 17 1016 65 10000 0.96 102 20:38 07.03.2022
3329 Clouds 17 1017 63 10000 0.7 73 19:50 07.03.2022
3330 Clouds 17 1017 62 10000 0.75 34 19:24 07.03.2022
3331 Clouds 18 1017 72 10000 0.3 127 18:33 07.03.2022
3332 Clouds 19 1018 72 10000 1.09 180 17:31 07.03.2022
3333 Clouds 19 1018 72 10000 1.23 186 16:54 07.03.2022
3334 Clouds 20 1018 67 10000 1.56 180 14:51 07.03.2022
3335 Clouds 23 1017 65 10000 2.02 154 12:34 07.03.2022
3336 Clouds 24 1017 60 10000 1.44 156 11:34 07.03.2022
3337 Clouds 24 1016 50 10000 1.48 60 10:31 07.03.2022
3338 Clouds 24 1017 51 10000 1.93 27 08:35 07.03.2022
3339 Clouds 19 1020 61 10000 4.49 20 02:50 07.03.2022
3340 Clouds 20 1017 86 10000 3.03 18 00:20 07.03.2022
3341 Clouds 21 1016 91 10000 2.85 30 23:26 06.03.2022
3342 Clouds 22 1015 96 7120 2.99 23 22:29 06.03.2022
3343 Clouds 22 1015 96 7120 2.99 23 21:37 06.03.2022
3344 Clouds 22 1015 96 10000 3.29 46 20:29 06.03.2022
3345 Clouds 22 1015 96 10000 3.29 46 19:39 06.03.2022
3346 Clouds 22 1014 95 10000 2.09 72 18:50 06.03.2022
3347 Rain 22 1014 94 10000 1.93 123 17:46 06.03.2022
3348 Clouds 22 1014 93 10000 1.94 133 17:19 06.03.2022
3349 Rain 22 1014 93 10000 1.94 133 16:39 06.03.2022
3350 Clouds 23 1013 92 10000 2.89 106 15:26 06.03.2022
3351 Clouds 23 1013 92 10000 2.89 106 14:42 06.03.2022
3352 Clouds 23 1013 92 10000 3.33 100 13:49 06.03.2022
3353 Clouds 23 1012 91 10000 3.3 99 12:40 06.03.2022
3354 Clouds 23 1010 90 10000 3.87 92 11:46 06.03.2022
3355 Clouds 24 1010 88 10000 3.57 77 10:40 06.03.2022
3356 Clouds 23 1009 80 10000 3.6 87 09:18 06.03.2022
3357 Clouds 24 1009 80 10000 2.71 112 08:28 06.03.2022
3358 Clouds 23 1010 83 10000 2.84 128 07:25 06.03.2022
3359 Clouds 21 1012 92 10000 3.28 134 02:22 06.03.2022
3360 Clouds 21 1011 93 10000 3.29 130 00:35 06.03.2022
3361 Clouds 21 1011 94 10000 3.25 125 23:59 05.03.2022
3362 Clouds 21 1010 94 10000 3.09 121 23:19 05.03.2022
3363 Clouds 21 1010 94 10000 3.09 121 22:32 05.03.2022
3364 Clouds 21 1010 94 10000 3.39 125 21:29 05.03.2022
3365 Clouds 21 1010 94 10000 3.3 130 20:27 05.03.2022
3366 Clouds 21 1011 94 10000 3.61 138 19:18 05.03.2022
3367 Clouds 21 1011 92 10000 3.26 140 18:37 05.03.2022
3368 Clouds 21 1012 90 10000 3.84 144 17:31 05.03.2022
3369 Clouds 21 1012 89 10000 3.63 139 16:18 05.03.2022
3370 Clouds 22 1012 87 10000 3.6 136 14:54 05.03.2022
3371 Clouds 21 1012 87 10000 3.6 136 14:35 05.03.2022
3372 Clouds 21 1011 86 10000 3.19 124 13:39 05.03.2022
3373 Clouds 22 1010 86 10000 3.37 123 12:35 05.03.2022
3374 Clouds 22 1009 83 10000 3.95 129 11:20 05.03.2022
3375 Clouds 22 1009 83 10000 3.95 129 10:52 05.03.2022
3376 Clouds 22 1009 81 10000 4.07 133 09:30 05.03.2022
3377 Clouds 22 1010 80 10000 4.07 140 08:24 05.03.2022
3378 Clouds 21 1011 77 10000 3.99 143 06:33 05.03.2022
3379 Clouds 21 1013 81 10000 3.93 140 04:54 05.03.2022
3380 Clouds 21 1012 91 10000 2.66 124 00:30 05.03.2022
3381 Clouds 21 1010 91 10000 2.66 119 22:45 04.03.2022
3382 Clouds 21 1010 91 10000 2.85 121 22:24 04.03.2022
3383 Clouds 21 1010 91 10000 2.85 121 21:42 04.03.2022
3384 Clouds 21 1010 90 10000 2.95 123 20:36 04.03.2022
3385 Clouds 21 1011 90 10000 3.07 129 19:36 04.03.2022
3386 Clouds 21 1011 91 10000 3.21 138 18:47 04.03.2022
3387 Clouds 21 1012 89 10000 3.83 146 18:27 04.03.2022
3388 Clouds 21 1012 88 10000 4.01 146 17:29 04.03.2022
3389 Clouds 22 1013 88 10000 4.09 145 15:48 04.03.2022
3390 Clouds 22 1013 86 10000 3.97 140 14:40 04.03.2022
3391 Clouds 22 1012 84 10000 4 131 13:34 04.03.2022
3392 Clouds 22 1010 74 10000 4.07 127 11:57 04.03.2022
3393 Clouds 22 1009 68 10000 4.4 131 11:28 04.03.2022
3394 Clouds 23 1009 67 10000 4.18 133 10:23 04.03.2022
3395 Clouds 23 1009 67 10000 3.52 145 09:27 04.03.2022
3396 Clouds 22 1010 67 10000 3.13 155 07:47 04.03.2022
3397 Clouds 21 1014 67 10000 3.41 160 05:26 04.03.2022
3398 Clouds 20 1014 93 10000 2.91 113 00:43 04.03.2022
3399 Clouds 20 1012 94 10000 2.71 106 23:28 03.03.2022
3400 Clouds 21 1011 92 10000 2.85 122 21:58 03.03.2022
3401 Clouds 20 1011 92 10000 2.85 122 21:35 03.03.2022
3402 Clouds 20 1012 89 10000 3.28 136 20:27 03.03.2022
3403 Clouds 20 1012 88 10000 4.14 143 18:58 03.03.2022
3404 Clouds 20 1013 86 10000 4.02 137 18:25 03.03.2022
3405 Clouds 20 1013 86 10000 4.02 137 17:31 03.03.2022
3406 Clouds 22 1014 81 10000 4.6 147 16:28 03.03.2022
3407 Clouds 22 1014 81 10000 4.6 147 15:41 03.03.2022
3408 Clouds 23 1014 78 10000 4.89 150 14:44 03.03.2022
3409 Clouds 23 1013 75 10000 6.17 147 14:25 03.03.2022
3410 Clouds 25 1011 64 10000 6.6 144 12:28 03.03.2022
3411 Clouds 25 1010 55 10000 6.32 142 10:58 03.03.2022
3412 Clouds 25 1009 49 10000 5.37 152 09:58 03.03.2022
3413 Clouds 25 1010 47 10000 4.51 160 08:42 03.03.2022
3414 Clouds 26 1012 50 10000 3.34 167 06:54 03.03.2022
3415 Clouds 24 1015 59 10000 2.95 165 05:20 03.03.2022
3416 Clouds 18 1015 91 10000 1.93 134 23:45 02.03.2022
3417 Clouds 19 1014 90 10000 2.08 134 22:54 02.03.2022
3418 Clouds 19 1014 89 10000 2.39 136 22:31 02.03.2022
3419 Clouds 21 1014 87 10000 2.23 134 20:59 02.03.2022
3420 Clouds 21 1014 86 10000 2.31 139 20:25 02.03.2022
3421 Clouds 21 1014 86 10000 2.31 139 19:37 02.03.2022
3422 Clouds 22 1015 84 10000 2.87 145 18:58 02.03.2022
3423 Clouds 22 1015 83 10000 3.06 148 18:31 02.03.2022
3424 Clouds 22 1016 82 10000 3.15 149 17:41 02.03.2022
3425 Clouds 23 1016 80 10000 3.55 152 16:52 02.03.2022
3426 Clouds 23 1016 78 10000 3.83 151 15:46 02.03.2022
3427 Clouds 24 1015 71 10000 4.4 140 13:52 02.03.2022
3428 Clouds 24 1015 65 10000 3.84 123 12:56 02.03.2022
3429 Clouds 24 1014 69 10000 4.09 126 12:34 02.03.2022
3430 Clouds 25 1013 55 10000 3.47 136 11:27 02.03.2022
3431 Clouds 25 1013 55 10000 3.47 136 10:38 02.03.2022
3432 Clouds 25 1013 53 10000 3.2 140 09:36 02.03.2022
3433 Clouds 25 1013 54 10000 3.4 141 08:34 02.03.2022
3434 Clouds 25 1016 60 10000 3.29 132 07:23 02.03.2022
3435 Clouds 24 1018 62 10000 3.23 147 04:51 02.03.2022
3436 Clouds 19 1018 85 10000 1.66 156 00:40 02.03.2022
3437 Clouds 19 1017 87 10000 1.31 135 23:27 01.03.2022
3438 Clouds 20 1017 87 10000 1.31 135 22:38 01.03.2022
3439 Clouds 20 1016 87 10000 1.2 117 21:44 01.03.2022
3440 Clouds 20 1017 87 10000 1.24 115 20:40 01.03.2022
3441 Clouds 20 1017 87 10000 1.54 110 20:19 01.03.2022
3442 Clouds 20 1017 87 10000 1.74 103 18:53 01.03.2022
3443 Clouds 20 1018 84 10000 2.05 119 18:22 01.03.2022
3444 Clouds 20 1018 84 10000 2.05 119 17:42 01.03.2022
3445 Clouds 21 1018 82 10000 1.99 137 16:36 01.03.2022
3446 Clouds 21 1018 81 10000 1.8 152 15:47 01.03.2022
3447 Clouds 21 1018 81 10000 1.8 152 15:47 01.03.2022
3448 Clouds 21 1018 80 10000 1.89 148 14:53 01.03.2022
3449 Clouds 21 1017 79 10000 2.1 137 14:31 01.03.2022
3450 Clouds 21 1016 78 10000 2.3 135 13:26 01.03.2022
3451 Clouds 21 1016 79 10000 2.41 129 12:35 01.03.2022
3452 Clouds 22 1014 74 10000 2.23 108 10:57 01.03.2022
3453 Clouds 22 1014 71 10000 2.47 101 09:43 01.03.2022
3454 Clouds 22 1014 69 10000 2.48 97 08:20 01.03.2022
3455 Clouds 22 1015 70 10000 2.33 101 06:47 01.03.2022
3456 Clouds 20 1018 88 10000 1.12 92 02:57 01.03.2022
3457 Clouds 19 1016 92 10000 1.62 110 00:47 01.03.2022
3458 Clouds 19 1016 92 10000 1.98 126 23:36 28.02.2022
3459 Clouds 19 1015 91 10000 2.23 126 22:30 28.02.2022
3460 Clouds 20 1014 90 10000 2.07 126 21:43 28.02.2022
3461 Clouds 20 1014 90 10000 2.25 131 20:34 28.02.2022
3462 Clouds 20 1015 91 10000 2.6 124 19:51 28.02.2022
3463 Clouds 20 1015 90 10000 2.65 119 18:50 28.02.2022
3464 Clear 20 1016 89 10000 3 129 17:37 28.02.2022
3465 Clear 20 1016 87 10000 3.62 136 17:18 28.02.2022
3466 Clouds 21 1016 84 10000 4.06 138 15:59 28.02.2022
3467 Clouds 22 1015 76 10000 5.07 140 14:32 28.02.2022
3468 Clouds 22 1015 76 10000 5.08 140 13:52 28.02.2022
3469 Clouds 22 1015 76 10000 5.08 140 13:52 28.02.2022
3470 Clouds 23 1014 72 10000 5.53 141 13:18 28.02.2022
3471 Clouds 23 1012 66 10000 5.9 139 11:59 28.02.2022
3472 Clouds 23 1012 56 10000 5.71 142 11:19 28.02.2022
3473 Clouds 24 1011 50 10000 5.17 149 10:22 28.02.2022
3474 Clouds 24 1011 50 10000 5.17 149 09:43 28.02.2022
3475 Clouds 23 1012 48 10000 4.19 155 08:52 28.02.2022
3476 Clouds 23 1013 50 10000 3.78 160 07:58 28.02.2022
3477 Clouds 22 1016 59 10000 3.67 162 05:53 28.02.2022
3478 Clouds 20 1017 63 10000 3.38 165 04:30 28.02.2022
3479 Clouds 16 1017 88 10000 1.59 127 00:42 28.02.2022
3480 Clear 16 1016 88 10000 1.82 112 22:38 27.02.2022
3481 Clouds 16 1015 86 10000 1.97 111 21:58 27.02.2022
3482 Clouds 16 1015 86 10000 1.97 111 21:36 27.02.2022
3483 Clouds 17 1016 85 10000 2.22 113 20:41 27.02.2022
3484 Clouds 17 1016 83 10000 2.15 120 20:18 27.02.2022
3485 Clouds 17 1016 83 10000 2.15 120 19:43 27.02.2022
3486 Clouds 18 1016 80 10000 2.67 140 19:18 27.02.2022
3487 Clouds 18 1016 78 10000 3.47 149 17:57 27.02.2022
3488 Clouds 18 1016 78 10000 3.47 149 17:34 27.02.2022
3489 Clouds 19 1017 73 10000 4 153 16:22 27.02.2022
3490 Clouds 19 1016 68 10000 4.84 152 14:28 27.02.2022
3491 Clouds 21 1015 64 10000 5.16 148 12:35 27.02.2022
3492 Clouds 21 1014 57 10000 3.98 147 11:46 27.02.2022
3493 Clouds 22 1014 49 10000 3.83 155 10:36 27.02.2022
3494 Clouds 22 1014 47 10000 2.94 160 09:58 27.02.2022
3495 Clouds 22 1015 46 10000 2.82 164 09:23 27.02.2022
3496 Clouds 22 1015 46 10000 2.82 164 08:44 27.02.2022
3497 Clouds 20 1019 52 10000 3.21 155 05:43 27.02.2022
3498 Clouds 17 1021 67 10000 2.16 155 03:26 27.02.2022
3499 Clear 17 1020 87 10000 1.35 145 23:51 26.02.2022
3500 Clear 17 1019 86 10000 1.42 146 22:42 26.02.2022
3501 Clear 17 1019 84 10000 1.8 156 21:26 26.02.2022
3502 Clear 17 1019 84 10000 1.8 156 20:37 26.02.2022
3503 Clear 17 1020 83 10000 1.97 154 19:54 26.02.2022
3504 Clear 17 1020 81 10000 2.04 151 19:33 26.02.2022
3505 Clear 17 1020 81 10000 2.04 151 18:31 26.02.2022
3506 Clear 18 1022 82 10000 2.23 157 17:31 26.02.2022
3507 Clear 18 1022 80 10000 2.42 164 16:36 26.02.2022
3508 Clear 18 1022 75 10000 2.42 162 15:27 26.02.2022
3509 Clear 18 1022 75 10000 2.42 162 14:58 26.02.2022
3510 Clear 19 1022 75 10000 2.42 162 14:39 26.02.2022
3511 Clear 19 1021 71 10000 2.52 151 13:46 26.02.2022
3512 Clouds 19 1020 69 10000 2.65 137 12:53 26.02.2022
3513 Clouds 20 1019 65 10000 3.43 136 11:39 26.02.2022
3514 Clouds 20 1018 54 10000 3.23 122 10:59 26.02.2022
3515 Clouds 21 1018 47 10000 2.3 111 09:22 26.02.2022
3516 Clouds 20 1019 47 10000 2.01 103 07:57 26.02.2022
3517 Clouds 18 1024 61 10000 1.77 85 04:22 26.02.2022
3518 Clear 13 1021 83 10000 1.2 97 23:35 25.02.2022
3519 Clear 13 1020 80 10000 1.52 134 22:18 25.02.2022
3520 Clear 13 1020 79 10000 2 141 21:29 25.02.2022
3521 Clear 14 1020 79 10000 2 141 20:34 25.02.2022
3522 Clear 14 1021 77 10000 2.2 143 19:53 25.02.2022
3523 Clear 16 1022 77 10000 2.57 157 17:54 25.02.2022
3524 Clouds 16 1023 75 10000 3.05 157 16:47 25.02.2022
3525 Clouds 16 1023 72 10000 3.45 152 15:49 25.02.2022
3526 Clouds 16 1022 70 10000 3.93 146 15:23 25.02.2022
3527 Clouds 16 1022 70 10000 3.93 146 15:23 25.02.2022
3528 Clouds 15 1022 70 10000 3.93 146 14:50 25.02.2022
3529 Clouds 17 1022 67 10000 4.31 142 14:18 25.02.2022
3530 Clouds 18 1020 61 10000 3.52 141 13:20 25.02.2022
3531 Clouds 19 1019 59 10000 3.37 146 11:52 25.02.2022
3532 Clouds 19 1019 54 10000 3.46 146 11:18 25.02.2022
3533 Clouds 20 1019 51 10000 3.02 150 10:23 25.02.2022
3534 Clouds 20 1019 51 10000 3.02 150 09:41 25.02.2022
3535 Clouds 20 1021 50 10000 2.44 155 07:48 25.02.2022
3536 Clear 19 1022 48 10000 1.81 145 06:51 25.02.2022
3537 Clear 17 1024 49 10000 1.93 145 05:38 25.02.2022
3538 Clear 10 1025 79 10000 1.03 85 00:46 25.02.2022
3539 Clear 11 1023 80 10000 1.2 112 22:30 24.02.2022
3540 Clear 12 1023 80 10000 1.4 128 21:43 24.02.2022
3541 Clear 12 1023 80 10000 1.4 128 21:43 24.02.2022
3542 Clear 12 1023 79 10000 1.59 140 21:21 24.02.2022
3543 Clear 12 1023 79 10000 1.59 140 20:42 24.02.2022
3544 Clear 12 1024 75 10000 2.06 128 19:29 24.02.2022
3545 Clear 12 1025 73 10000 1.89 121 18:20 24.02.2022
3546 Clear 13 1025 73 10000 1.89 121 17:51 24.02.2022
3547 Clear 13 1026 69 10000 1.83 104 17:18 24.02.2022
3548 Clear 14 1026 64 10000 1.55 72 16:25 24.02.2022
3549 Clear 14 1026 64 10000 1.55 72 15:41 24.02.2022
3550 Clear 16 1026 59 10000 0.8 48 14:44 24.02.2022
3551 Clear 16 1025 56 10000 0.38 31 13:51 24.02.2022
3552 Clear 16 1025 56 10000 0.38 31 13:30 24.02.2022
3553 Clear 18 1022 42 10000 1.54 70 10:50 24.02.2022
3554 Clear 19 1022 42 10000 1.54 70 10:31 24.02.2022
3555 Clear 17 1023 41 10000 2.48 34 08:43 24.02.2022
3556 Clouds 16 1026 46 10000 3.56 31 06:28 24.02.2022
3557 Clouds 14 1026 46 10000 3.56 31 05:37 24.02.2022
3558 Clouds 10 1027 63 10000 3.59 25 00:30 24.02.2022
3559 Clouds 12 1026 63 10000 2.99 28 21:56 23.02.2022
3560 Clouds 13 1026 63 10000 2.84 32 20:43 23.02.2022
3561 Clouds 13 1026 62 10000 2.81 34 20:19 23.02.2022
3562 Clouds 14 1026 62 10000 2.74 36 19:23 23.02.2022
3563 Clouds 14 1026 67 10000 1.8 28 17:56 23.02.2022
3564 Clouds 14 1026 65 10000 2.2 341 16:18 23.02.2022
3565 Clouds 15 1025 61 10000 2.38 317 13:36 23.02.2022
3566 Clouds 15 1023 51 10000 2.43 327 12:29 23.02.2022
3567 Clear 16 1022 43 10000 2.91 354 10:55 23.02.2022
3568 Clouds 17 1022 42 10000 3.25 359 09:38 23.02.2022
3569 Clear 16 1023 42 10000 3.68 359 08:36 23.02.2022
3570 Clouds 15 1025 45 10000 4.14 358 07:25 23.02.2022
3571 Clouds 11 1029 64 10000 3.63 356 02:23 23.02.2022
3572 Clouds 11 1027 66 10000 3.27 356 23:50 22.02.2022
3573 Clouds 11 1027 66 10000 3.27 356 23:31 22.02.2022
3574 Clouds 11 1027 63 10000 3.83 3 22:28 22.02.2022
3575 Clouds 12 1027 63 10000 3.83 3 21:40 22.02.2022
3576 Clouds 12 1027 62 10000 3.81 8 21:19 22.02.2022
3577 Clouds 12 1027 62 10000 3.81 8 20:31 22.02.2022
3578 Clouds 11 1027 61 10000 4.1 5 19:54 22.02.2022
3579 Clouds 11 1027 61 10000 4.1 5 19:33 22.02.2022
3580 Clouds 11 1027 62 10000 4.74 15 18:35 22.02.2022
3581 Clouds 11 1028 63 10000 5.25 20 17:27 22.02.2022
3582 Clouds 11 1028 63 10000 5.25 20 16:55 22.02.2022
3583 Clouds 11 1028 63 10000 5.68 24 16:19 22.02.2022
3584 Clouds 11 1027 62 10000 6.06 25 15:18 22.02.2022
3585 Clouds 12 1026 62 10000 6.39 26 13:37 22.02.2022
3586 Clouds 12 1023 59 10000 5.64 25 11:18 22.02.2022
3587 Clouds 13 1023 52 10000 6.23 19 09:22 22.02.2022
3588 Clouds 13 1024 52 10000 6.02 20 07:28 22.02.2022
3589 Clouds 13 1024 55 10000 5.08 25 06:53 22.02.2022
3590 Clouds 11 1026 64 10000 4.48 12 02:48 22.02.2022
3591 Clouds 10 1023 71 10000 3.5 11 23:18 21.02.2022
3592 Clouds 10 1023 71 10000 3.33 8 21:56 21.02.2022
3593 Clouds 11 1023 71 10000 3.36 8 20:38 21.02.2022
3594 Clouds 11 1024 72 10000 3.59 14 18:47 21.02.2022
3595 Clouds 11 1024 72 10000 3.34 18 18:18 21.02.2022
3596 Clouds 11 1025 71 10000 3.41 19 15:36 21.02.2022
3597 Clouds 11 1024 70 10000 4.03 20 14:22 21.02.2022
3598 Clouds 12 1024 70 10000 4.03 20 13:30 21.02.2022
3599 Clouds 12 1022 68 10000 3.99 21 12:25 21.02.2022
3600 Clouds 13 1022 68 10000 3.99 21 11:31 21.02.2022
3601 Clouds 13 1021 62 10000 4.45 20 10:26 21.02.2022
3602 Clouds 12 1023 64 10000 4.54 1 05:40 21.02.2022
3603 Clouds 9 1023 76 10000 3.15 3 00:30 21.02.2022
3604 Clouds 9 1022 77 10000 3.42 10 22:30 20.02.2022
3605 Clouds 9 1022 77 10000 3.17 8 21:43 20.02.2022
3606 Clouds 9 1022 78 10000 2.97 13 21:19 20.02.2022
3607 Clouds 9 1022 78 10000 2.97 13 20:42 20.02.2022
3608 Clouds 9 1022 79 10000 3.61 13 19:42 20.02.2022
3609 Clouds 9 1023 78 10000 3.79 12 18:54 20.02.2022
3610 Clouds 9 1023 82 10000 3.58 16 18:34 20.02.2022
3611 Clouds 9 1024 82 10000 3.28 14 17:53 20.02.2022
3612 Clouds 9 1024 81 10000 3.97 10 16:18 20.02.2022
3613 Clouds 9 1023 83 10000 4.63 14 14:53 20.02.2022
3614 Clouds 9 1024 84 10000 3.74 15 13:53 20.02.2022
3615 Clouds 9 1023 87 10000 3.97 14 12:34 20.02.2022
3616 Clouds 9 1022 85 10000 4.46 8 10:47 20.02.2022
3617 Clouds 9 1021 84 10000 4.64 10 10:20 20.02.2022
3618 Clouds 9 1021 83 10000 5.1 18 08:56 20.02.2022
3619 Clouds 8 1022 82 8534 5.22 24 00:55 20.02.2022
3620 Clouds 8 1022 78 10000 5.17 22 00:30 20.02.2022
3621 Clouds 8 1020 83 10000 5.65 22 23:19 19.02.2022
3622 Clouds 9 1020 84 10000 5.86 21 22:23 19.02.2022
3623 Clouds 9 1020 84 10000 5.86 21 21:39 19.02.2022
3624 Clouds 10 1020 79 10000 6.31 24 19:54 19.02.2022
3625 Clouds 10 1020 79 10000 6.31 24 19:33 19.02.2022
3626 Clouds 10 1020 79 10000 6.24 28 18:35 19.02.2022
3627 Clouds 10 1021 78 10000 5.9 25 17:37 19.02.2022
3628 Clouds 11 1021 80 10000 6.44 27 16:34 19.02.2022
3629 Clouds 11 1021 81 10000 6.29 25 15:19 19.02.2022
3630 Clouds 11 1021 81 10000 6.29 25 14:52 19.02.2022
3631 Clouds 11 1020 80 8810 6.38 27 13:45 19.02.2022
3632 Clouds 12 1018 86 9819 6.31 26 11:39 19.02.2022
3633 Clouds 12 1016 84 10000 6.91 27 09:57 19.02.2022
3634 Clouds 12 1016 85 9907 6.88 25 06:58 19.02.2022
3635 Clouds 13 1017 84 10000 6.55 30 03:54 19.02.2022
3636 Clouds 14 1012 88 8912 5.71 34 23:33 18.02.2022
3637 Clouds 15 1011 91 10000 5.23 39 21:50 18.02.2022
3638 Clouds 16 1011 93 7664 4.67 41 20:51 18.02.2022
3639 Clouds 18 1011 93 10000 4.05 49 19:53 18.02.2022
3640 Clouds 18 1011 94 10000 3.21 67 18:50 18.02.2022
3641 Clouds 19 1011 95 10000 2.49 66 18:22 18.02.2022
3642 Clouds 19 1011 95 10000 2.49 66 17:50 18.02.2022
3643 Clouds 21 1011 95 10000 2.71 87 14:50 18.02.2022
3644 Clouds 21 1010 95 10000 3.11 84 13:55 18.02.2022
3645 Clouds 21 1009 95 10000 3.23 79 12:53 18.02.2022
3646 Clouds 21 1009 95 10000 3.83 89 12:32 18.02.2022
3647 Clouds 21 1007 93 10000 4.16 82 11:22 18.02.2022
3648 Clouds 22 1007 89 10000 3.98 88 09:52 18.02.2022
3649 Clouds 21 1009 95 10000 1.96 89 06:54 18.02.2022
3650 Clouds 21 1010 96 10000 1.9 97 05:39 18.02.2022
3651 Clouds 20 1008 98 3961 1.95 84 23:24 17.02.2022
3652 Clouds 19 1008 99 3993 1.74 91 21:44 17.02.2022
3653 Clouds 19 1008 99 5782 1.73 100 21:19 17.02.2022
3654 Clouds 20 1009 98 10000 2.02 113 20:36 17.02.2022
3655 Clouds 20 1009 98 10000 2.02 113 19:48 17.02.2022
3656 Clouds 19 1009 97 10000 1.22 125 18:41 17.02.2022
3657 Clouds 19 1010 97 10000 2.4 133 17:50 17.02.2022
3658 Clouds 19 1010 96 10000 1.92 119 16:20 17.02.2022
3659 Clouds 19 1010 96 10000 1.92 119 16:20 17.02.2022
3660 Clouds 19 1010 96 10000 1.72 108 15:26 17.02.2022
3661 Clouds 19 1010 95 10000 1.52 94 14:21 17.02.2022
3662 Clouds 20 1008 94 10000 1.84 84 12:35 17.02.2022
3663 Clouds 19 1007 89 10000 2.29 84 11:21 17.02.2022
3664 Clouds 20 1007 86 10000 2.18 65 08:43 17.02.2022
3665 Clouds 17 1009 94 10000 1.21 34 00:29 17.02.2022
3666 Clouds 17 1008 94 10000 1.01 45 22:41 16.02.2022
3667 Clouds 17 1008 94 10000 0.93 57 20:46 16.02.2022
3668 Clouds 17 1009 93 10000 0.98 29 19:43 16.02.2022
3669 Clouds 17 1010 92 10000 1.43 11 18:36 16.02.2022
3670 Clouds 17 1011 90 10000 1.39 20 17:39 16.02.2022
3671 Clouds 17 1011 90 10000 1.39 20 17:36 16.02.2022
3672 Clouds 17 1011 89 10000 1.5 57 15:30 16.02.2022
3673 Clouds 17 1011 88 10000 1.58 61 14:57 16.02.2022
3674 Clouds 17 1010 88 10000 1.66 50 12:34 16.02.2022
3675 Clouds 17 1009 88 10000 1.87 82 11:53 16.02.2022
3676 Clouds 17 1009 87 10000 1.89 97 10:52 16.02.2022
3677 Clouds 17 1009 86 10000 2.18 109 10:29 16.02.2022
3678 Clouds 16 1011 83 10000 0.7 124 06:56 16.02.2022
3679 Clouds 16 1015 82 10000 0.59 121 03:46 16.02.2022
3680 Clouds 15 1012 84 10000 1.26 72 22:35 15.02.2022
3681 Clouds 15 1012 84 10000 1.39 61 21:59 15.02.2022
3682 Clouds 15 1012 84 10000 1.39 61 21:59 15.02.2022
3683 Clouds 15 1012 84 10000 1.39 61 21:39 15.02.2022
3684 Clouds 15 1013 83 10000 1.39 60 21:21 15.02.2022
3685 Clouds 15 1013 83 10000 1.39 60 20:48 15.02.2022
3686 Clouds 15 1013 82 10000 0.95 69 19:48 15.02.2022
3687 Clouds 15 1014 84 10000 1.22 52 18:40 15.02.2022
3688 Clouds 15 1014 83 10000 1.23 67 18:18 15.02.2022
3689 Clouds 15 1014 83 10000 1.23 67 17:46 15.02.2022
3690 Clouds 16 1016 80 10000 1.29 47 16:20 15.02.2022
3691 Clouds 16 1015 77 10000 0.76 86 14:35 15.02.2022
3692 Clouds 16 1014 76 10000 1.23 117 13:26 15.02.2022
3693 Clouds 17 1014 76 10000 1.7 101 11:43 15.02.2022
3694 Clouds 17 1013 74 10000 1.84 91 10:32 15.02.2022
3695 Clouds 17 1014 72 10000 1.95 83 09:23 15.02.2022
3696 Clouds 17 1016 71 10000 1.46 93 06:47 15.02.2022
3697 Clouds 16 1016 80 10000 0.78 114 00:26 15.02.2022
3698 Clouds 16 1015 80 10000 1.12 140 21:59 14.02.2022
3699 Clouds 16 1016 80 10000 1.41 153 20:57 14.02.2022
3700 Clouds 16 1016 80 10000 1.73 161 19:52 14.02.2022
3701 Clouds 16 1016 80 10000 1.73 161 19:30 14.02.2022
3702 Clouds 17 1017 79 10000 2.02 151 18:24 14.02.2022
3703 Clouds 17 1017 79 10000 2.02 151 18:24 14.02.2022
3704 Clouds 17 1017 79 10000 2.02 151 17:31 14.02.2022
3705 Clouds 17 1017 78 10000 2.38 149 16:49 14.02.2022
3706 Clouds 17 1017 76 10000 2.33 150 15:42 14.02.2022
3707 Clouds 18 1016 69 10000 2.38 142 13:36 14.02.2022
3708 Clouds 18 1016 66 10000 2.7 138 12:59 14.02.2022
3709 Clouds 18 1015 67 10000 3 140 12:32 14.02.2022
3710 Clouds 19 1015 63 10000 3.12 137 11:39 14.02.2022
3711 Clouds 19 1014 53 10000 2.99 122 10:21 14.02.2022
3712 Clouds 20 1015 50 10000 2.48 83 08:18 14.02.2022
3713 Clouds 20 1016 50 10000 2.54 53 07:26 14.02.2022
3714 Clouds 13 1017 77 10000 2.67 351 22:49 13.02.2022
3715 Clouds 14 1017 77 10000 2.67 351 22:30 13.02.2022
3716 Clouds 14 1016 78 10000 2.69 344 21:59 13.02.2022
3717 Clouds 14 1016 78 10000 2.71 348 21:23 13.02.2022
3718 Clouds 14 1017 79 10000 2.96 341 20:27 13.02.2022
3719 Clouds 14 1017 78 10000 2.92 340 19:18 13.02.2022
3720 Clouds 14 1017 79 10000 2.69 332 18:41 13.02.2022
3721 Clouds 14 1018 75 10000 3.02 354 17:22 13.02.2022
3722 Clouds 15 1018 75 10000 3.36 5 15:51 13.02.2022
3723 Clouds 15 1018 74 10000 4.21 8 14:50 13.02.2022
3724 Clouds 15 1017 74 10000 4.59 13 13:29 13.02.2022
3725 Clouds 15 1016 74 10000 4.93 14 12:42 13.02.2022
3726 Clouds 14 1015 77 10000 4.46 24 10:44 13.02.2022
3727 Clouds 14 1014 78 10000 4.45 21 10:25 13.02.2022
3728 Clouds 15 1014 80 10000 4.92 23 08:56 13.02.2022
3729 Clouds 13 1016 86 10000 3.69 29 02:49 13.02.2022
3730 Clouds 13 1014 89 10000 2.99 30 00:32 13.02.2022
3731 Clouds 14 1012 90 10000 2.83 29 22:55 12.02.2022
3732 Clouds 14 1012 90 10000 2.83 29 22:30 12.02.2022
3733 Clouds 14 1012 90 10000 2.47 21 20:55 12.02.2022
3734 Clouds 14 1013 90 10000 2.31 33 20:23 12.02.2022
3735 Clouds 14 1013 89 10000 2.38 20 18:54 12.02.2022
3736 Clouds 14 1013 91 10000 2.31 16 18:36 12.02.2022
3737 Clouds 14 1013 91 10000 2.6 13 17:39 12.02.2022
3738 Clouds 14 1014 91 10000 2.25 15 16:46 12.02.2022
3739 Clouds 14 1014 90 10000 2.21 27 15:53 12.02.2022
3740 Clouds 14 1014 89 10000 2.32 38 15:20 12.02.2022
3741 Clouds 15 1014 88 10000 2.07 31 14:25 12.02.2022
3742 Clouds 15 1012 87 10000 2.5 48 11:33 12.02.2022
3743 Clouds 15 1012 87 10000 2.67 43 10:32 12.02.2022
3744 Clouds 15 1012 88 10000 2.77 38 09:37 12.02.2022
3745 Clouds 15 1012 88 10000 2.56 35 08:47 12.02.2022
3746 Clouds 16 1012 88 10000 2.36 45 07:45 12.02.2022
3747 Clouds 16 1015 92 10000 1.7 67 04:50 12.02.2022
3748 Clouds 16 1014 92 10000 1.63 70 02:19 12.02.2022
3749 Clouds 15 1013 93 10000 2.32 65 23:34 11.02.2022
3750 Clouds 16 1012 93 10000 2.07 67 22:23 11.02.2022
3751 Clouds 16 1012 93 10000 2.07 67 21:34 11.02.2022
3752 Clouds 16 1013 93 10000 1.61 86 20:28 11.02.2022
3753 Clouds 16 1014 91 10000 1.7 100 19:29 11.02.2022
3754 Clouds 16 1014 93 10000 2.26 129 18:41 11.02.2022
3755 Clouds 16 1014 90 10000 2.91 134 17:27 11.02.2022
3756 Clouds 17 1014 90 10000 2.91 134 16:40 11.02.2022
3757 Clouds 17 1014 86 10000 3.51 120 15:19 11.02.2022
3758 Clouds 17 1014 86 10000 3.51 120 14:37 11.02.2022
3759 Clouds 17 1014 82 10000 3.46 106 14:19 11.02.2022
3760 Clouds 17 1014 82 10000 3.46 106 13:40 11.02.2022
3761 Clouds 17 1013 78 10000 3.57 104 13:21 11.02.2022
3762 Clouds 18 1011 70 10000 4.07 115 10:59 11.02.2022
3763 Clouds 18 1011 66 10000 3.42 123 09:32 11.02.2022
3764 Clouds 18 1012 64 10000 2.79 132 08:33 11.02.2022
3765 Clouds 18 1012 65 10000 2.41 128 07:45 11.02.2022
3766 Clouds 17 1015 76 10000 1.26 6 06:22 11.02.2022
3767 Clouds 15 1016 88 10000 1.32 339 02:21 11.02.2022
3768 Clouds 14 1014 90 10000 1.43 359 23:45 10.02.2022
3769 Clouds 14 1013 90 10000 1.64 1 22:25 10.02.2022
3770 Clouds 14 1013 90 10000 1.64 1 21:40 10.02.2022
3771 Clouds 14 1013 90 10000 1.55 14 20:48 10.02.2022
3772 Clouds 14 1014 90 10000 1.4 27 19:49 10.02.2022
3773 Clouds 14 1014 89 10000 1.23 47 19:21 10.02.2022
3774 Clouds 14 1014 89 10000 1.22 77 17:53 10.02.2022
3775 Clouds 14 1014 87 10000 1.27 87 17:21 10.02.2022
3776 Clouds 14 1014 87 10000 1.27 87 16:39 10.02.2022
3777 Clouds 14 1015 86 10000 1.19 91 15:39 10.02.2022
3778 Clouds 14 1015 85 10000 1.16 78 15:20 10.02.2022
3779 Clouds 14 1015 85 10000 1.16 78 14:34 10.02.2022
3780 Clouds 14 1014 84 10000 1.49 56 13:37 10.02.2022
3781 Clouds 14 1013 82 10000 1.73 68 13:18 10.02.2022
3782 Clouds 14 1013 81 10000 1.67 71 11:50 10.02.2022
3783 Clouds 15 1012 78 10000 1.68 88 11:28 10.02.2022
3784 Clouds 15 1012 77 10000 1.66 104 10:21 10.02.2022
3785 Clouds 15 1012 77 10000 1.66 104 09:37 10.02.2022
3786 Clouds 15 1014 78 10000 0.91 141 08:21 10.02.2022
3787 Clouds 14 1016 80 10000 1.09 64 06:19 10.02.2022
3788 Clouds 12 1018 87 10000 1.76 55 02:28 10.02.2022
3789 Clouds 12 1017 87 10000 1.89 50 00:51 10.02.2022
3790 Clouds 12 1017 87 10000 1.89 50 00:30 10.02.2022
3791 Clouds 12 1017 87 10000 1.93 54 23:49 09.02.2022
3792 Clouds 11 1016 87 10000 1.93 55 22:45 09.02.2022
3793 Clouds 12 1016 86 10000 1.77 64 22:25 09.02.2022
3794 Clouds 12 1016 86 10000 1.77 64 21:38 09.02.2022
3795 Clouds 12 1016 86 10000 1.73 69 21:18 09.02.2022
3796 Clouds 12 1016 86 10000 1.73 69 20:41 09.02.2022
3797 Clouds 12 1017 85 10000 1.74 66 20:20 09.02.2022
3798 Clouds 12 1017 85 10000 1.74 66 19:38 09.02.2022
3799 Clouds 12 1018 84 10000 1.9 54 17:43 09.02.2022
3800 Clouds 12 1018 83 10000 1.96 47 16:53 09.02.2022
3801 Clouds 12 1018 82 10000 1.9 46 15:54 09.02.2022
3802 Clouds 12 1018 80 10000 1.82 45 14:43 09.02.2022
3803 Clouds 13 1017 80 10000 2.42 49 12:30 09.02.2022
3804 Clouds 14 1016 79 10000 2.88 48 11:19 09.02.2022
3805 Clouds 14 1016 79 10000 2.88 48 10:31 09.02.2022
3806 Clouds 14 1016 79 10000 3.24 60 09:42 09.02.2022
3807 Clouds 14 1016 79 10000 3.13 46 09:19 09.02.2022
3808 Clouds 14 1016 78 10000 2.81 35 07:56 09.02.2022
3809 Clouds 14 1018 82 10000 2.51 41 05:30 09.02.2022
3810 Clouds 13 1020 84 10000 2.52 51 03:50 09.02.2022
3811 Clouds 12 1018 87 10000 2.52 52 01:27 09.02.2022
3812 Clouds 13 1017 88 10000 2.37 46 23:34 08.02.2022
3813 Clouds 13 1017 88 10000 2.37 49 22:50 08.02.2022
3814 Clouds 14 1016 88 10000 2.29 49 22:22 08.02.2022
3815 Clouds 14 1016 88 10000 2.29 49 21:49 08.02.2022
3816 Clouds 14 1016 88 10000 2.47 50 21:21 08.02.2022
3817 Clouds 14 1016 88 10000 2.47 50 20:45 08.02.2022
3818 Clouds 14 1017 89 10000 2.54 52 19:46 08.02.2022
3819 Clouds 14 1017 88 10000 2.53 47 18:38 08.02.2022
3820 Clouds 14 1017 89 10000 2.52 46 17:43 08.02.2022
3821 Clouds 15 1018 89 10000 2.47 48 16:30 08.02.2022
3822 Clouds 15 1018 89 10000 2.49 47 15:30 08.02.2022
3823 Clouds 15 1018 89 10000 2.49 47 15:30 08.02.2022
3824 Clouds 15 1017 89 10000 2.26 50 14:36 08.02.2022
3825 Clouds 15 1015 87 10000 1.67 73 13:20 08.02.2022
3826 Clouds 16 1014 87 10000 2.18 83 11:33 08.02.2022
3827 Clouds 16 1013 86 10000 3.32 94 10:23 08.02.2022
3828 Clouds 16 1013 86 10000 3.32 94 09:44 08.02.2022
3829 Clouds 16 1014 85 10000 2.66 107 07:51 08.02.2022
3830 Clouds 16 1016 87 10000 2.21 89 05:41 08.02.2022
3831 Clouds 16 1017 86 10000 2.13 82 04:39 08.02.2022
3832 Clouds 16 1017 86 10000 2.31 74 04:21 08.02.2022
3833 Clouds 16 1017 87 10000 2.52 67 03:36 08.02.2022
3834 Clouds 16 1017 87 10000 2.52 67 03:18 08.02.2022
3835 Clouds 16 1017 87 10000 2.52 67 02:58 08.02.2022
3836 Clouds 16 1017 87 10000 2.52 67 02:36 08.02.2022
3837 Clouds 16 1016 88 10000 2.52 62 02:18 08.02.2022
3838 Clouds 16 1016 88 10000 2.52 62 01:43 08.02.2022
3839 Clouds 16 1016 89 10000 2.45 62 01:24 08.02.2022
3840 Clouds 16 1016 89 10000 2.45 62 00:53 08.02.2022
3841 Clouds 16 1015 90 10000 2.55 63 23:54 07.02.2022
3842 Clouds 16 1015 90 10000 2.55 63 23:36 07.02.2022
3843 Clouds 16 1014 90 10000 2.45 59 23:18 07.02.2022
3844 Clouds 16 1014 91 10000 2.27 66 22:19 07.02.2022
3845 Clouds 17 1014 91 10000 2.27 66 21:53 07.02.2022
3846 Clouds 17 1014 91 10000 1.89 79 21:29 07.02.2022
3847 Clouds 17 1014 91 10000 1.89 79 20:56 07.02.2022
3848 Clouds 17 1014 91 10000 1.89 79 20:38 07.02.2022
3849 Clouds 17 1014 90 10000 1.67 97 19:49 07.02.2022
3850 Clouds 17 1014 90 10000 1.67 97 19:31 07.02.2022
3851 Clouds 20 1015 88 10000 2.38 118 17:41 07.02.2022
3852 Clouds 17 1015 84 10000 2.17 112 16:52 07.02.2022
3853 Clouds 17 1015 80 10000 2.19 100 15:49 07.02.2022
3854 Clouds 18 1015 77 10000 2.11 74 14:44 07.02.2022
3855 Clouds 19 1013 73 10000 2.21 75 13:27 07.02.2022
3856 Clouds 19 1013 73 10000 2.21 75 12:38 07.02.2022
3857 Clouds 19 1012 69 10000 2.47 86 11:55 07.02.2022
3858 Clouds 19 1011 62 10000 2.95 86 11:26 07.02.2022
3859 Clouds 19 1011 62 10000 2.95 86 10:45 07.02.2022
3860 Clouds 19 1011 59 10000 2.42 86 10:26 07.02.2022
3861 Clouds 20 1011 59 10000 2.42 86 09:52 07.02.2022
3862 Clouds 20 1011 59 10000 1.64 68 09:18 07.02.2022
3863 Clouds 19 1012 61 10000 1.23 350 07:59 07.02.2022
3864 Clouds 18 1013 67 10000 1.67 337 06:35 07.02.2022
3865 Clouds 16 1016 76 10000 2.08 332 05:26 07.02.2022
3866 Clouds 14 1017 84 10000 2.45 322 02:56 07.02.2022
3867 Clouds 14 1015 92 10000 1.31 355 00:29 07.02.2022
3868 Clouds 14 1015 92 10000 1.31 355 23:40 06.02.2022
3869 Clouds 14 1014 92 10000 1.45 6 22:46 06.02.2022
3870 Clouds 14 1015 92 10000 1.62 357 21:51 06.02.2022
3871 Clouds 14 1015 92 10000 0.88 20 21:21 06.02.2022
3872 Clouds 14 1015 92 10000 0.88 20 21:21 06.02.2022
3873 Clouds 14 1015 92 10000 0.88 20 21:21 06.02.2022
3874 Clouds 14 1015 92 10000 0.88 20 20:48 06.02.2022
3875 Clouds 14 1015 92 10000 0.52 104 20:24 06.02.2022
3876 Clouds 14 1015 92 10000 0.52 104 19:30 06.02.2022
3877 Clouds 14 1016 89 10000 1.21 133 18:34 06.02.2022
3878 Clouds 13 1017 90 10000 0.33 144 17:39 06.02.2022
3879 Clouds 13 1018 90 10000 0.85 301 16:52 06.02.2022
3880 Clouds 13 1018 88 10000 1.07 325 16:29 06.02.2022
3881 Clouds 13 1018 88 10000 1.07 325 15:47 06.02.2022
3882 Clouds 13 1018 88 10000 1.07 325 15:47 06.02.2022
3883 Clouds 13 1018 86 10000 0.49 326 15:25 06.02.2022
3884 Clouds 13 1017 86 10000 0.78 22 14:23 06.02.2022
3885 Clouds 13 1017 86 10000 0.97 340 13:23 06.02.2022
3886 Clouds 13 1017 84 10000 1.27 6 12:33 06.02.2022
3887 Clouds 13 1016 81 10000 0.85 349 10:43 06.02.2022
3888 Clouds 13 1016 81 10000 0.57 50 09:48 06.02.2022
3889 Clouds 13 1016 81 10000 0.85 330 08:41 06.02.2022
3890 Clouds 13 1017 80 10000 0.96 328 07:36 06.02.2022
3891 Clouds 13 1021 80 10000 1.52 334 05:28 06.02.2022
3892 Rain 12 1021 83 10000 0.34 301 02:25 06.02.2022
3893 Rain 12 1020 89 10000 0.47 76 00:49 06.02.2022
3894 Clouds 13 1020 88 10000 0.79 37 00:22 06.02.2022
3895 Clouds 12 1020 82 10000 0.3 73 21:48 05.02.2022
3896 Clouds 12 1020 81 10000 0.74 55 20:47 05.02.2022
3897 Clouds 12 1021 75 10000 0.4 102 20:22 05.02.2022
3898 Clouds 12 1021 75 10000 0.4 102 19:42 05.02.2022
3899 Rain 12 1021 72 10000 1.74 169 18:37 05.02.2022
3900 Clouds 13 1022 70 10000 1.52 178 17:35 05.02.2022
3901 Clouds 13 1021 65 10000 1.57 164 16:20 05.02.2022
3902 Rain 14 1021 65 10000 1.57 164 15:31 05.02.2022
3903 Rain 14 1021 61 10000 1.59 139 13:38 05.02.2022
3904 Rain 14 1020 57 10000 2.16 128 12:46 05.02.2022
3905 Rain 16 1019 54 10000 2.06 122 11:47 05.02.2022
3906 Rain 16 1019 49 10000 2.41 115 10:44 05.02.2022
3907 Rain 16 1019 48 10000 2.11 102 09:51 05.02.2022
3908 Clouds 17 1019 47 10000 1.9 86 08:47 05.02.2022
3909 Clouds 16 1022 50 10000 2.47 41 06:59 05.02.2022
3910 Clouds 17 1022 50 10000 2.47 41 06:35 05.02.2022
3911 Clouds 14 1024 61 10000 2.67 28 02:40 05.02.2022
3912 Clouds 14 1023 68 10000 1.68 14 01:18 05.02.2022
3913 Clouds 14 1023 67 10000 1.69 11 00:36 05.02.2022
3914 Clouds 14 1022 68 10000 1.73 21 23:33 04.02.2022
3915 Clouds 14 1022 68 10000 1.73 21 22:39 04.02.2022
3916 Clouds 15 1022 69 10000 2.07 15 21:36 04.02.2022
3917 Clouds 15 1022 71 10000 2.19 23 21:18 04.02.2022
3918 Clouds 15 1022 71 10000 1.89 42 20:29 04.02.2022
3919 Clouds 15 1023 69 10000 1.99 38 18:35 04.02.2022
3920 Clear 16 1023 65 10000 2.54 29 16:20 04.02.2022
3921 Clear 16 1023 64 10000 2.59 38 15:18 04.02.2022
3922 Clear 16 1022 62 10000 2.38 48 14:26 04.02.2022
3923 Clouds 16 1021 58 10000 2.15 50 12:43 04.02.2022
3924 Clouds 17 1020 55 10000 2.27 53 11:44 04.02.2022
3925 Clouds 17 1020 55 10000 2.27 53 11:44 04.02.2022
3926 Clouds 17 1020 49 10000 2.79 40 10:53 04.02.2022
3927 Clouds 18 1020 48 10000 3.07 33 09:31 04.02.2022
3928 Clouds 17 1021 50 10000 3.65 19 07:35 04.02.2022
3929 Clouds 14 1024 58 10000 3.26 8 03:28 04.02.2022
3930 Clouds 14 1024 58 10000 3.26 8 02:33 04.02.2022
3931 Clouds 14 1021 61 10000 2.48 14 23:34 03.02.2022
3932 Clouds 14 1020 61 10000 2.57 18 22:48 03.02.2022
3933 Clouds 14 1020 60 10000 2.49 22 21:50 03.02.2022
3934 Clouds 14 1020 60 10000 2.43 32 20:50 03.02.2022
3935 Clouds 14 1020 60 10000 2.59 31 20:20 03.02.2022
3936 Clouds 14 1020 60 10000 2.59 31 19:34 03.02.2022
3937 Clouds 14 1020 59 10000 2.61 35 18:48 03.02.2022
3938 Clouds 14 1021 61 10000 2.69 29 17:47 03.02.2022
3939 Clouds 15 1021 61 10000 2.83 30 16:39 03.02.2022
3940 Clouds 15 1020 62 10000 2.59 28 14:54 03.02.2022
3941 Clouds 15 1019 59 10000 2.02 14 13:18 03.02.2022
3942 Clouds 16 1017 57 10000 1.67 56 11:43 03.02.2022
3943 Clouds 16 1017 49 10000 2.95 31 08:40 03.02.2022
3944 Clouds 16 1019 57 10000 3.03 21 07:20 03.02.2022
3945 Clouds 12 1020 67 10000 3.04 7 00:33 03.02.2022
3946 Clouds 12 1020 67 10000 3.09 9 23:45 02.02.2022
3947 Clouds 12 1019 66 10000 3.07 5 22:35 02.02.2022
3948 Clouds 12 1019 66 10000 3.43 8 21:37 02.02.2022
3949 Clouds 12 1019 67 10000 3.78 8 20:53 02.02.2022
3950 Clouds 12 1020 67 10000 3.82 16 19:59 02.02.2022
3951 Clouds 12 1020 67 10000 3.82 16 19:32 02.02.2022
3952 Clouds 12 1020 67 10000 4.14 22 18:50 02.02.2022
3953 Clouds 12 1021 70 10000 4.23 19 18:22 02.02.2022
3954 Clouds 12 1021 69 10000 4.21 22 17:19 02.02.2022
3955 Clouds 12 1021 69 10000 4.21 22 16:42 02.02.2022
3956 Clouds 13 1020 69 10000 4.16 23 13:35 02.02.2022
3957 Clouds 13 1018 70 10000 4 28 12:25 02.02.2022
3958 Clouds 14 1018 70 10000 4 28 11:34 02.02.2022
3959 Clouds 14 1017 69 10000 4.11 31 10:31 02.02.2022
3960 Clouds 13 1017 69 10000 4.36 32 07:40 02.02.2022
3961 Clouds 12 1017 74 10000 2.29 28 22:52 01.02.2022
3962 Clouds 11 1017 74 10000 2.66 28 21:52 01.02.2022
3963 Clouds 11 1017 73 10000 2.56 19 20:36 01.02.2022
3964 Clouds 12 1019 71 10000 2.83 29 17:50 01.02.2022
3965 Clouds 13 1019 70 10000 3.14 36 16:40 01.02.2022
3966 Clouds 13 1019 68 10000 3.1 23 14:49 01.02.2022
3967 Clouds 13 1017 65 10000 2.84 19 12:47 01.02.2022
3968 Clouds 14 1016 63 10000 2.7 28 11:34 01.02.2022
3969 Clouds 13 1020 64 10000 2.24 7 04:53 01.02.2022
3970 Clouds 12 1019 74 10000 2.22 2 23:42 31.01.2022
3971 Clouds 12 1019 74 10000 2.22 2 23:42 31.01.2022
3972 Clouds 12 1018 74 10000 2.51 0 23:21 31.01.2022
3973 Clouds 12 1018 73 10000 2.81 359 21:42 31.01.2022
3974 Clouds 12 1018 72 10000 2.94 2 21:19 31.01.2022
3975 Clouds 12 1018 72 10000 2.94 2 20:32 31.01.2022
3976 Clouds 12 1018 72 10000 3.3 6 19:45 31.01.2022
3977 Clouds 12 1020 72 10000 2.93 7 18:26 31.01.2022
3978 Clouds 12 1019 76 10000 2.82 19 17:41 31.01.2022
3979 Clouds 13 1020 76 10000 2.94 14 16:38 31.01.2022
3980 Clouds 13 1020 76 10000 3.13 18 15:41 31.01.2022
3981 Clouds 13 1020 76 10000 3.22 25 14:22 31.01.2022
3982 Clouds 13 1019 76 10000 3.47 22 12:39 31.01.2022
3983 Clouds 13 1018 76 10000 3.4 21 11:55 31.01.2022
3984 Clouds 14 1018 76 10000 3.99 25 10:50 31.01.2022
3985 Clouds 14 1018 76 10000 3.99 25 10:50 31.01.2022
3986 Clouds 14 1017 75 10000 4.17 14 10:25 31.01.2022
3987 Clouds 14 1017 71 10000 4.3 13 09:23 31.01.2022
3988 Clouds 14 1017 71 10000 4.3 13 08:47 31.01.2022
3989 Clouds 14 1017 72 10000 4.34 15 08:20 31.01.2022
3990 Clouds 13 1019 74 10000 4.58 15 06:18 31.01.2022
3991 Clouds 11 1018 79 10000 3.49 357 00:55 31.01.2022
3992 Clouds 11 1017 79 10000 2.8 4 22:55 30.01.2022
3993 Clouds 11 1017 77 10000 3.36 4 22:25 30.01.2022
3994 Clouds 12 1017 77 10000 3.36 4 21:40 30.01.2022
3995 Clouds 12 1017 78 10000 3.11 14 21:18 30.01.2022
3996 Clouds 12 1017 78 10000 3.11 14 20:46 30.01.2022
3997 Clouds 11 1017 76 10000 2.83 24 20:27 30.01.2022
3998 Clouds 11 1017 76 10000 2.83 24 19:45 30.01.2022
3999 Clouds 11 1018 73 10000 3.14 27 18:43 30.01.2022
4000 Clouds 11 1018 71 10000 3.17 33 18:18 30.01.2022
4001 Clouds 11 1018 70 10000 2.81 34 17:22 30.01.2022
4002 Clouds 11 1018 70 10000 2.81 34 16:39 30.01.2022
4003 Clouds 11 1018 69 10000 2.62 31 16:21 30.01.2022
4004 Clouds 11 1018 69 10000 2.62 31 15:50 30.01.2022
4005 Clouds 11 1018 69 10000 2.62 31 15:31 30.01.2022
4006 Clouds 11 1018 69 10000 2.56 40 14:46 30.01.2022
4007 Clouds 11 1018 69 10000 2.56 40 14:46 30.01.2022
4008 Clouds 12 1017 69 10000 2.59 49 12:47 30.01.2022
4009 Clouds 12 1016 69 10000 2.36 51 11:57 30.01.2022
4010 Clouds 13 1015 68 10000 2.53 67 10:32 30.01.2022
4011 Clouds 13 1015 67 10000 2.94 72 09:50 30.01.2022
4012 Clouds 13 1015 66 10000 2.5 57 08:54 30.01.2022
4013 Clouds 14 1016 66 10000 2.66 50 07:28 30.01.2022
4014 Clouds 14 1018 68 10000 3.34 28 01:56 30.01.2022
4015 Clouds 14 1018 68 10000 3.34 28 01:56 30.01.2022
4016 Clouds 14 1016 70 10000 3.38 21 00:22 30.01.2022
4017 Clouds 13 1015 69 10000 3.5 19 22:58 29.01.2022
4018 Clouds 13 1016 68 10000 3.3 17 21:47 29.01.2022
4019 Clouds 13 1016 68 10000 3.95 18 21:23 29.01.2022
4020 Clouds 13 1016 70 10000 4.36 19 20:22 29.01.2022
4021 Clouds 14 1016 70 10000 4.36 19 19:33 29.01.2022
4022 Clouds 14 1017 72 10000 4.76 21 18:51 29.01.2022
4023 Clouds 14 1017 79 10000 4.43 19 18:18 29.01.2022
4024 Clouds 14 1016 80 10000 5.1 25 17:28 29.01.2022
4025 Clouds 14 1016 78 10000 5.06 29 15:50 29.01.2022
4026 Clouds 14 1014 79 10000 5.89 33 13:59 29.01.2022
4027 Clouds 14 1014 79 10000 5.89 33 13:41 29.01.2022
4028 Clouds 14 1012 81 10000 5.23 41 13:22 29.01.2022
4029 Clouds 14 1011 82 10000 4.93 46 11:40 29.01.2022
4030 Clouds 14 1010 83 10000 4.95 46 10:46 29.01.2022
4031 Clouds 14 1009 83 10000 4.18 96 08:42 29.01.2022
4032 Clouds 18 1013 85 10000 4.02 117 03:53 29.01.2022
4033 Clouds 20 1012 87 10000 3.94 115 00:34 29.01.2022
4034 Clouds 20 1011 88 10000 4.21 115 23:43 28.01.2022
4035 Clouds 20 1011 89 10000 4.14 115 22:48 28.01.2022
4036 Clouds 20 1011 89 10000 4.29 115 22:20 28.01.2022
4037 Clouds 20 1011 88 10000 4.01 112 20:42 28.01.2022
4038 Clouds 21 1011 88 10000 4.24 117 19:59 28.01.2022
4039 Clouds 21 1012 87 10000 4.53 121 19:18 28.01.2022
4040 Clouds 21 1012 87 10000 4.53 121 18:35 28.01.2022
4041 Clouds 21 1013 86 10000 4.42 124 16:37 28.01.2022
4042 Clouds 22 1013 88 10000 4.27 126 14:58 28.01.2022
4043 Clouds 23 1011 84 10000 5.06 124 13:21 28.01.2022
4044 Clouds 24 1010 75 10000 5.67 126 11:50 28.01.2022
4045 Clouds 25 1009 65 10000 6.64 131 10:27 28.01.2022
4046 Clouds 26 1009 65 10000 6.64 131 09:47 28.01.2022
4047 Clouds 25 1010 55 10000 5.32 157 07:42 28.01.2022
4048 Clouds 24 1013 56 10000 4.97 158 06:29 28.01.2022
4049 Clouds 23 1015 67 10000 4.53 141 03:51 28.01.2022
4050 Clouds 21 1014 85 10000 4.1 130 02:27 28.01.2022
4051 Clouds 21 1014 85 10000 4.1 130 01:37 28.01.2022
4052 Clouds 21 1014 85 10000 4.1 130 01:37 28.01.2022
4053 Clouds 21 1014 93 10000 3.4 129 00:42 28.01.2022
4054 Clouds 20 1012 90 10000 4.09 122 22:20 27.01.2022
4055 Clouds 21 1012 90 10000 4.09 122 21:37 27.01.2022
4056 Clouds 21 1013 90 10000 4.16 118 20:59 27.01.2022
4057 Clouds 21 1013 90 10000 4.16 118 20:59 27.01.2022
4058 Clouds 21 1013 90 10000 4.22 120 19:38 27.01.2022
4059 Clouds 21 1014 91 10000 4.03 123 18:19 27.01.2022
4060 Clouds 22 1014 91 10000 4.09 128 16:55 27.01.2022
4061 Clouds 22 1013 86 10000 4.54 137 13:58 27.01.2022
4062 Clouds 23 1012 83 10000 4.52 131 12:49 27.01.2022
4063 Clouds 24 1010 73 10000 5.64 134 11:53 27.01.2022
4064 Clouds 25 1010 63 10000 6.37 144 09:48 27.01.2022
4065 Clouds 25 1010 63 10000 6.37 144 09:48 27.01.2022
4066 Clouds 26 1010 63 10000 5.96 156 08:40 27.01.2022
4067 Clouds 25 1011 62 10000 5.81 155 07:31 27.01.2022
4068 Clouds 21 1015 82 10000 4.12 139 03:19 27.01.2022
4069 Clouds 20 1013 93 10000 2.73 119 00:23 27.01.2022
4070 Clouds 20 1012 94 10000 2.89 127 22:27 26.01.2022
4071 Clouds 20 1012 94 10000 2.89 127 21:44 26.01.2022
4072 Clouds 20 1012 94 10000 3.21 130 20:43 26.01.2022
4073 Clouds 20 1013 93 10000 3.58 131 20:24 26.01.2022
4074 Clouds 21 1013 93 10000 3.58 131 19:30 26.01.2022
4075 Clouds 21 1013 93 10000 3.51 132 18:46 26.01.2022
4076 Clouds 21 1014 92 10000 3.41 126 17:53 26.01.2022
4077 Clouds 21 1014 92 10000 3.57 129 17:32 26.01.2022
4078 Clouds 21 1014 92 10000 3.57 129 16:46 26.01.2022
4079 Clouds 21 1014 91 10000 3.95 128 15:50 26.01.2022
4080 Clouds 21 1014 91 10000 4.12 121 14:30 26.01.2022
4081 Clouds 22 1011 88 10000 4.73 110 11:59 26.01.2022
4082 Clouds 23 1011 82 10000 5.44 122 10:49 26.01.2022
4083 Clouds 23 1011 78 10000 5.18 124 09:50 26.01.2022
4084 Clouds 23 1011 79 10000 4.51 130 08:32 26.01.2022
4085 Clouds 21 1014 81 10000 4.23 136 06:20 26.01.2022
4086 Clouds 21 1014 81 10000 4.23 136 06:20 26.01.2022
4087 Clouds 19 1013 93 10000 2.4 152 00:18 26.01.2022
4088 Clouds 20 1013 93 10000 2.77 153 23:28 25.01.2022
4089 Clouds 19 1013 93 10000 2.77 153 22:48 25.01.2022
4090 Clouds 19 1012 92 10000 2.97 150 22:18 25.01.2022
4091 Clouds 19 1013 92 10000 2.75 151 21:22 25.01.2022
4092 Clouds 20 1013 92 10000 2.75 151 20:44 25.01.2022
4093 Clouds 20 1013 91 10000 2.84 154 19:53 25.01.2022
4094 Clouds 20 1013 91 10000 2.84 154 19:53 25.01.2022
4095 Clouds 20 1014 88 10000 3.08 149 18:43 25.01.2022
4096 Clouds 20 1014 88 10000 3.09 151 17:45 25.01.2022
4097 Clouds 21 1014 88 10000 3.18 156 16:47 25.01.2022
4098 Clouds 20 1014 88 10000 3.68 157 16:21 25.01.2022
4099 Clouds 21 1014 88 10000 3.68 157 15:38 25.01.2022
4100 Clouds 21 1013 86 10000 3.79 151 14:58 25.01.2022
4101 Clouds 21 1013 84 10000 4.23 141 13:46 25.01.2022
4102 Clouds 21 1011 79 10000 4.67 133 10:59 25.01.2022
4103 Clouds 22 1011 72 10000 4.1 154 09:20 25.01.2022
4104 Clouds 22 1012 74 10000 3.62 148 07:30 25.01.2022
4105 Clouds 21 1013 77 10000 3.23 142 06:50 25.01.2022
4106 Clouds 22 1015 83 10000 3.37 134 05:22 25.01.2022
4107 Clouds 20 1013 90 10000 2.77 140 23:37 24.01.2022
4108 Clouds 20 1012 91 10000 2.99 143 23:19 24.01.2022
4109 Clouds 20 1012 91 10000 2.99 143 22:59 24.01.2022
4110 Clouds 20 1012 91 10000 2.99 143 22:41 24.01.2022
4111 Clouds 20 1012 91 10000 3.2 144 21:53 24.01.2022
4112 Clouds 20 1012 91 10000 3.26 146 21:29 24.01.2022
4113 Clouds 20 1012 91 10000 3.26 146 20:30 24.01.2022
4114 Clouds 20 1012 92 10000 3.22 144 19:50 24.01.2022
4115 Clouds 20 1013 93 10000 3 146 19:24 24.01.2022
4116 Clouds 21 1013 93 10000 2.31 154 18:18 24.01.2022
4117 Clouds 21 1013 94 10000 2.07 164 17:24 24.01.2022
4118 Clouds 21 1013 94 10000 2.07 164 16:52 24.01.2022
4119 Clear 22 1013 93 10000 2.15 167 16:19 24.01.2022
4120 Clear 22 1012 91 10000 2.28 152 14:38 24.01.2022
4121 Clouds 23 1011 86 10000 3.57 137 12:58 24.01.2022
4122 Clouds 24 1010 82 10000 3.69 136 12:23 24.01.2022
4123 Clouds 26 1009 73 10000 3.89 133 10:30 24.01.2022
4124 Clouds 27 1009 71 10000 3.63 139 09:48 24.01.2022
4125 Clouds 26 1010 71 10000 3.2 147 08:34 24.01.2022
4126 Clouds 25 1012 78 10000 2.51 140 06:19 24.01.2022
4127 Clouds 20 1012 90 10000 1.32 146 01:30 24.01.2022
4128 Clouds 20 1011 92 10000 1.11 132 00:35 24.01.2022
4129 Clouds 21 1011 92 10000 1.12 139 23:49 23.01.2022
4130 Clouds 21 1011 92 10000 1.12 139 23:49 23.01.2022
4131 Clouds 20 1010 92 10000 1.12 134 22:28 23.01.2022
4132 Clouds 20 1010 92 10000 1.12 134 21:46 23.01.2022
4133 Clouds 20 1010 91 10000 1.43 139 21:25 23.01.2022
4134 Clouds 20 1010 91 10000 1.43 139 20:44 23.01.2022
4135 Clouds 21 1010 93 10000 1.58 139 19:43 23.01.2022
4136 Clouds 21 1011 96 10000 1.46 113 18:50 23.01.2022
4137 Clear 21 1011 95 10000 1.32 123 17:34 23.01.2022
4138 Clear 22 1011 94 10000 1.96 140 16:45 23.01.2022
4139 Clear 22 1011 93 10000 3.03 140 14:59 23.01.2022
4140 Clear 23 1010 90 10000 2.82 127 14:21 23.01.2022
4141 Clouds 22 1010 86 10000 2.46 111 12:51 23.01.2022
4142 Clouds 22 1008 78 10000 2.93 104 12:22 23.01.2022
4143 Clouds 23 1008 78 10000 2.93 104 11:51 23.01.2022
4144 Clouds 23 1008 69 10000 3.31 104 11:18 23.01.2022
4145 Clouds 24 1008 63 10000 3.13 101 10:27 23.01.2022
4146 Clouds 24 1008 63 10000 3.13 101 09:51 23.01.2022
4147 Clouds 24 1008 62 10000 2.09 121 08:51 23.01.2022
4148 Clouds 20 1011 72 10000 1.09 141 05:55 23.01.2022
4149 Clouds 18 1012 94 10000 0.44 142 01:49 23.01.2022
4150 Clouds 18 1011 96 10000 0.43 118 01:25 23.01.2022
4151 Clouds 18 1010 97 10000 0.33 14 00:23 23.01.2022
4152 Clouds 18 1010 97 10000 0.33 14 23:44 22.01.2022
4153 Clouds 18 1009 97 10000 0.13 12 22:40 22.01.2022
4154 Clouds 18 1009 97 10000 0.47 105 21:28 22.01.2022
4155 Clouds 18 1009 97 10000 1.13 136 19:51 22.01.2022
4156 Clouds 19 1010 97 10000 1.55 135 18:49 22.01.2022
4157 Clouds 20 1011 97 10000 0.88 105 17:59 22.01.2022
4158 Clouds 20 1011 97 10000 0.88 105 17:35 22.01.2022
4159 Clouds 20 1011 96 10000 0.95 78 16:55 22.01.2022
4160 Clouds 20 1011 95 10000 1.1 84 15:49 22.01.2022
4161 Clouds 20 1011 95 10000 1.57 84 14:57 22.01.2022
4162 Clouds 21 1010 93 10000 2.15 83 13:39 22.01.2022
4163 Clouds 21 1009 87 10000 2.55 85 12:48 22.01.2022
4164 Clouds 20 1008 84 10000 2.55 78 12:28 22.01.2022
4165 Clouds 21 1008 79 10000 1.85 79 10:56 22.01.2022
4166 Clouds 21 1008 74 10000 1.19 97 10:28 22.01.2022
4167 Clouds 21 1008 74 10000 1.19 97 09:57 22.01.2022
4168 Clouds 21 1008 73 10000 0.55 122 08:51 22.01.2022
4169 Clouds 20 1010 80 10000 0.47 71 07:29 22.01.2022
4170 Clouds 17 1013 90 10000 1.13 321 04:52 22.01.2022
4171 Clouds 16 1013 94 10000 0.59 326 01:34 22.01.2022
4172 Clouds 16 1011 95 10000 0.22 241 23:35 21.01.2022
4173 Clouds 16 1011 94 10000 1.04 113 22:20 21.01.2022
4174 Clouds 16 1012 94 10000 0.16 53 20:20 21.01.2022
4175 Clouds 16 1013 94 10000 1.42 303 18:36 21.01.2022
4176 Clouds 16 1015 94 10000 1.47 290 17:25 21.01.2022
4177 Rain 16 1015 94 10000 1.58 22 15:28 21.01.2022
4178 Rain 16 1014 93 9117 1.5 327 13:18 21.01.2022
4179 Rain 16 1014 94 8982 1.74 322 12:37 21.01.2022
4180 Rain 16 1013 92 10000 1.58 337 11:27 21.01.2022
4181 Rain 16 1013 91 10000 1.73 335 10:18 21.01.2022
4182 Clouds 16 1014 87 9509 1.52 321 08:23 21.01.2022
4183 Clouds 16 1017 73 10000 1.61 353 04:49 21.01.2022
4184 Clouds 16 1015 76 10000 1.49 34 23:27 20.01.2022
4185 Clouds 16 1015 76 10000 1.35 50 21:50 20.01.2022
4186 Clouds 16 1015 76 10000 1.35 50 21:32 20.01.2022
4187 Clouds 16 1016 76 10000 1.52 55 20:31 20.01.2022
4188 Clouds 16 1016 76 10000 1.5 61 19:19 20.01.2022
4189 Clouds 16 1017 72 10000 1.56 61 18:18 20.01.2022
4190 Clouds 17 1017 71 10000 1.57 53 16:53 20.01.2022
4191 Clouds 17 1017 71 10000 1.67 50 15:40 20.01.2022
4192 Clouds 17 1017 71 10000 1.45 43 14:40 20.01.2022
4193 Clouds 17 1016 70 10000 1.33 63 13:32 20.01.2022
4194 Clouds 17 1015 71 10000 2.5 113 12:31 20.01.2022
4195 Clouds 17 1014 69 10000 2.55 133 11:36 20.01.2022
4196 Clouds 17 1014 64 10000 2.8 141 10:38 20.01.2022
4197 Clouds 17 1014 62 10000 2.63 147 09:34 20.01.2022
4198 Clouds 17 1016 58 10000 2.16 160 07:33 20.01.2022
4199 Clouds 15 1017 71 10000 1.94 112 00:43 20.01.2022
4200 Clouds 16 1016 73 10000 2.06 126 22:52 19.01.2022
4201 Clouds 16 1016 74 10000 2.31 137 21:45 19.01.2022
4202 Clouds 16 1016 74 10000 2.29 146 21:22 19.01.2022
4203 Clouds 16 1016 74 10000 2.29 146 20:46 19.01.2022
4204 Clouds 16 1017 73 10000 2.78 153 19:27 19.01.2022
4205 Clouds 17 1017 71 10000 3 162 17:52 19.01.2022
4206 Clouds 17 1017 71 10000 3 162 17:32 19.01.2022
4207 Clouds 18 1017 69 10000 3.79 159 16:27 19.01.2022
4208 Clouds 19 1016 53 10000 2.45 125 13:42 19.01.2022
4209 Clouds 19 1015 44 10000 0.26 7 12:24 19.01.2022
4210 Clouds 20 1015 44 10000 0.26 7 11:38 19.01.2022
4211 Clear 21 1015 38 10000 0.94 119 10:20 19.01.2022
4212 Clear 22 1015 38 10000 0.94 119 09:33 19.01.2022
4213 Clear 20 1017 39 10000 1.1 25 06:34 19.01.2022
4214 Clear 14 1021 63 10000 1.68 44 01:40 19.01.2022
4215 Clear 13 1019 75 10000 1.44 75 23:18 18.01.2022
4216 Clear 14 1019 73 10000 1.26 88 21:56 18.01.2022
4217 Clear 14 1019 72 10000 1.25 108 20:47 18.01.2022
4218 Clear 15 1020 71 10000 1.39 130 19:54 18.01.2022
4219 Clear 15 1020 71 10000 1.39 130 19:35 18.01.2022
4220 Clouds 15 1020 68 10000 1.59 136 18:36 18.01.2022
4221 Clouds 15 1021 65 10000 1.62 123 17:48 18.01.2022
4222 Clouds 15 1021 62 10000 1.6 110 16:33 18.01.2022
4223 Clouds 17 1021 53 10000 1.43 60 15:26 18.01.2022
4224 Clouds 17 1021 53 10000 1.43 60 14:54 18.01.2022
4225 Clear 20 1019 46 10000 1.69 34 11:52 18.01.2022
4226 Clear 21 1018 41 10000 2.27 32 10:41 18.01.2022
4227 Clouds 21 1018 40 10000 2.82 25 08:49 18.01.2022
4228 Clouds 21 1019 41 10000 3.08 23 07:45 18.01.2022
4229 Clouds 16 1023 71 10000 2.53 335 02:20 18.01.2022
4230 Clouds 15 1022 81 10000 1.83 351 23:22 17.01.2022
4231 Clouds 15 1022 80 10000 2.47 340 21:58 17.01.2022
4232 Clouds 15 1022 80 10000 2.47 340 21:31 17.01.2022
4233 Clouds 15 1022 75 10000 3.19 347 19:42 17.01.2022
4234 Clouds 15 1023 81 10000 2.95 347 18:27 17.01.2022
4235 Clouds 15 1023 80 10000 2.67 1 17:22 17.01.2022
4236 Clouds 15 1024 82 10000 2.75 347 16:22 17.01.2022
4237 Clouds 15 1024 82 10000 2.43 339 14:58 17.01.2022
4238 Clouds 15 1024 82 10000 2.43 339 14:33 17.01.2022
4239 Clouds 15 1022 75 10000 3.07 2 13:19 17.01.2022
4240 Clouds 15 1022 80 10000 3.87 10 12:27 17.01.2022
4241 Clouds 15 1022 80 10000 3.85 10 11:33 17.01.2022
4242 Clouds 15 1020 82 10000 4.73 7 10:21 17.01.2022
4243 Clouds 16 1020 78 10000 4.69 7 08:44 17.01.2022
4244 Clouds 15 1021 76 10000 5.25 19 07:21 17.01.2022
4245 Clouds 14 1022 76 10000 5.05 17 01:52 17.01.2022
4246 Clouds 13 1020 75 10000 4.99 20 23:44 16.01.2022
4247 Clouds 14 1018 70 10000 3.26 37 21:21 16.01.2022
4248 Clouds 14 1018 70 10000 3.29 37 20:28 16.01.2022
4249 Clouds 15 1018 72 10000 4.4 36 18:46 16.01.2022
4250 Clouds 16 1018 73 10000 4.75 30 17:50 16.01.2022
4251 Clouds 16 1018 76 10000 4.4 23 16:54 16.01.2022
4252 Clouds 16 1019 78 10000 2.36 348 15:40 16.01.2022
4253 Clouds 17 1017 73 10000 0.91 171 14:29 16.01.2022
4254 Clouds 20 1016 70 10000 3.45 147 13:23 16.01.2022
4255 Clouds 20 1015 64 10000 4.75 146 11:58 16.01.2022
4256 Clouds 20 1014 58 10000 4.87 148 11:27 16.01.2022
4257 Clouds 21 1014 54 10000 4.25 154 10:27 16.01.2022
4258 Clouds 23 1014 54 10000 4.25 154 09:57 16.01.2022
4259 Clouds 23 1013 53 10000 4.01 159 09:23 16.01.2022
4260 Clouds 24 1013 53 10000 4.01 159 08:53 16.01.2022
4261 Clouds 22 1016 48 10000 5.49 177 05:52 16.01.2022
4262 Clouds 18 1017 93 10000 2.34 153 00:19 16.01.2022
4263 Clouds 18 1016 93 10000 1.9 146 22:38 15.01.2022
4264 Clouds 18 1016 91 10000 1.83 128 21:21 15.01.2022
4265 Clouds 19 1016 91 10000 1.83 128 20:43 15.01.2022
4266 Clouds 19 1016 90 10000 2.16 124 20:18 15.01.2022
4267 Clouds 19 1017 89 10000 2.56 128 19:25 15.01.2022
4268 Clouds 19 1017 87 10000 3.04 137 17:52 15.01.2022
4269 Clouds 19 1017 87 10000 3.05 140 16:42 15.01.2022
4270 Clouds 19 1017 81 10000 3.81 136 14:32 15.01.2022
4271 Clouds 19 1017 75 10000 3.53 134 14:32 15.01.2022
4272 Clouds 20 1016 70 10000 4.01 132 12:33 15.01.2022
4273 Clouds 20 1014 61 10000 2.77 137 11:19 15.01.2022
4274 Clouds 21 1014 59 10000 2.79 170 09:21 15.01.2022
4275 Clouds 16 1017 87 10000 0.76 17 00:52 15.01.2022
4276 Clouds 17 1016 87 10000 0.65 60 21:57 14.01.2022
4277 Clouds 17 1016 86 10000 0.7 86 20:51 14.01.2022
4278 Clouds 17 1016 86 10000 0.94 101 20:23 14.01.2022
4279 Clouds 17 1016 86 10000 0.94 101 19:48 14.01.2022
4280 Clouds 17 1017 91 10000 2.19 130 18:28 14.01.2022
4281 Clouds 17 1017 88 10000 2.55 129 16:50 14.01.2022
4282 Clouds 17 1017 84 10000 2.86 126 15:48 14.01.2022
4283 Clouds 17 1017 79 10000 2.73 117 14:47 14.01.2022
4284 Clouds 17 1017 75 10000 3.77 118 13:47 14.01.2022
4285 Clouds 17 1015 63 10000 2.54 120 12:31 14.01.2022
4286 Clouds 18 1015 60 10000 3.03 143 11:27 14.01.2022
4287 Clouds 18 1015 58 10000 3.11 147 09:50 14.01.2022
4288 Clouds 18 1015 57 10000 3.03 149 08:51 14.01.2022
4289 Clouds 17 1017 62 10000 2.24 137 06:57 14.01.2022
4290 Clouds 15 1020 68 10000 0.89 110 01:33 14.01.2022
4291 Clouds 15 1018 67 10000 0.73 130 23:19 13.01.2022
4292 Clouds 15 1018 66 10000 0.71 123 21:38 13.01.2022
4293 Clouds 15 1019 65 10000 0.5 153 21:19 13.01.2022
4294 Clouds 15 1019 64 10000 0.69 148 19:40 13.01.2022
4295 Clouds 15 1020 66 10000 0.5 137 19:22 13.01.2022
4296 Clouds 15 1020 65 10000 0.4 113 17:52 13.01.2022
4297 Clouds 16 1020 64 10000 0.99 99 16:21 13.01.2022
4298 Clouds 16 1020 64 10000 0.99 99 15:37 13.01.2022
4299 Clouds 16 1021 63 10000 0.91 48 14:46 13.01.2022
4300 Clouds 16 1020 64 10000 1.66 34 12:44 13.01.2022
4301 Clouds 16 1018 64 10000 2.36 25 10:25 13.01.2022
4302 Clouds 16 1018 65 10000 2.81 27 08:58 13.01.2022
4303 Clouds 16 1019 65 10000 2.86 27 08:26 13.01.2022
4304 Clouds 16 1020 65 10000 2.74 28 07:23 13.01.2022
4305 Clouds 17 1021 63 10000 2.36 33 05:59 13.01.2022
4306 Clouds 17 1022 65 10000 2.34 44 05:19 13.01.2022
4307 Clouds 15 1021 72 10000 2.62 46 01:56 13.01.2022
4308 Clouds 15 1020 75 10000 1.87 31 00:49 13.01.2022
4309 Clouds 15 1020 78 10000 1.76 49 23:46 12.01.2022
4310 Clouds 15 1019 80 10000 1.84 46 22:59 12.01.2022
4311 Clouds 16 1019 79 10000 1.78 30 21:57 12.01.2022
4312 Clouds 16 1019 79 10000 1.78 30 21:57 12.01.2022
4313 Clouds 16 1019 78 10000 1.57 37 21:22 12.01.2022
4314 Clouds 16 1019 78 10000 1.57 37 20:56 12.01.2022
4315 Clouds 17 1019 77 10000 1.48 67 19:41 12.01.2022
4316 Clouds 17 1019 78 10000 1.14 62 18:30 12.01.2022
4317 Clouds 17 1019 78 10000 1.14 62 18:30 12.01.2022
4318 Clouds 17 1020 75 10000 1.6 75 16:59 12.01.2022
4319 Clouds 17 1020 75 10000 1.87 51 16:26 12.01.2022
4320 Clouds 17 1020 75 10000 2.04 55 14:48 12.01.2022
4321 Clouds 18 1018 70 10000 2.15 46 12:58 12.01.2022
4322 Clouds 18 1016 62 10000 1.13 127 10:38 12.01.2022
4323 Clouds 18 1016 62 10000 2.34 147 08:37 12.01.2022
4324 Clouds 18 1017 64 10000 2.92 146 07:34 12.01.2022
4325 Clouds 18 1018 69 10000 2.21 157 06:49 12.01.2022
4326 Clouds 16 1018 77 10000 1.19 120 23:31 11.01.2022
4327 Clouds 16 1018 75 10000 1.3 129 22:49 11.01.2022
4328 Clouds 16 1017 70 10000 1.39 138 22:21 11.01.2022
4329 Clouds 16 1018 65 10000 1.25 131 20:51 11.01.2022
4330 Clouds 16 1018 62 10000 1.42 139 19:45 11.01.2022
4331 Clouds 17 1019 72 10000 2.45 146 18:31 11.01.2022
4332 Clouds 17 1019 61 10000 2.3 144 17:19 11.01.2022
4333 Clouds 17 1019 61 10000 2.3 144 16:37 11.01.2022
4334 Clouds 17 1020 56 10000 1.84 140 15:34 11.01.2022
4335 Clouds 18 1020 52 10000 0.89 105 14:41 11.01.2022
4336 Clouds 18 1020 49 10000 0.79 61 13:54 11.01.2022
4337 Clouds 18 1019 48 10000 1.05 63 13:32 11.01.2022
4338 Clouds 18 1019 48 10000 1.31 33 12:41 11.01.2022
4339 Clouds 19 1018 42 10000 1.85 71 10:59 11.01.2022
4340 Clouds 20 1018 38 10000 2.78 47 08:58 11.01.2022
4341 Clouds 18 1022 43 10000 4.2 37 06:28 11.01.2022
4342 Clouds 16 1021 56 10000 4.55 27 00:30 11.01.2022
4343 Clouds 17 1021 58 10000 4.84 28 23:41 10.01.2022
4344 Clouds 17 1020 60 10000 4.84 26 22:51 10.01.2022
4345 Clouds 17 1020 60 10000 4.84 26 22:51 10.01.2022
4346 Clouds 17 1020 62 10000 5.08 23 22:18 10.01.2022
4347 Clouds 17 1020 62 10000 5.08 23 21:48 10.01.2022
4348 Clouds 17 1020 64 10000 5.12 23 21:19 10.01.2022
4349 Clouds 17 1020 64 10000 5.12 23 20:56 10.01.2022
4350 Clouds 16 1020 66 10000 5.08 23 20:26 10.01.2022
4351 Clouds 16 1020 66 10000 5.08 23 19:41 10.01.2022
4352 Clouds 16 1020 76 10000 4.32 15 19:20 10.01.2022
4353 Clouds 16 1020 76 10000 4.32 15 18:48 10.01.2022
4354 Clouds 16 1020 82 10000 3.29 5 17:24 10.01.2022
4355 Clouds 15 1020 82 10000 3.29 5 16:41 10.01.2022
4356 Clouds 15 1019 85 10000 2.88 354 15:20 10.01.2022
4357 Clouds 15 1019 86 10000 2.49 347 13:41 10.01.2022
4358 Clouds 15 1017 84 10000 2.38 351 11:58 10.01.2022
4359 Clouds 15 1016 82 10000 2.47 10 11:24 10.01.2022
4360 Clouds 16 1015 81 10000 2.9 20 09:46 10.01.2022
4361 Clouds 15 1017 79 10000 2.11 23 06:22 10.01.2022
4362 Clouds 15 1017 79 10000 2.11 23 05:49 10.01.2022
4363 Clouds 13 1016 78 10000 0.91 96 01:26 10.01.2022
4364 Clouds 13 1016 79 10000 1.02 65 00:23 10.01.2022
4365 Clouds 13 1015 78 10000 1.09 73 23:28 09.01.2022
4366 Clouds 13 1015 78 10000 1.09 73 22:33 09.01.2022
4367 Clouds 13 1015 78 10000 1 65 21:44 09.01.2022
4368 Clouds 13 1015 77 10000 0.81 87 21:23 09.01.2022
4369 Clouds 13 1015 77 10000 0.81 87 20:50 09.01.2022
4370 Clouds 13 1015 76 10000 0.65 86 20:29 09.01.2022
4371 Clouds 13 1015 76 10000 0.65 86 19:44 09.01.2022
4372 Clouds 13 1016 76 10000 0.75 91 19:23 09.01.2022
4373 Clouds 14 1016 76 10000 0.75 91 18:49 09.01.2022
4374 Clouds 13 1017 78 10000 1.21 57 18:30 09.01.2022
4375 Clouds 14 1017 78 10000 1.21 57 17:30 09.01.2022
4376 Clouds 14 1017 78 10000 1.03 53 16:51 09.01.2022
4377 Clouds 14 1018 77 10000 1 37 15:57 09.01.2022
4378 Clouds 14 1018 77 10000 1.31 26 15:34 09.01.2022
4379 Clouds 14 1018 77 10000 1.31 26 14:40 09.01.2022
4380 Clouds 15 1017 77 10000 1.54 24 13:50 09.01.2022
4381 Clouds 15 1017 77 10000 1.74 24 12:48 09.01.2022
4382 Clouds 15 1016 79 10000 2.08 31 11:48 09.01.2022
4383 Clouds 15 1016 79 10000 2.49 37 10:49 09.01.2022
4384 Clouds 15 1016 79 10000 3 36 09:42 09.01.2022
4385 Clouds 15 1016 79 10000 2.64 38 08:31 09.01.2022
4386 Clouds 14 1020 73 10000 3.19 39 02:48 09.01.2022
4387 Clouds 14 1018 75 10000 3.33 37 01:21 09.01.2022
4388 Clouds 14 1017 77 10000 2.55 53 23:38 08.01.2022
4389 Clouds 14 1016 78 10000 2.57 56 22:59 08.01.2022
4390 Clouds 16 1016 79 10000 2.44 58 21:33 08.01.2022
4391 Clouds 16 1016 80 10000 2.31 68 20:58 08.01.2022
4392 Clouds 16 1016 80 10000 2.31 68 20:39 08.01.2022
4393 Clouds 16 1017 80 10000 2.16 83 20:19 08.01.2022
4394 Clouds 16 1018 76 10000 1.38 68 18:21 08.01.2022
4395 Clouds 16 1019 76 10000 1.52 75 17:21 08.01.2022
4396 Clouds 18 1019 76 10000 1.64 91 15:47 08.01.2022
4397 Clouds 19 1019 76 10000 1.76 92 14:43 08.01.2022
4398 Clouds 20 1017 75 10000 1.96 82 13:25 08.01.2022
4399 Clouds 20 1016 75 10000 2.68 109 11:24 08.01.2022
4400 Clouds 22 1015 74 10000 2.73 124 10:25 08.01.2022
4401 Clouds 22 1015 74 10000 2.73 124 09:47 08.01.2022
4402 Clouds 22 1017 71 10000 4.11 117 07:19 08.01.2022
4403 Clouds 19 1020 79 10000 3.13 103 02:39 08.01.2022
4404 Clouds 19 1018 82 10000 2.65 116 00:41 08.01.2022
4405 Clouds 19 1017 82 10000 3.02 120 22:40 07.01.2022
4406 Clouds 19 1018 84 10000 2.45 126 20:56 07.01.2022
4407 Clouds 20 1018 87 10000 2.32 140 19:56 07.01.2022
4408 Clouds 20 1018 87 10000 2.32 140 19:56 07.01.2022
4409 Clouds 20 1019 86 10000 2.43 147 18:58 07.01.2022
4410 Clouds 20 1019 85 10000 2.18 153 18:38 07.01.2022
4411 Clouds 20 1019 82 10000 2.74 152 17:25 07.01.2022
4412 Clouds 20 1020 79 10000 3.2 147 16:23 07.01.2022
4413 Clouds 22 1019 74 10000 4.24 135 13:53 07.01.2022
4414 Clouds 22 1019 70 10000 4.76 132 13:21 07.01.2022
4415 Clouds 22 1019 70 10000 4.76 132 12:49 07.01.2022
4416 Clouds 24 1016 53 10000 4.76 140 09:37 07.01.2022
4417 Clouds 20 1021 70 10000 2.23 131 02:55 07.01.2022
4418 Clouds 19 1020 74 10000 1.73 127 01:53 07.01.2022
4419 Clouds 19 1019 76 10000 1.77 128 01:27 07.01.2022
4420 Clouds 19 1019 76 10000 1.77 128 00:57 07.01.2022
4421 Clouds 18 1018 78 10000 2.06 111 22:46 06.01.2022
4422 Clouds 19 1018 78 10000 1.83 85 21:28 06.01.2022
4423 Clouds 19 1018 78 10000 2.1 108 20:21 06.01.2022
4424 Clouds 19 1018 78 10000 2.1 108 19:44 06.01.2022
4425 Clouds 20 1019 78 10000 1.47 107 17:54 06.01.2022
4426 Clouds 20 1019 78 10000 1.47 107 17:34 06.01.2022
4427 Clouds 20 1019 79 10000 1.09 136 16:40 06.01.2022
4428 Clouds 21 1019 79 10000 1.48 134 15:45 06.01.2022
4429 Clouds 21 1019 80 10000 1.64 122 15:24 06.01.2022
4430 Clouds 22 1018 81 10000 1.83 108 14:21 06.01.2022
4431 Clouds 22 1018 81 10000 1.83 108 13:47 06.01.2022
4432 Clouds 20 1017 82 10000 1.83 91 12:43 06.01.2022
4433 Clouds 24 1016 80 10000 1.74 93 11:42 06.01.2022
4434 Clouds 24 1016 73 10000 2.37 110 11:22 06.01.2022
4435 Clouds 24 1015 72 10000 1.78 115 08:51 06.01.2022
4436 Clouds 19 1018 93 10000 1.81 110 00:43 06.01.2022
4437 Clouds 19 1016 95 10000 1.75 105 23:36 05.01.2022
4438 Clear 19 1015 96 10000 2.19 120 22:54 05.01.2022
4439 Clear 19 1015 96 10000 2.19 120 22:30 05.01.2022
4440 Clear 19 1015 95 10000 2.58 123 21:46 05.01.2022
4441 Clear 20 1015 94 10000 2.17 117 20:50 05.01.2022
4442 Clear 20 1016 93 10000 1.79 111 19:59 05.01.2022
4443 Clouds 20 1016 90 10000 2.25 146 18:38 05.01.2022
4444 Clear 19 1017 86 10000 1.48 150 17:23 05.01.2022
4445 Clear 20 1017 86 10000 1.49 150 16:38 05.01.2022
4446 Clear 20 1017 82 10000 1.04 88 15:20 05.01.2022
4447 Clear 19 1016 81 10000 1.15 49 13:39 05.01.2022
4448 Clouds 20 1015 79 10000 1.63 48 12:51 05.01.2022
4449 Clouds 24 1014 68 10000 1.95 104 09:30 05.01.2022
4450 Clouds 24 1014 69 10000 0.81 179 07:42 05.01.2022
4451 Clouds 20 1018 81 10000 1.28 130 03:33 05.01.2022
4452 Clouds 17 1017 94 10000 1.25 121 00:44 05.01.2022
4453 Clouds 18 1016 96 10000 1.43 106 23:27 04.01.2022
4454 Clouds 18 1016 96 10000 1.43 106 22:40 04.01.2022
4455 Clouds 19 1016 95 10000 1.62 81 21:18 04.01.2022
4456 Clouds 20 1016 93 10000 2.45 127 19:19 04.01.2022
4457 Clouds 20 1017 94 10000 2.1 126 17:39 04.01.2022
4458 Clear 20 1017 91 10000 2.21 141 16:41 04.01.2022
4459 Clear 20 1017 88 10000 2.92 150 16:22 04.01.2022
4460 Clear 21 1018 83 10000 2.83 138 14:52 04.01.2022
4461 Clear 21 1018 83 10000 2.83 138 14:34 04.01.2022
4462 Clouds 23 1016 69 10000 2.04 119 13:26 04.01.2022
4463 Clouds 24 1014 59 10000 2.22 96 10:40 04.01.2022
4464 Clouds 24 1015 57 10000 0.2 21 08:59 04.01.2022
4465 Clouds 24 1015 57 10000 0.84 165 08:23 04.01.2022
4466 Clouds 18 1020 81 10000 1.12 121 01:51 04.01.2022
4467 Clouds 17 1018 84 10000 1.24 123 00:40 04.01.2022
4468 Clouds 17 1018 87 10000 1.47 133 22:51 03.01.2022
4469 Clouds 17 1018 88 10000 1.46 140 21:42 03.01.2022
4470 Clouds 17 1018 89 10000 1.74 146 21:23 03.01.2022
4471 Clouds 17 1018 89 10000 1.88 154 19:46 03.01.2022
4472 Clouds 16 1019 87 10000 1.87 144 18:33 03.01.2022
4473 Clouds 17 1019 85 10000 2.07 146 17:40 03.01.2022
4474 Clouds 18 1020 83 10000 2.75 151 16:57 03.01.2022
4475 Clouds 19 1020 79 10000 3.77 138 14:54 03.01.2022
4476 Clouds 19 1019 74 10000 4.17 137 13:53 03.01.2022
4477 Clouds 19 1018 67 10000 4.96 142 12:35 03.01.2022
4478 Clouds 20 1017 59 10000 5.12 145 11:33 03.01.2022
4479 Clouds 20 1016 45 10000 1.87 167 09:49 03.01.2022
4480 Clouds 20 1016 47 10000 1.66 148 08:28 03.01.2022
4481 Clear 19 1018 48 10000 1.77 134 06:47 03.01.2022
4482 Clear 12 1020 86 10000 1 100 23:47 02.01.2022
4483 Clear 13 1019 85 10000 1.07 102 23:18 02.01.2022
4484 Clear 13 1019 85 10000 1.07 102 22:42 02.01.2022
4485 Clear 13 1020 84 10000 1.25 119 21:32 02.01.2022
4486 Clouds 13 1020 82 10000 1.37 130 20:31 02.01.2022
4487 Clouds 13 1020 82 10000 1.37 130 20:30 02.01.2022
4488 Clouds 13 1020 82 10000 1.37 130 20:30 02.01.2022
4489 Clouds 13 1020 82 10000 1.37 130 20:30 02.01.2022
4490 Clouds 14 1020 80 10000 1.29 139 19:31 02.01.2022
4491 Clear 14 1021 82 10000 2.21 138 18:56 02.01.2022
4492 Clear 15 1021 80 10000 2.42 137 17:58 02.01.2022
4493 Clear 15 1021 80 10000 2.42 137 17:39 02.01.2022
4494 Clear 15 1021 78 10000 2.53 136 17:20 02.01.2022
4495 Clear 15 1022 73 10000 2.78 136 16:28 02.01.2022
4496 Clear 16 1022 68 10000 2.79 136 14:44 02.01.2022
4497 Clear 17 1021 65 10000 1.79 135 13:37 02.01.2022
4498 Clouds 20 1020 65 10000 1.15 131 12:32 02.01.2022
4499 Clouds 20 1020 63 10000 1.25 134 11:49 02.01.2022
4500 Clouds 20 1019 58 10000 1.71 141 10:53 02.01.2022
4501 Clouds 21 1019 56 10000 1.78 130 09:56 02.01.2022
4502 Clouds 20 1020 58 10000 1.26 86 07:34 02.01.2022
4503 Clouds 16 1024 69 10000 1.94 11 02:56 02.01.2022
4504 Clouds 16 1023 72 10000 1.62 21 23:42 01.01.2022
4505 Clouds 16 1023 72 10000 1.83 16 23:24 01.01.2022
4506 Clouds 16 1022 72 10000 2.18 12 22:25 01.01.2022
4507 Clouds 16 1022 72 10000 2.18 12 21:45 01.01.2022
4508 Clouds 16 1023 71 10000 2.34 10 21:21 01.01.2022
4509 Clouds 16 1023 71 10000 2.16 20 20:20 01.01.2022
4510 Clouds 16 1023 71 10000 2.16 20 19:33 01.01.2022
4511 Clouds 16 1024 63 10000 2.62 17 18:29 01.01.2022
4512 Clouds 16 1024 63 10000 2.99 17 16:55 01.01.2022
4513 Clouds 16 1024 63 10000 2.99 17 16:34 01.01.2022
4514 Clouds 16 1024 62 10000 3.16 28 15:33 01.01.2022
4515 Clouds 16 1024 60 10000 3.53 36 14:22 01.01.2022
4516 Clouds 16 1024 61 10000 3.19 35 13:28 01.01.2022
4517 Clouds 16 1023 63 10000 2.68 35 11:59 01.01.2022
4518 Clouds 16 1022 59 10000 3.13 38 11:24 01.01.2022
4519 Clouds 16 1022 59 10000 3.13 38 10:43 01.01.2022
4520 Clouds 16 1022 57 10000 2.93 38 09:47 01.01.2022
4521 Clouds 17 1022 58 10000 2.48 27 08:27 01.01.2022
4522 Clouds 17 1022 58 10000 2.48 27 07:56 01.01.2022
4523 Clouds 17 1022 58 10000 2.48 27 07:37 01.01.2022
4524 Clouds 17 1022 59 10000 2.22 23 06:42 01.01.2022
4525 Clouds 17 1025 63 10000 1.76 12 04:38 01.01.2022
4526 Clouds 17 1025 65 10000 1.31 5 03:38 01.01.2022
4527 Clouds 15 1023 71 10000 0.94 3 23:52 31.12.2021
4528 Clouds 15 1023 71 10000 0.92 10 21:55 31.12.2021
4529 Clouds 15 1023 71 10000 1.01 7 20:48 31.12.2021
4530 Clouds 16 1023 71 10000 0.95 1 19:31 31.12.2021
4531 Clouds 16 1023 70 10000 1.1 351 18:46 31.12.2021
4532 Clouds 16 1024 69 10000 0.84 354 17:45 31.12.2021
4533 Clouds 16 1024 69 10000 0.95 350 17:19 31.12.2021
4534 Clouds 16 1024 69 10000 0.95 350 16:44 31.12.2021
4535 Clouds 16 1024 69 10000 1.12 338 15:58 31.12.2021
4536 Clouds 16 1024 69 10000 1.12 338 15:31 31.12.2021
4537 Clouds 16 1024 68 10000 1.01 338 14:57 31.12.2021
4538 Clouds 16 1024 68 10000 1.01 338 14:33 31.12.2021
4539 Clouds 16 1024 69 10000 1.07 331 13:42 31.12.2021
4540 Clouds 16 1023 68 10000 1.06 8 12:49 31.12.2021
4541 Clouds 16 1022 68 10000 1.08 20 11:52 31.12.2021
4542 Clouds 17 1022 68 10000 1.08 20 11:33 31.12.2021
4543 Clouds 17 1022 66 10000 1.5 27 10:38 31.12.2021
4544 Clouds 17 1022 65 10000 1.8 10 10:20 31.12.2021
4545 Clouds 17 1022 66 10000 1.79 3 09:33 31.12.2021
4546 Clouds 17 1022 66 10000 1.79 3 08:49 31.12.2021
4547 Clouds 16 1022 68 10000 1.68 6 07:49 31.12.2021
4548 Clouds 14 1025 69 10000 1.92 30 00:47 31.12.2021
4549 Clouds 14 1024 68 10000 1.54 64 22:50 30.12.2021
4550 Clouds 14 1024 68 10000 1.54 50 22:26 30.12.2021
4551 Clouds 13 1024 68 10000 1.54 50 21:37 30.12.2021
4552 Clouds 13 1024 67 10000 1.74 67 20:49 30.12.2021
4553 Clouds 13 1024 66 10000 1.62 55 20:28 30.12.2021
4554 Clouds 14 1024 66 10000 1.62 55 19:48 30.12.2021
4555 Clouds 14 1025 65 10000 1.56 71 19:18 30.12.2021
4556 Clouds 15 1025 64 10000 1.27 96 18:21 30.12.2021
4557 Clouds 16 1025 63 10000 1.17 77 16:37 30.12.2021
4558 Clouds 16 1025 62 10000 1.11 77 15:52 30.12.2021
4559 Clouds 16 1025 62 10000 1 75 14:49 30.12.2021
4560 Clouds 17 1025 62 10000 1 75 14:30 30.12.2021
4561 Clouds 17 1024 61 10000 1.4 58 13:23 30.12.2021
4562 Clouds 18 1023 60 10000 1.59 68 11:35 30.12.2021
4563 Clouds 18 1022 58 10000 2.15 52 10:27 30.12.2021
4564 Clouds 19 1023 58 10000 2.12 44 09:27 30.12.2021
4565 Clouds 17 1024 59 10000 2.83 20 06:55 30.12.2021
4566 Clouds 16 1027 64 10000 2.71 23 04:25 30.12.2021
4567 Clouds 15 1027 64 10000 2.71 23 03:40 30.12.2021
4568 Clouds 14 1026 68 10000 2.64 31 00:42 30.12.2021
4569 Clouds 14 1025 68 10000 2.59 33 23:35 29.12.2021
4570 Clouds 14 1024 67 10000 2.43 35 22:32 29.12.2021
4571 Clouds 14 1024 66 10000 2.67 38 21:53 29.12.2021
4572 Clouds 15 1024 65 10000 2.86 34 20:56 29.12.2021
4573 Clouds 15 1024 64 10000 2.98 30 20:18 29.12.2021
4574 Clouds 15 1024 64 10000 2.98 30 19:30 29.12.2021
4575 Clouds 15 1024 64 10000 2.88 41 18:26 29.12.2021
4576 Clouds 15 1024 64 10000 2.88 41 17:30 29.12.2021
4577 Clouds 15 1025 66 10000 2.75 42 16:58 29.12.2021
4578 Clouds 15 1024 66 10000 2.96 45 16:19 29.12.2021
4579 Clouds 15 1024 64 10000 2.99 51 14:47 29.12.2021
4580 Clouds 16 1023 61 10000 3.53 63 12:50 29.12.2021
4581 Clouds 16 1022 57 10000 3.81 60 12:27 29.12.2021
4582 Clouds 16 1021 54 10000 3.64 63 10:38 29.12.2021
4583 Clouds 16 1021 49 10000 2.6 63 08:37 29.12.2021
4584 Clouds 15 1022 49 10000 1.34 33 06:48 29.12.2021
4585 Clouds 15 1023 49 10000 1.29 4 06:27 29.12.2021
4586 Clouds 14 1023 49 10000 1.29 4 05:43 29.12.2021
4587 Clouds 14 1025 56 10000 1.78 350 03:20 29.12.2021
4588 Clouds 14 1022 67 10000 1.77 345 00:25 29.12.2021
4589 Clouds 15 1022 67 10000 1.77 345 23:49 28.12.2021
4590 Clouds 15 1022 65 10000 1.22 348 22:45 28.12.2021
4591 Clouds 15 1022 64 10000 1.13 3 22:24 28.12.2021
4592 Clouds 15 1022 64 10000 1.13 3 21:53 28.12.2021
4593 Clouds 15 1022 62 10000 1.23 11 20:48 28.12.2021
4594 Clouds 15 1022 60 10000 1.34 12 19:44 28.12.2021
4595 Clouds 15 1023 58 10000 1.34 49 18:44 28.12.2021
4596 Clouds 15 1023 57 10000 1.39 46 18:23 28.12.2021
4597 Clouds 15 1023 56 10000 1.31 57 16:35 28.12.2021
4598 Clouds 15 1024 56 10000 1.35 48 15:52 28.12.2021
4599 Clouds 15 1023 55 10000 1.59 60 15:25 28.12.2021
4600 Clouds 15 1023 55 10000 1.59 60 14:52 28.12.2021
4601 Clouds 15 1023 54 10000 1.79 57 14:21 28.12.2021
4602 Clouds 16 1023 54 10000 1.79 57 13:51 28.12.2021
4603 Clouds 16 1023 54 10000 1.79 57 13:51 28.12.2021
4604 Clouds 16 1023 54 10000 1.71 61 13:28 28.12.2021
4605 Clouds 16 1022 53 10000 1.75 48 12:49 28.12.2021
4606 Clouds 16 1021 52 10000 1.63 56 11:51 28.12.2021
4607 Clouds 17 1021 49 10000 1.55 68 09:27 28.12.2021
4608 Clouds 16 1023 48 10000 1.46 27 07:28 28.12.2021
4609 Clouds 12 1026 50 10000 1.43 26 02:22 28.12.2021
4610 Clouds 11 1024 53 10000 1.38 32 23:26 27.12.2021
4611 Clouds 11 1024 54 10000 1.56 15 21:54 27.12.2021
4612 Clouds 11 1024 54 10000 1.58 4 21:26 27.12.2021
4613 Clouds 11 1025 54 10000 1.57 12 20:24 27.12.2021
4614 Clouds 12 1025 54 10000 1.57 12 19:43 27.12.2021
4615 Clouds 12 1025 55 10000 1.53 6 18:54 27.12.2021
4616 Clouds 12 1026 55 10000 1.47 3 17:50 27.12.2021
4617 Clouds 12 1026 54 10000 1.61 353 16:57 27.12.2021
4618 Clouds 12 1027 54 10000 1.96 347 15:53 27.12.2021
4619 Clouds 13 1027 54 10000 1.86 349 14:34 27.12.2021
4620 Clouds 13 1026 54 10000 1.94 5 13:40 27.12.2021
4621 Clouds 13 1026 55 10000 2.27 20 12:47 27.12.2021
4622 Clouds 13 1025 55 10000 2.79 19 10:36 27.12.2021
4623 Clouds 13 1025 56 10000 3.24 23 10:18 27.12.2021
4624 Clouds 13 1025 57 10000 3.53 24 08:39 27.12.2021
4625 Clouds 14 1025 57 10000 3.6 26 07:32 27.12.2021
4626 Clouds 13 1028 62 10000 4.9 31 02:26 27.12.2021
4627 Clouds 13 1026 65 10000 4.86 24 00:23 27.12.2021
4628 Clouds 13 1026 65 10000 4.86 24 23:41 26.12.2021
4629 Clouds 13 1026 66 10000 5.22 20 22:47 26.12.2021
4630 Clouds 14 1025 64 10000 5.63 19 21:29 26.12.2021
4631 Clouds 14 1025 64 10000 5.71 22 19:52 26.12.2021
4632 Clouds 15 1026 66 10000 6 30 18:25 26.12.2021
4633 Clouds 15 1026 66 10000 6 30 17:44 26.12.2021
4634 Clouds 16 1025 58 10000 5.92 34 14:38 26.12.2021
4635 Clouds 17 1024 58 10000 5.99 38 13:43 26.12.2021
4636 Clouds 17 1023 64 10000 5.37 35 13:21 26.12.2021
4637 Clouds 17 1023 71 10000 2.78 57 12:33 26.12.2021
4638 Clouds 18 1021 71 10000 2.58 145 10:48 26.12.2021
4639 Clouds 19 1020 66 10000 3.07 135 09:29 26.12.2021
4640 Clouds 19 1020 66 10000 3.07 135 08:44 26.12.2021
4641 Clouds 19 1020 63 10000 3.1 122 07:59 26.12.2021
4642 Clouds 18 1023 66 10000 1.89 51 01:36 26.12.2021
4643 Clouds 18 1021 71 10000 1.22 92 23:58 25.12.2021
4644 Clouds 18 1021 71 10000 1.16 99 23:28 25.12.2021
4645 Clouds 19 1020 71 10000 1.29 111 22:28 25.12.2021
4646 Clouds 18 1020 70 10000 1.41 113 21:18 25.12.2021
4647 Clouds 19 1020 71 10000 2.6 120 19:28 25.12.2021
4648 Clouds 19 1020 71 10000 2.6 120 18:57 25.12.2021
4649 Clouds 19 1020 71 10000 3.28 129 18:25 25.12.2021
4650 Clouds 20 1021 70 10000 3.03 137 16:46 25.12.2021
4651 Clouds 20 1021 69 10000 2.74 145 15:26 25.12.2021
4652 Clouds 22 1020 68 10000 2.79 145 13:43 25.12.2021
4653 Clouds 22 1018 64 10000 3.87 125 12:18 25.12.2021
4654 Clouds 22 1017 62 10000 3.14 118 10:32 25.12.2021
4655 Clouds 22 1017 59 10000 2.98 121 09:48 25.12.2021
4656 Clouds 22 1019 67 10000 1.38 33 05:39 25.12.2021
4657 Clouds 19 1019 78 10000 1.13 2 01:31 25.12.2021
4658 Clouds 19 1018 76 10000 1.25 350 23:55 24.12.2021
4659 Clouds 19 1017 77 10000 0.99 11 20:53 24.12.2021
4660 Clouds 20 1018 78 10000 0.83 322 19:25 24.12.2021
4661 Clouds 20 1018 84 10000 0.51 210 18:23 24.12.2021
4662 Clouds 20 1018 79 10000 0.08 139 16:30 24.12.2021
4663 Clouds 21 1018 79 10000 0.08 139 15:49 24.12.2021
4664 Clouds 21 1017 78 10000 0.52 78 15:20 24.12.2021
4665 Clouds 21 1017 78 10000 0.52 78 14:31 24.12.2021
4666 Clouds 21 1017 77 10000 1.23 68 13:44 24.12.2021
4667 Clouds 21 1016 71 10000 1.76 79 12:55 24.12.2021
4668 Clouds 21 1016 71 10000 1.76 79 12:34 24.12.2021
4669 Clouds 22 1015 70 10000 2.38 94 11:42 24.12.2021
4670 Clouds 22 1014 65 10000 3.09 96 11:19 24.12.2021
4671 Clouds 22 1014 65 10000 3.09 96 10:33 24.12.2021
4672 Clouds 23 1014 63 10000 2.28 87 08:38 24.12.2021
4673 Clouds 23 1014 64 10000 2.22 85 07:58 24.12.2021
4674 Clouds 22 1016 67 10000 1.93 73 06:18 24.12.2021
4675 Clouds 18 1015 92 10000 1.22 91 00:20 24.12.2021
4676 Clouds 18 1015 92 10000 1.22 91 23:33 23.12.2021
4677 Clouds 17 1014 93 10000 1.35 102 22:44 23.12.2021
4678 Clear 17 1014 92 10000 1.54 110 22:22 23.12.2021
4679 Clear 17 1014 92 10000 1.54 110 21:39 23.12.2021
4680 Clear 17 1015 87 10000 2.16 129 20:22 23.12.2021
4681 Clear 17 1015 84 10000 2.33 135 19:28 23.12.2021
4682 Clouds 18 1015 82 10000 2.93 136 17:58 23.12.2021
4683 Clouds 18 1016 78 10000 3.31 145 17:18 23.12.2021
4684 Clear 19 1016 73 10000 3.87 148 16:26 23.12.2021
4685 Clear 20 1016 73 10000 3.87 148 15:32 23.12.2021
4686 Clear 21 1015 69 10000 4.11 148 14:58 23.12.2021
4687 Clear 21 1015 69 10000 4.11 148 14:38 23.12.2021
4688 Clear 20 1013 56 10000 5.06 141 13:25 23.12.2021
4689 Clear 23 1012 43 10000 2.81 152 11:20 23.12.2021
4690 Clear 24 1011 38 10000 2.73 163 09:53 23.12.2021
4691 Clear 24 1011 38 10000 2.73 163 09:33 23.12.2021
4692 Clear 24 1012 38 10000 2.35 158 08:25 23.12.2021
4693 Clear 22 1017 47 10000 1.54 142 05:23 23.12.2021
4694 Clear 16 1017 81 10000 1.43 108 00:34 23.12.2021
4695 Clear 15 1016 82 10000 1.71 126 22:49 22.12.2021
4696 Clear 15 1015 81 10000 1.91 129 21:57 22.12.2021
4697 Clear 15 1015 81 10000 1.91 129 21:30 22.12.2021
4698 Clear 14 1015 80 10000 2.11 135 20:53 22.12.2021
4699 Clear 14 1015 80 10000 2.11 135 20:53 22.12.2021
4700 Clear 15 1015 80 10000 2.11 135 20:33 22.12.2021
4701 Clear 16 1015 79 10000 2.37 137 19:37 22.12.2021
4702 Clear 17 1016 75 10000 2.64 139 18:19 22.12.2021
4703 Clear 18 1016 75 10000 2.64 139 17:37 22.12.2021
4704 Clear 19 1016 71 10000 3.46 152 15:49 22.12.2021
4705 Clear 19 1015 60 10000 3.97 136 13:46 22.12.2021
4706 Clear 20 1014 50 10000 2.37 118 12:44 22.12.2021
4707 Clear 24 1013 45 10000 0.77 88 10:48 22.12.2021
4708 Clear 25 1013 42 10000 0.38 78 09:40 22.12.2021
4709 Clear 24 1014 42 10000 0.78 23 07:48 22.12.2021
4710 Clear 22 1017 47 10000 1.04 29 05:51 22.12.2021
4711 Clear 21 1018 52 10000 1.34 358 05:28 22.12.2021
4712 Clear 20 1018 52 10000 1.34 358 04:54 22.12.2021
4713 Clear 18 1019 58 10000 1.46 352 04:30 22.12.2021
4714 Clear 18 1018 52 10000 1.34 358 04:30 22.12.2021
4715 Clear 17 1019 58 10000 1.46 352 03:33 22.12.2021
4716 Clouds 14 1018 83 10000 1.64 4 00:57 22.12.2021
4717 Clouds 15 1017 83 10000 1.26 2 23:32 21.12.2021
4718 Clouds 15 1016 79 10000 1.09 118 22:29 21.12.2021
4719 Clouds 15 1016 79 10000 1.09 118 21:44 21.12.2021
4720 Clouds 16 1016 77 10000 1.14 114 21:24 21.12.2021
4721 Clouds 16 1016 75 10000 1.1 113 20:22 21.12.2021
4722 Clouds 16 1016 75 10000 1.1 113 19:46 21.12.2021
4723 Clouds 17 1017 73 10000 1.33 133 19:19 21.12.2021
4724 Clouds 18 1017 69 10000 1.58 125 18:22 21.12.2021
4725 Clouds 18 1017 69 10000 1.58 125 17:47 21.12.2021
4726 Clouds 17 1017 65 10000 1.64 118 16:35 21.12.2021
4727 Clouds 18 1017 55 10000 0.53 165 15:25 21.12.2021
4728 Clouds 21 1016 51 10000 0.99 219 13:51 21.12.2021
4729 Clouds 21 1016 51 10000 0.99 219 13:31 21.12.2021
4730 Clouds 21 1015 45 10000 1 256 11:57 21.12.2021
4731 Clouds 22 1013 38 10000 1.74 314 10:25 21.12.2021
4732 Clouds 23 1013 38 10000 1.74 314 09:33 21.12.2021
4733 Clear 22 1014 38 10000 2.57 327 08:28 21.12.2021
4734 Clear 22 1015 39 10000 2.87 329 07:32 21.12.2021
4735 Clear 21 1015 38 10000 2.5 330 06:50 21.12.2021
4736 Clear 18 1019 50 10000 3.25 329 03:18 21.12.2021
4737 Clear 17 1017 64 10000 2.37 342 23:59 20.12.2021
4738 Clear 17 1016 64 10000 2.12 353 23:32 20.12.2021
4739 Clear 16 1016 64 10000 2.12 353 22:30 20.12.2021
4740 Clear 16 1016 65 10000 2.07 2 21:47 20.12.2021
4741 Clouds 16 1016 65 10000 1.86 17 21:23 20.12.2021
4742 Clouds 16 1016 65 10000 1.86 17 20:45 20.12.2021
4743 Clouds 16 1016 65 10000 1.81 19 19:53 20.12.2021
4744 Clouds 16 1017 64 10000 1.81 15 19:31 20.12.2021
4745 Clouds 16 1017 60 10000 1.49 26 18:54 20.12.2021
4746 Clouds 17 1017 59 10000 1.33 50 17:53 20.12.2021
4747 Clouds 17 1017 58 10000 1.54 72 17:25 20.12.2021
4748 Clouds 17 1017 58 10000 1.54 72 16:40 20.12.2021
4749 Clouds 17 1018 57 10000 2.09 75 15:51 20.12.2021
4750 Clouds 18 1018 56 10000 2.25 69 14:51 20.12.2021
4751 Clouds 18 1016 50 10000 2.97 88 12:53 20.12.2021
4752 Clouds 20 1015 43 10000 3.69 80 11:19 20.12.2021
4753 Clouds 22 1014 39 10000 3.76 78 09:47 20.12.2021
4754 Clouds 22 1014 37 10000 3.32 73 09:28 20.12.2021
4755 Clouds 22 1014 37 10000 3.32 73 08:41 20.12.2021
4756 Clouds 22 1015 35 10000 2.36 55 07:49 20.12.2021
4757 Clouds 22 1016 34 10000 1.83 10 07:25 20.12.2021
4758 Clouds 20 1019 49 10000 2.99 318 03:59 20.12.2021
4759 Clouds 18 1018 48 10000 1.38 356 23:58 19.12.2021
4760 Clouds 18 1017 48 10000 1.43 339 22:45 19.12.2021
4761 Clouds 18 1017 48 10000 1.38 339 21:50 19.12.2021
4762 Clouds 18 1017 48 10000 0.94 357 21:29 19.12.2021
4763 Clouds 18 1017 48 10000 0.94 357 20:30 19.12.2021
4764 Clouds 18 1018 48 10000 0.62 37 19:46 19.12.2021
4765 Clouds 18 1019 50 10000 1.12 150 18:58 19.12.2021
4766 Clouds 19 1020 49 10000 1.91 143 18:27 19.12.2021
4767 Clouds 19 1020 49 10000 1.91 143 17:49 19.12.2021
4768 Clouds 18 1020 48 10000 2.32 141 17:18 19.12.2021
4769 Clouds 19 1020 45 10000 2.35 139 16:24 19.12.2021
4770 Clouds 19 1020 47 10000 2.91 149 15:26 19.12.2021
4771 Clouds 19 1020 47 10000 2.91 149 14:50 19.12.2021
4772 Clouds 20 1020 43 10000 3.31 137 13:46 19.12.2021
4773 Clouds 20 1019 39 10000 2.85 124 13:21 19.12.2021
4774 Clouds 20 1019 39 10000 2.85 124 12:33 19.12.2021
4775 Clouds 21 1019 37 10000 2.16 108 11:40 19.12.2021
4776 Clouds 21 1018 36 10000 1.67 95 10:52 19.12.2021
4777 Clouds 21 1018 33 10000 1.69 57 10:23 19.12.2021
4778 Clouds 22 1018 31 10000 2.29 44 09:20 19.12.2021
4779 Clouds 21 1019 31 10000 2.85 28 07:35 19.12.2021
4780 Clear 15 1025 41 10000 5.39 11 02:35 19.12.2021
4781 Clear 14 1024 54 10000 4.01 6 00:55 19.12.2021
4782 Clear 14 1023 52 10000 4.29 7 23:31 18.12.2021
4783 Clear 16 1022 51 10000 4.2 15 22:30 18.12.2021
4784 Clear 15 1022 50 10000 4.24 15 21:51 18.12.2021
4785 Clear 15 1022 50 10000 4.24 15 21:30 18.12.2021
4786 Clear 16 1022 50 10000 4.26 12 20:43 18.12.2021
4787 Clear 16 1023 48 10000 4.03 20 19:50 18.12.2021
4788 Clouds 17 1024 45 10000 4.18 22 18:26 18.12.2021
4789 Clouds 17 1024 45 10000 4.18 22 17:49 18.12.2021
4790 Clouds 17 1024 45 10000 4.2 25 16:55 18.12.2021
4791 Clouds 17 1024 45 10000 4.1 35 16:21 18.12.2021
4792 Clouds 17 1023 44 10000 4.18 33 15:25 18.12.2021
4793 Clouds 18 1023 43 10000 3.78 19 14:19 18.12.2021
4794 Clouds 20 1021 43 10000 1.85 2 11:59 18.12.2021
4795 Clouds 22 1020 42 10000 2.53 27 10:42 18.12.2021
4796 Clouds 22 1020 38 10000 3.84 33 09:32 18.12.2021
4797 Clouds 22 1020 38 10000 4.38 31 08:36 18.12.2021
4798 Clouds 21 1021 39 10000 4.81 23 07:41 18.12.2021
4799 Clouds 17 1024 51 10000 4.98 29 01:46 18.12.2021
4800 Clouds 17 1022 56 10000 3.82 32 23:56 17.12.2021
4801 Clouds 18 1021 57 10000 4.15 30 22:51 17.12.2021
4802 Clouds 18 1020 57 10000 4.62 29 21:49 17.12.2021
4803 Clouds 18 1020 58 10000 4.93 26 20:44 17.12.2021
4804 Clouds 19 1021 57 10000 4.87 27 19:57 17.12.2021
4805 Clouds 19 1021 54 10000 4.77 26 18:40 17.12.2021
4806 Clouds 18 1021 54 10000 4.88 25 17:59 17.12.2021
4807 Clouds 19 1022 54 10000 4.97 26 16:53 17.12.2021
4808 Clouds 19 1022 54 10000 5.11 29 16:28 17.12.2021
4809 Clouds 19 1022 54 10000 5.11 29 15:49 17.12.2021
4810 Clouds 21 1021 54 10000 5.29 32 14:43 17.12.2021
4811 Clouds 21 1021 54 10000 5.51 32 13:51 17.12.2021
4812 Clouds 22 1020 52 10000 5.31 28 12:36 17.12.2021
4813 Clouds 24 1018 50 10000 4.65 35 10:42 17.12.2021
4814 Clouds 24 1018 47 10000 4.97 37 09:47 17.12.2021
4815 Clouds 24 1018 47 10000 4.97 37 09:47 17.12.2021
4816 Clouds 25 1017 46 10000 5.09 37 08:32 17.12.2021
4817 Clouds 25 1018 48 10000 5.31 36 07:30 17.12.2021
4818 Clouds 24 1021 60 10000 6.01 23 04:40 17.12.2021
4819 Clouds 19 1019 80 10000 2.63 312 00:28 17.12.2021
4820 Clouds 20 1018 79 10000 2.36 320 22:25 16.12.2021
4821 Clouds 20 1018 79 10000 2.36 320 21:54 16.12.2021
4822 Clouds 20 1018 79 10000 2.36 320 21:36 16.12.2021
4823 Clouds 21 1017 78 10000 2.05 329 20:40 16.12.2021
4824 Clouds 21 1017 78 10000 1.84 333 19:51 16.12.2021
4825 Clouds 21 1018 83 10000 1.95 330 18:42 16.12.2021
4826 Clouds 21 1018 83 10000 1.5 332 18:22 16.12.2021
4827 Clouds 20 1018 83 10000 1.5 332 17:32 16.12.2021
4828 Clouds 20 1018 83 10000 0.5 356 16:23 16.12.2021
4829 Clouds 20 1017 84 10000 0.72 17 15:20 16.12.2021
4830 Clouds 21 1016 85 10000 1.2 12 13:43 16.12.2021
4831 Clouds 23 1015 85 10000 1.51 28 11:46 16.12.2021
4832 Clouds 24 1014 83 10000 1.63 41 11:18 16.12.2021
4833 Clouds 25 1014 81 10000 1.53 40 10:27 16.12.2021
4834 Clouds 25 1014 80 10000 1.43 25 08:56 16.12.2021
4835 Clouds 24 1016 85 10000 2.39 343 06:22 16.12.2021
4836 Clouds 21 1017 90 10000 1.23 347 02:59 16.12.2021
4837 Clouds 19 1014 92 10000 0.33 56 23:35 15.12.2021
4838 Clouds 19 1014 92 10000 0.45 116 22:48 15.12.2021
4839 Clouds 19 1013 92 10000 0.8 117 21:58 15.12.2021
4840 Clouds 19 1013 93 10000 0.97 115 21:28 15.12.2021
4841 Clouds 20 1013 93 10000 0.97 115 20:31 15.12.2021
4842 Clouds 20 1013 94 10000 1.29 116 19:52 15.12.2021
4843 Clouds 20 1014 94 10000 1.71 133 18:39 15.12.2021
4844 Clouds 19 1014 93 10000 1.88 133 17:56 15.12.2021
4845 Clouds 20 1014 93 10000 1.88 133 17:37 15.12.2021
4846 Clouds 19 1014 90 10000 1.91 129 16:34 15.12.2021
4847 Clear 19 1014 86 10000 1.84 124 15:47 15.12.2021
4848 Clear 20 1014 82 10000 1.82 113 15:28 15.12.2021
4849 Clear 19 1014 81 10000 1.77 121 14:42 15.12.2021
4850 Clouds 19 1013 71 10000 2.18 97 12:46 15.12.2021
4851 Clouds 19 1013 71 10000 2.18 97 12:46 15.12.2021
4852 Clouds 21 1011 62 10000 1.65 102 10:42 15.12.2021
4853 Clouds 21 1011 58 10000 1.33 109 08:55 15.12.2021
4854 Clouds 20 1012 60 10000 1.35 118 07:43 15.12.2021
4855 Clouds 18 1017 82 10000 0.71 50 01:35 15.12.2021
4856 Clouds 17 1015 86 10000 1.09 109 23:42 14.12.2021
4857 Clouds 17 1015 87 10000 1.38 124 22:49 14.12.2021
4858 Clouds 18 1015 89 10000 1.5 131 22:24 14.12.2021
4859 Clouds 16 1015 89 10000 1.78 131 20:55 14.12.2021
4860 Clear 17 1015 87 10000 1.98 141 19:44 14.12.2021
4861 Clear 17 1016 85 10000 2.07 145 19:20 14.12.2021
4862 Clear 18 1016 85 10000 2.05 149 18:28 14.12.2021
4863 Clear 19 1016 85 10000 2.05 149 17:33 14.12.2021
4864 Clear 20 1016 83 10000 2.37 158 16:40 14.12.2021
4865 Clear 20 1016 79 10000 3.19 154 15:36 14.12.2021
4866 Clear 20 1016 73 10000 4.36 145 13:31 14.12.2021
4867 Clouds 21 1014 59 10000 3.74 144 12:00 14.12.2021
4868 Clouds 22 1014 52 10000 3.13 160 11:24 14.12.2021
4869 Clouds 22 1013 45 10000 2.77 176 10:23 14.12.2021
4870 Clouds 23 1013 45 10000 2.77 176 09:43 14.12.2021
4871 Clouds 23 1014 43 10000 2.51 175 08:28 14.12.2021
4872 Clouds 23 1014 43 10000 2.51 175 07:43 14.12.2021
4873 Clear 20 1018 48 10000 2.22 148 05:35 14.12.2021
4874 Clear 13 1018 76 10000 0.93 124 22:56 13.12.2021
4875 Clear 14 1018 75 10000 0.78 106 21:53 13.12.2021
4876 Clear 16 1018 75 10000 0.78 106 21:32 13.12.2021
4877 Clear 14 1018 74 10000 0.81 73 20:42 13.12.2021
4878 Clear 14 1019 72 10000 0.99 102 19:52 13.12.2021
4879 Clear 14 1020 70 10000 2.11 153 18:24 13.12.2021
4880 Clear 14 1020 67 10000 2.05 143 17:26 13.12.2021
4881 Clear 16 1021 63 10000 1.97 131 15:54 13.12.2021
4882 Clear 16 1021 60 10000 1.22 88 15:25 13.12.2021
4883 Clear 17 1020 57 10000 1.4 22 13:39 13.12.2021
4884 Clear 18 1019 53 10000 0.67 166 12:46 13.12.2021
4885 Clear 18 1018 50 10000 0.79 293 11:56 13.12.2021
4886 Clear 19 1018 50 10000 0.79 293 11:35 13.12.2021
4887 Clear 20 1018 48 10000 0.61 297 10:44 13.12.2021
4888 Clear 20 1018 42 10000 1.23 51 09:29 13.12.2021
4889 Clear 20 1019 43 10000 1.8 39 07:46 13.12.2021
4890 Clouds 19 1022 44 10000 2.73 18 05:35 13.12.2021
4891 Clouds 18 1023 58 10000 3.72 14 00:43 13.12.2021
4892 Clouds 18 1022 56 10000 4.39 20 22:22 12.12.2021
4893 Clouds 18 1022 56 10000 4.39 20 21:35 12.12.2021
4894 Clouds 19 1023 56 10000 4.95 18 19:40 12.12.2021
4895 Clouds 19 1024 54 10000 4.98 16 18:35 12.12.2021
4896 Clouds 19 1024 54 10000 5.72 21 17:25 12.12.2021
4897 Clouds 19 1024 54 10000 6.13 25 16:27 12.12.2021
4898 Clouds 19 1024 54 10000 6.13 25 15:41 12.12.2021
4899 Clouds 19 1024 54 10000 6.23 30 15:22 12.12.2021
4900 Clouds 20 1023 54 10000 6.71 33 14:30 12.12.2021
4901 Clouds 20 1024 54 10000 6.23 30 14:30 12.12.2021
4902 Clouds 21 1022 58 10000 6.66 34 12:56 12.12.2021
4903 Clouds 23 1021 58 10000 7.12 37 12:26 12.12.2021
4904 Clouds 23 1021 58 10000 7.12 37 11:44 12.12.2021
4905 Clouds 23 1020 58 10000 7.02 37 10:56 12.12.2021
4906 Clouds 25 1019 51 10000 4.91 23 10:22 12.12.2021
4907 Clouds 26 1019 51 10000 3.97 17 08:54 12.12.2021
4908 Clouds 25 1020 53 10000 3.6 22 07:31 12.12.2021
4909 Clouds 24 1022 61 10000 1.83 3 05:56 12.12.2021
4910 Clouds 23 1023 64 10000 1.28 352 04:55 12.12.2021
4911 Clouds 19 1023 68 10000 0.49 34 02:56 12.12.2021
4912 Clouds 18 1021 87 10000 0.49 124 23:30 11.12.2021
4913 Clouds 18 1020 86 10000 1.16 142 22:21 11.12.2021
4914 Clouds 19 1020 86 10000 1.16 142 21:51 11.12.2021
4915 Clouds 19 1020 84 10000 1.73 153 20:24 11.12.2021
4916 Clouds 19 1021 83 10000 1.83 158 19:21 11.12.2021
4917 Clouds 19 1021 83 10000 1.83 158 18:50 11.12.2021
4918 Clouds 19 1021 85 10000 1.63 161 17:56 11.12.2021
4919 Clouds 19 1021 83 10000 1.86 158 16:40 11.12.2021
4920 Clouds 21 1021 79 10000 2.12 151 15:46 11.12.2021
4921 Clouds 20 1021 74 10000 2.3 144 14:54 11.12.2021
4922 Clouds 23 1019 68 10000 2.19 108 12:42 11.12.2021
4923 Clouds 24 1018 64 10000 1.56 15 11:24 11.12.2021
4924 Clouds 24 1017 58 10000 1.44 354 09:45 11.12.2021
4925 Clouds 24 1017 58 10000 1.44 354 09:45 11.12.2021
4926 Clouds 24 1017 58 10000 1.44 354 09:45 11.12.2021
4927 Clouds 24 1017 58 10000 1.44 354 09:45 11.12.2021
4928 Clouds 24 1018 59 10000 0.94 2 07:30 11.12.2021
4929 Clouds 19 1020 81 10000 2.03 125 00:50 11.12.2021
4930 Clouds 19 1019 82 10000 2.26 128 23:45 10.12.2021
4931 Clouds 20 1019 81 10000 2.23 129 23:18 10.12.2021
4932 Clouds 20 1018 81 10000 2.12 135 21:52 10.12.2021
4933 Clouds 20 1018 81 10000 2.44 138 20:35 10.12.2021
4934 Clouds 21 1019 80 10000 2.49 144 19:19 10.12.2021
4935 Clouds 21 1020 83 10000 2.33 144 17:54 10.12.2021
4936 Clouds 21 1020 82 10000 2.65 148 16:41 10.12.2021
4937 Clouds 22 1020 80 10000 3.19 147 15:47 10.12.2021
4938 Clouds 22 1019 78 10000 3.74 142 15:28 10.12.2021
4939 Clouds 22 1019 78 10000 3.74 142 14:56 10.12.2021
4940 Clouds 22 1019 74 10000 4.38 139 13:50 10.12.2021
4941 Clouds 23 1018 70 10000 4.85 138 13:20 10.12.2021
4942 Clouds 23 1017 66 10000 3.56 136 12:23 10.12.2021
4943 Clouds 24 1017 63 10000 1.86 157 11:27 10.12.2021
4944 Clouds 25 1016 58 10000 1.14 215 09:54 10.12.2021
4945 Clouds 25 1016 58 10000 1.14 215 09:54 10.12.2021
4946 Clouds 25 1017 55 10000 1.72 226 08:23 10.12.2021
4947 Clouds 23 1019 52 10000 1.85 169 05:46 10.12.2021
4948 Clouds 19 1022 71 10000 0.26 95 02:47 10.12.2021
4949 Clouds 17 1020 90 10000 1.23 315 23:43 09.12.2021
4950 Clouds 17 1020 91 10000 1.33 309 22:49 09.12.2021
4951 Clouds 17 1019 91 10000 1.3 305 22:23 09.12.2021
4952 Clouds 17 1019 91 10000 1.3 305 22:23 09.12.2021
4953 Clouds 18 1019 91 10000 1.3 305 21:40 09.12.2021
4954 Clouds 17 1020 91 10000 1.34 304 20:40 09.12.2021
4955 Clear 17 1020 91 10000 1.66 295 19:46 09.12.2021
4956 Clouds 17 1020 88 10000 1.73 298 19:21 09.12.2021
4957 Clouds 17 1021 76 10000 1.43 298 18:24 09.12.2021
4958 Clouds 17 1021 76 10000 1.43 298 17:51 09.12.2021
4959 Clouds 18 1021 74 10000 1.27 290 17:25 09.12.2021
4960 Clouds 18 1021 74 10000 1.27 290 16:43 09.12.2021
4961 Clouds 19 1022 73 10000 0.8 250 15:31 09.12.2021
4962 Clouds 19 1022 73 10000 0.74 223 14:43 09.12.2021
4963 Clouds 20 1021 73 10000 1.04 221 12:49 09.12.2021
4964 Clouds 20 1021 72 10000 0.79 218 12:24 09.12.2021
4965 Clouds 22 1020 71 10000 0.7 217 10:40 09.12.2021
4966 Clouds 21 1021 66 10000 1.92 334 07:53 09.12.2021
4967 Clouds 19 1025 76 10000 3.29 334 03:58 09.12.2021
4968 Clouds 18 1022 84 10000 2.22 340 00:26 09.12.2021
4969 Clouds 19 1022 84 10000 2.22 340 23:37 08.12.2021
4970 Clouds 19 1021 82 10000 1.78 342 22:57 08.12.2021
4971 Clouds 19 1021 82 10000 1.78 342 22:36 08.12.2021
4972 Clouds 19 1021 79 10000 2.07 342 21:38 08.12.2021
4973 Clouds 19 1021 78 10000 2.55 345 20:50 08.12.2021
4974 Clouds 20 1021 77 10000 2.57 339 19:57 08.12.2021
4975 Clouds 20 1022 75 10000 2.13 332 19:20 08.12.2021
4976 Clouds 20 1023 66 10000 1.24 299 18:22 08.12.2021
4977 Clouds 20 1023 58 10000 0.63 266 16:55 08.12.2021
4978 Clouds 21 1023 51 10000 0.29 159 15:42 08.12.2021
4979 Clouds 21 1023 48 10000 1.14 131 15:22 08.12.2021
4980 Clouds 22 1022 45 10000 1.6 118 13:26 08.12.2021
4981 Clouds 23 1020 44 10000 1.58 97 10:45 08.12.2021
4982 Clouds 24 1020 42 10000 1.82 91 09:58 08.12.2021
4983 Clouds 24 1019 40 10000 1.95 87 08:34 08.12.2021
4984 Clouds 23 1022 38 10000 1.18 60 06:22 08.12.2021
4985 Clear 12 1022 67 10000 1.08 8 00:41 08.12.2021
4986 Clear 13 1021 68 10000 0.99 30 23:23 07.12.2021
4987 Clear 14 1020 67 10000 0.76 65 21:25 07.12.2021
4988 Clear 14 1020 66 10000 0.77 114 20:25 07.12.2021
4989 Clear 15 1020 65 10000 0.98 140 19:21 07.12.2021
4990 Clear 15 1021 64 10000 1.71 155 18:23 07.12.2021
4991 Clear 16 1021 63 10000 2.27 158 17:27 07.12.2021
4992 Clear 16 1021 63 10000 2.27 158 16:53 07.12.2021
4993 Clear 17 1021 61 10000 2.67 150 16:25 07.12.2021
4994 Clear 18 1021 58 10000 2.87 142 14:38 07.12.2021
4995 Clear 18 1020 52 10000 3.32 139 13:40 07.12.2021
4996 Clear 20 1018 36 10000 2.77 124 12:22 07.12.2021
4997 Clear 23 1018 32 10000 1.55 105 10:56 07.12.2021
4998 Clear 24 1017 26 10000 1.76 117 09:20 07.12.2021
4999 Clear 24 1019 28 10000 1.54 108 06:50 07.12.2021
5000 Clear 23 1020 30 10000 1.05 118 05:50 07.12.2021
5001 Clear 17 1023 43 10000 0.76 62 03:25 07.12.2021
5002 Clear 12 1021 55 10000 0.86 99 23:23 06.12.2021
5003 Clear 12 1021 55 10000 0.86 99 22:40 06.12.2021
5004 Clear 12 1020 54 10000 0.83 96 21:59 06.12.2021
5005 Clear 13 1020 54 10000 0.69 113 21:27 06.12.2021
5006 Clear 13 1020 53 10000 0.9 139 20:32 06.12.2021
5007 Clear 13 1020 54 10000 0.69 113 20:32 06.12.2021
5008 Clear 14 1021 52 10000 1.14 159 19:24 06.12.2021
5009 Clear 15 1021 53 10000 1.03 158 18:34 06.12.2021
5010 Clear 16 1021 53 10000 1.67 163 17:53 06.12.2021
5011 Clear 16 1021 53 10000 1.67 163 17:33 06.12.2021
5012 Clear 15 1022 50 10000 2.48 153 15:51 06.12.2021
5013 Clear 17 1021 47 10000 2.46 142 14:35 06.12.2021
5014 Clouds 20 1020 37 10000 2.33 133 12:40 06.12.2021
5015 Clouds 22 1019 34 10000 1.29 104 11:55 06.12.2021
5016 Clouds 25 1018 27 10000 2.19 59 09:56 06.12.2021
5017 Clouds 24 1018 27 10000 2.7 35 07:38 06.12.2021
5018 Clouds 16 1022 50 10000 1.95 14 02:20 06.12.2021
5019 Clouds 13 1020 55 10000 1.72 5 22:20 05.12.2021
5020 Clouds 13 1020 54 10000 0.97 347 21:25 05.12.2021
5021 Clouds 14 1020 52 10000 0.27 352 20:20 05.12.2021
5022 Clouds 15 1020 52 10000 0.27 352 19:58 05.12.2021
5023 Clouds 15 1020 51 10000 0.43 98 19:23 05.12.2021
5024 Clouds 15 1021 52 10000 0.8 116 18:26 05.12.2021
5025 Clouds 16 1021 52 10000 0.8 116 17:49 05.12.2021
5026 Clouds 16 1021 50 10000 1 109 16:58 05.12.2021
5027 Clouds 16 1021 49 10000 1.1 91 16:28 05.12.2021
5028 Clouds 17 1021 49 10000 1.1 91 15:58 05.12.2021
5029 Clouds 17 1021 47 10000 0.98 50 14:47 05.12.2021
5030 Clouds 18 1021 45 10000 1 17 14:29 05.12.2021
5031 Clouds 19 1021 45 10000 1 17 13:31 05.12.2021
5032 Clouds 20 1020 43 10000 1.12 340 12:41 05.12.2021
5033 Clouds 20 1019 40 10000 1.11 316 12:23 05.12.2021
5034 Clouds 22 1019 40 10000 1.11 316 11:37 05.12.2021
5035 Clouds 23 1019 31 10000 2.25 355 10:21 05.12.2021
5036 Clouds 24 1018 30 10000 2.52 358 08:50 05.12.2021
5037 Clouds 21 1023 35 10000 3.18 350 04:56 05.12.2021
5038 Clouds 13 1024 58 10000 2.07 334 01:23 05.12.2021
5039 Clouds 13 1022 57 10000 1.3 332 22:32 04.12.2021
5040 Clouds 14 1022 56 10000 0.76 351 21:36 04.12.2021
5041 Clear 14 1022 55 10000 0.57 27 20:32 04.12.2021
5042 Clouds 15 1022 55 10000 0.39 86 19:33 04.12.2021
5043 Clouds 16 1023 57 10000 1.76 153 18:23 04.12.2021
5044 Clouds 16 1023 57 10000 1.76 153 17:45 04.12.2021
5045 Clouds 16 1023 55 10000 2.34 145 17:20 04.12.2021
5046 Clouds 15 1023 55 10000 2.34 145 16:42 04.12.2021
5047 Clouds 15 1023 52 10000 2.68 142 16:24 04.12.2021
5048 Clouds 22 1019 34 10000 0.32 111 11:56 04.12.2021
5049 Clouds 22 1019 34 10000 0.32 111 11:33 04.12.2021
5050 Clouds 23 1019 33 10000 0.52 35 10:57 04.12.2021
5051 Clouds 24 1018 27 10000 1.36 19 08:53 04.12.2021
5052 Clouds 24 1019 28 10000 1.57 8 08:27 04.12.2021
5053 Clouds 19 1023 35 10000 2.07 340 04:42 04.12.2021
5054 Clouds 11 1023 54 10000 1.74 342 00:49 04.12.2021
5055 Clouds 12 1022 51 10000 1.73 357 23:29 03.12.2021
5056 Clouds 12 1022 51 10000 1.73 357 22:50 03.12.2021
5057 Clouds 14 1022 50 10000 1.41 356 21:50 03.12.2021
5058 Clouds 14 1022 48 10000 0.96 20 21:20 03.12.2021
5059 Clear 14 1022 47 10000 0.88 34 20:27 03.12.2021
5060 Clouds 14 1023 46 10000 0.69 57 19:20 03.12.2021
5061 Clouds 14 1023 46 10000 0.5 139 18:22 03.12.2021
5062 Clouds 14 1023 44 10000 0.97 131 17:29 03.12.2021
5063 Clouds 18 1022 38 10000 0.7 170 13:34 03.12.2021
5064 Clouds 20 1020 35 10000 0.63 97 12:20 03.12.2021
5065 Clouds 23 1019 34 10000 0.89 53 10:58 03.12.2021
5066 Clouds 24 1019 28 10000 2.05 32 08:31 03.12.2021
5067 Clouds 24 1019 28 10000 2.05 32 07:43 03.12.2021
5068 Clouds 24 1019 28 10000 2.05 32 07:43 03.12.2021
5069 Clouds 21 1022 32 10000 2.37 8 05:42 03.12.2021
5070 Clear 11 1024 53 10000 2.01 335 00:48 03.12.2021
5071 Clear 12 1023 52 10000 1.74 329 23:47 02.12.2021
5072 Clear 12 1023 52 10000 1.72 335 22:38 02.12.2021
5073 Clear 13 1022 51 10000 1.95 347 21:41 02.12.2021
5074 Clear 13 1022 50 10000 1.73 345 20:44 02.12.2021
5075 Clear 13 1022 49 10000 1.34 351 20:22 02.12.2021
5076 Clouds 14 1023 52 10000 0.49 13 18:36 02.12.2021
5077 Clouds 14 1023 47 10000 1.39 120 16:33 02.12.2021
5078 Clouds 16 1023 43 10000 1.88 102 15:37 02.12.2021
5079 Clouds 16 1022 38 10000 1.65 84 14:51 02.12.2021
5080 Clouds 17 1021 33 10000 0.63 53 13:26 02.12.2021
5081 Clouds 19 1020 31 10000 1.09 64 12:23 02.12.2021
5082 Clouds 23 1020 30 10000 1.6 56 10:42 02.12.2021
5083 Clouds 23 1019 23 10000 2.4 41 09:25 02.12.2021
5084 Clouds 22 1021 24 10000 2.65 34 06:45 02.12.2021
5085 Clouds 12 1024 52 10000 2.25 17 00:57 02.12.2021
5086 Clouds 12 1022 52 10000 1.94 16 23:30 01.12.2021
5087 Clouds 13 1022 53 10000 1.76 16 22:25 01.12.2021
5088 Clouds 13 1022 53 10000 1.76 16 21:42 01.12.2021
5089 Clouds 15 1022 54 10000 0.95 24 19:59 01.12.2021
5090 Clouds 15 1022 54 10000 0.95 24 19:36 01.12.2021
5091 Clouds 15 1023 53 10000 0.48 35 17:50 01.12.2021
5092 Clouds 16 1023 53 10000 0.77 102 16:59 01.12.2021
5093 Clouds 17 1023 52 10000 1.58 138 15:37 01.12.2021
5094 Clouds 17 1022 44 10000 2.92 83 14:24 01.12.2021
5095 Clouds 18 1022 44 10000 2.92 83 13:36 01.12.2021
5096 Clouds 23 1019 35 10000 2.9 52 10:43 01.12.2021
5097 Clouds 24 1019 28 10000 3.77 38 09:56 01.12.2021
5098 Clouds 24 1019 26 10000 3.91 31 08:40 01.12.2021
5099 Clouds 24 1019 27 10000 4.14 24 07:38 01.12.2021
5100 Clouds 24 1020 28 10000 4.64 22 07:19 01.12.2021
5101 Clouds 24 1020 28 10000 4.64 22 07:19 01.12.2021
5102 Clouds 21 1024 35 10000 5.26 21 03:47 01.12.2021
5103 Clouds 19 1025 40 10000 5.46 18 02:34 01.12.2021
5104 Clouds 17 1023 59 10000 3.55 10 23:57 30.11.2021
5105 Clouds 18 1022 58 10000 3.89 16 23:28 30.11.2021
5106 Clouds 19 1021 59 10000 3.86 14 21:55 30.11.2021
5107 Clouds 19 1021 60 10000 3.81 11 20:46 30.11.2021
5108 Clouds 19 1021 62 10000 3.43 2 20:19 30.11.2021
5109 Clouds 19 1021 62 10000 3.43 2 19:38 30.11.2021
5110 Clouds 19 1021 61 10000 3.2 355 18:42 30.11.2021
5111 Clouds 19 1022 56 10000 2.85 3 17:21 30.11.2021
5112 Clouds 19 1022 55 10000 2.89 3 15:44 30.11.2021
5113 Clouds 20 1022 53 10000 3.34 22 14:29 30.11.2021
5114 Clouds 20 1021 53 10000 3.42 26 13:28 30.11.2021
5115 Clouds 21 1021 54 10000 3.38 18 12:52 30.11.2021
5116 Clouds 23 1020 53 10000 3.1 13 11:50 30.11.2021
5117 Clouds 24 1019 49 10000 3.03 7 11:25 30.11.2021
5118 Clouds 25 1019 49 10000 3.03 7 10:34 30.11.2021
5119 Clouds 26 1018 40 10000 4.86 9 08:53 30.11.2021
5120 Clouds 26 1018 40 10000 4.86 9 08:31 30.11.2021
5121 Clouds 25 1019 39 10000 4.96 8 07:48 30.11.2021
5122 Clouds 21 1024 53 10000 6.16 25 02:41 30.11.2021
5123 Clouds 20 1023 55 10000 6.68 26 01:43 30.11.2021
5124 Clouds 20 1022 56 10000 6.68 31 00:33 30.11.2021
5125 Clouds 21 1020 55 10000 7 27 23:25 29.11.2021
5126 Clouds 21 1020 55 10000 7 27 22:57 29.11.2021
5127 Clouds 21 1020 55 10000 7 27 22:34 29.11.2021
5128 Clouds 21 1019 54 10000 5.46 17 21:39 29.11.2021
5129 Clouds 21 1019 56 10000 4.29 6 21:18 29.11.2021
5130 Clouds 21 1019 56 10000 4.29 6 20:40 29.11.2021
5131 Clouds 21 1019 57 10000 3.43 11 19:56 29.11.2021
5132 Clouds 21 1019 57 10000 3.43 11 19:36 29.11.2021
5133 Clouds 21 1019 57 10000 3.43 11 19:36 29.11.2021
5134 Clouds 21 1019 61 10000 1.73 352 18:52 29.11.2021
5135 Clouds 22 1019 60 10000 0.87 14 17:55 29.11.2021
5136 Clouds 22 1019 61 10000 0.91 101 17:20 29.11.2021
5137 Clouds 21 1019 61 10000 1.86 119 16:29 29.11.2021
5138 Clouds 21 1019 61 10000 1.86 119 15:52 29.11.2021
5139 Clouds 22 1019 57 10000 2.38 126 14:43 29.11.2021
5140 Clouds 23 1018 52 10000 1.54 117 13:34 29.11.2021
5141 Clouds 24 1017 51 10000 1.08 135 12:37 29.11.2021
5142 Clouds 24 1016 49 10000 1.05 118 11:41 29.11.2021
5143 Clouds 25 1015 47 10000 1.27 108 10:58 29.11.2021
5144 Clouds 27 1014 41 10000 1.33 81 09:36 29.11.2021
5145 Clouds 26 1018 44 10000 2.35 1 06:21 29.11.2021
5146 Clouds 19 1020 65 10000 2.44 327 02:28 29.11.2021
5147 Clouds 18 1019 73 10000 2.15 331 00:42 29.11.2021
5148 Clouds 18 1018 72 10000 2.51 339 23:44 28.11.2021
5149 Clouds 18 1018 70 10000 2.28 347 23:23 28.11.2021
5150 Clouds 18 1018 69 10000 2.11 356 21:49 28.11.2021
5151 Clouds 18 1018 68 10000 1.86 1 21:23 28.11.2021
5152 Clouds 18 1018 68 10000 1.86 1 20:33 28.11.2021
5153 Clouds 17 1018 65 10000 0.81 35 18:53 28.11.2021
5154 Clouds 19 1018 67 10000 0.59 150 18:32 28.11.2021
5155 Clouds 18 1019 66 10000 1.25 142 17:54 28.11.2021
5156 Clouds 19 1019 66 10000 1.25 142 17:31 28.11.2021
5157 Clouds 19 1019 64 10000 1.66 132 16:37 28.11.2021
5158 Clouds 20 1019 61 10000 1.76 131 16:18 28.11.2021
5159 Clouds 21 1019 61 10000 1.76 131 15:31 28.11.2021
5160 Clear 21 1019 57 10000 1.5 153 14:44 28.11.2021
5161 Clear 21 1018 50 10000 0.41 175 12:58 28.11.2021
5162 Clouds 23 1018 49 10000 0.8 146 12:37 28.11.2021
5163 Clouds 25 1016 47 10000 1.2 80 10:54 28.11.2021
5164 Clouds 26 1016 40 10000 1.31 62 10:20 28.11.2021
5165 Clouds 26 1016 40 10000 1.31 62 09:37 28.11.2021
5166 Clouds 25 1018 39 10000 2.1 360 06:30 28.11.2021
5167 Clouds 16 1021 66 10000 2.28 334 23:37 27.11.2021
5168 Clouds 16 1020 62 10000 2.25 5 20:51 27.11.2021
5169 Clouds 17 1020 60 10000 2.11 13 19:18 27.11.2021
5170 Clear 18 1021 63 10000 0.92 86 16:56 27.11.2021
5171 Clear 18 1021 62 10000 1.44 143 15:56 27.11.2021
5172 Clear 21 1020 56 10000 2.93 158 13:47 27.11.2021
5173 Clouds 22 1020 50 10000 2.31 153 12:31 27.11.2021
5174 Clouds 25 1018 45 10000 1.14 103 10:42 27.11.2021
5175 Clouds 25 1017 39 10000 1.44 103 09:51 27.11.2021
5176 Clouds 25 1017 37 10000 1.63 80 08:40 27.11.2021
5177 Clouds 23 1021 39 10000 3.09 42 04:58 27.11.2021
5178 Clear 18 1021 61 10000 3.18 354 01:53 27.11.2021
5179 Clear 18 1020 74 10000 2.36 329 23:35 26.11.2021
5180 Clear 19 1019 69 10000 2.25 343 22:25 26.11.2021
5181 Clear 19 1019 69 10000 2.25 343 21:36 26.11.2021
5182 Clouds 19 1019 67 10000 2.63 348 20:53 26.11.2021
5183 Clouds 19 1019 67 10000 2.27 351 20:19 26.11.2021
5184 Clouds 19 1019 67 10000 2.27 351 19:47 26.11.2021
5185 Clouds 19 1020 68 10000 2.1 7 18:33 26.11.2021
5186 Clouds 19 1021 66 10000 0.96 31 17:23 26.11.2021
5187 Clouds 20 1021 65 10000 0.66 109 15:57 26.11.2021
5188 Clouds 21 1020 61 10000 2.41 119 13:36 26.11.2021
5189 Clouds 21 1019 56 10000 2.29 83 12:34 26.11.2021
5190 Clouds 23 1017 49 10000 2.3 42 10:38 26.11.2021
5191 Clouds 24 1016 40 10000 2.94 29 08:59 26.11.2021
5192 Clouds 24 1016 41 10000 3.09 16 08:21 26.11.2021
5193 Clouds 24 1017 42 10000 3.28 10 07:29 26.11.2021
5194 Clouds 22 1018 44 10000 3.27 6 06:27 26.11.2021
5195 Clouds 23 1019 47 10000 3.35 359 04:51 26.11.2021
5196 Clear 18 1020 58 10000 3.46 349 02:52 26.11.2021
5197 Clouds 16 1018 74 10000 1.83 347 23:18 25.11.2021
5198 Clouds 16 1018 73 10000 1.69 357 21:48 25.11.2021
5199 Clouds 16 1018 70 10000 1.31 357 20:29 25.11.2021
5200 Clear 16 1018 71 10000 1.2 25 18:48 25.11.2021
5201 Clear 17 1019 69 10000 1.1 38 17:48 25.11.2021
5202 Clear 17 1019 67 10000 1.3 48 17:25 25.11.2021
5203 Clear 17 1019 67 10000 1.3 48 16:33 25.11.2021
5204 Clear 18 1018 62 10000 1.03 349 14:59 25.11.2021
5205 Clear 19 1018 61 10000 0.94 299 13:50 25.11.2021
5206 Clear 20 1017 58 10000 1.1 283 12:27 25.11.2021
5207 Clear 20 1017 58 10000 1.1 283 11:50 25.11.2021
5208 Clear 21 1016 48 10000 1.56 358 09:28 25.11.2021
5209 Clouds 20 1019 50 10000 2.38 349 06:18 25.11.2021
5210 Clear 17 1022 61 10000 2.99 325 02:49 25.11.2021
5211 Clouds 16 1019 77 10000 2.64 322 23:28 24.11.2021
5212 Clouds 16 1019 77 10000 2.71 323 22:25 24.11.2021
5213 Clouds 16 1019 77 10000 2.71 323 21:37 24.11.2021
5214 Clear 15 1019 76 10000 2.59 324 20:52 24.11.2021
5215 Clear 16 1020 74 10000 2.47 324 20:19 24.11.2021
5216 Clear 17 1021 72 10000 2.03 343 18:31 24.11.2021
5217 Clear 17 1021 69 10000 2.25 347 17:57 24.11.2021
5218 Clear 18 1021 63 10000 2.13 3 15:39 24.11.2021
5219 Clear 18 1021 61 10000 1.85 17 14:47 24.11.2021
5220 Clear 18 1021 58 10000 2.12 20 14:20 24.11.2021
5221 Clear 19 1020 55 10000 1.83 37 12:34 24.11.2021
5222 Clear 19 1019 51 10000 2.13 24 11:21 24.11.2021
5223 Clear 20 1019 51 10000 2.13 24 10:48 24.11.2021
5224 Clear 20 1018 44 10000 3.13 16 10:22 24.11.2021
5225 Clear 21 1019 41 10000 4.04 8 07:54 24.11.2021
5226 Clouds 20 1020 40 10000 4.28 7 06:54 24.11.2021
5227 Clouds 18 1024 45 10000 4.45 11 03:51 24.11.2021
5228 Clouds 17 1023 59 10000 3.03 357 00:43 24.11.2021
5229 Clouds 17 1021 59 10000 3.21 357 22:40 23.11.2021
5230 Clouds 17 1021 58 10000 3.2 358 22:18 23.11.2021
5231 Clouds 17 1021 58 10000 3.2 358 21:44 23.11.2021
5232 Clouds 18 1022 58 10000 3.33 2 19:37 23.11.2021
5233 Clouds 18 1022 58 10000 3.44 356 18:42 23.11.2021
5234 Clouds 18 1023 56 10000 3.7 355 18:20 23.11.2021
5235 Clouds 18 1023 54 10000 3.78 357 16:58 23.11.2021
5236 Clouds 18 1023 53 10000 4.04 3 15:59 23.11.2021
5237 Clouds 18 1023 53 10000 4.12 7 15:22 23.11.2021
5238 Clouds 18 1023 54 10000 4.05 6 14:22 23.11.2021
5239 Clouds 19 1021 54 10000 3.44 2 11:42 23.11.2021
5240 Clouds 20 1020 49 10000 4.78 13 09:59 23.11.2021
5241 Clouds 20 1020 47 10000 5.42 15 09:18 23.11.2021
5242 Clouds 19 1021 47 10000 5.6 22 06:41 23.11.2021
5243 Clouds 18 1024 53 10000 5.98 22 03:51 23.11.2021
5244 Clouds 17 1022 63 10000 4.17 13 00:57 23.11.2021
5245 Clouds 17 1021 63 10000 4.73 17 23:21 22.11.2021
5246 Clouds 17 1021 63 10000 4.73 17 22:34 22.11.2021
5247 Clouds 17 1020 63 10000 5.15 18 21:49 22.11.2021
5248 Clouds 17 1020 63 10000 5.15 18 21:31 22.11.2021
5249 Clouds 17 1020 63 10000 5.26 18 20:50 22.11.2021
5250 Clouds 17 1020 63 10000 5.14 20 19:47 22.11.2021
5251 Clouds 17 1020 62 10000 5.41 23 19:18 22.11.2021
5252 Clouds 17 1021 62 10000 5.32 24 18:37 22.11.2021
5253 Clouds 18 1021 61 10000 5.59 25 17:18 22.11.2021
5254 Clouds 18 1021 61 10000 5.64 27 15:43 22.11.2021
5255 Clouds 19 1021 61 10000 5.86 24 13:57 22.11.2021
5256 Clouds 20 1019 61 10000 5.84 24 11:41 22.11.2021
5257 Clouds 21 1018 61 10000 5.98 25 10:38 22.11.2021
5258 Clouds 22 1017 61 10000 6.5 29 09:24 22.11.2021
5259 Clouds 21 1017 61 10000 6.5 29 08:36 22.11.2021
5260 Clouds 20 1020 64 10000 7.19 21 04:32 22.11.2021
5261 Clouds 21 1015 74 10000 7.4 33 23:23 21.11.2021
5262 Clouds 22 1015 74 10000 7.4 33 22:46 21.11.2021
5263 Clouds 24 1014 75 10000 7.63 36 21:40 21.11.2021
5264 Clouds 24 1014 79 10000 7.55 36 20:41 21.11.2021
5265 Clouds 24 1014 82 10000 6.55 33 19:45 21.11.2021
5266 Clouds 24 1014 90 10000 2.09 91 17:59 21.11.2021
5267 Clouds 25 1014 90 10000 2.09 91 17:37 21.11.2021
5268 Clouds 25 1014 90 10000 2.09 91 17:37 21.11.2021
5269 Clear 25 1013 86 10000 2.9 129 15:22 21.11.2021
5270 Clear 25 1013 86 10000 2.9 129 14:43 21.11.2021
5271 Clear 26 1013 84 10000 3.4 133 13:31 21.11.2021
5272 Clouds 28 1010 76 10000 3.35 144 12:27 21.11.2021
5273 Clouds 29 1010 76 10000 3.35 144 11:39 21.11.2021
5274 Clouds 30 1009 65 10000 4.65 162 10:20 21.11.2021
5275 Clouds 31 1009 65 10000 4.65 162 09:59 21.11.2021
5276 Clouds 31 1009 66 10000 5.03 162 08:35 21.11.2021
5277 Clouds 30 1009 65 10000 4.89 164 07:57 21.11.2021
5278 Clouds 30 1009 65 10000 4.89 164 07:39 21.11.2021
5279 Clouds 29 1011 72 10000 4.4 172 05:47 21.11.2021
5280 Clouds 26 1012 73 10000 3.96 176 04:35 21.11.2021
5281 Clouds 24 1013 83 10000 2.29 166 03:18 21.11.2021
5282 Clouds 24 1013 83 10000 2.29 166 02:42 21.11.2021
5283 Clouds 24 1012 93 10000 1.76 141 00:53 21.11.2021
5284 Clouds 24 1010 93 10000 1.92 137 23:22 20.11.2021
5285 Clouds 24 1010 92 10000 1.86 119 21:39 20.11.2021
5286 Clouds 24 1010 92 10000 1.82 125 20:39 20.11.2021
5287 Clouds 25 1010 92 10000 2.03 139 18:46 20.11.2021
5288 Clouds 25 1010 92 10000 2.03 139 18:46 20.11.2021
5289 Clouds 24 1011 91 10000 2.25 142 18:25 20.11.2021
5290 Clouds 24 1011 91 10000 2.37 142 17:22 20.11.2021
5291 Clouds 24 1011 91 10000 3.02 143 15:54 20.11.2021
5292 Clouds 24 1011 89 10000 3.2 142 14:39 20.11.2021
5293 Clouds 24 1010 86 10000 3.75 145 14:21 20.11.2021
5294 Clouds 27 1008 79 10000 4.33 149 11:56 20.11.2021
5295 Clouds 27 1006 68 10000 4.7 154 10:28 20.11.2021
5296 Clouds 27 1006 68 10000 4.02 146 08:55 20.11.2021
5297 Clouds 25 1007 71 10000 2.59 144 07:19 20.11.2021
5298 Clouds 22 1010 88 10000 2 138 05:24 20.11.2021
5299 Clouds 22 1010 88 10000 2 138 04:50 20.11.2021
5300 Clouds 20 1011 92 10000 1.9 138 01:34 20.11.2021
5301 Clouds 20 1010 93 10000 1.86 130 00:37 20.11.2021
5302 Clouds 20 1009 92 10000 1.91 127 22:55 19.11.2021
5303 Clouds 20 1008 91 10000 1.98 129 21:44 19.11.2021
5304 Clouds 20 1008 90 10000 1.99 130 20:54 19.11.2021
5305 Clouds 20 1008 90 10000 1.99 130 20:36 19.11.2021
5306 Clouds 21 1009 89 10000 1.95 129 19:49 19.11.2021
5307 Clouds 21 1009 87 10000 2.65 140 18:50 19.11.2021
5308 Clouds 21 1010 84 10000 2.23 145 18:18 19.11.2021
5309 Clouds 20 1010 83 10000 2.17 143 16:47 19.11.2021
5310 Clouds 20 1011 80 10000 2.33 132 15:31 19.11.2021
5311 Clouds 20 1009 78 10000 2.45 115 12:53 19.11.2021
5312 Clouds 22 1007 73 10000 2.28 125 10:27 19.11.2021
5313 Clouds 23 1007 74 10000 2.21 126 08:47 19.11.2021
5314 Clouds 22 1008 75 10000 2.6 132 07:34 19.11.2021
5315 Clouds 21 1013 74 10000 2.42 132 04:24 19.11.2021
5316 Clouds 19 1012 84 10000 1.14 97 01:24 19.11.2021
5317 Clouds 18 1011 88 10000 1.39 119 23:44 18.11.2021
5318 Clouds 17 1011 84 10000 1.73 125 21:42 18.11.2021
5319 Clouds 17 1011 81 10000 1.96 128 20:47 18.11.2021
5320 Clouds 17 1011 78 10000 1.69 122 20:29 18.11.2021
5321 Clouds 17 1011 78 10000 1.69 122 19:43 18.11.2021
5322 Clouds 18 1012 77 10000 1.84 123 18:40 18.11.2021
5323 Clouds 18 1012 74 10000 1.99 130 17:59 18.11.2021
5324 Clouds 18 1012 74 10000 1.99 130 17:36 18.11.2021
5325 Clouds 18 1013 70 10000 2.15 137 16:43 18.11.2021
5326 Clouds 18 1013 64 10000 1.5 125 15:25 18.11.2021
5327 Clouds 20 1012 62 10000 0.76 76 13:25 18.11.2021
5328 Clouds 21 1011 59 10000 0.41 77 11:45 18.11.2021
5329 Clouds 22 1011 58 10000 0.37 342 11:26 18.11.2021
5330 Clouds 22 1011 58 10000 0.37 342 10:56 18.11.2021
5331 Clouds 22 1011 50 10000 1.16 322 09:32 18.11.2021
5332 Clouds 22 1012 49 10000 1.84 334 07:34 18.11.2021
5333 Clouds 22 1015 49 10000 2.7 345 05:47 18.11.2021
5334 Clouds 21 1016 52 10000 3.07 358 04:31 18.11.2021
5335 Clouds 19 1018 69 10000 3 339 01:22 18.11.2021
5336 Clouds 19 1018 69 10000 3 339 01:22 18.11.2021
5337 Clouds 19 1017 66 10000 3.13 351 22:48 17.11.2021
5338 Clouds 19 1017 65 10000 3.3 357 22:20 17.11.2021
5339 Clouds 20 1017 65 10000 3.3 357 21:37 17.11.2021
5340 Clouds 20 1018 64 10000 3.72 6 20:18 17.11.2021
5341 Clouds 20 1019 65 10000 4.04 13 17:48 17.11.2021
5342 Clouds 20 1019 64 10000 4.19 14 17:23 17.11.2021
5343 Clouds 20 1019 64 10000 4.19 14 17:23 17.11.2021
5344 Clouds 21 1019 64 10000 5.13 17 14:18 17.11.2021
5345 Clouds 21 1018 66 10000 4.99 23 12:39 17.11.2021
5346 Clouds 21 1017 66 10000 5 26 11:41 17.11.2021
5347 Clouds 21 1016 70 10000 5.95 28 10:28 17.11.2021
5348 Clouds 21 1016 73 10000 6.47 28 09:23 17.11.2021
5349 Clouds 22 1016 76 10000 6.08 28 07:42 17.11.2021
5350 Clouds 21 1019 75 10000 2.02 15 03:43 17.11.2021
5351 Clouds 21 1017 82 10000 1.28 2 01:18 17.11.2021
5352 Clouds 21 1016 83 10000 1.48 1 22:54 16.11.2021
5353 Clouds 21 1015 83 10000 1.49 10 20:37 16.11.2021
5354 Clouds 21 1016 83 10000 1.28 9 20:18 16.11.2021
5355 Clouds 21 1016 83 10000 1.37 5 18:53 16.11.2021
5356 Clouds 21 1016 83 10000 1.37 5 18:30 16.11.2021
5357 Clouds 21 1016 83 10000 1.25 2 17:38 16.11.2021
5358 Clouds 21 1017 82 10000 0.78 3 16:35 16.11.2021
5359 Clouds 21 1017 82 10000 0.54 2 15:49 16.11.2021
5360 Clouds 21 1017 82 10000 0.56 21 14:39 16.11.2021
5361 Clouds 21 1014 81 10000 1.79 14 11:28 16.11.2021
5362 Clouds 21 1013 79 10000 1.53 20 09:46 16.11.2021
5363 Clouds 21 1013 79 10000 0.92 33 08:26 16.11.2021
5364 Clouds 21 1013 77 10000 0.79 8 07:31 16.11.2021
5365 Clouds 21 1016 79 10000 0.21 31 01:44 16.11.2021
5366 Clouds 21 1014 78 10000 0.75 116 23:20 15.11.2021
5367 Clouds 22 1014 78 10000 0.75 116 22:30 15.11.2021
5368 Clouds 22 1014 79 10000 0.93 122 21:52 15.11.2021
5369 Clouds 22 1014 79 10000 0.92 131 21:28 15.11.2021
5370 Clouds 22 1014 79 10000 0.58 144 19:41 15.11.2021
5371 Clouds 22 1015 79 10000 1.02 163 18:30 15.11.2021
5372 Clouds 22 1016 78 10000 1.64 194 16:20 15.11.2021
5373 Clouds 22 1016 78 10000 1.64 194 15:40 15.11.2021
5374 Clouds 22 1016 78 10000 2.05 175 15:21 15.11.2021
5375 Clouds 23 1015 76 10000 2.89 149 13:22 15.11.2021
5376 Clouds 25 1013 74 10000 4.45 142 10:57 15.11.2021
5377 Clouds 25 1013 58 10000 3.58 150 09:27 15.11.2021
5378 Clouds 26 1013 52 10000 2.98 146 07:45 15.11.2021
5379 Clouds 24 1016 49 10000 2.28 117 04:46 15.11.2021
5380 Clouds 19 1016 76 10000 1.58 114 23:37 14.11.2021
5381 Clouds 19 1016 76 10000 1.47 112 22:34 14.11.2021
5382 Clouds 20 1016 74 10000 2.05 140 19:53 14.11.2021
5383 Clouds 20 1016 71 10000 2.02 146 19:18 14.11.2021
5384 Clouds 20 1016 71 10000 2.02 146 18:54 14.11.2021
5385 Clouds 20 1016 71 10000 2.02 146 18:36 14.11.2021
5386 Clouds 20 1016 71 10000 2.32 156 18:18 14.11.2021
5387 Clouds 20 1016 71 10000 2.32 156 17:54 14.11.2021
5388 Clouds 19 1016 71 10000 2.32 156 17:36 14.11.2021
5389 Clouds 19 1017 71 10000 2.87 155 17:18 14.11.2021
5390 Clouds 20 1017 71 10000 2.87 155 16:45 14.11.2021
5391 Clouds 20 1017 70 10000 3.13 153 16:19 14.11.2021
5392 Clouds 20 1017 69 10000 3.57 150 15:22 14.11.2021
5393 Clouds 20 1017 69 10000 3.57 150 14:45 14.11.2021
5394 Clouds 21 1017 65 10000 3.58 147 14:23 14.11.2021
5395 Clouds 21 1017 65 10000 3.58 147 13:53 14.11.2021
5396 Clouds 22 1017 65 10000 3.58 147 13:32 14.11.2021
5397 Clouds 22 1016 55 10000 0.88 142 12:26 14.11.2021
5398 Clouds 24 1016 55 10000 0.88 142 11:34 14.11.2021
5399 Clouds 25 1015 52 10000 1.12 142 10:40 14.11.2021
5400 Clouds 26 1014 46 10000 1.05 135 09:42 14.11.2021
5401 Clouds 26 1014 44 10000 0.96 120 08:52 14.11.2021
5402 Clouds 25 1016 44 10000 1.31 36 06:51 14.11.2021
5403 Clouds 18 1018 70 10000 1.76 24 23:27 13.11.2021
5404 Clouds 17 1018 70 10000 1.99 29 22:21 13.11.2021
5405 Clouds 17 1018 70 10000 1.99 29 21:49 13.11.2021
5406 Clouds 16 1018 70 10000 1.9 37 20:59 13.11.2021
5407 Clouds 17 1018 69 10000 1.95 28 19:33 13.11.2021
5408 Clouds 17 1019 71 10000 1.93 29 18:32 13.11.2021
5409 Clouds 19 1019 70 10000 1.94 45 17:41 13.11.2021
5410 Clouds 19 1019 65 10000 2.35 45 16:29 13.11.2021
5411 Clouds 19 1019 63 10000 2.14 29 14:45 13.11.2021
5412 Clouds 20 1019 60 10000 1.65 4 13:56 13.11.2021
5413 Clouds 21 1018 59 10000 1.5 358 12:43 13.11.2021
5414 Clouds 22 1017 57 10000 1.31 350 11:51 13.11.2021
5415 Clouds 23 1016 54 10000 1.6 360 11:22 13.11.2021
5416 Clouds 24 1016 54 10000 1.6 360 10:34 13.11.2021
5417 Clouds 24 1015 46 10000 2.35 15 09:49 13.11.2021
5418 Clouds 24 1015 44 10000 2.49 17 09:28 13.11.2021
5419 Clouds 24 1015 44 10000 2.49 17 08:49 13.11.2021
5420 Clouds 24 1016 44 10000 2.95 12 07:54 13.11.2021
5421 Clouds 22 1020 51 10000 5.04 19 04:43 13.11.2021
5422 Clouds 22 1022 53 10000 5.2 17 04:20 13.11.2021
5423 Clouds 20 1020 60 10000 4.76 17 00:18 13.11.2021
5424 Clouds 20 1020 61 10000 4.65 20 22:34 12.11.2021
5425 Clouds 20 1020 61 10000 4.65 20 22:34 12.11.2021
5426 Clouds 20 1020 62 10000 4.6 23 20:49 12.11.2021
5427 Clouds 20 1020 61 10000 5.43 24 19:32 12.11.2021
5428 Clouds 20 1020 61 10000 5.43 24 18:59 12.11.2021
5429 Clouds 20 1021 61 10000 5.2 22 18:20 12.11.2021
5430 Clouds 22 1021 58 10000 3.67 22 15:55 12.11.2021
5431 Clouds 22 1020 58 10000 2.87 14 13:46 12.11.2021
5432 Clouds 23 1018 55 10000 3.41 40 11:26 12.11.2021
5433 Clouds 24 1018 55 10000 3.41 40 10:40 12.11.2021
5434 Clouds 24 1017 46 10000 4.62 29 08:56 12.11.2021
5435 Clouds 24 1017 45 10000 4.39 29 07:49 12.11.2021
5436 Clouds 21 1018 61 10000 2.88 12 00:21 12.11.2021
5437 Clouds 20 1018 61 10000 2.88 12 23:30 11.11.2021
5438 Clouds 20 1018 63 10000 2.11 4 22:21 11.11.2021
5439 Clouds 20 1017 65 10000 1.66 16 21:26 11.11.2021
5440 Clouds 20 1018 65 10000 1.59 34 19:56 11.11.2021
5441 Clouds 20 1018 68 10000 0.99 50 18:40 11.11.2021
5442 Clouds 20 1018 69 10000 0.74 112 17:41 11.11.2021
5443 Clouds 20 1019 67 10000 1.95 134 15:41 11.11.2021
5444 Clouds 22 1018 65 10000 2.44 131 14:39 11.11.2021
5445 Clouds 22 1018 63 10000 3.13 133 14:21 11.11.2021
5446 Clouds 21 1018 63 10000 3.13 133 13:35 11.11.2021
5447 Clouds 23 1015 57 10000 2.2 125 12:27 11.11.2021
5448 Clouds 25 1014 44 10000 1.64 139 09:58 11.11.2021
5449 Clouds 25 1013 42 10000 1.71 133 09:22 11.11.2021
5450 Clouds 25 1015 40 10000 1.33 94 06:55 11.11.2021
5451 Clouds 16 1019 63 10000 1.24 3 00:38 11.11.2021
5452 Clouds 17 1017 66 10000 1.37 21 22:42 10.11.2021
5453 Clouds 17 1017 67 10000 1.63 19 21:53 10.11.2021
5454 Clouds 18 1017 68 10000 1.61 23 20:55 10.11.2021
5455 Clouds 18 1017 69 10000 2.11 11 19:55 10.11.2021
5456 Clouds 17 1017 69 10000 2.11 11 19:35 10.11.2021
5457 Clouds 19 1018 64 10000 1.17 13 17:19 10.11.2021
5458 Clouds 20 1019 63 10000 1.28 350 15:46 10.11.2021
5459 Clouds 20 1018 60 10000 1.26 328 14:24 10.11.2021
5460 Clouds 20 1018 60 10000 1.26 328 13:36 10.11.2021
5461 Clouds 21 1016 57 10000 2.09 346 12:23 10.11.2021
5462 Clouds 24 1016 43 10000 3.26 3 09:18 10.11.2021
5463 Clouds 23 1016 43 10000 3.26 3 08:41 10.11.2021
5464 Clouds 22 1018 37 10000 3.82 12 06:45 10.11.2021
5465 Clouds 22 1020 36 10000 4.56 18 05:58 10.11.2021
5466 Clouds 19 1023 46 10000 4.53 18 01:56 10.11.2021
5467 Clouds 19 1021 51 10000 3.73 15 21:59 09.11.2021
5468 Clouds 19 1021 52 10000 4.1 15 20:39 09.11.2021
5469 Clouds 19 1021 53 10000 4.17 26 19:29 09.11.2021
5470 Clouds 19 1021 53 10000 4.17 26 18:48 09.11.2021
5471 Clouds 19 1022 59 10000 4.41 29 16:40 09.11.2021
5472 Clear 20 1021 57 10000 3.01 41 15:20 09.11.2021
5473 Clouds 21 1019 55 10000 2.55 59 13:31 09.11.2021
5474 Clouds 21 1018 53 10000 2.56 85 12:28 09.11.2021
5475 Clear 23 1017 51 10000 2.47 85 10:55 09.11.2021
5476 Clear 24 1017 42 10000 2.8 67 09:59 09.11.2021
5477 Clear 24 1017 40 10000 2.91 58 08:54 09.11.2021
5478 Clear 23 1018 39 10000 3.45 42 07:28 09.11.2021
5479 Clear 19 1022 49 10000 4.99 23 02:35 09.11.2021
5480 Clear 18 1022 54 10000 4.59 18 01:50 09.11.2021
5481 Clouds 17 1021 67 10000 2.77 6 00:30 09.11.2021
5482 Clouds 17 1021 67 10000 2.77 6 00:30 09.11.2021
5483 Clouds 17 1021 67 10000 2.77 6 00:30 09.11.2021
5484 Clouds 17 1021 67 10000 2.77 6 00:30 09.11.2021
5485 Clouds 18 1019 67 10000 2.78 10 23:29 08.11.2021
5486 Clouds 18 1019 67 10000 2.78 10 22:36 08.11.2021
5487 Clouds 18 1019 65 10000 2.79 358 21:31 08.11.2021
5488 Clouds 18 1019 65 10000 3.1 4 20:33 08.11.2021
5489 Clouds 18 1020 64 10000 3.41 11 19:20 08.11.2021
5490 Clouds 18 1020 64 10000 3.12 15 17:39 08.11.2021
5491 Clouds 18 1020 64 10000 3.12 15 17:39 08.11.2021
5492 Clouds 18 1021 62 10000 2.85 20 15:48 08.11.2021
5493 Clouds 19 1021 62 10000 2.94 21 14:55 08.11.2021
5494 Clouds 19 1021 62 10000 2.8 24 14:24 08.11.2021
5495 Clouds 19 1020 62 10000 2.85 30 12:48 08.11.2021
5496 Clouds 19 1019 62 10000 2.99 29 11:37 08.11.2021
5497 Clouds 19 1019 62 10000 3.17 26 10:35 08.11.2021
5498 Clouds 20 1018 60 10000 4.42 22 08:56 08.11.2021
5499 Clouds 20 1019 61 10000 4.84 22 07:47 08.11.2021
5500 Clouds 19 1019 60 10000 5.14 27 06:54 08.11.2021
5501 Clouds 19 1022 60 10000 5.64 19 03:35 08.11.2021
5502 Clouds 21 1020 65 10000 7.53 21 23:51 07.11.2021
5503 Clouds 21 1019 66 10000 7.97 23 22:30 07.11.2021
5504 Clouds 22 1018 69 10000 8.18 31 21:22 07.11.2021
5505 Clouds 24 1017 69 10000 9.09 34 19:55 07.11.2021
5506 Clouds 23 1016 72 10000 8.83 35 18:26 07.11.2021
5507 Clouds 23 1016 72 10000 8.83 35 17:38 07.11.2021
5508 Clouds 24 1015 79 10000 7.17 30 16:20 07.11.2021
5509 Clouds 26 1014 79 9225 2.47 76 14:42 07.11.2021
5510 Clouds 26 1013 77 10000 2.25 129 13:57 07.11.2021
5511 Clouds 27 1011 75 10000 2.65 122 11:54 07.11.2021
5512 Clouds 30 1009 66 10000 3.83 118 10:22 07.11.2021
5513 Clouds 30 1009 63 10000 3.79 116 08:48 07.11.2021
5514 Clouds 26 1013 73 10000 2.11 144 02:49 07.11.2021
5515 Clouds 25 1010 91 10000 1.68 143 23:42 06.11.2021
5516 Clouds 24 1009 93 10000 1.66 136 22:52 06.11.2021
5517 Clouds 24 1008 95 10000 1.76 136 21:36 06.11.2021
5518 Clouds 25 1008 95 10000 2.09 140 20:52 06.11.2021
5519 Clouds 25 1008 88 10000 2.72 140 19:36 06.11.2021
5520 Clouds 25 1009 91 10000 3 152 17:18 06.11.2021
5521 Clouds 26 1009 89 10000 3.52 159 15:39 06.11.2021
5522 Clear 27 1008 83 10000 3.96 155 13:39 06.11.2021
5523 Clouds 28 1008 81 10000 4.13 147 12:36 06.11.2021
5524 Clouds 30 1005 71 10000 3.74 140 09:42 06.11.2021
5525 Clouds 29 1005 69 10000 3.92 155 08:24 06.11.2021
5526 Clouds 26 1010 77 10000 3.45 164 03:20 06.11.2021
5527 Clouds 24 1007 96 10000 1.72 139 23:40 05.11.2021
5528 Clouds 24 1007 96 10000 2 140 22:52 05.11.2021
5529 Clouds 24 1007 95 10000 2.25 139 21:55 05.11.2021
5530 Clouds 24 1007 93 10000 2.66 142 20:20 05.11.2021
5531 Clouds 24 1007 95 10000 2.74 147 19:49 05.11.2021
5532 Clear 24 1008 94 10000 3.3 143 18:41 05.11.2021
5533 Clear 25 1009 89 10000 3.74 154 17:31 05.11.2021
5534 Clear 24 1009 88 10000 4.21 159 15:48 05.11.2021
5535 Clear 27 1009 84 10000 4.81 157 13:55 05.11.2021
5536 Clouds 29 1007 77 10000 5.7 150 11:42 05.11.2021
5537 Clouds 30 1006 59 10000 4.07 156 08:41 05.11.2021
5538 Clouds 29 1006 59 10000 3.4 169 07:39 05.11.2021
5539 Clouds 28 1009 63 10000 3.62 189 05:33 05.11.2021
5540 Clouds 25 1012 84 10000 3.11 175 02:26 05.11.2021
5541 Clouds 24 1011 92 10000 2.34 162 00:52 05.11.2021
5542 Clouds 24 1010 96 10000 2.2 153 23:24 04.11.2021
5543 Clouds 24 1010 95 10000 2.52 158 22:19 04.11.2021
5544 Clouds 24 1010 95 10000 2.52 158 21:38 04.11.2021
5545 Clouds 24 1010 95 10000 3.02 160 20:53 04.11.2021
5546 Clouds 24 1010 94 10000 3.35 154 20:22 04.11.2021
5547 Clouds 24 1010 94 10000 3.35 154 19:47 04.11.2021
5548 Clouds 24 1011 94 10000 3.42 153 18:52 04.11.2021
5549 Clouds 24 1012 93 10000 3.5 152 18:18 04.11.2021
5550 Clear 25 1012 91 10000 3.76 153 16:48 04.11.2021
5551 Clear 26 1012 87 10000 4.09 151 14:42 04.11.2021
5552 Clouds 28 1011 80 10000 4.67 148 12:32 04.11.2021
5553 Clouds 30 1008 62 10000 4.66 153 09:42 04.11.2021
5554 Clouds 30 1008 57 10000 4.83 169 08:31 04.11.2021
5555 Clouds 30 1009 56 10000 5.04 173 07:35 04.11.2021
5556 Clouds 28 1013 62 10000 3.56 176 04:47 04.11.2021
5557 Clouds 23 1012 95 10000 2.76 122 22:53 03.11.2021
5558 Clouds 23 1012 95 10000 2.66 122 21:49 03.11.2021
5559 Clouds 23 1012 95 10000 2.66 122 21:30 03.11.2021
5560 Clouds 23 1012 91 10000 2.67 129 20:35 03.11.2021
5561 Clouds 24 1013 91 10000 2.51 123 19:58 03.11.2021
5562 Clouds 24 1014 91 10000 2.23 120 18:57 03.11.2021
5563 Clouds 24 1014 91 10000 2.24 123 18:23 03.11.2021
5564 Clouds 23 1014 91 10000 2.24 123 17:36 03.11.2021
5565 Clouds 23 1015 91 10000 2.89 141 16:26 03.11.2021
5566 Clouds 24 1015 91 10000 2.89 141 15:43 03.11.2021
5567 Clouds 23 1015 89 10000 3.7 142 13:55 03.11.2021
5568 Clouds 25 1013 85 10000 4.13 139 11:54 03.11.2021
5569 Clouds 26 1012 79 10000 4.42 136 11:25 03.11.2021
5570 Clouds 27 1012 79 10000 4.42 136 10:41 03.11.2021
5571 Clouds 27 1011 70 10000 4 136 09:30 03.11.2021
5572 Clouds 27 1012 67 10000 3.24 134 08:22 03.11.2021
5573 Clouds 25 1012 67 10000 3.24 134 07:39 03.11.2021
5574 Clouds 23 1016 77 10000 1.46 117 04:45 03.11.2021
5575 Clouds 22 1017 85 10000 1.56 45 02:28 03.11.2021
5576 Clouds 21 1016 89 10000 1.38 32 23:47 02.11.2021
5577 Clouds 21 1015 89 10000 1.64 39 22:35 02.11.2021
5578 Clouds 21 1015 90 10000 1.68 43 21:25 02.11.2021
5579 Clouds 21 1015 90 10000 1.68 43 20:32 02.11.2021
5580 Clouds 21 1016 90 10000 1.65 36 19:47 02.11.2021
5581 Clouds 21 1016 91 10000 1.77 1 18:51 02.11.2021
5582 Clouds 21 1017 91 10000 1.86 359 17:58 02.11.2021
5583 Clouds 22 1017 91 10000 1.86 359 17:32 02.11.2021
5584 Clouds 22 1018 91 10000 1.83 339 16:29 02.11.2021
5585 Clouds 22 1018 91 10000 1.68 329 15:26 02.11.2021
5586 Clouds 22 1017 91 10000 1.65 325 14:18 02.11.2021
5587 Clouds 22 1017 91 10000 1.74 320 13:27 02.11.2021
5588 Clouds 22 1017 90 10000 1.68 322 12:33 02.11.2021
5589 Clouds 22 1015 87 10000 2.28 330 11:31 02.11.2021
5590 Clouds 22 1015 87 10000 2.28 330 10:51 02.11.2021
5591 Clouds 22 1014 84 10000 2.29 332 10:25 02.11.2021
5592 Clouds 22 1014 80 10000 2.15 341 08:43 02.11.2021
5593 Clouds 23 1016 73 10000 1.75 9 06:43 02.11.2021
5594 Clouds 22 1019 82 10000 1.83 9 03:33 02.11.2021
5595 Clouds 21 1018 88 10000 1.51 8 00:59 02.11.2021
5596 Clouds 21 1016 89 10000 1.69 23 22:28 01.11.2021
5597 Clouds 21 1016 89 10000 1.65 19 20:52 01.11.2021
5598 Clouds 22 1016 89 10000 1.65 19 20:32 01.11.2021
5599 Clouds 22 1017 90 10000 1.55 20 19:44 01.11.2021
5600 Clouds 22 1017 89 10000 1.91 351 18:57 01.11.2021
5601 Clouds 22 1018 89 10000 2.09 354 18:19 01.11.2021
5602 Clouds 22 1018 89 10000 2 353 17:18 01.11.2021
5603 Clouds 22 1018 89 10000 2 353 16:34 01.11.2021
5604 Clouds 22 1018 88 10000 1.89 347 15:44 01.11.2021
5605 Clouds 22 1018 89 10000 1.76 343 15:19 01.11.2021
5606 Clouds 22 1018 89 10000 1.76 343 14:40 01.11.2021
5607 Clouds 22 1018 89 10000 1.76 345 14:19 01.11.2021
5608 Clouds 22 1017 89 10000 1.89 345 12:53 01.11.2021
5609 Clouds 22 1016 89 10000 1.98 348 11:39 01.11.2021
5610 Clouds 22 1015 85 10000 2.29 2 10:21 01.11.2021
5611 Clouds 22 1015 81 10000 2.76 6 08:26 01.11.2021
5612 Clouds 22 1015 81 10000 2.76 6 07:47 01.11.2021
5613 Clouds 21 1019 84 10000 2.38 10 03:55 01.11.2021
5614 Clouds 21 1019 84 10000 2.38 10 03:36 01.11.2021
5615 Clouds 20 1017 92 10000 1.97 11 23:58 31.10.2021
5616 Clouds 20 1016 93 10000 2 9 20:59 31.10.2021
5617 Clouds 20 1016 93 10000 1.92 11 19:54 31.10.2021
5618 Clouds 20 1017 93 10000 1.76 342 18:43 31.10.2021
5619 Clouds 21 1018 92 10000 1.91 331 18:21 31.10.2021
5620 Clouds 21 1018 92 10000 2.06 327 16:48 31.10.2021
5621 Clouds 21 1019 91 10000 1.89 329 14:53 31.10.2021
5622 Clouds 21 1017 91 10000 1.92 332 12:57 31.10.2021
5623 Clouds 21 1016 91 10000 1.95 332 11:56 31.10.2021
5624 Clouds 21 1016 91 10000 1.93 332 10:48 31.10.2021
5625 Clouds 21 1015 89 10000 2.03 335 09:26 31.10.2021
5626 Clouds 21 1015 89 10000 2.03 335 08:45 31.10.2021
5627 Clouds 20 1019 86 10000 1.32 358 02:52 31.10.2021
5628 Clouds 20 1018 90 10000 1.76 354 00:32 31.10.2021
5629 Clouds 20 1017 90 10000 1.75 357 22:20 30.10.2021
5630 Clouds 20 1017 91 10000 1.9 359 21:27 30.10.2021
5631 Clouds 19 1018 91 10000 2.07 354 19:49 30.10.2021
5632 Clouds 20 1019 91 10000 1.97 341 17:49 30.10.2021
5633 Clouds 20 1019 90 10000 2.09 338 15:42 30.10.2021
5634 Clouds 20 1018 92 10000 2.47 353 13:59 30.10.2021
5635 Clouds 20 1018 92 10000 2.47 353 13:59 30.10.2021
5636 Clouds 19 1018 92 10000 2.47 353 13:38 30.10.2021
5637 Clouds 19 1018 92 10000 2.47 353 13:38 30.10.2021
5638 Clouds 19 1018 92 10000 2.56 352 13:20 30.10.2021
5639 Clouds 19 1017 92 10000 2.7 353 11:49 30.10.2021
5640 Clouds 19 1017 92 10000 2.74 349 10:56 30.10.2021
5641 Clouds 19 1017 91 10000 3.19 350 08:57 30.10.2021
5642 Clouds 20 1018 88 10000 2.7 354 07:56 30.10.2021
5643 Clouds 20 1020 85 10000 3.03 2 05:46 30.10.2021
5644 Clouds 20 1020 89 10000 3.54 8 02:59 30.10.2021
5645 Clouds 21 1017 89 10000 3.93 17 23:21 29.10.2021
5646 Clouds 21 1017 89 10000 3.93 17 22:34 29.10.2021
5647 Clouds 21 1017 91 10000 4.06 15 20:59 29.10.2021
5648 Clouds 22 1017 91 10000 4.06 15 20:32 29.10.2021
5649 Clouds 22 1018 94 10000 2.21 355 19:18 29.10.2021
5650 Clouds 22 1019 94 10000 1.96 344 17:28 29.10.2021
5651 Clouds 22 1018 95 10000 2.23 351 15:26 29.10.2021
5652 Clouds 22 1017 95 10000 1.62 337 12:30 29.10.2021
5653 Clouds 22 1016 94 10000 2.47 341 10:46 29.10.2021
5654 Clouds 22 1016 93 10000 2.56 339 09:45 29.10.2021
5655 Clouds 21 1018 95 10000 2.8 322 02:22 29.10.2021
5656 Clouds 21 1016 93 10000 2.76 329 23:47 28.10.2021
5657 Clouds 21 1016 93 10000 2.89 326 22:27 28.10.2021
5658 Clouds 21 1016 93 10000 2.66 321 20:59 28.10.2021
5659 Clouds 21 1017 92 10000 2.94 330 19:52 28.10.2021
5660 Clouds 21 1017 92 10000 2.94 330 19:52 28.10.2021
5661 Clouds 21 1018 91 10000 2.79 328 18:36 28.10.2021
5662 Clouds 21 1019 91 10000 2.53 328 17:27 28.10.2021
5663 Clouds 21 1019 91 10000 2.53 328 16:37 28.10.2021
5664 Clouds 21 1018 90 10000 2.79 324 14:40 28.10.2021
5665 Clouds 21 1017 90 10000 2.75 326 13:32 28.10.2021
5666 Clouds 21 1017 90 10000 2.85 333 12:49 28.10.2021
5667 Clouds 21 1016 89 10000 2.71 327 11:26 28.10.2021
5668 Rain 21 1016 89 10000 3.09 329 09:55 28.10.2021
5669 Clouds 21 1016 89 10000 3.09 329 09:35 28.10.2021
5670 Clouds 21 1016 88 10000 3.24 330 08:36 28.10.2021
5671 Rain 22 1016 90 10000 3.1 325 07:40 28.10.2021
5672 Clouds 24 1016 71 10000 2.35 16 00:41 28.10.2021
5673 Clouds 24 1015 71 10000 2.12 352 22:45 27.10.2021
5674 Clouds 25 1015 71 10000 2.25 1 21:35 27.10.2021
5675 Clouds 25 1015 70 10000 2.09 1 20:58 27.10.2021
5676 Clouds 25 1015 70 10000 2.09 1 20:39 27.10.2021
5677 Clouds 25 1016 70 10000 0.68 301 19:44 27.10.2021
5678 Clouds 25 1017 71 10000 0.79 214 18:55 27.10.2021
5679 Clouds 25 1017 70 10000 1.6 150 16:49 27.10.2021
5680 Clouds 25 1017 70 10000 2.12 147 16:24 27.10.2021
5681 Clouds 25 1016 68 10000 2.46 135 15:24 27.10.2021
5682 Clouds 27 1015 64 10000 3 132 13:42 27.10.2021
5683 Clouds 29 1013 51 10000 2.02 73 11:18 27.10.2021
5684 Clouds 29 1013 51 10000 2.02 73 10:36 27.10.2021
5685 Clouds 29 1014 44 10000 2.95 26 08:58 27.10.2021
5686 Clear 28 1014 45 10000 3.2 19 07:38 27.10.2021
5687 Clear 26 1017 48 10000 3.67 22 05:37 27.10.2021
5688 Clouds 20 1016 77 10000 1.96 6 01:21 27.10.2021
5689 Clouds 20 1016 77 10000 1.96 6 00:39 27.10.2021
5690 Clouds 21 1016 76 10000 1.86 357 23:52 26.10.2021
5691 Clouds 20 1015 75 10000 1.53 352 22:43 26.10.2021
5692 Clouds 21 1016 74 10000 1.19 1 22:20 26.10.2021
5693 Clouds 21 1016 73 10000 0.78 8 20:59 26.10.2021
5694 Clear 22 1017 77 10000 0.65 159 19:33 26.10.2021
5695 Clear 21 1017 76 10000 1.42 157 18:54 26.10.2021
5696 Clear 23 1017 76 10000 1.85 153 17:36 26.10.2021
5697 Clear 23 1017 74 10000 2.64 153 15:40 26.10.2021
5698 Clouds 28 1013 58 10000 1.15 103 11:50 26.10.2021
5699 Clouds 28 1013 51 10000 1.41 108 10:46 26.10.2021
5700 Clouds 28 1014 51 10000 1.72 103 08:24 26.10.2021
5701 Clouds 27 1015 54 10000 1.44 121 07:21 26.10.2021
5702 Clouds 19 1014 82 10000 0.82 109 23:53 25.10.2021
5703 Clear 19 1014 81 10000 1.37 128 23:20 25.10.2021
5704 Clear 19 1015 80 10000 1.77 131 22:21 25.10.2021
5705 Clear 20 1015 80 10000 1.77 131 21:40 25.10.2021
5706 Clear 20 1015 78 10000 1.93 145 20:19 25.10.2021
5707 Clear 20 1015 78 10000 1.93 145 19:42 25.10.2021
5708 Clear 20 1016 78 10000 2.34 156 19:20 25.10.2021
5709 Clear 21 1016 78 10000 2.34 156 18:33 25.10.2021
5710 Clear 22 1016 75 10000 2.98 158 16:38 25.10.2021
5711 Clear 23 1016 67 10000 2.54 144 14:45 25.10.2021
5712 Clear 24 1014 59 10000 1.41 122 12:31 25.10.2021
5713 Clear 27 1014 47 10000 1.82 51 10:30 25.10.2021
5714 Clear 27 1015 47 10000 2.21 41 08:54 25.10.2021
5715 Clear 26 1018 51 10000 3 24 06:26 25.10.2021
5716 Clear 19 1019 72 10000 2.68 345 02:42 25.10.2021
5717 Clear 18 1018 83 10000 2.13 337 00:47 25.10.2021
5718 Clear 18 1018 82 10000 2.2 341 23:47 24.10.2021
5719 Clear 18 1018 82 10000 2.2 341 23:47 24.10.2021
5720 Clouds 18 1018 81 10000 2.25 340 22:56 24.10.2021
5721 Clouds 18 1018 81 10000 2.25 340 22:36 24.10.2021
5722 Clouds 18 1018 80 10000 2.17 344 22:18 24.10.2021
5723 Clouds 19 1018 79 10000 2.14 348 20:46 24.10.2021
5724 Clouds 19 1019 76 10000 2 19 20:27 24.10.2021
5725 Clouds 20 1019 74 10000 1.89 22 18:53 24.10.2021
5726 Clouds 20 1020 72 10000 1.56 17 17:58 24.10.2021
5727 Clouds 20 1020 69 10000 1.28 7 17:18 24.10.2021
5728 Clouds 21 1020 69 10000 1.6 4 15:47 24.10.2021
5729 Clouds 22 1019 69 10000 1.89 11 13:52 24.10.2021
5730 Clouds 24 1018 68 10000 2.15 4 12:41 24.10.2021
5731 Clouds 25 1018 67 10000 2.51 8 11:41 24.10.2021
5732 Clouds 25 1018 62 10000 3.07 12 10:45 24.10.2021
5733 Clouds 25 1018 59 10000 3.78 8 09:38 24.10.2021
5734 Clouds 23 1022 58 10000 4.24 1 05:35 24.10.2021
5735 Clouds 19 1021 71 10000 2.84 349 00:40 24.10.2021
5736 Clouds 19 1020 74 10000 2.85 360 23:24 23.10.2021
5737 Clouds 19 1020 74 10000 2.69 9 21:45 23.10.2021
5738 Clouds 19 1021 74 10000 2.37 26 19:39 23.10.2021
5739 Clouds 20 1021 73 10000 2.16 36 18:46 23.10.2021
5740 Clouds 20 1022 72 10000 2.31 51 18:21 23.10.2021
5741 Clouds 20 1022 72 10000 2.31 51 17:42 23.10.2021
5742 Clouds 20 1022 71 10000 2.52 46 16:18 23.10.2021
5743 Clouds 22 1020 68 10000 2.63 53 13:51 23.10.2021
5744 Clouds 19 1023 67 10000 3.88 21 02:36 23.10.2021
5745 Clouds 19 1021 68 10000 3.65 22 23:41 22.10.2021
5746 Clouds 18 1021 67 10000 3.88 28 21:39 22.10.2021
5747 Clouds 19 1022 64 10000 4.32 24 19:43 22.10.2021
5748 Clouds 19 1022 64 10000 4.51 21 18:33 22.10.2021
5749 Clouds 19 1023 64 10000 4.93 21 17:19 22.10.2021
5750 Clouds 19 1022 66 10000 5.32 23 14:58 22.10.2021
5751 Clouds 20 1021 66 10000 5.7 19 12:45 22.10.2021
5752 Clouds 20 1019 67 10000 5.76 22 10:57 22.10.2021
5753 Clouds 21 1019 67 10000 5.76 22 10:33 22.10.2021
5754 Clouds 21 1019 67 10000 5.93 22 09:34 22.10.2021
5755 Clouds 21 1020 69 10000 5.95 23 07:40 22.10.2021
5756 Clouds 21 1021 69 10000 5.99 23 07:21 22.10.2021
5757 Clouds 21 1021 69 10000 5.99 23 07:21 22.10.2021
5758 Clouds 20 1020 70 10000 4.96 17 01:41 22.10.2021
5759 Clouds 20 1018 69 10000 4.99 17 23:50 21.10.2021
5760 Clouds 20 1018 67 10000 5.09 17 22:43 21.10.2021
5761 Clouds 20 1018 68 10000 5.16 20 21:28 21.10.2021
5762 Clouds 20 1018 68 10000 5.15 20 20:23 21.10.2021
5763 Clouds 20 1018 68 10000 5.15 20 19:51 21.10.2021
5764 Clouds 20 1019 70 10000 5.28 19 19:24 21.10.2021
5765 Clouds 20 1019 70 10000 5.28 19 18:32 21.10.2021
5766 Clouds 20 1019 70 10000 5.36 20 17:51 21.10.2021
5767 Clouds 20 1019 71 10000 5.25 19 16:47 21.10.2021
5768 Clouds 20 1018 72 10000 4.72 21 15:28 21.10.2021
5769 Clouds 20 1018 72 10000 4.72 21 14:51 21.10.2021
5770 Clouds 21 1017 73 10000 4.99 23 13:57 21.10.2021
5771 Clouds 21 1015 77 10000 5.22 23 11:49 21.10.2021
5772 Clouds 22 1014 76 10000 6.06 25 09:33 21.10.2021
5773 Clouds 22 1014 78 10000 6.72 28 07:46 21.10.2021
5774 Clouds 21 1015 80 10000 7.25 30 06:35 21.10.2021
5775 Clouds 25 1012 95 10000 1.37 138 00:35 21.10.2021
5776 Clouds 25 1011 95 10000 1.92 144 22:29 20.10.2021
5777 Clouds 25 1011 95 10000 1.92 144 21:47 20.10.2021
5778 Clouds 25 1012 95 10000 2.21 147 20:58 20.10.2021
5779 Clouds 25 1012 95 10000 2.21 147 20:38 20.10.2021
5780 Clouds 25 1012 94 10000 2.58 149 20:18 20.10.2021
5781 Clouds 25 1012 94 10000 2.75 151 19:19 20.10.2021
5782 Clouds 26 1013 93 10000 2.94 150 18:29 20.10.2021
5783 Clouds 26 1012 90 10000 3.91 148 16:27 20.10.2021
5784 Clouds 29 1011 83 10000 4.5 149 13:46 20.10.2021
5785 Clouds 30 1009 60 10000 5.03 163 09:52 20.10.2021
5786 Clouds 27 1014 73 10000 3.17 169 05:29 20.10.2021
5787 Clouds 22 1014 95 10000 0.66 136 01:27 20.10.2021
5788 Clouds 22 1013 94 10000 0.85 127 00:32 20.10.2021
5789 Clouds 22 1013 93 10000 1.17 129 22:28 19.10.2021
5790 Clouds 23 1013 93 10000 1.17 129 21:33 19.10.2021
5791 Clouds 23 1014 92 10000 1.5 133 20:26 19.10.2021
5792 Clouds 23 1014 92 10000 1.5 133 19:50 19.10.2021
5793 Clouds 23 1015 91 10000 1.69 135 19:29 19.10.2021
5794 Clouds 22 1016 90 10000 1.79 141 18:23 19.10.2021
5795 Clouds 23 1016 89 10000 1.91 156 16:25 19.10.2021
5796 Clouds 23 1016 89 10000 1.86 163 15:25 19.10.2021
5797 Clouds 23 1016 89 10000 1.86 163 14:31 19.10.2021
5798 Clouds 23 1015 90 10000 2.32 164 13:49 19.10.2021
5799 Clouds 24 1014 83 10000 2.76 156 11:37 19.10.2021
5800 Clouds 24 1014 77 10000 2.95 152 10:51 19.10.2021
5801 Clouds 24 1014 76 10000 2.08 151 09:35 19.10.2021
5802 Clouds 24 1015 79 10000 0.66 173 08:53 19.10.2021
5803 Clouds 20 1017 90 10000 2.9 315 00:28 19.10.2021
5804 Clouds 20 1017 90 10000 2.9 315 23:56 18.10.2021
5805 Clouds 20 1017 90 10000 2.88 322 23:21 18.10.2021
5806 Clouds 20 1017 90 10000 2.88 322 22:55 18.10.2021
5807 Clouds 20 1017 89 10000 2.58 320 21:58 18.10.2021
5808 Clouds 20 1017 89 10000 2.58 320 21:58 18.10.2021
5809 Clouds 20 1017 89 10000 2.74 322 20:46 18.10.2021
5810 Clouds 20 1018 88 10000 2.68 322 20:21 18.10.2021
5811 Clouds 20 1018 90 10000 2.47 328 19:31 18.10.2021
5812 Clouds 20 1018 90 10000 2.44 329 18:58 18.10.2021
5813 Clouds 20 1019 90 10000 2.22 333 16:30 18.10.2021
5814 Clouds 19 1019 91 10000 1.91 333 14:41 18.10.2021
5815 Clouds 19 1017 89 10000 1.95 321 11:47 18.10.2021
5816 Clouds 19 1016 88 10000 2.87 342 09:47 18.10.2021
5817 Clouds 19 1018 87 10000 3.39 331 06:39 18.10.2021
5818 Clouds 18 1017 85 10000 2.9 347 23:52 17.10.2021
5819 Clouds 20 1017 79 10000 3 335 22:23 17.10.2021
5820 Clouds 20 1017 79 10000 3 335 21:42 17.10.2021
5821 Clouds 21 1018 75 10000 3.78 336 20:49 17.10.2021
5822 Clouds 20 1018 76 10000 4.77 350 19:56 17.10.2021
5823 Clouds 20 1018 76 10000 4.77 350 19:37 17.10.2021
5824 Clouds 20 1019 72 10000 4.87 13 18:28 17.10.2021
5825 Clouds 20 1020 70 10000 3.98 22 15:57 17.10.2021
5826 Clouds 22 1019 70 10000 4.26 10 14:38 17.10.2021
5827 Clouds 22 1018 70 10000 4.48 15 13:56 17.10.2021
5828 Clouds 22 1018 70 10000 4.48 15 13:30 17.10.2021
5829 Clouds 23 1017 69 10000 4.08 14 11:27 17.10.2021
5830 Clouds 22 1017 68 10000 3.76 5 09:56 17.10.2021
5831 Clouds 23 1018 62 10000 4.65 0 07:42 17.10.2021
5832 Clouds 20 1022 70 10000 5.5 3 02:35 17.10.2021
5833 Clouds 20 1020 79 10000 4.76 8 00:29 17.10.2021
5834 Clouds 20 1020 77 10000 5.11 9 22:40 16.10.2021
5835 Clouds 20 1020 77 10000 5.3 13 20:36 16.10.2021
5836 Clouds 20 1021 78 10000 5.04 15 19:58 16.10.2021
5837 Clouds 20 1021 78 10000 5.04 15 19:39 16.10.2021
5838 Clouds 20 1021 80 10000 5.07 9 19:18 16.10.2021
5839 Clouds 20 1021 80 10000 5.07 9 18:43 16.10.2021
5840 Clouds 20 1021 80 10000 5.69 7 18:22 16.10.2021
5841 Clouds 19 1021 80 10000 5.69 7 17:30 16.10.2021
5842 Clouds 20 1021 80 10000 5.87 11 15:40 16.10.2021
5843 Clouds 20 1018 79 10000 5.77 20 12:45 16.10.2021
5844 Clouds 20 1016 78 10000 5.94 13 10:57 16.10.2021
5845 Clouds 21 1016 84 10000 4.94 17 08:56 16.10.2021
5846 Clouds 22 1015 83 10000 5.46 13 01:36 16.10.2021
5847 Clouds 22 1013 85 10000 4.83 3 00:29 16.10.2021
5848 Clouds 22 1013 88 10000 4.27 351 23:25 15.10.2021
5849 Clouds 21 1012 90 10000 4.34 340 22:20 15.10.2021
5850 Clouds 21 1012 90 10000 4.34 340 21:37 15.10.2021
5851 Clouds 21 1012 91 10000 4.49 332 20:52 15.10.2021
5852 Rain 21 1013 94 10000 4.49 327 20:18 15.10.2021
5853 Rain 21 1013 94 10000 4.15 322 18:45 15.10.2021
5854 Clouds 21 1013 93 10000 4.71 322 17:59 15.10.2021
5855 Clouds 21 1014 96 10000 4.69 316 15:45 15.10.2021
5856 Clouds 21 1012 97 3735 4.24 325 13:39 15.10.2021
5857 Clouds 22 1011 96 6400 4.16 328 11:46 15.10.2021
5858 Rain 22 1010 95 10000 4.6 335 10:58 15.10.2021
5859 Clouds 22 1010 96 10000 4.47 333 10:19 15.10.2021
5860 Rain 22 1011 94 10000 4.87 341 06:57 15.10.2021
5861 Clouds 21 1011 95 10000 4.4 332 02:31 15.10.2021
5862 Clouds 21 1009 96 10000 4.37 325 00:22 15.10.2021
5863 Clouds 21 1009 96 10000 4.34 323 22:52 14.10.2021
5864 Clouds 21 1009 96 7873 3.91 314 21:46 14.10.2021
5865 Clouds 21 1008 96 6964 3.67 317 20:55 14.10.2021
5866 Clouds 21 1010 92 10000 4.35 345 20:19 14.10.2021
5867 Clouds 22 1010 92 10000 4.35 345 19:40 14.10.2021
5868 Clouds 22 1011 89 10000 4.79 8 17:39 14.10.2021
5869 Clouds 22 1011 89 10000 4.79 8 17:39 14.10.2021
5870 Clouds 22 1011 87 10000 5.48 16 16:56 14.10.2021
5871 Clouds 22 1011 85 10000 6.48 22 16:21 14.10.2021
5872 Clouds 21 1009 84 10000 7.53 22 14:44 14.10.2021
5873 Clouds 21 1008 83 10000 8.33 19 14:24 14.10.2021
5874 Clouds 22 1005 81 10000 8.89 18 11:56 14.10.2021
5875 Clouds 23 1005 82 10000 9.19 14 10:43 14.10.2021
5876 Clouds 22 1005 83 10000 8.07 9 07:37 14.10.2021
5877 Clouds 22 1006 85 10000 7.59 355 02:41 14.10.2021
5878 Clouds 22 1004 83 10000 7.32 353 00:31 14.10.2021
5879 Clouds 23 1004 87 10000 6.82 349 22:32 13.10.2021
5880 Clouds 24 1003 89 10000 6.45 346 21:34 13.10.2021
5881 Rain 25 1003 87 4079 7.85 344 20:22 13.10.2021
5882 Rain 25 1004 84 10000 7.8 339 18:59 13.10.2021
5883 Rain 25 1004 84 10000 7.8 339 18:36 13.10.2021
5884 Rain 23 1006 94 10000 5.83 332 15:32 13.10.2021
5885 Clouds 23 1006 94 10000 5.83 332 14:46 13.10.2021
5886 Rain 23 1005 93 10000 5.63 332 14:22 13.10.2021
5887 Clouds 23 1003 92 9911 4.87 339 12:22 13.10.2021
5888 Rain 24 1003 92 9911 4.87 339 11:35 13.10.2021
5889 Rain 26 1004 86 10000 3.95 350 08:48 13.10.2021
5890 Clouds 26 1004 74 10000 3.71 351 07:36 13.10.2021
5891 Clouds 24 1008 76 10000 3.86 339 02:29 13.10.2021
5892 Clouds 24 1007 75 10000 3.88 344 01:46 13.10.2021
5893 Clouds 23 1006 77 10000 3.68 336 23:31 12.10.2021
5894 Clouds 24 1006 77 10000 3.69 347 22:47 12.10.2021
5895 Clouds 23 1007 74 10000 3.56 347 21:52 12.10.2021
5896 Clouds 23 1007 69 10000 3.6 352 20:41 12.10.2021
5897 Clouds 23 1008 70 10000 3.5 7 20:18 12.10.2021
5898 Clouds 23 1008 68 10000 3.38 15 18:45 12.10.2021
5899 Clouds 24 1009 66 10000 3.68 15 17:57 12.10.2021
5900 Clouds 23 1008 65 10000 4.7 22 16:39 12.10.2021
5901 Clouds 24 1008 66 10000 5.09 36 15:58 12.10.2021
5902 Clouds 25 1008 67 10000 4.95 42 14:46 12.10.2021
5903 Clouds 25 1007 68 10000 4.65 43 13:44 12.10.2021
5904 Clouds 27 1007 67 10000 4.44 49 12:39 12.10.2021
5905 Clouds 29 1005 52 10000 5.47 19 09:59 12.10.2021
5906 Clouds 29 1006 50 10000 5.99 11 08:44 12.10.2021
5907 Clouds 27 1008 53 10000 5.8 7 07:36 12.10.2021
5908 Clouds 25 1010 57 10000 5.82 6 05:31 12.10.2021
5909 Clouds 26 1011 62 10000 5.25 14 04:32 12.10.2021
5910 Clouds 22 1009 87 10000 2.31 7 00:28 12.10.2021
5911 Clouds 23 1009 87 10000 2.31 7 23:40 11.10.2021
5912 Clouds 23 1009 87 10000 2.61 3 22:57 11.10.2021
5913 Clouds 24 1009 87 10000 2.76 358 21:46 11.10.2021
5914 Clouds 24 1010 87 10000 2.91 351 20:47 11.10.2021
5915 Clouds 24 1010 91 10000 3.07 329 19:45 11.10.2021
5916 Clouds 24 1011 91 10000 3.18 330 18:42 11.10.2021
5917 Clouds 24 1012 90 10000 3.07 331 17:49 11.10.2021
5918 Clouds 24 1012 90 10000 2.98 325 16:39 11.10.2021
5919 Clouds 24 1012 89 10000 3.04 331 15:50 11.10.2021
5920 Clouds 24 1011 89 10000 3.22 340 14:55 11.10.2021
5921 Clouds 24 1011 89 10000 3.22 340 14:30 11.10.2021
5922 Clouds 24 1010 94 10000 3.69 336 13:36 11.10.2021
5923 Clouds 23 1008 94 5904 4.57 349 11:39 11.10.2021
5924 Rain 23 1008 96 5829 4.87 349 10:31 11.10.2021
5925 Rain 23 1008 95 10000 4.77 348 10:31 11.10.2021
5926 Rain 24 1008 96 3600 4.27 341 09:19 11.10.2021
5927 Rain 23 1010 86 10000 6.61 9 04:55 11.10.2021
5928 Rain 23 1008 92 10000 6.35 20 01:37 11.10.2021
5929 Clouds 23 1007 93 10000 5.97 25 00:45 11.10.2021
5930 Rain 23 1006 95 10000 5.28 30 23:57 10.10.2021
5931 Rain 24 1005 94 9141 5.15 38 21:51 10.10.2021
5932 Clouds 24 1004 93 6967 5.47 33 21:29 10.10.2021
5933 Clouds 24 1004 93 6967 5.47 33 20:42 10.10.2021
5934 Clouds 24 1005 93 5428 6.12 26 20:21 10.10.2021
5935 Clouds 24 1005 93 5428 6.12 26 19:53 10.10.2021
5936 Clouds 24 1005 93 5428 6.12 26 19:34 10.10.2021
5937 Rain 24 1005 92 10000 6.21 18 18:32 10.10.2021
5938 Rain 24 1005 93 9954 6.08 350 15:59 10.10.2021
5939 Clouds 24 1005 93 9954 6.08 350 15:40 10.10.2021
5940 Clouds 24 1003 95 6339 6.65 341 13:42 10.10.2021
5941 Clouds 24 1002 96 3439 6.94 331 12:48 10.10.2021
5942 Clouds 24 1002 96 3439 6.94 331 12:30 10.10.2021
5943 Rain 24 1001 97 2466 6.93 322 10:42 10.10.2021
5944 Rain 24 1000 96 2002 7.74 318 09:29 10.10.2021
5945 Rain 24 1000 96 2002 7.74 318 08:52 10.10.2021
5946 Rain 25 1002 96 3387 7.55 301 06:36 10.10.2021
5947 Rain 23 1003 96 5684 6.23 308 02:29 10.10.2021
5948 Rain 23 1002 94 5951 6.59 308 00:55 10.10.2021
5949 Rain 23 1002 95 10000 6.64 306 23:52 09.10.2021
5950 Rain 23 1002 95 10000 6.64 306 23:52 09.10.2021
5951 Rain 23 1002 96 10000 6.51 305 22:39 09.10.2021
5952 Rain 24 1002 95 5606 6.53 310 21:31 09.10.2021
5953 Rain 24 1003 96 6928 6.37 310 20:59 09.10.2021
5954 Rain 24 1003 96 6928 6.37 310 20:59 09.10.2021
5955 Rain 24 1004 96 5834 5.2 313 19:42 09.10.2021
5956 Rain 23 1005 95 5540 4.84 323 18:57 09.10.2021
5957 Rain 23 1005 94 10000 4.6 325 18:27 09.10.2021
5958 Rain 24 1006 93 10000 4.17 318 16:28 09.10.2021
5959 Rain 24 1005 94 10000 4.52 313 14:57 09.10.2021
5960 Rain 24 1004 92 10000 4.03 322 13:40 09.10.2021
5961 Rain 25 1004 92 10000 4.19 331 12:35 09.10.2021
5962 Rain 25 1003 92 10000 3.55 357 11:26 09.10.2021
5963 Rain 25 1003 90 9298 4.52 9 10:22 09.10.2021
5964 Rain 24 1003 83 10000 5.31 11 09:29 09.10.2021
5965 Rain 25 1004 70 10000 5.56 17 08:28 09.10.2021
5966 Rain 28 1005 64 10000 4.13 24 06:47 09.10.2021
5967 Clouds 29 1006 68 10000 3.44 356 05:20 09.10.2021
5968 Clouds 28 1005 74 10000 2.5 330 02:47 09.10.2021
5969 Clouds 29 1004 70 10000 3.17 332 00:43 09.10.2021
5970 Clouds 29 1004 69 10000 3.26 331 23:35 08.10.2021
5971 Clouds 28 1003 68 10000 3.45 340 22:47 08.10.2021
5972 Clouds 28 1003 67 10000 3.75 341 21:45 08.10.2021
5973 Clouds 27 1004 69 10000 3.15 354 20:30 08.10.2021
5974 Clouds 28 1005 66 10000 2.64 342 18:23 08.10.2021
5975 Clouds 29 1005 65 10000 2.42 358 17:18 08.10.2021
5976 Clouds 29 1005 65 10000 2.42 358 17:18 08.10.2021
5977 Clouds 29 1005 65 10000 2.42 358 17:18 08.10.2021
5978 Clouds 28 1005 65 10000 2.42 358 16:43 08.10.2021
5979 Clouds 29 1005 65 10000 2.65 1 16:21 08.10.2021
5980 Clouds 30 1003 61 10000 3.18 16 13:47 08.10.2021
5981 Clouds 33 1002 58 10000 3.69 26 11:56 08.10.2021
5982 Clouds 34 1002 51 10000 5.08 23 10:47 08.10.2021
5983 Clouds 34 1002 48 10000 5.85 17 09:48 08.10.2021
5984 Clouds 31 1006 49 10000 5.96 14 05:56 08.10.2021
5985 Clouds 28 1004 69 10000 3.94 338 23:26 07.10.2021
5986 Clouds 28 1004 69 10000 3.94 338 22:54 07.10.2021
5987 Clouds 27 1004 72 10000 3.73 337 21:29 07.10.2021
5988 Clouds 27 1004 69 10000 3.69 344 20:41 07.10.2021
5989 Clouds 27 1005 68 10000 3.4 349 19:34 07.10.2021
5990 Clouds 27 1005 68 10000 2.99 353 18:41 07.10.2021
5991 Clouds 27 1006 67 10000 2.62 353 17:33 07.10.2021
5992 Clouds 28 1006 65 10000 2.2 346 16:42 07.10.2021
5993 Clouds 29 1005 63 10000 1.21 349 14:55 07.10.2021
5994 Clouds 30 1004 67 10000 1.29 285 13:43 07.10.2021
5995 Clouds 31 1003 66 10000 2.05 284 12:54 07.10.2021
5996 Clouds 34 1002 54 10000 1.99 325 10:59 07.10.2021
5997 Clouds 32 1002 54 10000 1.99 325 10:40 07.10.2021
5998 Clouds 34 1002 49 10000 2.63 18 09:43 07.10.2021
5999 Clouds 33 1002 44 10000 2.96 39 08:53 07.10.2021
6000 Clouds 34 1004 43 10000 3.36 51 07:58 07.10.2021
6001 Clouds 33 1004 43 10000 3.36 51 07:38 07.10.2021
6002 Clouds 33 1005 45 10000 3.66 32 06:38 07.10.2021
6003 Clouds 26 1006 84 10000 3.29 317 00:48 07.10.2021
6004 Clouds 26 1005 81 10000 2.75 312 23:18 06.10.2021
6005 Clouds 26 1006 79 10000 2.43 311 22:24 06.10.2021
6006 Clouds 27 1006 78 10000 2.33 288 21:24 06.10.2021
6007 Clouds 27 1006 76 10000 1.49 267 20:28 06.10.2021
6008 Clouds 27 1007 75 10000 1.01 207 18:43 06.10.2021
6009 Clouds 29 1008 77 10000 2.02 183 17:19 06.10.2021
6010 Clouds 29 1008 77 10000 2.54 172 15:34 06.10.2021
6011 Clouds 30 1007 73 10000 2.84 157 14:34 06.10.2021
6012 Clouds 31 1005 68 10000 3.02 161 13:24 06.10.2021
6013 Clouds 32 1005 68 10000 3.02 161 12:45 06.10.2021
6014 Clouds 33 1004 64 10000 1.64 147 12:23 06.10.2021
6015 Clouds 34 1004 55 10000 1.06 104 10:37 06.10.2021
6016 Clouds 33 1004 50 10000 1.05 56 09:39 06.10.2021
6017 Clouds 33 1005 48 10000 1.08 56 08:57 06.10.2021
6018 Clouds 32 1006 50 10000 1.28 351 07:54 06.10.2021
6019 Clouds 30 1009 55 10000 1.64 323 05:37 06.10.2021
6020 Clouds 26 1009 83 10000 1.43 312 01:23 06.10.2021
6021 Clouds 26 1009 83 10000 1.4 305 00:20 06.10.2021
6022 Clouds 26 1009 83 10000 1.4 305 00:20 06.10.2021
6023 Clouds 26 1009 83 10000 1.4 305 23:48 05.10.2021
6024 Clouds 26 1009 82 10000 1.02 289 23:29 05.10.2021
6025 Clouds 27 1009 82 10000 1.02 289 22:30 05.10.2021
6026 Clouds 27 1009 82 10000 0.96 267 21:50 05.10.2021
6027 Clouds 27 1009 80 10000 1.02 252 20:50 05.10.2021
6028 Clouds 27 1010 81 10000 0.96 258 20:25 05.10.2021
6029 Clouds 27 1010 81 10000 0.96 258 19:50 05.10.2021
6030 Clouds 28 1011 81 10000 0.75 220 19:18 05.10.2021
6031 Clouds 28 1011 82 10000 1.76 171 16:58 05.10.2021
6032 Clouds 30 1011 80 10000 2.13 173 14:57 05.10.2021
6033 Clouds 31 1010 83 10000 3.16 156 13:42 05.10.2021
6034 Clouds 31 1009 79 10000 3.96 151 12:48 05.10.2021
6035 Clouds 31 1009 74 10000 4.43 148 12:19 05.10.2021
6036 Clouds 32 1008 71 10000 4.73 140 11:21 05.10.2021
6037 Clouds 32 1008 51 10000 2.39 72 09:27 05.10.2021
6038 Clear 31 1012 63 10000 2.08 18 05:25 05.10.2021
6039 Clouds 25 1011 87 10000 1.66 349 23:54 04.10.2021
6040 Clouds 25 1010 89 10000 0.84 10 22:38 04.10.2021
6041 Clear 25 1011 92 10000 1.5 141 20:29 04.10.2021
6042 Clear 26 1012 90 10000 2.08 144 18:34 04.10.2021
6043 Clear 26 1012 90 10000 2.08 144 18:34 04.10.2021
6044 Clear 26 1012 85 10000 2.25 129 16:34 04.10.2021
6045 Clear 26 1011 84 10000 2.62 123 15:31 04.10.2021
6046 Clear 25 1011 85 10000 2.85 138 14:42 04.10.2021
6047 Clouds 25 1010 84 10000 3.48 141 13:57 04.10.2021
6048 Rain 25 1009 77 10000 3.97 129 13:25 04.10.2021
6049 Rain 28 1008 67 10000 4.48 127 12:27 04.10.2021
6050 Rain 32 1008 65 10000 4.17 128 11:31 04.10.2021
6051 Clouds 32 1008 50 10000 2.73 137 10:18 04.10.2021
6052 Clouds 31 1008 51 10000 2.28 131 08:41 04.10.2021
6053 Clouds 29 1011 56 10000 2.72 103 07:26 04.10.2021
6054 Clear 26 1011 91 10000 1.55 67 00:33 04.10.2021
6055 Clear 26 1010 88 10000 1.25 94 22:37 03.10.2021
6056 Clear 26 1010 87 10000 1.2 129 21:39 03.10.2021
6057 Clear 26 1010 86 10000 1.55 158 21:19 03.10.2021
6058 Clear 26 1010 85 10000 2.02 163 19:58 03.10.2021
6059 Clear 27 1011 84 10000 2.24 162 18:56 03.10.2021
6060 Clear 27 1011 83 10000 2.58 163 18:27 03.10.2021
6061 Clear 28 1011 82 10000 3.07 160 17:24 03.10.2021
6062 Clear 29 1010 78 10000 3.74 149 14:46 03.10.2021
6063 Clouds 29 1009 76 10000 4.17 148 14:18 03.10.2021
6064 Clouds 30 1009 76 10000 4.17 148 13:34 03.10.2021
6065 Clouds 31 1007 64 10000 5 140 12:29 03.10.2021
6066 Clouds 33 1007 53 10000 4.59 143 10:37 03.10.2021
6067 Clouds 32 1007 46 10000 4.02 155 08:43 03.10.2021
6068 Clouds 25 1010 83 10000 2.14 161 01:44 03.10.2021
6069 Clouds 25 1009 87 10000 2.15 156 22:40 02.10.2021
6070 Clouds 25 1009 86 10000 2.68 153 20:56 02.10.2021
6071 Clouds 25 1009 83 10000 2.77 150 19:42 02.10.2021
6072 Clouds 26 1010 82 10000 2.77 158 18:52 02.10.2021
6073 Clouds 26 1010 81 10000 3.08 161 17:54 02.10.2021
6074 Clouds 25 1010 80 10000 3.18 157 17:21 02.10.2021
6075 Clouds 25 1009 77 10000 3.6 158 14:58 02.10.2021
6076 Rain 29 1009 81 10000 2.86 152 16:34 30.09.2021
6077 Clear 30 1008 79 10000 3.45 156 14:57 30.09.2021
6078 Clouds 32 1006 69 10000 3.79 145 12:56 30.09.2021
6079 Clouds 33 1005 61 10000 2.88 143 11:35 30.09.2021
6080 Clear 33 1005 50 10000 2.63 149 10:41 30.09.2021
6081 Clear 33 1006 48 10000 1.86 146 08:56 30.09.2021
6082 Clear 33 1007 51 10000 1.82 156 08:27 30.09.2021
6083 Clear 32 1008 53 10000 1.86 163 06:41 30.09.2021
6084 Clear 30 1010 63 10000 2.13 160 04:36 30.09.2021
6085 Clouds 26 1009 89 10000 1.4 123 00:46 30.09.2021
6086 Clouds 26 1008 88 10000 1.67 129 23:30 29.09.2021
6087 Clear 26 1007 85 10000 2.02 133 21:55 29.09.2021
6088 Clear 27 1008 84 10000 2.19 139 20:57 29.09.2021
6089 Clouds 27 1008 82 10000 2.38 145 20:23 29.09.2021
6090 Clouds 27 1008 82 10000 2.38 145 19:38 29.09.2021
6091 Rain 28 1009 81 10000 2.67 155 18:22 29.09.2021
6092 Rain 29 1009 80 10000 2.93 160 16:56 29.09.2021
6093 Rain 29 1009 80 10000 2.93 160 16:32 29.09.2021
6094 Rain 30 1009 79 10000 3.33 162 15:45 29.09.2021
6095 Rain 30 1009 79 10000 3.33 162 15:45 29.09.2021
6096 Clouds 31 1008 75 10000 3.54 157 14:38 29.09.2021
6097 Clouds 32 1007 71 10000 3.5 150 13:36 29.09.2021
6098 Clouds 33 1006 66 10000 2.59 151 12:41 29.09.2021
6099 Clouds 34 1005 55 10000 1.52 157 11:26 29.09.2021
6100 Clouds 33 1005 55 10000 1.52 157 10:34 29.09.2021
6101 Clouds 33 1005 52 10000 1.4 148 09:44 29.09.2021
6102 Clouds 33 1006 51 10000 1.21 136 08:44 29.09.2021
6103 Clear 32 1009 55 10000 0.63 165 06:53 29.09.2021
6104 Clear 26 1009 87 10000 0.41 100 00:51 29.09.2021
6105 Clear 26 1008 85 10000 0.97 127 23:20 28.09.2021
6106 Clear 26 1009 85 10000 1.31 142 22:22 28.09.2021
6107 Clear 26 1009 85 10000 1.62 148 21:24 28.09.2021
6108 Clear 27 1009 85 10000 1.92 149 20:24 28.09.2021
6109 Clear 27 1009 87 10000 1.78 149 19:40 28.09.2021
6110 Clear 28 1010 86 10000 2.03 149 18:44 28.09.2021
6111 Clear 29 1010 85 10000 2.23 155 17:30 28.09.2021
6112 Clear 31 1009 80 10000 3.08 150 15:21 28.09.2021
6113 Clear 31 1007 67 10000 1.86 153 13:28 28.09.2021
6114 Clear 33 1006 62 10000 1.38 161 12:27 28.09.2021
6115 Clear 33 1006 62 10000 1.38 161 11:55 28.09.2021
6116 Clear 33 1006 62 10000 1.38 161 11:35 28.09.2021
6117 Clear 33 1006 52 10000 1.46 173 10:33 28.09.2021
6118 Clear 33 1006 50 10000 1.29 189 09:33 28.09.2021
6119 Clear 33 1007 51 10000 1.1 199 08:44 28.09.2021
6120 Clouds 33 1008 53 10000 0.74 187 08:25 28.09.2021
6121 Clouds 31 1010 56 10000 0.49 261 06:46 28.09.2021
6122 Clouds 29 1012 69 10000 1.41 316 04:39 28.09.2021
6123 Clouds 25 1010 91 10000 0.62 330 00:51 28.09.2021
6124 Clouds 25 1010 90 10000 0.1 25 23:52 27.09.2021
6125 Clouds 25 1010 89 10000 0.35 122 23:27 27.09.2021
6126 Clouds 25 1010 89 10000 0.35 122 22:44 27.09.2021
6127 Clouds 26 1010 89 10000 0.71 136 21:39 27.09.2021
6128 Clouds 26 1010 88 10000 0.95 154 20:33 27.09.2021
6129 Clear 26 1010 88 10000 1.33 153 19:40 27.09.2021
6130 Clear 27 1011 87 10000 1.57 167 18:55 27.09.2021
6131 Clear 27 1011 86 10000 2.01 165 17:41 27.09.2021
6132 Clear 27 1011 85 10000 2.22 159 17:21 27.09.2021
6133 Clear 28 1011 85 10000 2.22 159 16:37 27.09.2021
6134 Clear 28 1011 83 10000 2.2 155 15:40 27.09.2021
6135 Clouds 29 1009 79 10000 2.29 173 13:58 27.09.2021
6136 Clouds 31 1009 77 10000 2.36 178 12:53 27.09.2021
6137 Clouds 32 1008 63 10000 2.7 185 10:51 27.09.2021
6138 Clouds 32 1008 59 10000 2.44 184 09:46 27.09.2021
6139 Clouds 30 1009 56 10000 1.2 138 08:26 27.09.2021
6140 Rain 27 1013 69 10000 1.74 269 05:18 27.09.2021
6141 Clouds 24 1011 91 10000 1.66 317 00:39 27.09.2021
6142 Rain 24 1010 89 10000 1.79 301 22:27 26.09.2021
6143 Clouds 24 1010 89 10000 1.79 301 21:31 26.09.2021
6144 Clouds 24 1011 88 10000 1.61 290 20:38 26.09.2021
6145 Clouds 24 1011 87 10000 1.53 280 19:59 26.09.2021
6146 Clouds 24 1011 87 10000 1.53 280 19:35 26.09.2021
6147 Clouds 24 1012 87 10000 1.39 244 18:45 26.09.2021
6148 Clouds 24 1012 88 10000 1.36 220 17:49 26.09.2021
6149 Clouds 25 1012 88 10000 1.62 209 17:20 26.09.2021
6150 Clouds 25 1012 87 10000 1.73 203 16:28 26.09.2021
6151 Clouds 25 1012 87 10000 1.73 203 15:56 26.09.2021
6152 Clouds 25 1010 87 10000 2.2 170 14:26 26.09.2021
6153 Clouds 25 1010 87 10000 2.2 170 13:44 26.09.2021
6154 Clouds 26 1009 84 10000 2.39 156 12:31 26.09.2021
6155 Clouds 26 1009 84 10000 2.39 156 12:31 26.09.2021
6156 Clouds 26 1009 80 10000 3.35 132 11:56 26.09.2021
6157 Clouds 27 1009 80 10000 3.35 132 11:33 26.09.2021
6158 Rain 30 1009 63 10000 3.2 116 09:52 26.09.2021
6159 Rain 32 1009 62 10000 2.98 109 08:52 26.09.2021
6160 Rain 24 1012 95 10000 2.52 323 01:28 26.09.2021
6161 Clouds 24 1011 95 10000 2.17 320 00:20 26.09.2021
6162 Rain 25 1011 95 10000 2.08 325 22:40 25.09.2021
6163 Clouds 25 1011 95 10000 1.75 336 22:20 25.09.2021
6164 Rain 25 1011 95 10000 1.75 336 21:47 25.09.2021
6165 Rain 25 1011 95 10000 1.16 348 20:53 25.09.2021
6166 Clouds 25 1012 95 10000 0.66 49 19:53 25.09.2021
6167 Clouds 25 1012 94 9595 0.16 103 18:31 25.09.2021
6168 Clouds 25 1012 94 10000 0.66 141 17:46 25.09.2021
6169 Rain 25 1011 92 7527 1.74 163 14:46 25.09.2021
6170 Clouds 25 1010 89 10000 1.78 146 13:55 25.09.2021
6171 Clouds 27 1009 88 10000 2.51 136 12:46 25.09.2021
6172 Clouds 27 1009 76 10000 3.29 131 11:29 25.09.2021
6173 Rain 30 1009 73 10000 2.93 122 10:21 25.09.2021
6174 Rain 32 1009 71 10000 2.27 121 09:24 25.09.2021
6175 Clouds 30 1010 71 10000 2.49 41 07:49 25.09.2021
6176 Rain 23 1011 92 10000 1.74 347 00:56 25.09.2021
6177 Rain 25 1010 92 10000 2.03 334 23:25 24.09.2021
6178 Rain 25 1011 91 10000 2.13 338 21:34 24.09.2021
6179 Rain 25 1011 91 10000 1.92 339 20:32 24.09.2021
6180 Rain 25 1012 93 10000 2.08 335 19:32 24.09.2021
6181 Rain 25 1012 93 10000 2.08 335 19:32 24.09.2021
6182 Rain 26 1012 93 10000 2.13 328 18:21 24.09.2021
6183 Rain 26 1012 93 10000 2.13 328 17:53 24.09.2021
6184 Rain 26 1012 93 10000 2.13 328 17:34 24.09.2021
6185 Rain 26 1012 93 10000 2.08 304 15:50 24.09.2021
6186 Rain 27 1010 91 9442 1.09 243 13:27 24.09.2021
6187 Rain 27 1010 91 9442 1.09 243 12:43 24.09.2021
6188 Rain 28 1010 92 7847 1.44 209 12:25 24.09.2021
6189 Rain 28 1009 92 10000 1.86 201 10:56 24.09.2021
6190 Rain 28 1010 91 10000 2.17 199 09:55 24.09.2021
6191 Rain 28 1011 89 4986 2.18 175 08:21 24.09.2021
6192 Rain 27 1011 79 4419 1.95 117 06:59 24.09.2021
6193 Rain 27 1012 73 5550 2.4 78 05:57 24.09.2021
6194 Rain 25 1012 84 10000 2.46 352 03:56 24.09.2021
6195 Clouds 25 1010 95 7523 2.01 336 22:37 23.09.2021
6196 Clouds 25 1010 94 10000 1.75 334 21:59 23.09.2021
6197 Clouds 25 1010 94 10000 1.75 334 21:59 23.09.2021
6198 Clouds 25 1011 92 10000 1.35 344 20:54 23.09.2021
6199 Clouds 25 1011 92 10000 1.35 344 20:31 23.09.2021
6200 Clouds 27 1012 92 10000 0.23 88 18:32 23.09.2021
6201 Clouds 26 1013 91 10000 1.53 164 16:39 23.09.2021
6202 Clouds 26 1012 89 10000 2.54 144 15:19 23.09.2021
6203 Clouds 26 1011 89 10000 2.89 145 14:25 23.09.2021
6204 Clouds 28 1009 84 10000 3.29 144 13:27 23.09.2021
6205 Clouds 30 1009 84 10000 3.29 144 12:55 23.09.2021
6206 Clouds 30 1009 76 10000 3.96 137 12:26 23.09.2021
6207 Rain 31 1009 76 10000 3.96 137 11:57 23.09.2021
6208 Clouds 31 1008 65 10000 3.3 128 10:30 23.09.2021
6209 Clouds 31 1008 60 10000 2.26 121 09:54 23.09.2021
6210 Clouds 30 1008 62 10000 2.29 115 08:55 23.09.2021
6211 Rain 30 1012 70 10000 1.84 357 05:29 23.09.2021
6212 Clouds 25 1010 94 10000 1.49 50 23:48 22.09.2021
6213 Clouds 25 1009 93 10000 1.57 52 22:50 22.09.2021
6214 Clouds 25 1009 93 10000 1.49 61 22:18 22.09.2021
6215 Clouds 26 1009 93 10000 1.49 61 21:42 22.09.2021
6216 Clouds 26 1009 92 10000 1.22 58 20:57 22.09.2021
6217 Clouds 26 1010 90 10000 0.88 82 19:34 22.09.2021
6218 Clouds 27 1011 89 10000 1.07 118 18:47 22.09.2021
6219 Clouds 27 1011 89 10000 1.29 141 18:23 22.09.2021
6220 Clouds 25 1011 87 10000 1.35 144 16:57 22.09.2021
6221 Clouds 26 1011 86 10000 1.51 143 15:38 22.09.2021
6222 Clouds 27 1009 79 10000 1.95 114 14:25 22.09.2021
6223 Clouds 28 1007 72 10000 2.7 113 12:22 22.09.2021
6224 Rain 29 1006 64 10000 3.15 96 10:59 22.09.2021
6225 Clouds 29 1007 63 10000 2.42 85 09:29 22.09.2021
6226 Clouds 29 1007 63 10000 2.42 85 08:35 22.09.2021
6227 Rain 31 1008 73 10000 1.58 90 07:30 22.09.2021
6228 Rain 32 1011 84 10000 2.64 153 06:19 22.09.2021
6229 Clouds 31 1011 84 10000 2.64 153 05:42 22.09.2021
6230 Clouds 29 1011 75 10000 2.22 133 03:58 22.09.2021
6231 Clouds 28 1011 78 10000 0.96 70 02:55 22.09.2021
6232 Clouds 26 1008 87 10000 0.71 43 23:31 21.09.2021
6233 Clouds 26 1007 86 10000 0.9 148 21:47 21.09.2021
6234 Clouds 26 1008 86 10000 1.64 158 20:27 21.09.2021
6235 Clouds 28 1009 84 10000 2.08 159 19:24 21.09.2021
6236 Clear 26 1009 84 10000 2.33 163 17:59 21.09.2021
6237 Clear 30 1009 82 10000 2.56 164 16:40 21.09.2021
6238 Clear 29 1009 81 10000 2.72 154 15:56 21.09.2021
6239 Clear 29 1008 79 10000 2.91 145 14:58 21.09.2021
6240 Clouds 30 1007 74 10000 2.62 172 13:57 21.09.2021
6241 Clouds 31 1007 74 10000 2.62 172 13:39 21.09.2021
6242 Clouds 32 1006 69 10000 1.66 197 12:44 21.09.2021
6243 Clouds 34 1006 60 10000 0.6 266 10:39 21.09.2021
6244 Clouds 33 1007 56 10000 0.31 279 08:41 21.09.2021
6245 Clear 33 1010 59 10000 0.57 344 07:20 21.09.2021
6246 Clear 25 1011 87 10000 2.26 322 01:52 21.09.2021
6247 Clear 25 1009 91 10000 1.68 313 22:42 20.09.2021
6248 Clear 25 1009 90 10000 1.51 310 21:42 20.09.2021
6249 Clear 25 1009 89 10000 1.27 302 20:58 20.09.2021
6250 Clouds 25 1010 86 10000 1.31 273 19:40 20.09.2021
6251 Clouds 26 1011 85 10000 1.74 193 17:52 20.09.2021
6252 Clouds 26 1011 83 10000 1.89 177 16:50 20.09.2021
6253 Clouds 26 1011 81 10000 1.6 176 15:57 20.09.2021
6254 Clouds 26 1011 81 10000 1.6 176 15:33 20.09.2021
6255 Rain 26 1009 78 10000 1.65 131 14:25 20.09.2021
6256 Clouds 32 1008 73 10000 1.32 122 12:39 20.09.2021
6257 Rain 32 1007 67 10000 0.95 107 12:20 20.09.2021
6258 Clouds 33 1007 60 10000 1.07 55 10:32 20.09.2021
6259 Clouds 33 1007 61 10000 1.82 24 09:43 20.09.2021
6260 Clouds 33 1008 60 10000 1.98 20 09:20 20.09.2021
6261 Clouds 32 1008 59 10000 2.44 355 08:31 20.09.2021
6262 Clouds 27 1011 87 10000 0.75 80 02:27 20.09.2021
6263 Clouds 27 1009 92 10000 1.49 143 22:46 19.09.2021
6264 Clouds 27 1009 91 10000 1.81 149 21:45 19.09.2021
6265 Clouds 27 1009 90 10000 1.93 139 20:58 19.09.2021
6266 Clouds 27 1010 86 10000 1.95 139 19:41 19.09.2021
6267 Clouds 28 1010 85 10000 2.42 149 18:32 19.09.2021
6268 Clouds 29 1011 84 10000 2.69 152 17:23 19.09.2021
6269 Clouds 26 1011 84 10000 2.69 152 16:32 19.09.2021
6270 Clouds 30 1011 82 10000 2.91 147 15:31 19.09.2021
6271 Clear 30 1010 80 10000 3.15 144 14:48 19.09.2021
6272 Clouds 31 1008 77 10000 3.71 143 13:46 19.09.2021
6273 Clouds 32 1007 73 10000 3.9 146 12:52 19.09.2021
6274 Clouds 34 1006 66 10000 4.59 147 11:39 19.09.2021
6275 Clouds 34 1006 59 10000 4.54 153 11:20 19.09.2021
6276 Clouds 34 1006 53 10000 4.72 156 09:49 19.09.2021
6277 Clouds 34 1006 51 10000 4.51 153 08:41 19.09.2021
6278 Clouds 33 1009 55 10000 3.35 157 06:43 19.09.2021
6279 Clouds 26 1009 93 10000 2.14 130 23:57 18.09.2021
6280 Clouds 26 1008 93 10000 1.99 131 22:51 18.09.2021
6281 Clouds 27 1009 91 10000 2.46 148 20:58 18.09.2021
6282 Clouds 28 1009 91 10000 2.46 148 20:38 18.09.2021
6283 Clouds 28 1010 90 10000 2.66 140 19:40 18.09.2021
6284 Clouds 28 1010 89 10000 2.87 143 19:21 18.09.2021
6285 Clouds 28 1011 88 10000 2.98 148 18:37 18.09.2021
6286 Clouds 28 1011 88 10000 2.98 148 17:45 18.09.2021
6287 Clouds 29 1010 86 10000 3.32 143 16:24 18.09.2021
6288 Clouds 31 1008 82 10000 3.53 138 13:49 18.09.2021
6289 Clouds 31 1006 78 10000 4.09 142 13:29 18.09.2021
6290 Clouds 32 1006 78 10000 4.09 142 12:49 18.09.2021
6291 Clouds 34 1006 71 10000 5.01 145 11:41 18.09.2021
6292 Clouds 34 1006 64 10000 4.94 152 10:32 18.09.2021
6293 Clouds 34 1006 64 10000 4.94 152 09:35 18.09.2021
6294 Clouds 33 1006 59 10000 5.06 160 08:59 18.09.2021
6295 Clouds 31 1009 66 10000 4.31 166 05:49 18.09.2021
6296 Clouds 25 1009 95 10000 1.47 150 00:41 18.09.2021
6297 Clouds 25 1008 94 10000 1.41 138 23:49 17.09.2021
6298 Clouds 25 1008 94 10000 1.72 132 22:38 17.09.2021
6299 Clouds 25 1008 94 10000 1.69 140 22:19 17.09.2021
6300 Clouds 25 1008 93 10000 1.71 149 20:51 17.09.2021
6301 Clouds 25 1009 93 10000 2.35 135 19:22 17.09.2021
6302 Clouds 24 1009 91 10000 2.5 134 17:21 17.09.2021
6303 Clouds 25 1008 89 10000 2.87 136 16:24 17.09.2021
6304 Clouds 29 1006 80 10000 4.14 140 13:29 17.09.2021
6305 Clouds 32 1005 68 10000 4.38 149 10:53 17.09.2021
6306 Clouds 30 1006 68 10000 3.42 143 08:46 17.09.2021
6307 Clouds 29 1008 66 10000 3.19 150 06:53 17.09.2021
6308 Clouds 26 1008 95 10000 1.27 135 01:26 17.09.2021
6309 Clouds 26 1007 93 10000 1.72 147 23:23 16.09.2021
6310 Clouds 27 1007 93 10000 1.95 146 22:25 16.09.2021
6311 Rain 27 1007 93 10000 1.95 146 21:43 16.09.2021
6312 Rain 27 1008 93 10000 2.09 141 21:22 16.09.2021
6313 Clouds 27 1009 94 10000 2.14 136 20:18 16.09.2021
6314 Clouds 27 1009 94 10000 2.14 136 20:18 16.09.2021
6315 Clouds 27 1009 93 10000 2.38 142 18:20 16.09.2021
6316 Clouds 27 1009 93 10000 2.38 142 17:32 16.09.2021
6317 Clouds 28 1009 92 10000 2.98 147 14:55 16.09.2021
6318 Clouds 29 1008 91 10000 3.2 148 13:56 16.09.2021
6319 Rain 29 1007 86 10000 3.87 152 12:49 16.09.2021
6320 Clouds 29 1007 81 10000 4.24 156 12:28 16.09.2021
6321 Clouds 31 1006 74 10000 3.87 151 11:25 16.09.2021
6322 Clouds 31 1007 72 10000 3.46 145 10:31 16.09.2021
6323 Clouds 31 1007 72 10000 3.46 145 09:53 16.09.2021
6324 Clouds 30 1007 68 10000 2.73 141 08:42 16.09.2021
6325 Clouds 29 1009 69 10000 2.85 157 07:22 16.09.2021
6326 Clouds 29 1009 69 10000 2.85 157 06:39 16.09.2021
6327 Clouds 26 1011 76 10000 2.05 157 04:34 16.09.2021
6328 Rain 26 1010 94 10000 1.48 124 01:26 16.09.2021
6329 Rain 26 1010 94 10000 1.48 124 01:26 16.09.2021
6330 Rain 26 1010 94 10000 1.15 115 23:37 15.09.2021
6331 Clouds 26 1010 94 10000 0.99 130 22:47 15.09.2021
6332 Clouds 26 1010 95 10000 1.33 143 21:44 15.09.2021
6333 Clouds 26 1010 95 10000 1.47 137 21:25 15.09.2021
6334 Clouds 27 1011 95 10000 1.73 140 19:51 15.09.2021
6335 Clouds 27 1011 94 10000 1.83 151 19:19 15.09.2021
6336 Clouds 26 1012 94 10000 2.08 158 17:49 15.09.2021
6337 Clouds 27 1012 94 10000 2.14 154 16:48 15.09.2021
6338 Clouds 27 1012 94 10000 2.22 144 15:31 15.09.2021
6339 Clouds 27 1011 93 10000 2.41 137 14:44 15.09.2021
6340 Clouds 27 1010 93 10000 2.92 140 13:51 15.09.2021
6341 Clouds 27 1010 93 10000 2.92 140 13:51 15.09.2021
6342 Clouds 28 1009 89 10000 3.08 137 13:29 15.09.2021
6343 Clouds 28 1009 89 10000 3.08 137 12:42 15.09.2021
6344 Clouds 29 1008 84 10000 2.81 127 11:51 15.09.2021
6345 Clouds 28 1008 77 10000 2.4 122 11:19 15.09.2021
6346 Clouds 28 1008 77 10000 2.4 122 10:35 15.09.2021
6347 Rain 28 1009 72 10000 1.73 98 09:23 15.09.2021
6348 Clouds 27 1010 65 10000 2.77 143 07:37 15.09.2021
6349 Rain 25 1012 82 10000 1.49 8 04:19 15.09.2021
6350 Clouds 25 1009 94 10000 1.58 318 22:38 14.09.2021
6351 Clouds 26 1010 93 10000 1.46 319 21:38 14.09.2021
6352 Clouds 26 1010 90 10000 1.45 295 20:26 14.09.2021
6353 Clouds 26 1010 88 10000 1.18 282 19:41 14.09.2021
6354 Rain 25 1011 88 10000 1.21 249 17:34 14.09.2021
6355 Clouds 26 1012 87 10000 1.12 235 16:49 14.09.2021
6356 Rain 26 1011 86 10000 0.7 132 15:25 14.09.2021
6357 Rain 25 1010 86 10000 0.87 112 14:19 14.09.2021
6358 Rain 27 1008 83 10000 1.54 140 11:50 14.09.2021
6359 Rain 26 1007 78 10000 1.96 140 10:49 14.09.2021
6360 Rain 26 1007 73 10000 2.16 132 09:50 14.09.2021
6361 Rain 25 1009 70 10000 2.39 97 08:24 14.09.2021
6362 Rain 27 1010 69 10000 2.48 85 05:38 14.09.2021
6363 Clouds 26 1008 95 10000 2.2 322 23:34 13.09.2021
6364 Rain 26 1008 96 9247 1.89 311 22:28 13.09.2021
6365 Clouds 25 1008 96 9247 1.89 311 21:56 13.09.2021
6366 Clouds 25 1008 95 10000 2.01 310 21:33 13.09.2021
6367 Clouds 26 1008 91 6048 0.67 277 19:38 13.09.2021
6368 Clouds 26 1009 90 9572 0.82 214 18:45 13.09.2021
6369 Clouds 26 1009 90 9338 1.22 179 17:38 13.09.2021
6370 Clouds 26 1008 89 10000 1.9 166 16:49 13.09.2021
6371 Rain 26 1006 87 10000 3.03 149 14:45 13.09.2021
6372 Rain 27 1003 71 10000 2.56 140 11:44 13.09.2021
6373 Rain 33 1003 63 10000 0.96 117 10:41 13.09.2021
6374 Clouds 34 1004 51 10000 1.54 74 08:23 13.09.2021
6375 Clouds 28 1004 84 10000 0.7 142 00:34 13.09.2021
6376 Clouds 28 1003 85 10000 1.4 160 22:51 12.09.2021
6377 Clouds 28 1003 85 10000 1.65 169 22:22 12.09.2021
6378 Clouds 29 1003 84 10000 1.72 163 20:53 12.09.2021
6379 Clouds 29 1004 84 10000 1.61 153 19:58 12.09.2021
6380 Clouds 29 1004 87 10000 2.11 156 19:29 12.09.2021
6381 Clouds 29 1004 87 10000 2.11 156 18:55 12.09.2021
6382 Clouds 30 1004 84 10000 2.49 141 17:18 12.09.2021
6383 Clouds 32 1003 77 10000 2.47 140 15:41 12.09.2021
6384 Clouds 33 1002 71 10000 2.21 131 14:37 12.09.2021
6385 Clouds 36 1000 65 10000 1.43 126 12:39 12.09.2021
6386 Clouds 35 1000 52 10000 1.02 57 10:21 12.09.2021
6387 Clouds 35 1000 52 10000 1.28 20 08:39 12.09.2021
6388 Clouds 31 1004 68 10000 1.12 298 04:59 12.09.2021
6389 Clouds 27 1003 90 10000 1.19 29 00:46 12.09.2021
6390 Clouds 27 1003 89 10000 1.42 147 22:29 11.09.2021
6391 Clouds 28 1003 89 10000 1.42 147 21:38 11.09.2021
6392 Clouds 28 1004 90 10000 2.1 156 19:35 11.09.2021
6393 Rain 30 1005 85 10000 2.54 165 17:56 11.09.2021
6394 Clouds 31 1005 85 10000 2.78 159 16:41 11.09.2021
6395 Clouds 32 1004 74 10000 3.13 155 14:45 11.09.2021
6396 Rain 34 1001 63 10000 0.78 208 13:22 11.09.2021
6397 Clear 35 1001 59 10000 0.57 342 11:40 11.09.2021
6398 Clouds 35 1002 50 10000 0.98 1 09:42 11.09.2021
6399 Clear 34 1005 52 10000 1.92 344 08:21 11.09.2021
6400 Clear 33 1005 52 10000 1.92 344 07:34 11.09.2021
6401 Clouds 25 1006 82 10000 2.28 307 01:23 11.09.2021
6402 Clouds 26 1006 80 10000 1.53 261 22:27 10.09.2021
6403 Clouds 26 1006 80 10000 1.53 261 21:56 10.09.2021
6404 Clouds 26 1007 79 10000 1.24 251 21:25 10.09.2021
6405 Clouds 28 1008 74 10000 0.4 341 18:43 10.09.2021
6406 Clouds 28 1008 71 10000 0.66 298 17:33 10.09.2021
6407 Clouds 30 1007 69 10000 1.71 250 15:37 10.09.2021
6408 Clouds 33 1005 65 10000 1.71 199 13:18 10.09.2021
6409 Clouds 34 1005 50 10000 1.03 315 10:21 10.09.2021
6410 Clouds 33 1007 52 10000 1.91 316 07:51 10.09.2021
6411 Clouds 28 1011 75 10000 3.54 310 04:21 10.09.2021
6412 Clear 25 1009 92 10000 1.77 314 23:24 09.09.2021
6413 Clear 26 1009 91 10000 1.67 298 21:47 09.09.2021
6414 Clear 26 1010 91 10000 1.39 271 20:47 09.09.2021
6415 Clouds 26 1010 91 10000 1.22 269 20:22 09.09.2021
6416 Clouds 27 1010 90 10000 1.16 234 18:35 09.09.2021
6417 Clouds 28 1011 89 10000 1.34 202 16:45 09.09.2021
6418 Rain 28 1010 88 10000 1.62 202 16:26 09.09.2021
6419 Clouds 28 1008 83 10000 1.8 200 13:33 09.09.2021
6420 Rain 32 1007 72 10000 1.76 193 11:50 09.09.2021
6421 Clouds 31 1007 67 10000 1.62 194 10:31 09.09.2021
6422 Clouds 32 1008 68 10000 1.59 170 08:58 09.09.2021
6423 Clouds 29 1010 66 10000 0.54 82 06:50 09.09.2021
6424 Clouds 26 1011 81 10000 1.5 296 03:44 09.09.2021
6425 Rain 24 1009 94 10000 1.94 321 22:53 08.09.2021
6426 Rain 26 1009 93 6744 1.25 279 21:39 08.09.2021
6427 Clouds 26 1009 92 10000 0.57 279 20:19 08.09.2021
6428 Clouds 26 1010 92 10000 0.97 185 19:29 08.09.2021
6429 Clouds 26 1010 92 10000 0.97 185 18:31 08.09.2021
6430 Clouds 26 1010 92 10000 0.97 185 18:30 08.09.2021
6431 Clouds 26 1010 92 10000 1.18 156 17:57 08.09.2021
6432 Clouds 27 1010 92 10000 1.63 135 16:38 08.09.2021
6433 Clouds 27 1009 91 10000 2.06 127 14:30 08.09.2021
6434 Clouds 27 1009 91 10000 2.06 127 14:30 08.09.2021
6435 Clouds 27 1009 91 10000 2.06 127 14:30 08.09.2021
6436 Clouds 27 1008 91 10000 2.28 124 14:30 08.09.2021
6437 Clouds 27 1009 91 10000 2.06 127 14:30 08.09.2021
6438 Clouds 27 1006 89 10000 2.94 127 12:54 08.09.2021
6439 Rain 30 1006 83 10000 3.77 117 12:27 08.09.2021
6440 Clouds 31 1006 83 10000 3.77 117 11:38 08.09.2021
6441 Clouds 32 1006 79 10000 4.6 116 10:42 08.09.2021
6442 Clouds 32 1006 77 8971 5.05 112 10:24 08.09.2021
6443 Clouds 26 1007 77 6346 5.22 106 08:54 08.09.2021
6444 Rain 24 1008 70 9484 3.4 87 07:38 08.09.2021
6445 Rain 28 1009 71 9291 4.01 38 05:34 08.09.2021
6446 Clouds 25 1008 95 10000 2.46 321 22:46 07.09.2021
6447 Clouds 26 1008 94 8274 2.1 332 21:59 07.09.2021
6448 Clouds 26 1009 91 10000 2.39 333 19:54 07.09.2021
6449 Clouds 26 1009 93 10000 1.76 352 18:45 07.09.2021
6450 Clouds 26 1009 91 10000 2.25 359 17:49 07.09.2021
6451 Rain 27 1010 89 10000 2.36 14 16:38 07.09.2021
6452 Clouds 26 1009 88 10000 2.51 37 15:36 07.09.2021
6453 Clouds 26 1009 85 10000 2.9 54 14:42 07.09.2021
6454 Clouds 27 1007 79 8544 3.11 59 12:41 07.09.2021
6455 Rain 27 1006 70 9751 2.81 51 11:37 07.09.2021
6456 Clouds 26 1006 58 10000 3.44 47 10:41 07.09.2021
6457 Rain 26 1007 55 10000 4.15 39 08:34 07.09.2021
6458 Rain 26 1010 63 10000 3.68 24 07:23 07.09.2021
6459 Rain 31 1010 64 10000 3.5 354 05:40 07.09.2021
6460 Clouds 28 1011 83 10000 4.3 312 02:34 07.09.2021
6461 Clouds 27 1010 94 10000 2.85 319 00:43 07.09.2021
6462 Clouds 27 1010 93 10000 2.48 326 23:34 06.09.2021
6463 Clouds 27 1009 91 10000 2.4 320 22:53 06.09.2021
6464 Clouds 27 1009 91 10000 2.4 320 22:32 06.09.2021
6465 Clouds 27 1010 88 10000 0.95 344 20:55 06.09.2021
6466 Clouds 28 1011 83 10000 1.7 115 19:23 06.09.2021
6467 Clouds 28 1011 83 10000 1.7 115 18:46 06.09.2021
6468 Clouds 28 1011 79 10000 2.03 120 18:23 06.09.2021
6469 Clouds 28 1011 74 10000 1.55 119 17:36 06.09.2021
6470 Clouds 28 1010 70 10000 0.76 150 15:49 06.09.2021
6471 Clouds 29 1008 65 10000 1.06 222 13:47 06.09.2021
6472 Clouds 32 1007 64 10000 0.65 231 12:46 06.09.2021
6473 Clouds 34 1007 51 10000 0.72 18 10:44 06.09.2021
6474 Clouds 32 1009 52 10000 0.88 354 07:59 06.09.2021
6475 Clouds 30 1012 67 10000 1.82 350 04:44 06.09.2021
6476 Clear 26 1010 92 10000 0.75 133 23:27 05.09.2021
6477 Clear 26 1010 92 10000 0.75 133 22:46 05.09.2021
6478 Clear 26 1010 92 10000 0.92 150 21:57 05.09.2021
6479 Clear 26 1010 91 10000 1.09 154 21:29 05.09.2021
6480 Clear 27 1010 92 10000 1.4 140 19:50 05.09.2021
6481 Clear 28 1011 91 10000 1.83 143 18:41 05.09.2021
6482 Clouds 27 1010 89 10000 2.01 143 17:29 05.09.2021
6483 Clouds 28 1009 88 10000 2.82 139 15:27 05.09.2021
6484 Clouds 29 1008 86 10000 2.92 138 13:54 05.09.2021
6485 Clouds 31 1006 76 10000 3.22 125 11:57 05.09.2021
6486 Clouds 31 1006 68 10000 3.37 117 10:47 05.09.2021
6487 Clouds 32 1005 64 10000 3.03 118 10:23 05.09.2021
6488 Clouds 32 1005 64 10000 3.03 118 10:23 05.09.2021
6489 Clouds 31 1006 65 10000 3.33 130 09:21 05.09.2021
6490 Clouds 32 1007 62 10000 3.56 135 07:31 05.09.2021
6491 Clear 27 1008 95 10000 1.58 69 00:46 05.09.2021
6492 Clear 27 1007 96 10000 1.84 71 00:21 05.09.2021
6493 Clear 27 1006 96 10000 1.98 83 23:29 04.09.2021
6494 Clear 27 1006 96 10000 1.98 83 22:35 04.09.2021
6495 Clear 27 1006 95 10000 2.03 82 21:44 04.09.2021
6496 Clouds 28 1007 94 10000 1.87 104 19:40 04.09.2021
6497 Clouds 29 1007 92 10000 1.95 125 17:43 04.09.2021
6498 Clouds 30 1007 89 10000 2.69 131 15:52 04.09.2021
6499 Clouds 30 1003 74 10000 3.64 138 11:54 04.09.2021
6500 Clouds 33 1003 66 10000 3.3 140 10:55 04.09.2021
6501 Rain 32 1004 66 10000 3.16 134 08:39 04.09.2021
6502 Clouds 27 1006 94 10000 1.54 57 00:50 04.09.2021
6503 Clouds 27 1005 94 10000 1.39 92 00:19 04.09.2021
6504 Clouds 27 1005 94 10000 1.59 93 23:22 03.09.2021
6505 Clouds 27 1005 93 10000 1.57 111 21:43 03.09.2021
6506 Clouds 27 1005 92 10000 1.59 138 21:24 03.09.2021
6507 Clouds 28 1005 92 10000 1.59 138 20:34 03.09.2021
6508 Clouds 28 1005 92 10000 1.88 126 19:44 03.09.2021
6509 Clouds 28 1006 91 10000 2.29 130 18:33 03.09.2021
6510 Clouds 29 1006 89 10000 2.3 135 17:32 03.09.2021
6511 Clouds 30 1006 87 10000 2.83 147 15:46 03.09.2021
6512 Clouds 31 1005 85 10000 3.76 140 14:47 03.09.2021
6513 Clouds 33 1001 63 10000 2.7 114 11:21 03.09.2021
6514 Clouds 33 1001 63 10000 2.7 114 11:21 03.09.2021
6515 Clouds 33 1002 57 10000 1.82 112 10:18 03.09.2021
6516 Clouds 32 1004 56 10000 0.3 150 08:22 03.09.2021
6517 Clouds 32 1005 58 10000 0.73 137 06:50 03.09.2021
6518 Clouds 27 1006 94 10000 0.61 27 23:58 02.09.2021
6519 Clouds 27 1006 93 10000 0.55 130 22:21 02.09.2021
6520 Clouds 28 1006 93 10000 1.22 159 20:51 02.09.2021
6521 Clouds 28 1007 88 10000 0.88 178 18:49 02.09.2021
6522 Clouds 29 1008 83 10000 0.93 156 16:39 02.09.2021
6523 Clouds 29 1008 81 10000 0.86 127 15:31 02.09.2021
6524 Clouds 30 1004 77 10000 1.18 115 13:34 02.09.2021
6525 Clouds 30 1004 71 10000 0.73 67 11:44 02.09.2021
6526 Clouds 30 1004 65 10000 1.3 359 11:18 02.09.2021
6527 Clouds 32 1005 67 10000 2.69 357 09:19 02.09.2021
6528 Clouds 30 1006 64 10000 1.21 36 07:36 02.09.2021
6529 Clouds 28 1008 64 10000 1.36 50 05:53 02.09.2021
6530 Rain 25 1010 81 10000 1.84 5 02:37 02.09.2021
6531 Rain 25 1008 85 10000 0.51 333 01:49 02.09.2021
6532 Clouds 26 1008 85 10000 0.23 121 23:41 01.09.2021
6533 Clouds 26 1007 85 10000 0.51 143 23:20 01.09.2021
6534 Clouds 26 1007 85 10000 0.9 152 22:29 01.09.2021
6535 Clouds 26 1007 85 10000 0.9 152 21:32 01.09.2021
6536 Clouds 29 1008 85 10000 1.87 158 19:37 01.09.2021
6537 Clouds 29 1009 83 10000 2.45 168 17:52 01.09.2021
6538 Clear 30 1009 81 10000 2.79 162 16:59 01.09.2021
6539 Clear 30 1009 80 10000 3.11 152 16:35 01.09.2021
6540 Clouds 32 1006 74 10000 2.98 150 13:59 01.09.2021
6541 Clouds 34 1005 60 10000 1.43 165 11:47 01.09.2021
6542 Clouds 34 1005 59 10000 0.69 146 09:49 01.09.2021
6543 Clouds 32 1007 52 10000 2.11 110 08:19 01.09.2021
6544 Clouds 32 1008 54 10000 1.35 92 06:42 01.09.2021
6545 Clouds 27 1008 90 10000 1.37 69 23:30 31.08.2021
6546 Clouds 27 1008 87 10000 0.82 112 21:57 31.08.2021
6547 Clouds 28 1009 88 10000 1.45 176 19:49 31.08.2021
6548 Clouds 28 1010 87 10000 1.91 177 18:59 31.08.2021
6549 Clouds 28 1010 86 10000 2.37 171 17:39 31.08.2021
6550 Clouds 28 1010 85 10000 2.6 160 17:21 31.08.2021
6551 Clouds 29 1010 82 10000 3.07 152 16:28 31.08.2021
6552 Clouds 30 1009 80 10000 3.27 145 14:57 31.08.2021
6553 Rain 34 1006 76 10000 3.88 136 11:41 31.08.2021
6554 Clouds 34 1006 67 10000 3.64 145 11:18 31.08.2021
6555 Clouds 34 1006 53 10000 2.01 149 10:22 31.08.2021
6556 Clouds 34 1006 53 10000 2.01 149 09:40 31.08.2021
6557 Clouds 32 1008 52 10000 2.08 115 07:39 31.08.2021
6558 Clouds 32 1010 61 10000 2.02 110 05:55 31.08.2021
6559 Clouds 26 1009 93 10000 1.3 77 23:35 30.08.2021
6560 Clouds 27 1009 92 10000 0.92 101 21:53 30.08.2021
6561 Clouds 27 1009 92 10000 0.92 101 21:35 30.08.2021
6562 Clouds 27 1010 91 10000 1.27 131 20:32 30.08.2021
6563 Clouds 28 1010 89 10000 1.66 151 19:30 30.08.2021
6564 Clouds 28 1010 88 10000 2.12 158 18:44 30.08.2021
6565 Clouds 28 1011 87 10000 2.37 155 17:47 30.08.2021
6566 Clouds 28 1010 83 10000 3.22 136 16:25 30.08.2021
6567 Clouds 29 1010 83 10000 3.22 136 15:39 30.08.2021
6568 Clouds 30 1008 79 10000 3.22 144 13:46 30.08.2021
6569 Clouds 31 1007 77 10000 2.78 155 12:40 30.08.2021
6570 Clouds 32 1007 69 10000 3.76 158 10:34 30.08.2021
6571 Clouds 26 1009 91 10000 1.17 90 23:29 29.08.2021
6572 Clouds 26 1009 90 10000 0.99 135 21:33 29.08.2021
6573 Clear 26 1010 90 10000 1.3 157 20:27 29.08.2021
6574 Clouds 27 1011 90 10000 1.5 178 19:20 29.08.2021
6575 Clouds 28 1011 90 10000 2.04 165 17:53 29.08.2021
6576 Clear 28 1011 88 10000 2.53 141 15:49 29.08.2021
6577 Clouds 29 1009 84 10000 3.17 133 14:20 29.08.2021
6578 Clouds 29 1008 85 10000 3.01 135 13:44 29.08.2021
6579 Clouds 31 1007 72 10000 3.73 125 12:32 29.08.2021
6580 Clouds 31 1007 72 10000 3.73 125 11:50 29.08.2021
6581 Clouds 33 1007 65 10000 3.58 133 11:22 29.08.2021
6582 Clouds 33 1007 65 10000 3.58 133 10:42 29.08.2021
6583 Clouds 33 1007 64 10000 3.42 136 10:23 29.08.2021
6584 Clouds 32 1008 59 10000 2.1 106 07:47 29.08.2021
6585 Clouds 25 1009 90 10000 0.67 318 00:21 29.08.2021
6586 Clouds 26 1009 89 10000 1 132 21:50 28.08.2021
6587 Clouds 25 1010 89 10000 1.25 154 19:54 28.08.2021
6588 Clouds 26 1010 91 10000 2.08 154 18:28 28.08.2021
6589 Clouds 27 1010 91 10000 2.08 154 17:48 28.08.2021
6590 Clouds 27 1010 91 10000 2.3 153 16:59 28.08.2021
6591 Clouds 25 1009 89 10000 2.81 131 15:33 28.08.2021
6592 Clouds 26 1008 88 10000 2.91 127 14:19 28.08.2021
6593 Clouds 26 1008 87 10000 2.79 132 13:43 28.08.2021
6594 Rain 31 1007 84 10000 3.08 138 12:41 28.08.2021
6595 Clouds 32 1006 78 7273 3.11 129 11:51 28.08.2021
6596 Clouds 32 1006 65 10000 3.07 126 10:29 28.08.2021
6597 Clouds 30 1007 63 10000 2.92 126 08:38 28.08.2021
6598 Clouds 30 1010 79 10000 0.37 33 06:23 28.08.2021
6599 Rain 27 1008 91 10000 0.77 135 22:28 27.08.2021
6600 Clouds 27 1009 91 10000 1.11 142 20:56 27.08.2021
6601 Clouds 27 1009 91 10000 1.37 156 20:19 27.08.2021
6602 Clouds 27 1010 90 10000 1.83 150 18:46 27.08.2021
6603 Clouds 27 1010 89 10000 2.03 159 18:28 27.08.2021
6604 Clouds 27 1010 90 10000 2.35 157 16:49 27.08.2021
6605 Clouds 28 1009 88 10000 2.74 130 15:21 27.08.2021
6606 Clouds 28 1009 88 10000 2.74 130 14:38 27.08.2021
6607 Clouds 30 1007 76 10000 2.9 137 12:28 27.08.2021
6608 Clouds 31 1007 68 10000 2.97 132 11:24 27.08.2021
6609 Rain 31 1007 68 10000 2.97 132 10:41 27.08.2021
6610 Clouds 31 1008 68 10000 3.14 107 09:26 27.08.2021
6611 Clouds 31 1008 68 10000 3.14 107 08:39 27.08.2021
6612 Clouds 24 1010 65 10000 2.74 108 05:52 27.08.2021
6613 Clouds 27 1009 91 10000 0.45 179 00:50 27.08.2021
6614 Clouds 27 1009 92 10000 0.73 156 00:28 27.08.2021
6615 Rain 27 1009 92 10000 1.58 161 22:28 26.08.2021
6616 Clouds 27 1009 92 10000 1.58 161 21:57 26.08.2021
6617 Clouds 27 1009 94 10000 2.1 148 19:53 26.08.2021
6618 Clouds 28 1010 92 10000 2.06 148 18:36 26.08.2021
6619 Clouds 28 1010 91 10000 1.99 162 17:26 26.08.2021
6620 Clouds 29 1010 91 10000 1.99 162 16:31 26.08.2021
6621 Clouds 29 1008 89 10000 2.55 143 14:53 26.08.2021
6622 Clouds 30 1006 84 10000 3.67 138 13:27 26.08.2021
6623 Clouds 31 1006 84 10000 3.67 138 12:47 26.08.2021
6624 Rain 32 1005 76 10000 3.78 135 11:45 26.08.2021
6625 Clouds 32 1006 69 10000